<?xml version='1.0' encoding='UTF-8'?><gpx version="1.1" creator="JPX - https://github.com/jenetics/jpx" xmlns="http://www.topografix.com/GPX/1/1"><trk><trkseg><trkpt lat="41.4250004" lon="13.1836827"><ele>15.0</ele><time>2026-03-22T08:04:37.04Z</time></trkpt><trkpt lat="41.4250751" lon="13.1837216"><ele>15.0</ele><time>2026-03-22T08:04:39.033Z</time></trkpt><trkpt lat="41.4251685" lon="13.1837811"><ele>15.0</ele><time>2026-03-22T08:04:41.039Z</time></trkpt><trkpt lat="41.4252272" lon="13.1838302"><ele>15.0</ele><time>2026-03-22T08:04:42.037Z</time></trkpt><trkpt lat="41.42528" lon="13.1838822"><ele>15.0</ele><time>2026-03-22T08:04:43.051Z</time></trkpt><trkpt lat="41.425345" lon="13.1839452"><ele>15.0</ele><time>2026-03-22T08:04:44.037Z</time></trkpt><trkpt lat="41.4254187" lon="13.184014"><ele>14.833333333333334</ele><time>2026-03-22T08:04:45.037Z</time></trkpt><trkpt lat="41.425495" lon="13.1840866"><ele>14.666666666666668</ele><time>2026-03-22T08:04:46.031Z</time></trkpt><trkpt lat="41.4255681" lon="13.1841549"><ele>14.5</ele><time>2026-03-22T08:04:47.036Z</time></trkpt><trkpt lat="41.4256335" lon="13.1842205"><ele>14.333333333333334</ele><time>2026-03-22T08:04:48.035Z</time></trkpt><trkpt lat="41.4257063" lon="13.1842929"><ele>14.166666666666668</ele><time>2026-03-22T08:04:49.036Z</time></trkpt><trkpt lat="41.4257794" lon="13.1843628"><ele>14.0</ele><time>2026-03-22T08:04:50.04Z</time></trkpt><trkpt lat="41.425854" lon="13.1844318"><ele>14.0</ele><time>2026-03-22T08:04:51.043Z</time></trkpt><trkpt lat="41.4259284" lon="13.184503"><ele>13.999999999999998</ele><time>2026-03-22T08:04:52.034Z</time></trkpt><trkpt lat="41.426011" lon="13.1845793"><ele>13.999999999999998</ele><time>2026-03-22T08:04:53.052Z</time></trkpt><trkpt lat="41.4261001" lon="13.1846589"><ele>14.0</ele><time>2026-03-22T08:04:54.059Z</time></trkpt><trkpt lat="41.4261917" lon="13.1847436"><ele>14.0</ele><time>2026-03-22T08:04:55.049Z</time></trkpt><trkpt lat="41.4262874" lon="13.1848305"><ele>13.75</ele><time>2026-03-22T08:04:56.038Z</time></trkpt><trkpt lat="41.4263861" lon="13.1849221"><ele>13.5</ele><time>2026-03-22T08:04:57.04Z</time></trkpt><trkpt lat="41.4264846" lon="13.185013"><ele>13.25</ele><time>2026-03-22T08:04:58.037Z</time></trkpt><trkpt lat="41.4265915" lon="13.1851067"><ele>13.0</ele><time>2026-03-22T08:04:59.039Z</time></trkpt><trkpt lat="41.4266933" lon="13.1852034"><ele>13.0</ele><time>2026-03-22T08:05:00.043Z</time></trkpt><trkpt lat="41.4267967" lon="13.1853007"><ele>13.0</ele><time>2026-03-22T08:05:01.039Z</time></trkpt><trkpt lat="41.4269022" lon="13.1854001"><ele>13.0</ele><time>2026-03-22T08:05:02.033Z</time></trkpt><trkpt lat="41.4270093" lon="13.1854998"><ele>13.0</ele><time>2026-03-22T08:05:03.055Z</time></trkpt><trkpt lat="41.4271205" lon="13.1856035"><ele>13.75</ele><time>2026-03-22T08:05:04.036Z</time></trkpt><trkpt lat="41.4272336" lon="13.1857103"><ele>14.5</ele><time>2026-03-22T08:05:05.037Z</time></trkpt><trkpt lat="41.4273506" lon="13.1858198"><ele>15.25</ele><time>2026-03-22T08:05:06.039Z</time></trkpt><trkpt lat="41.4274698" lon="13.1859264"><ele>16.0</ele><time>2026-03-22T08:05:07.046Z</time></trkpt><trkpt lat="41.4275869" lon="13.1860322"><ele>16.0</ele><time>2026-03-22T08:05:08.036Z</time></trkpt><trkpt lat="41.4277029" lon="13.1861426"><ele>16.0</ele><time>2026-03-22T08:05:09.041Z</time></trkpt><trkpt lat="41.4278298" lon="13.1862553"><ele>16.0</ele><time>2026-03-22T08:05:10.041Z</time></trkpt><trkpt lat="41.427951" lon="13.1863702"><ele>16.0</ele><time>2026-03-22T08:05:11.04Z</time></trkpt><trkpt lat="41.4280674" lon="13.1864775"><ele>16.666666666666664</ele><time>2026-03-22T08:05:12.035Z</time></trkpt><trkpt lat="41.4281905" lon="13.1865894"><ele>17.333333333333332</ele><time>2026-03-22T08:05:13.06Z</time></trkpt><trkpt lat="41.4283172" lon="13.1867017"><ele>18.0</ele><time>2026-03-22T08:05:14.04Z</time></trkpt><trkpt lat="41.4284439" lon="13.186816"><ele>18.0</ele><time>2026-03-22T08:05:15.043Z</time></trkpt><trkpt lat="41.4285751" lon="13.1869334"><ele>18.0</ele><time>2026-03-22T08:05:16.039Z</time></trkpt><trkpt lat="41.4287134" lon="13.1870495"><ele>18.0</ele><time>2026-03-22T08:05:17.038Z</time></trkpt><trkpt lat="41.4288506" lon="13.1871568"><ele>17.0</ele><time>2026-03-22T08:05:18.04Z</time></trkpt><trkpt lat="41.4289929" lon="13.1872784"><ele>16.0</ele><time>2026-03-22T08:05:19.045Z</time></trkpt><trkpt lat="41.4291364" lon="13.1873956"><ele>15.0</ele><time>2026-03-22T08:05:20.038Z</time></trkpt><trkpt lat="41.4292856" lon="13.1875122"><ele>15.0</ele><time>2026-03-22T08:05:21.067Z</time></trkpt><trkpt lat="41.4294334" lon="13.1876253"><ele>15.0</ele><time>2026-03-22T08:05:22.04Z</time></trkpt><trkpt lat="41.4295889" lon="13.1877292"><ele>15.0</ele><time>2026-03-22T08:05:23.04Z</time></trkpt><trkpt lat="41.4297453" lon="13.1878238"><ele>15.0</ele><time>2026-03-22T08:05:24.052Z</time></trkpt><trkpt lat="41.4299049" lon="13.1879049"><ele>15.0</ele><time>2026-03-22T08:05:25.042Z</time></trkpt><trkpt lat="41.4300687" lon="13.18798"><ele>15.0</ele><time>2026-03-22T08:05:26.065Z</time></trkpt><trkpt lat="41.4302358" lon="13.1880401"><ele>15.0</ele><time>2026-03-22T08:05:27.039Z</time></trkpt><trkpt lat="41.4304033" lon="13.1880841"><ele>15.0</ele><time>2026-03-22T08:05:28.044Z</time></trkpt><trkpt lat="41.4305772" lon="13.1881081"><ele>15.0</ele><time>2026-03-22T08:05:29.038Z</time></trkpt><trkpt lat="41.4307552" lon="13.1881295"><ele>15.0</ele><time>2026-03-22T08:05:30.044Z</time></trkpt><trkpt lat="41.4309294" lon="13.1881406"><ele>15.0</ele><time>2026-03-22T08:05:31.04Z</time></trkpt><trkpt lat="41.4311064" lon="13.1881541"><ele>15.0</ele><time>2026-03-22T08:05:32.047Z</time></trkpt><trkpt lat="41.4312792" lon="13.1881694"><ele>15.0</ele><time>2026-03-22T08:05:33.038Z</time></trkpt><trkpt lat="41.4314524" lon="13.1881888"><ele>15.0</ele><time>2026-03-22T08:05:34.046Z</time></trkpt><trkpt lat="41.4316234" lon="13.1882159"><ele>15.0</ele><time>2026-03-22T08:05:35.04Z</time></trkpt><trkpt lat="41.4317925" lon="13.1882611"><ele>15.0</ele><time>2026-03-22T08:05:36.04Z</time></trkpt><trkpt lat="41.4319602" lon="13.1883201"><ele>15.0</ele><time>2026-03-22T08:05:37.04Z</time></trkpt><trkpt lat="41.4321247" lon="13.1883971"><ele>15.0</ele><time>2026-03-22T08:05:38.044Z</time></trkpt><trkpt lat="41.4322852" lon="13.1884949"><ele>15.0</ele><time>2026-03-22T08:05:39.039Z</time></trkpt><trkpt lat="41.4324431" lon="13.1886102"><ele>15.0</ele><time>2026-03-22T08:05:40.043Z</time></trkpt><trkpt lat="41.4326004" lon="13.1887304"><ele>15.0</ele><time>2026-03-22T08:05:41.042Z</time></trkpt><trkpt lat="41.4327627" lon="13.1888652"><ele>15.0</ele><time>2026-03-22T08:05:42.045Z</time></trkpt><trkpt lat="41.4329177" lon="13.1889845"><ele>15.0</ele><time>2026-03-22T08:05:43.039Z</time></trkpt><trkpt lat="41.433077" lon="13.1891014"><ele>15.0</ele><time>2026-03-22T08:05:44.044Z</time></trkpt><trkpt lat="41.4332342" lon="13.1892175"><ele>16.0</ele><time>2026-03-22T08:05:45.038Z</time></trkpt><trkpt lat="41.4333867" lon="13.1893332"><ele>17.0</ele><time>2026-03-22T08:05:46.044Z</time></trkpt><trkpt lat="41.4335361" lon="13.1894508"><ele>18.0</ele><time>2026-03-22T08:05:47.044Z</time></trkpt><trkpt lat="41.4336846" lon="13.1895687"><ele>18.333333333333332</ele><time>2026-03-22T08:05:48.045Z</time></trkpt><trkpt lat="41.4338306" lon="13.1896793"><ele>18.666666666666664</ele><time>2026-03-22T08:05:49.039Z</time></trkpt><trkpt lat="41.4339776" lon="13.1897887"><ele>19.0</ele><time>2026-03-22T08:05:50.044Z</time></trkpt><trkpt lat="41.4341257" lon="13.1899003"><ele>19.0</ele><time>2026-03-22T08:05:51.038Z</time></trkpt><trkpt lat="41.4342742" lon="13.1900119"><ele>19.0</ele><time>2026-03-22T08:05:52.044Z</time></trkpt><trkpt lat="41.434412" lon="13.1901169"><ele>19.0</ele><time>2026-03-22T08:05:53.041Z</time></trkpt><trkpt lat="41.434539" lon="13.1902099"><ele>21.799999999999997</ele><time>2026-03-22T08:05:54.043Z</time></trkpt><trkpt lat="41.4346542" lon="13.1902979"><ele>24.599999999999998</ele><time>2026-03-22T08:05:55.038Z</time></trkpt><trkpt lat="41.4347495" lon="13.1903727"><ele>27.4</ele><time>2026-03-22T08:05:56.044Z</time></trkpt><trkpt lat="41.4348302" lon="13.1904461"><ele>30.2</ele><time>2026-03-22T08:05:57.039Z</time></trkpt><trkpt lat="41.4348936" lon="13.1905229"><ele>33.0</ele><time>2026-03-22T08:05:58.046Z</time></trkpt><trkpt lat="41.4349356" lon="13.1906092"><ele>30.799999999999997</ele><time>2026-03-22T08:05:59.046Z</time></trkpt><trkpt lat="41.4349447" lon="13.1906992"><ele>28.599999999999998</ele><time>2026-03-22T08:06:00.047Z</time></trkpt><trkpt lat="41.4349037" lon="13.190859"><ele>26.4</ele><time>2026-03-22T08:06:02.045Z</time></trkpt><trkpt lat="41.43486" lon="13.1909543"><ele>24.200000000000003</ele><time>2026-03-22T08:06:03.046Z</time></trkpt><trkpt lat="41.434802" lon="13.1910604"><ele>22.0</ele><time>2026-03-22T08:06:04.046Z</time></trkpt><trkpt lat="41.4347316" lon="13.1911803"><ele>22.0</ele><time>2026-03-22T08:06:05.045Z</time></trkpt><trkpt lat="41.4346612" lon="13.1913006"><ele>22.0</ele><time>2026-03-22T08:06:06.045Z</time></trkpt><trkpt lat="41.4345861" lon="13.1914334"><ele>22.0</ele><time>2026-03-22T08:06:07.068Z</time></trkpt><trkpt lat="41.4345072" lon="13.1915798"><ele>22.0</ele><time>2026-03-22T08:06:08.041Z</time></trkpt><trkpt lat="41.4344252" lon="13.1917395"><ele>20.333333333333332</ele><time>2026-03-22T08:06:09.05Z</time></trkpt><trkpt lat="41.4343441" lon="13.1919023"><ele>18.666666666666668</ele><time>2026-03-22T08:06:10.039Z</time></trkpt><trkpt lat="41.4342658" lon="13.1920724"><ele>17.0</ele><time>2026-03-22T08:06:11.042Z</time></trkpt><trkpt lat="41.4341869" lon="13.1922512"><ele>16.666666666666668</ele><time>2026-03-22T08:06:12.04Z</time></trkpt><trkpt lat="41.4341093" lon="13.1924344"><ele>16.333333333333332</ele><time>2026-03-22T08:06:13.047Z</time></trkpt><trkpt lat="41.4340286" lon="13.1926216"><ele>16.0</ele><time>2026-03-22T08:06:14.044Z</time></trkpt><trkpt lat="41.4339533" lon="13.1927964"><ele>16.0</ele><time>2026-03-22T08:06:15.044Z</time></trkpt><trkpt lat="41.4338877" lon="13.1929523"><ele>16.0</ele><time>2026-03-22T08:06:16.044Z</time></trkpt><trkpt lat="41.4338257" lon="13.1930961"><ele>16.0</ele><time>2026-03-22T08:06:17.049Z</time></trkpt><trkpt lat="41.4337708" lon="13.193229"><ele>16.0</ele><time>2026-03-22T08:06:18.046Z</time></trkpt><trkpt lat="41.4337192" lon="13.1933534"><ele>15.600000000000001</ele><time>2026-03-22T08:06:19.043Z</time></trkpt><trkpt lat="41.4336714" lon="13.1934708"><ele>15.200000000000001</ele><time>2026-03-22T08:06:20.036Z</time></trkpt><trkpt lat="41.4336246" lon="13.1935871"><ele>14.799999999999999</ele><time>2026-03-22T08:06:21.042Z</time></trkpt><trkpt lat="41.43358" lon="13.1937051"><ele>14.399999999999999</ele><time>2026-03-22T08:06:22.038Z</time></trkpt><trkpt lat="41.4335374" lon="13.1938235"><ele>14.0</ele><time>2026-03-22T08:06:23.046Z</time></trkpt><trkpt lat="41.4335004" lon="13.1939375"><ele>14.166666666666668</ele><time>2026-03-22T08:06:24.043Z</time></trkpt><trkpt lat="41.4334701" lon="13.194042"><ele>14.333333333333334</ele><time>2026-03-22T08:06:25.046Z</time></trkpt><trkpt lat="41.4334456" lon="13.1941318"><ele>14.5</ele><time>2026-03-22T08:06:26.065Z</time></trkpt><trkpt lat="41.4334047" lon="13.1942737"><ele>14.666666666666668</ele><time>2026-03-22T08:06:28.042Z</time></trkpt><trkpt lat="41.4333756" lon="13.1943743"><ele>14.833333333333334</ele><time>2026-03-22T08:06:30.038Z</time></trkpt><trkpt lat="41.4333669" lon="13.1944633"><ele>15.0</ele><time>2026-03-22T08:06:32.052Z</time></trkpt><trkpt lat="41.4334269" lon="13.194515"><ele>15.0</ele><time>2026-03-22T08:06:34.057Z</time></trkpt><trkpt lat="41.433536" lon="13.1945424"><ele>15.0</ele><time>2026-03-22T08:06:36.038Z</time></trkpt><trkpt lat="41.4336527" lon="13.1945829"><ele>15.0</ele><time>2026-03-22T08:06:38.045Z</time></trkpt><trkpt lat="41.4337688" lon="13.1946366"><ele>15.0</ele><time>2026-03-22T08:06:40.042Z</time></trkpt><trkpt lat="41.4338325" lon="13.1946686"><ele>15.0</ele><time>2026-03-22T08:06:41.086Z</time></trkpt><trkpt lat="41.433902" lon="13.1947054"><ele>15.0</ele><time>2026-03-22T08:06:42.039Z</time></trkpt><trkpt lat="41.433981" lon="13.1947482"><ele>15.0</ele><time>2026-03-22T08:06:43.047Z</time></trkpt><trkpt lat="41.4340623" lon="13.1947969"><ele>15.0</ele><time>2026-03-22T08:06:44.04Z</time></trkpt><trkpt lat="41.4341349" lon="13.1948494"><ele>15.0</ele><time>2026-03-22T08:06:45.046Z</time></trkpt><trkpt lat="41.4341978" lon="13.1949156"><ele>15.0</ele><time>2026-03-22T08:06:46.042Z</time></trkpt><trkpt lat="41.4342466" lon="13.1949919"><ele>15.0</ele><time>2026-03-22T08:06:47.045Z</time></trkpt><trkpt lat="41.4342837" lon="13.1950811"><ele>15.166666666666666</ele><time>2026-03-22T08:06:48.05Z</time></trkpt><trkpt lat="41.4342977" lon="13.1951843"><ele>15.333333333333332</ele><time>2026-03-22T08:06:49.043Z</time></trkpt><trkpt lat="41.4343063" lon="13.1952839"><ele>15.5</ele><time>2026-03-22T08:06:50.061Z</time></trkpt><trkpt lat="41.4343016" lon="13.1954036"><ele>15.666666666666666</ele><time>2026-03-22T08:06:52.046Z</time></trkpt><trkpt lat="41.4342627" lon="13.1952898"><ele>15.833333333333332</ele><time>2026-03-22T08:07:07.04Z</time></trkpt><trkpt lat="41.4343157" lon="13.1953424"><ele>16.0</ele><time>2026-03-22T08:07:10.043Z</time></trkpt><trkpt lat="41.4343459" lon="13.1954437"><ele>16.0</ele><time>2026-03-22T08:07:12.035Z</time></trkpt><trkpt lat="41.4343796" lon="13.1955707"><ele>16.0</ele><time>2026-03-22T08:07:14.042Z</time></trkpt><trkpt lat="41.4344045" lon="13.1957054"><ele>16.0</ele><time>2026-03-22T08:07:16.036Z</time></trkpt><trkpt lat="41.4343981" lon="13.1958357"><ele>16.0</ele><time>2026-03-22T08:07:18.044Z</time></trkpt><trkpt lat="41.4343786" lon="13.1959923"><ele>16.0</ele><time>2026-03-22T08:07:20.039Z</time></trkpt><trkpt lat="41.4343695" lon="13.1960765"><ele>15.600000000000001</ele><time>2026-03-22T08:07:21.047Z</time></trkpt><trkpt lat="41.4343529" lon="13.1962333"><ele>15.200000000000001</ele><time>2026-03-22T08:07:23.037Z</time></trkpt><trkpt lat="41.4343371" lon="13.1963815"><ele>14.799999999999999</ele><time>2026-03-22T08:07:25.039Z</time></trkpt><trkpt lat="41.4343258" lon="13.1965512"><ele>14.399999999999999</ele><time>2026-03-22T08:07:27.041Z</time></trkpt><trkpt lat="41.4343209" lon="13.1966415"><ele>14.0</ele><time>2026-03-22T08:07:28.037Z</time></trkpt><trkpt lat="41.4343144" lon="13.1967397"><ele>14.000000000000002</ele><time>2026-03-22T08:07:29.046Z</time></trkpt><trkpt lat="41.4343076" lon="13.1968483"><ele>14.0</ele><time>2026-03-22T08:07:30.042Z</time></trkpt><trkpt lat="41.4343017" lon="13.1969644"><ele>14.0</ele><time>2026-03-22T08:07:31.061Z</time></trkpt><trkpt lat="41.434301" lon="13.1970808"><ele>14.0</ele><time>2026-03-22T08:07:32.042Z</time></trkpt><trkpt lat="41.4343053" lon="13.1971974"><ele>14.000000000000002</ele><time>2026-03-22T08:07:33.04Z</time></trkpt><trkpt lat="41.4343169" lon="13.1973108"><ele>14.0</ele><time>2026-03-22T08:07:34.039Z</time></trkpt><trkpt lat="41.4343343" lon="13.1974177"><ele>14.000000000000002</ele><time>2026-03-22T08:07:35.039Z</time></trkpt><trkpt lat="41.4343509" lon="13.1975275"><ele>14.0</ele><time>2026-03-22T08:07:36.036Z</time></trkpt><trkpt lat="41.4343708" lon="13.197634"><ele>14.0</ele><time>2026-03-22T08:07:37.052Z</time></trkpt><trkpt lat="41.4343867" lon="13.1977468"><ele>14.0</ele><time>2026-03-22T08:07:38.035Z</time></trkpt><trkpt lat="41.4344067" lon="13.1978564"><ele>14.000000000000002</ele><time>2026-03-22T08:07:39.039Z</time></trkpt><trkpt lat="41.4344268" lon="13.1979569"><ele>14.0</ele><time>2026-03-22T08:07:40.038Z</time></trkpt><trkpt lat="41.4344427" lon="13.1980457"><ele>14.000000000000002</ele><time>2026-03-22T08:07:41.04Z</time></trkpt><trkpt lat="41.4344605" lon="13.1981269"><ele>14.0</ele><time>2026-03-22T08:07:42.062Z</time></trkpt><trkpt lat="41.4344955" lon="13.1982839"><ele>14.0</ele><time>2026-03-22T08:07:44.039Z</time></trkpt><trkpt lat="41.4345217" lon="13.1984439"><ele>14.0</ele><time>2026-03-22T08:07:46.04Z</time></trkpt><trkpt lat="41.4345386" lon="13.1985256"><ele>14.000000000000002</ele><time>2026-03-22T08:07:47.037Z</time></trkpt><trkpt lat="41.4345471" lon="13.1986192"><ele>14.0</ele><time>2026-03-22T08:07:48.049Z</time></trkpt><trkpt lat="41.4345716" lon="13.1987692"><ele>14.0</ele><time>2026-03-22T08:07:50.042Z</time></trkpt><trkpt lat="41.434599" lon="13.1989283"><ele>13.999999999999998</ele><time>2026-03-22T08:07:52.039Z</time></trkpt><trkpt lat="41.4346195" lon="13.1990106"><ele>13.999999999999998</ele><time>2026-03-22T08:07:53.045Z</time></trkpt><trkpt lat="41.4346543" lon="13.1991555"><ele>14.0</ele><time>2026-03-22T08:07:55.052Z</time></trkpt><trkpt lat="41.4346732" lon="13.1992357"><ele>14.0</ele><time>2026-03-22T08:07:56.043Z</time></trkpt><trkpt lat="41.4347168" lon="13.1993964"><ele>13.833333333333334</ele><time>2026-03-22T08:07:58.036Z</time></trkpt><trkpt lat="41.4347396" lon="13.1994907"><ele>13.666666666666668</ele><time>2026-03-22T08:07:59.045Z</time></trkpt><trkpt lat="41.4347714" lon="13.1995803"><ele>13.5</ele><time>2026-03-22T08:08:00.041Z</time></trkpt><trkpt lat="41.4347931" lon="13.1996689"><ele>13.333333333333332</ele><time>2026-03-22T08:08:01.045Z</time></trkpt><trkpt lat="41.4348409" lon="13.1998319"><ele>13.166666666666666</ele><time>2026-03-22T08:08:03.039Z</time></trkpt><trkpt lat="41.4348606" lon="13.1999219"><ele>13.0</ele><time>2026-03-22T08:08:04.039Z</time></trkpt><trkpt lat="41.4348779" lon="13.2000227"><ele>12.833333333333332</ele><time>2026-03-22T08:08:05.045Z</time></trkpt><trkpt lat="41.4349063" lon="13.2001168"><ele>12.666666666666666</ele><time>2026-03-22T08:08:06.038Z</time></trkpt><trkpt lat="41.4349311" lon="13.2002059"><ele>12.5</ele><time>2026-03-22T08:08:07.039Z</time></trkpt><trkpt lat="41.4349571" lon="13.200292"><ele>12.333333333333332</ele><time>2026-03-22T08:08:08.042Z</time></trkpt><trkpt lat="41.4350112" lon="13.200455"><ele>12.166666666666666</ele><time>2026-03-22T08:08:10.061Z</time></trkpt><trkpt lat="41.4350458" lon="13.2005381"><ele>12.0</ele><time>2026-03-22T08:08:11.037Z</time></trkpt><trkpt lat="41.4350778" lon="13.2006141"><ele>12.6</ele><time>2026-03-22T08:08:12.045Z</time></trkpt><trkpt lat="41.4351405" lon="13.200741"><ele>13.2</ele><time>2026-03-22T08:08:14.038Z</time></trkpt><trkpt lat="41.4351971" lon="13.2008468"><ele>13.8</ele><time>2026-03-22T08:08:16.044Z</time></trkpt><trkpt lat="41.4352567" lon="13.200953"><ele>14.4</ele><time>2026-03-22T08:08:18.039Z</time></trkpt><trkpt lat="41.4353213" lon="13.2010616"><ele>15.0</ele><time>2026-03-22T08:08:20.038Z</time></trkpt><trkpt lat="41.4353901" lon="13.2011768"><ele>15.0</ele><time>2026-03-22T08:08:22.033Z</time></trkpt><trkpt lat="41.4354601" lon="13.2013019"><ele>15.0</ele><time>2026-03-22T08:08:24.037Z</time></trkpt><trkpt lat="41.4355268" lon="13.2014219"><ele>15.0</ele><time>2026-03-22T08:08:26.037Z</time></trkpt><trkpt lat="41.4355881" lon="13.2015262"><ele>15.0</ele><time>2026-03-22T08:08:28.058Z</time></trkpt><trkpt lat="41.4356431" lon="13.2016383"><ele>15.0</ele><time>2026-03-22T08:08:30.043Z</time></trkpt><trkpt lat="41.4356997" lon="13.2017483"><ele>14.833333333333334</ele><time>2026-03-22T08:08:32.04Z</time></trkpt><trkpt lat="41.4357586" lon="13.2018584"><ele>14.666666666666668</ele><time>2026-03-22T08:08:34.044Z</time></trkpt><trkpt lat="41.4358085" lon="13.2019644"><ele>14.5</ele><time>2026-03-22T08:08:36.059Z</time></trkpt><trkpt lat="41.4358645" lon="13.2020535"><ele>14.333333333333334</ele><time>2026-03-22T08:08:39.05Z</time></trkpt><trkpt lat="41.4359244" lon="13.2021165"><ele>14.166666666666668</ele><time>2026-03-22T08:08:42.037Z</time></trkpt><trkpt lat="41.4359789" lon="13.2021993"><ele>14.0</ele><time>2026-03-22T08:08:45.045Z</time></trkpt><trkpt lat="41.4360277" lon="13.2022896"><ele>14.833333333333334</ele><time>2026-03-22T08:08:48.041Z</time></trkpt><trkpt lat="41.4360907" lon="13.2023959"><ele>15.666666666666668</ele><time>2026-03-22T08:08:51.036Z</time></trkpt><trkpt lat="41.4361307" lon="13.2024873"><ele>16.5</ele><time>2026-03-22T08:08:53.038Z</time></trkpt><trkpt lat="41.4361453" lon="13.2025798"><ele>17.333333333333332</ele><time>2026-03-22T08:08:55.035Z</time></trkpt><trkpt lat="41.4361697" lon="13.2026751"><ele>18.166666666666664</ele><time>2026-03-22T08:08:57.044Z</time></trkpt><trkpt lat="41.4362091" lon="13.202757"><ele>19.0</ele><time>2026-03-22T08:08:59.04Z</time></trkpt><trkpt lat="41.4362555" lon="13.2028583"><ele>18.2</ele><time>2026-03-22T08:09:01.052Z</time></trkpt><trkpt lat="41.4363082" lon="13.2029369"><ele>17.4</ele><time>2026-03-22T08:09:03.036Z</time></trkpt><trkpt lat="41.4363708" lon="13.2030369"><ele>16.6</ele><time>2026-03-22T08:09:05.043Z</time></trkpt><trkpt lat="41.4364384" lon="13.2031507"><ele>15.8</ele><time>2026-03-22T08:09:07.056Z</time></trkpt><trkpt lat="41.4364763" lon="13.2032464"><ele>15.0</ele><time>2026-03-22T08:09:09.036Z</time></trkpt><trkpt lat="41.4364975" lon="13.2033571"><ele>14.833333333333334</ele><time>2026-03-22T08:09:11.044Z</time></trkpt><trkpt lat="41.4364979" lon="13.2035138"><ele>14.666666666666668</ele><time>2026-03-22T08:09:13.04Z</time></trkpt><trkpt lat="41.4364929" lon="13.2036035"><ele>14.5</ele><time>2026-03-22T08:09:14.061Z</time></trkpt><trkpt lat="41.4364871" lon="13.2037008"><ele>14.333333333333334</ele><time>2026-03-22T08:09:15.057Z</time></trkpt><trkpt lat="41.43648" lon="13.2038148"><ele>14.166666666666668</ele><time>2026-03-22T08:09:16.045Z</time></trkpt><trkpt lat="41.4364772" lon="13.2039375"><ele>14.0</ele><time>2026-03-22T08:09:17.046Z</time></trkpt><trkpt lat="41.4364803" lon="13.20406"><ele>14.000000000000002</ele><time>2026-03-22T08:09:18.038Z</time></trkpt><trkpt lat="41.4364835" lon="13.2041724"><ele>14.0</ele><time>2026-03-22T08:09:19.062Z</time></trkpt><trkpt lat="41.4364862" lon="13.2042714"><ele>14.0</ele><time>2026-03-22T08:09:20.05Z</time></trkpt><trkpt lat="41.4364818" lon="13.2043667"><ele>14.0</ele><time>2026-03-22T08:09:21.041Z</time></trkpt><trkpt lat="41.4364778" lon="13.204455"><ele>14.000000000000002</ele><time>2026-03-22T08:09:22.048Z</time></trkpt><trkpt lat="41.4364419" lon="13.2046077"><ele>14.0</ele><time>2026-03-22T08:09:24.044Z</time></trkpt><trkpt lat="41.4364502" lon="13.2047023"><ele>14.000000000000002</ele><time>2026-03-22T08:09:25.062Z</time></trkpt><trkpt lat="41.4364781" lon="13.2048064"><ele>14.0</ele><time>2026-03-22T08:09:26.046Z</time></trkpt><trkpt lat="41.4365173" lon="13.2049259"><ele>14.0</ele><time>2026-03-22T08:09:27.042Z</time></trkpt><trkpt lat="41.4365555" lon="13.2050407"><ele>14.0</ele><time>2026-03-22T08:09:28.044Z</time></trkpt><trkpt lat="41.4365926" lon="13.205148"><ele>14.000000000000002</ele><time>2026-03-22T08:09:29.049Z</time></trkpt><trkpt lat="41.4366309" lon="13.2052365"><ele>14.0</ele><time>2026-03-22T08:09:30.044Z</time></trkpt><trkpt lat="41.4366752" lon="13.2053025"><ele>15.2</ele><time>2026-03-22T08:09:31.06Z</time></trkpt><trkpt lat="41.4367921" lon="13.2053387"><ele>16.4</ele><time>2026-03-22T08:09:33.046Z</time></trkpt><trkpt lat="41.4368632" lon="13.2053081"><ele>17.6</ele><time>2026-03-22T08:09:34.038Z</time></trkpt><trkpt lat="41.4369389" lon="13.2052557"><ele>18.8</ele><time>2026-03-22T08:09:35.041Z</time></trkpt><trkpt lat="41.4370191" lon="13.2051813"><ele>20.0</ele><time>2026-03-22T08:09:36.044Z</time></trkpt><trkpt lat="41.4370908" lon="13.205086"><ele>19.0</ele><time>2026-03-22T08:09:37.042Z</time></trkpt><trkpt lat="41.4371524" lon="13.2049705"><ele>18.0</ele><time>2026-03-22T08:09:38.058Z</time></trkpt><trkpt lat="41.4372005" lon="13.2048389"><ele>17.0</ele><time>2026-03-22T08:09:39.041Z</time></trkpt><trkpt lat="41.4372422" lon="13.2047126"><ele>16.0</ele><time>2026-03-22T08:09:40.04Z</time></trkpt><trkpt lat="41.4372839" lon="13.2046033"><ele>15.0</ele><time>2026-03-22T08:09:41.037Z</time></trkpt><trkpt lat="41.4373319" lon="13.2045156"><ele>15.0</ele><time>2026-03-22T08:09:42.042Z</time></trkpt><trkpt lat="41.4373787" lon="13.2044403"><ele>15.0</ele><time>2026-03-22T08:09:43.045Z</time></trkpt><trkpt lat="41.4374221" lon="13.2043618"><ele>15.0</ele><time>2026-03-22T08:09:44.045Z</time></trkpt><trkpt lat="41.4374673" lon="13.204294"><ele>15.0</ele><time>2026-03-22T08:09:45.047Z</time></trkpt><trkpt lat="41.4375884" lon="13.2042361"><ele>15.0</ele><time>2026-03-22T08:09:47.046Z</time></trkpt><trkpt lat="41.4376551" lon="13.2042185"><ele>15.0</ele><time>2026-03-22T08:09:48.047Z</time></trkpt><trkpt lat="41.4377385" lon="13.2042187"><ele>15.0</ele><time>2026-03-22T08:09:49.047Z</time></trkpt><trkpt lat="41.437829" lon="13.2042168"><ele>15.0</ele><time>2026-03-22T08:09:50.051Z</time></trkpt><trkpt lat="41.4379176" lon="13.2042086"><ele>15.0</ele><time>2026-03-22T08:09:51.05Z</time></trkpt><trkpt lat="41.438012" lon="13.204192"><ele>15.0</ele><time>2026-03-22T08:09:52.042Z</time></trkpt><trkpt lat="41.4381119" lon="13.2041678"><ele>15.0</ele><time>2026-03-22T08:09:53.053Z</time></trkpt><trkpt lat="41.438213" lon="13.2041445"><ele>14.8</ele><time>2026-03-22T08:09:54.044Z</time></trkpt><trkpt lat="41.4383164" lon="13.204105"><ele>14.6</ele><time>2026-03-22T08:09:55.048Z</time></trkpt><trkpt lat="41.4384151" lon="13.2040511"><ele>14.399999999999999</ele><time>2026-03-22T08:09:56.043Z</time></trkpt><trkpt lat="41.4385039" lon="13.2039928"><ele>14.2</ele><time>2026-03-22T08:09:57.045Z</time></trkpt><trkpt lat="41.4385798" lon="13.20393"><ele>14.0</ele><time>2026-03-22T08:09:58.044Z</time></trkpt><trkpt lat="41.4386518" lon="13.2038591"><ele>14.000000000000002</ele><time>2026-03-22T08:09:59.039Z</time></trkpt><trkpt lat="41.4387216" lon="13.2037878"><ele>14.0</ele><time>2026-03-22T08:10:00.046Z</time></trkpt><trkpt lat="41.4387887" lon="13.203717"><ele>14.0</ele><time>2026-03-22T08:10:01.048Z</time></trkpt><trkpt lat="41.4388519" lon="13.2036569"><ele>14.0</ele><time>2026-03-22T08:10:02.048Z</time></trkpt><trkpt lat="41.4389074" lon="13.2036052"><ele>14.000000000000002</ele><time>2026-03-22T08:10:03.044Z</time></trkpt><trkpt lat="41.4390089" lon="13.2035128"><ele>14.0</ele><time>2026-03-22T08:10:05.038Z</time></trkpt><trkpt lat="41.4390626" lon="13.2034621"><ele>14.000000000000002</ele><time>2026-03-22T08:10:06.059Z</time></trkpt><trkpt lat="41.4391171" lon="13.2034093"><ele>14.0</ele><time>2026-03-22T08:10:07.043Z</time></trkpt><trkpt lat="41.4391747" lon="13.203357"><ele>14.0</ele><time>2026-03-22T08:10:08.046Z</time></trkpt><trkpt lat="41.4392289" lon="13.2033056"><ele>14.0</ele><time>2026-03-22T08:10:09.052Z</time></trkpt><trkpt lat="41.4393348" lon="13.2032068"><ele>14.000000000000002</ele><time>2026-03-22T08:10:11.054Z</time></trkpt><trkpt lat="41.4393947" lon="13.2031495"><ele>14.0</ele><time>2026-03-22T08:10:12.048Z</time></trkpt><trkpt lat="41.4394575" lon="13.2030938"><ele>14.333333333333334</ele><time>2026-03-22T08:10:13.052Z</time></trkpt><trkpt lat="41.4395217" lon="13.2030398"><ele>14.666666666666668</ele><time>2026-03-22T08:10:14.051Z</time></trkpt><trkpt lat="41.4395889" lon="13.2029915"><ele>15.0</ele><time>2026-03-22T08:10:15.047Z</time></trkpt><trkpt lat="41.4396516" lon="13.2029479"><ele>15.333333333333332</ele><time>2026-03-22T08:10:16.054Z</time></trkpt><trkpt lat="41.4397484" lon="13.2029021"><ele>15.666666666666666</ele><time>2026-03-22T08:10:18.043Z</time></trkpt><trkpt lat="41.4398151" lon="13.2028546"><ele>16.0</ele><time>2026-03-22T08:10:20.059Z</time></trkpt><trkpt lat="41.4398756" lon="13.2027921"><ele>16.2</ele><time>2026-03-22T08:10:22.057Z</time></trkpt><trkpt lat="41.4399506" lon="13.2027294"><ele>16.400000000000002</ele><time>2026-03-22T08:10:24.058Z</time></trkpt><trkpt lat="41.4400449" lon="13.2026865"><ele>16.6</ele><time>2026-03-22T08:10:26.048Z</time></trkpt><trkpt lat="41.4401665" lon="13.2026696"><ele>16.8</ele><time>2026-03-22T08:10:28.049Z</time></trkpt><trkpt lat="41.4402375" lon="13.2026707"><ele>17.0</ele><time>2026-03-22T08:10:29.06Z</time></trkpt><trkpt lat="41.4403168" lon="13.2026796"><ele>17.0</ele><time>2026-03-22T08:10:30.051Z</time></trkpt><trkpt lat="41.4403974" lon="13.2026993"><ele>17.0</ele><time>2026-03-22T08:10:31.052Z</time></trkpt><trkpt lat="41.4404795" lon="13.2027328"><ele>17.0</ele><time>2026-03-22T08:10:32.047Z</time></trkpt><trkpt lat="41.4405582" lon="13.2027772"><ele>17.0</ele><time>2026-03-22T08:10:33.05Z</time></trkpt><trkpt lat="41.4406324" lon="13.2028376"><ele>17.0</ele><time>2026-03-22T08:10:34.05Z</time></trkpt><trkpt lat="41.4407032" lon="13.2029085"><ele>17.0</ele><time>2026-03-22T08:10:35.05Z</time></trkpt><trkpt lat="41.4407691" lon="13.2029891"><ele>17.166666666666668</ele><time>2026-03-22T08:10:36.054Z</time></trkpt><trkpt lat="41.4408266" lon="13.2030775"><ele>17.333333333333336</ele><time>2026-03-22T08:10:37.047Z</time></trkpt><trkpt lat="41.4408713" lon="13.2031642"><ele>17.5</ele><time>2026-03-22T08:10:38.055Z</time></trkpt><trkpt lat="41.4409126" lon="13.2032563"><ele>17.666666666666668</ele><time>2026-03-22T08:10:39.049Z</time></trkpt><trkpt lat="41.4409481" lon="13.2033493"><ele>17.833333333333332</ele><time>2026-03-22T08:10:40.059Z</time></trkpt><trkpt lat="41.4409783" lon="13.2034357"><ele>18.0</ele><time>2026-03-22T08:10:41.049Z</time></trkpt><trkpt lat="41.4410133" lon="13.2035274"><ele>18.0</ele><time>2026-03-22T08:10:42.047Z</time></trkpt><trkpt lat="41.4410484" lon="13.2036248"><ele>18.0</ele><time>2026-03-22T08:10:43.052Z</time></trkpt><trkpt lat="41.4410814" lon="13.2037099"><ele>18.0</ele><time>2026-03-22T08:10:44.054Z</time></trkpt><trkpt lat="41.4411241" lon="13.2037775"><ele>18.0</ele><time>2026-03-22T08:10:45.053Z</time></trkpt><trkpt lat="41.441173" lon="13.2038511"><ele>18.0</ele><time>2026-03-22T08:10:46.044Z</time></trkpt><trkpt lat="41.4412247" lon="13.2039341"><ele>18.0</ele><time>2026-03-22T08:10:47.043Z</time></trkpt><trkpt lat="41.4412819" lon="13.2040218"><ele>18.166666666666668</ele><time>2026-03-22T08:10:48.047Z</time></trkpt><trkpt lat="41.4413438" lon="13.2041108"><ele>18.333333333333332</ele><time>2026-03-22T08:10:49.045Z</time></trkpt><trkpt lat="41.4413998" lon="13.2041891"><ele>18.5</ele><time>2026-03-22T08:10:50.055Z</time></trkpt><trkpt lat="41.441454" lon="13.2042575"><ele>18.666666666666664</ele><time>2026-03-22T08:10:51.048Z</time></trkpt><trkpt lat="41.4415046" lon="13.2043218"><ele>18.833333333333332</ele><time>2026-03-22T08:10:52.037Z</time></trkpt><trkpt lat="41.4415596" lon="13.204382"><ele>19.0</ele><time>2026-03-22T08:10:53.039Z</time></trkpt><trkpt lat="41.4416253" lon="13.2044424"><ele>19.0</ele><time>2026-03-22T08:10:54.048Z</time></trkpt><trkpt lat="41.4416994" lon="13.2044965"><ele>19.0</ele><time>2026-03-22T08:10:55.049Z</time></trkpt><trkpt lat="41.4417812" lon="13.2045468"><ele>19.0</ele><time>2026-03-22T08:10:56.042Z</time></trkpt><trkpt lat="41.4418733" lon="13.2045963"><ele>19.0</ele><time>2026-03-22T08:10:57.042Z</time></trkpt><trkpt lat="41.4419675" lon="13.2046441"><ele>19.0</ele><time>2026-03-22T08:10:58.042Z</time></trkpt><trkpt lat="41.4420625" lon="13.2046889"><ele>18.599999999999998</ele><time>2026-03-22T08:10:59.046Z</time></trkpt><trkpt lat="41.4421551" lon="13.2047182"><ele>18.2</ele><time>2026-03-22T08:11:00.044Z</time></trkpt><trkpt lat="41.4422508" lon="13.2047263"><ele>17.799999999999997</ele><time>2026-03-22T08:11:01.066Z</time></trkpt><trkpt lat="41.4423554" lon="13.2047148"><ele>17.4</ele><time>2026-03-22T08:11:02.049Z</time></trkpt><trkpt lat="41.4424679" lon="13.2046929"><ele>17.0</ele><time>2026-03-22T08:11:03.043Z</time></trkpt><trkpt lat="41.4425761" lon="13.2046648"><ele>17.0</ele><time>2026-03-22T08:11:04.05Z</time></trkpt><trkpt lat="41.4426741" lon="13.2046448"><ele>17.0</ele><time>2026-03-22T08:11:05.05Z</time></trkpt><trkpt lat="41.4427735" lon="13.2046343"><ele>17.0</ele><time>2026-03-22T08:11:06.05Z</time></trkpt><trkpt lat="41.4428797" lon="13.2046322"><ele>17.0</ele><time>2026-03-22T08:11:07.047Z</time></trkpt><trkpt lat="41.4429888" lon="13.204636"><ele>17.0</ele><time>2026-03-22T08:11:08.046Z</time></trkpt><trkpt lat="41.4430987" lon="13.2046384"><ele>17.2</ele><time>2026-03-22T08:11:09.046Z</time></trkpt><trkpt lat="41.4431996" lon="13.2046372"><ele>17.4</ele><time>2026-03-22T08:11:10.048Z</time></trkpt><trkpt lat="41.4433" lon="13.2046421"><ele>17.6</ele><time>2026-03-22T08:11:11.047Z</time></trkpt><trkpt lat="41.4433991" lon="13.2046549"><ele>17.8</ele><time>2026-03-22T08:11:12.06Z</time></trkpt><trkpt lat="41.443488" lon="13.2046759"><ele>18.0</ele><time>2026-03-22T08:11:13.054Z</time></trkpt><trkpt lat="41.4435783" lon="13.2047008"><ele>18.0</ele><time>2026-03-22T08:11:14.05Z</time></trkpt><trkpt lat="41.4436746" lon="13.2047232"><ele>18.0</ele><time>2026-03-22T08:11:15.047Z</time></trkpt><trkpt lat="41.4437749" lon="13.2047426"><ele>18.0</ele><time>2026-03-22T08:11:16.04Z</time></trkpt><trkpt lat="41.4438768" lon="13.2047646"><ele>18.0</ele><time>2026-03-22T08:11:17.06Z</time></trkpt><trkpt lat="41.4439764" lon="13.2047969"><ele>18.0</ele><time>2026-03-22T08:11:18.048Z</time></trkpt><trkpt lat="41.4440625" lon="13.2048329"><ele>18.6</ele><time>2026-03-22T08:11:19.052Z</time></trkpt><trkpt lat="41.4441289" lon="13.2048693"><ele>19.200000000000003</ele><time>2026-03-22T08:11:20.044Z</time></trkpt><trkpt lat="41.4442298" lon="13.2049359"><ele>19.8</ele><time>2026-03-22T08:11:22.044Z</time></trkpt><trkpt lat="41.4443231" lon="13.2049731"><ele>20.400000000000002</ele><time>2026-03-22T08:11:24.048Z</time></trkpt><trkpt lat="41.4444394" lon="13.2049873"><ele>21.0</ele><time>2026-03-22T08:11:26.042Z</time></trkpt><trkpt lat="41.4445385" lon="13.2050901"><ele>21.0</ele><time>2026-03-22T08:11:28.065Z</time></trkpt><trkpt lat="41.4445947" lon="13.2051548"><ele>21.0</ele><time>2026-03-22T08:11:29.053Z</time></trkpt><trkpt lat="41.4446501" lon="13.2052169"><ele>21.0</ele><time>2026-03-22T08:11:30.044Z</time></trkpt><trkpt lat="41.4447094" lon="13.2052797"><ele>21.0</ele><time>2026-03-22T08:11:31.046Z</time></trkpt><trkpt lat="41.4447707" lon="13.2053451"><ele>21.0</ele><time>2026-03-22T08:11:32.05Z</time></trkpt><trkpt lat="41.4448301" lon="13.2053986"><ele>21.0</ele><time>2026-03-22T08:11:33.049Z</time></trkpt><trkpt lat="41.4448907" lon="13.205445"><ele>21.0</ele><time>2026-03-22T08:11:34.052Z</time></trkpt><trkpt lat="41.4449879" lon="13.2055036"><ele>20.6</ele><time>2026-03-22T08:11:36.046Z</time></trkpt><trkpt lat="41.4450492" lon="13.2055365"><ele>20.200000000000003</ele><time>2026-03-22T08:11:38.049Z</time></trkpt><trkpt lat="41.4451138" lon="13.2055598"><ele>19.799999999999997</ele><time>2026-03-22T08:11:52.05Z</time></trkpt><trkpt lat="41.445213" lon="13.205611"><ele>19.4</ele><time>2026-03-22T08:11:54.046Z</time></trkpt><trkpt lat="41.4453405" lon="13.2056656"><ele>19.0</ele><time>2026-03-22T08:11:56.057Z</time></trkpt><trkpt lat="41.4454146" lon="13.2056911"><ele>18.833333333333332</ele><time>2026-03-22T08:11:57.048Z</time></trkpt><trkpt lat="41.4454915" lon="13.2057093"><ele>18.666666666666664</ele><time>2026-03-22T08:11:58.049Z</time></trkpt><trkpt lat="41.4455718" lon="13.2057223"><ele>18.5</ele><time>2026-03-22T08:11:59.053Z</time></trkpt><trkpt lat="41.4456525" lon="13.2057377"><ele>18.333333333333332</ele><time>2026-03-22T08:12:00.054Z</time></trkpt><trkpt lat="41.4457278" lon="13.2057475"><ele>18.166666666666668</ele><time>2026-03-22T08:12:01.053Z</time></trkpt><trkpt lat="41.4457975" lon="13.2057514"><ele>18.0</ele><time>2026-03-22T08:12:02.054Z</time></trkpt><trkpt lat="41.4458646" lon="13.2057469"><ele>18.0</ele><time>2026-03-22T08:12:03.05Z</time></trkpt><trkpt lat="41.4459386" lon="13.2057403"><ele>18.0</ele><time>2026-03-22T08:12:04.046Z</time></trkpt><trkpt lat="41.4460175" lon="13.2057313"><ele>18.0</ele><time>2026-03-22T08:12:05.054Z</time></trkpt><trkpt lat="41.4460981" lon="13.2057156"><ele>18.0</ele><time>2026-03-22T08:12:06.039Z</time></trkpt><trkpt lat="41.4461802" lon="13.2056982"><ele>18.0</ele><time>2026-03-22T08:12:07.049Z</time></trkpt><trkpt lat="41.4462629" lon="13.2056754"><ele>18.0</ele><time>2026-03-22T08:12:08.05Z</time></trkpt><trkpt lat="41.4463489" lon="13.2056421"><ele>18.2</ele><time>2026-03-22T08:12:09.061Z</time></trkpt><trkpt lat="41.4464342" lon="13.2056018"><ele>18.4</ele><time>2026-03-22T08:12:10.048Z</time></trkpt><trkpt lat="41.4465209" lon="13.2055603"><ele>18.599999999999998</ele><time>2026-03-22T08:12:11.054Z</time></trkpt><trkpt lat="41.4466055" lon="13.2055164"><ele>18.8</ele><time>2026-03-22T08:12:12.054Z</time></trkpt><trkpt lat="41.4466934" lon="13.2054582"><ele>19.0</ele><time>2026-03-22T08:12:13.052Z</time></trkpt><trkpt lat="41.4467758" lon="13.2054013"><ele>19.0</ele><time>2026-03-22T08:12:14.051Z</time></trkpt><trkpt lat="41.4468601" lon="13.2053438"><ele>19.0</ele><time>2026-03-22T08:12:15.056Z</time></trkpt><trkpt lat="41.4469449" lon="13.2052866"><ele>19.0</ele><time>2026-03-22T08:12:16.052Z</time></trkpt><trkpt lat="41.4470246" lon="13.2052336"><ele>19.0</ele><time>2026-03-22T08:12:17.063Z</time></trkpt><trkpt lat="41.4471017" lon="13.2051865"><ele>19.0</ele><time>2026-03-22T08:12:18.05Z</time></trkpt><trkpt lat="41.4471706" lon="13.2051421"><ele>19.0</ele><time>2026-03-22T08:12:19.053Z</time></trkpt><trkpt lat="41.4472326" lon="13.2051022"><ele>18.833333333333332</ele><time>2026-03-22T08:12:20.05Z</time></trkpt><trkpt lat="41.447303" lon="13.2050547"><ele>18.666666666666664</ele><time>2026-03-22T08:12:21.054Z</time></trkpt><trkpt lat="41.4473744" lon="13.2050092"><ele>18.5</ele><time>2026-03-22T08:12:22.053Z</time></trkpt><trkpt lat="41.4474408" lon="13.2049662"><ele>18.333333333333332</ele><time>2026-03-22T08:12:23.054Z</time></trkpt><trkpt lat="41.4475037" lon="13.204918"><ele>18.166666666666668</ele><time>2026-03-22T08:12:24.056Z</time></trkpt><trkpt lat="41.4475662" lon="13.204874"><ele>18.0</ele><time>2026-03-22T08:12:25.058Z</time></trkpt><trkpt lat="41.4476757" lon="13.2047948"><ele>18.333333333333332</ele><time>2026-03-22T08:12:27.047Z</time></trkpt><trkpt lat="41.4477277" lon="13.2047369"><ele>18.666666666666668</ele><time>2026-03-22T08:12:28.047Z</time></trkpt><trkpt lat="41.4477798" lon="13.2046725"><ele>19.0</ele><time>2026-03-22T08:12:29.047Z</time></trkpt><trkpt lat="41.4478364" lon="13.2046025"><ele>19.333333333333336</ele><time>2026-03-22T08:12:30.046Z</time></trkpt><trkpt lat="41.4478943" lon="13.2045263"><ele>19.666666666666668</ele><time>2026-03-22T08:12:31.061Z</time></trkpt><trkpt lat="41.4479525" lon="13.2044384"><ele>20.0</ele><time>2026-03-22T08:12:32.051Z</time></trkpt><trkpt lat="41.4480112" lon="13.2043464"><ele>20.0</ele><time>2026-03-22T08:12:33.046Z</time></trkpt><trkpt lat="41.4480697" lon="13.2042556"><ele>20.0</ele><time>2026-03-22T08:12:34.042Z</time></trkpt><trkpt lat="41.4481273" lon="13.2041619"><ele>20.0</ele><time>2026-03-22T08:12:35.048Z</time></trkpt><trkpt lat="41.448185" lon="13.2040684"><ele>20.0</ele><time>2026-03-22T08:12:36.041Z</time></trkpt><trkpt lat="41.448243" lon="13.203975"><ele>20.0</ele><time>2026-03-22T08:12:37.048Z</time></trkpt><trkpt lat="41.4482909" lon="13.2038953"><ele>20.0</ele><time>2026-03-22T08:12:38.049Z</time></trkpt><trkpt lat="41.4483605" lon="13.2037992"><ele>20.0</ele><time>2026-03-22T08:12:40.048Z</time></trkpt><trkpt lat="41.4484228" lon="13.2037104"><ele>20.0</ele><time>2026-03-22T08:12:42.048Z</time></trkpt><trkpt lat="41.4485156" lon="13.2035899"><ele>20.0</ele><time>2026-03-22T08:12:44.043Z</time></trkpt><trkpt lat="41.4485745" lon="13.2035275"><ele>20.0</ele><time>2026-03-22T08:12:45.049Z</time></trkpt><trkpt lat="41.4486378" lon="13.2034677"><ele>20.0</ele><time>2026-03-22T08:12:46.047Z</time></trkpt><trkpt lat="41.44871" lon="13.2034077"><ele>20.0</ele><time>2026-03-22T08:12:47.049Z</time></trkpt><trkpt lat="41.4487813" lon="13.2033639"><ele>20.0</ele><time>2026-03-22T08:12:48.047Z</time></trkpt><trkpt lat="41.4488513" lon="13.2033321"><ele>20.0</ele><time>2026-03-22T08:12:49.047Z</time></trkpt><trkpt lat="41.4489158" lon="13.2033038"><ele>20.0</ele><time>2026-03-22T08:12:50.054Z</time></trkpt><trkpt lat="41.4489898" lon="13.2032894"><ele>20.0</ele><time>2026-03-22T08:12:51.048Z</time></trkpt><trkpt lat="41.4490651" lon="13.203277"><ele>20.0</ele><time>2026-03-22T08:12:52.054Z</time></trkpt><trkpt lat="41.4491457" lon="13.2032702"><ele>19.666666666666668</ele><time>2026-03-22T08:12:53.049Z</time></trkpt><trkpt lat="41.4492266" lon="13.2032743"><ele>19.333333333333336</ele><time>2026-03-22T08:12:54.047Z</time></trkpt><trkpt lat="41.4493065" lon="13.2032954"><ele>19.0</ele><time>2026-03-22T08:12:55.052Z</time></trkpt><trkpt lat="41.4493887" lon="13.2033233"><ele>18.666666666666668</ele><time>2026-03-22T08:12:56.057Z</time></trkpt><trkpt lat="41.4494693" lon="13.2033716"><ele>18.333333333333332</ele><time>2026-03-22T08:12:57.05Z</time></trkpt><trkpt lat="41.4495436" lon="13.2034334"><ele>18.0</ele><time>2026-03-22T08:12:58.057Z</time></trkpt><trkpt lat="41.449615" lon="13.2035047"><ele>17.8</ele><time>2026-03-22T08:12:59.049Z</time></trkpt><trkpt lat="41.4496877" lon="13.2035805"><ele>17.6</ele><time>2026-03-22T08:13:00.047Z</time></trkpt><trkpt lat="41.4497608" lon="13.2036659"><ele>17.4</ele><time>2026-03-22T08:13:01.043Z</time></trkpt><trkpt lat="41.4498358" lon="13.2037529"><ele>17.2</ele><time>2026-03-22T08:13:02.047Z</time></trkpt><trkpt lat="41.4499108" lon="13.2038431"><ele>17.0</ele><time>2026-03-22T08:13:03.048Z</time></trkpt><trkpt lat="41.449982" lon="13.2039327"><ele>17.6</ele><time>2026-03-22T08:13:04.065Z</time></trkpt><trkpt lat="41.4500544" lon="13.2040295"><ele>18.2</ele><time>2026-03-22T08:13:05.048Z</time></trkpt><trkpt lat="41.450128" lon="13.2041272"><ele>18.8</ele><time>2026-03-22T08:13:06.046Z</time></trkpt><trkpt lat="41.4502048" lon="13.2042215"><ele>19.4</ele><time>2026-03-22T08:13:07.05Z</time></trkpt><trkpt lat="41.4502824" lon="13.2043023"><ele>20.0</ele><time>2026-03-22T08:13:08.051Z</time></trkpt><trkpt lat="41.4503547" lon="13.2043655"><ele>20.0</ele><time>2026-03-22T08:13:09.047Z</time></trkpt><trkpt lat="41.4504226" lon="13.2044144"><ele>20.0</ele><time>2026-03-22T08:13:10.05Z</time></trkpt><trkpt lat="41.4504931" lon="13.2044428"><ele>20.0</ele><time>2026-03-22T08:13:11.044Z</time></trkpt><trkpt lat="41.4505644" lon="13.204469"><ele>20.0</ele><time>2026-03-22T08:13:12.047Z</time></trkpt><trkpt lat="41.4506446" lon="13.2045006"><ele>20.0</ele><time>2026-03-22T08:13:13.046Z</time></trkpt><trkpt lat="41.4507258" lon="13.2045324"><ele>20.0</ele><time>2026-03-22T08:13:14.043Z</time></trkpt><trkpt lat="41.4508093" lon="13.2045877"><ele>19.8</ele><time>2026-03-22T08:13:15.06Z</time></trkpt><trkpt lat="41.4508919" lon="13.2046463"><ele>19.6</ele><time>2026-03-22T08:13:16.046Z</time></trkpt><trkpt lat="41.4509807" lon="13.204692"><ele>19.4</ele><time>2026-03-22T08:13:17.048Z</time></trkpt><trkpt lat="41.4510751" lon="13.2047142"><ele>19.2</ele><time>2026-03-22T08:13:18.049Z</time></trkpt><trkpt lat="41.4511721" lon="13.2047115"><ele>19.0</ele><time>2026-03-22T08:13:19.052Z</time></trkpt><trkpt lat="41.4512717" lon="13.2046889"><ele>19.4</ele><time>2026-03-22T08:13:20.051Z</time></trkpt><trkpt lat="41.4513719" lon="13.2046503"><ele>19.799999999999997</ele><time>2026-03-22T08:13:21.042Z</time></trkpt><trkpt lat="41.4514662" lon="13.2045981"><ele>20.200000000000003</ele><time>2026-03-22T08:13:22.044Z</time></trkpt><trkpt lat="41.4515506" lon="13.204542"><ele>20.6</ele><time>2026-03-22T08:13:23.044Z</time></trkpt><trkpt lat="41.4516224" lon="13.2044753"><ele>21.0</ele><time>2026-03-22T08:13:24.04Z</time></trkpt><trkpt lat="41.4516914" lon="13.2044069"><ele>21.0</ele><time>2026-03-22T08:13:25.044Z</time></trkpt><trkpt lat="41.4517632" lon="13.2043414"><ele>21.0</ele><time>2026-03-22T08:13:26.062Z</time></trkpt><trkpt lat="41.4518369" lon="13.204276"><ele>21.0</ele><time>2026-03-22T08:13:27.046Z</time></trkpt><trkpt lat="41.4519244" lon="13.2042264"><ele>21.0</ele><time>2026-03-22T08:13:28.043Z</time></trkpt><trkpt lat="41.4520154" lon="13.2041846"><ele>21.0</ele><time>2026-03-22T08:13:29.045Z</time></trkpt><trkpt lat="41.4521117" lon="13.2041512"><ele>21.8</ele><time>2026-03-22T08:13:30.05Z</time></trkpt><trkpt lat="41.4522107" lon="13.204131"><ele>22.6</ele><time>2026-03-22T08:13:31.045Z</time></trkpt><trkpt lat="41.4523115" lon="13.2041212"><ele>23.4</ele><time>2026-03-22T08:13:32.054Z</time></trkpt><trkpt lat="41.452407" lon="13.2041178"><ele>24.2</ele><time>2026-03-22T08:13:33.046Z</time></trkpt><trkpt lat="41.4524824" lon="13.204117"><ele>25.0</ele><time>2026-03-22T08:13:34.049Z</time></trkpt><trkpt lat="41.4525892" lon="13.2041212"><ele>25.0</ele><time>2026-03-22T08:13:36.052Z</time></trkpt><trkpt lat="41.4526732" lon="13.2041625"><ele>25.0</ele><time>2026-03-22T08:13:38.05Z</time></trkpt><trkpt lat="41.4527667" lon="13.2042317"><ele>25.0</ele><time>2026-03-22T08:13:40.047Z</time></trkpt><trkpt lat="41.452852" lon="13.204299"><ele>25.0</ele><time>2026-03-22T08:13:42.046Z</time></trkpt><trkpt lat="41.4529212" lon="13.204328"><ele>25.0</ele><time>2026-03-22T08:13:43.047Z</time></trkpt><trkpt lat="41.4530026" lon="13.2043462"><ele>25.5</ele><time>2026-03-22T08:13:44.045Z</time></trkpt><trkpt lat="41.4530962" lon="13.204352"><ele>26.0</ele><time>2026-03-22T08:13:45.047Z</time></trkpt><trkpt lat="41.4532023" lon="13.2043365"><ele>26.5</ele><time>2026-03-22T08:13:46.048Z</time></trkpt><trkpt lat="41.4533201" lon="13.2042894"><ele>27.0</ele><time>2026-03-22T08:13:47.045Z</time></trkpt><trkpt lat="41.453441" lon="13.2042401"><ele>27.0</ele><time>2026-03-22T08:13:48.048Z</time></trkpt><trkpt lat="41.4535524" lon="13.2041969"><ele>27.000000000000004</ele><time>2026-03-22T08:13:49.049Z</time></trkpt><trkpt lat="41.4536563" lon="13.2041582"><ele>27.000000000000004</ele><time>2026-03-22T08:13:50.05Z</time></trkpt><trkpt lat="41.4537419" lon="13.2041283"><ele>27.0</ele><time>2026-03-22T08:13:51.042Z</time></trkpt><trkpt lat="41.4538126" lon="13.2041379"><ele>27.0</ele><time>2026-03-22T08:13:52.045Z</time></trkpt><trkpt lat="41.4538747" lon="13.2041701"><ele>26.333333333333332</ele><time>2026-03-22T08:13:53.039Z</time></trkpt><trkpt lat="41.4539363" lon="13.2042159"><ele>25.666666666666668</ele><time>2026-03-22T08:13:54.06Z</time></trkpt><trkpt lat="41.4539989" lon="13.2042596"><ele>25.0</ele><time>2026-03-22T08:13:55.047Z</time></trkpt><trkpt lat="41.4540679" lon="13.204297"><ele>24.333333333333336</ele><time>2026-03-22T08:13:56.051Z</time></trkpt><trkpt lat="41.4541449" lon="13.2043522"><ele>23.666666666666668</ele><time>2026-03-22T08:13:57.04Z</time></trkpt><trkpt lat="41.4542317" lon="13.2044353"><ele>23.0</ele><time>2026-03-22T08:13:58.05Z</time></trkpt><trkpt lat="41.4543282" lon="13.2045301"><ele>23.0</ele><time>2026-03-22T08:13:59.046Z</time></trkpt><trkpt lat="41.4544467" lon="13.2046302"><ele>23.0</ele><time>2026-03-22T08:14:00.051Z</time></trkpt><trkpt lat="41.4545656" lon="13.2047321"><ele>23.0</ele><time>2026-03-22T08:14:01.047Z</time></trkpt><trkpt lat="41.4546741" lon="13.204824"><ele>23.0</ele><time>2026-03-22T08:14:02.055Z</time></trkpt><trkpt lat="41.4547708" lon="13.2049013"><ele>22.0</ele><time>2026-03-22T08:14:03.046Z</time></trkpt><trkpt lat="41.4548636" lon="13.2049648"><ele>21.0</ele><time>2026-03-22T08:14:04.052Z</time></trkpt><trkpt lat="41.4549636" lon="13.2050101"><ele>20.0</ele><time>2026-03-22T08:14:05.054Z</time></trkpt><trkpt lat="41.4550799" lon="13.2050357"><ele>19.0</ele><time>2026-03-22T08:14:06.051Z</time></trkpt><trkpt lat="41.4552095" lon="13.2050504"><ele>19.0</ele><time>2026-03-22T08:14:07.054Z</time></trkpt><trkpt lat="41.4553459" lon="13.2050621"><ele>19.0</ele><time>2026-03-22T08:14:08.054Z</time></trkpt><trkpt lat="41.4554874" lon="13.2050766"><ele>19.0</ele><time>2026-03-22T08:14:09.051Z</time></trkpt><trkpt lat="41.4556203" lon="13.2050916"><ele>19.0</ele><time>2026-03-22T08:14:10.056Z</time></trkpt><trkpt lat="41.4557296" lon="13.2051048"><ele>19.333333333333332</ele><time>2026-03-22T08:14:11.045Z</time></trkpt><trkpt lat="41.4558177" lon="13.2051132"><ele>19.666666666666664</ele><time>2026-03-22T08:14:12.05Z</time></trkpt><trkpt lat="41.4558846" lon="13.2051168"><ele>20.0</ele><time>2026-03-22T08:14:13.047Z</time></trkpt><trkpt lat="41.4559942" lon="13.2050753"><ele>20.333333333333332</ele><time>2026-03-22T08:14:15.044Z</time></trkpt><trkpt lat="41.4560572" lon="13.2050281"><ele>20.666666666666668</ele><time>2026-03-22T08:14:16.048Z</time></trkpt><trkpt lat="41.4561321" lon="13.2049817"><ele>21.0</ele><time>2026-03-22T08:14:17.052Z</time></trkpt><trkpt lat="41.4562086" lon="13.20494"><ele>21.0</ele><time>2026-03-22T08:14:18.048Z</time></trkpt><trkpt lat="41.4562778" lon="13.2049018"><ele>21.0</ele><time>2026-03-22T08:14:19.053Z</time></trkpt><trkpt lat="41.4563366" lon="13.2048661"><ele>21.0</ele><time>2026-03-22T08:14:20.046Z</time></trkpt><trkpt lat="41.4564088" lon="13.2048011"><ele>21.0</ele><time>2026-03-22T08:14:22.055Z</time></trkpt><trkpt lat="41.4564621" lon="13.2047495"><ele>21.0</ele><time>2026-03-22T08:14:24.068Z</time></trkpt><trkpt lat="41.4565361" lon="13.2046637"><ele>21.0</ele><time>2026-03-22T08:14:26.057Z</time></trkpt><trkpt lat="41.456626" lon="13.2045433"><ele>21.166666666666668</ele><time>2026-03-22T08:14:28.052Z</time></trkpt><trkpt lat="41.4566769" lon="13.204471"><ele>21.333333333333332</ele><time>2026-03-22T08:14:29.05Z</time></trkpt><trkpt lat="41.4567282" lon="13.204387"><ele>21.5</ele><time>2026-03-22T08:14:30.055Z</time></trkpt><trkpt lat="41.4567826" lon="13.2042972"><ele>21.666666666666664</ele><time>2026-03-22T08:14:31.055Z</time></trkpt><trkpt lat="41.4568414" lon="13.204196"><ele>21.833333333333332</ele><time>2026-03-22T08:14:32.047Z</time></trkpt><trkpt lat="41.4568946" lon="13.2040905"><ele>22.0</ele><time>2026-03-22T08:14:33.05Z</time></trkpt><trkpt lat="41.4569509" lon="13.2039792"><ele>22.0</ele><time>2026-03-22T08:14:34.055Z</time></trkpt><trkpt lat="41.4570182" lon="13.203865"><ele>22.0</ele><time>2026-03-22T08:14:35.048Z</time></trkpt><trkpt lat="41.4570836" lon="13.2037497"><ele>22.0</ele><time>2026-03-22T08:14:36.049Z</time></trkpt><trkpt lat="41.4571441" lon="13.2036262"><ele>22.0</ele><time>2026-03-22T08:14:37.045Z</time></trkpt><trkpt lat="41.4572112" lon="13.2034981"><ele>22.0</ele><time>2026-03-22T08:14:38.043Z</time></trkpt><trkpt lat="41.4572744" lon="13.2033771"><ele>22.0</ele><time>2026-03-22T08:14:39.046Z</time></trkpt><trkpt lat="41.4573238" lon="13.2032841"><ele>22.0</ele><time>2026-03-22T08:14:40.046Z</time></trkpt><trkpt lat="41.4573807" lon="13.2031704"><ele>22.0</ele><time>2026-03-22T08:14:42.047Z</time></trkpt><trkpt lat="41.4574465" lon="13.2030388"><ele>22.0</ele><time>2026-03-22T08:14:44.054Z</time></trkpt><trkpt lat="41.457497" lon="13.2029374"><ele>22.0</ele><time>2026-03-22T08:14:45.045Z</time></trkpt><trkpt lat="41.4575545" lon="13.2028321"><ele>22.0</ele><time>2026-03-22T08:14:46.045Z</time></trkpt><trkpt lat="41.4576135" lon="13.2027256"><ele>22.0</ele><time>2026-03-22T08:14:47.047Z</time></trkpt><trkpt lat="41.4576755" lon="13.2026182"><ele>22.0</ele><time>2026-03-22T08:14:48.046Z</time></trkpt><trkpt lat="41.4577287" lon="13.2025074"><ele>22.0</ele><time>2026-03-22T08:14:49.044Z</time></trkpt><trkpt lat="41.4577775" lon="13.2024083"><ele>22.0</ele><time>2026-03-22T08:14:50.063Z</time></trkpt><trkpt lat="41.4578307" lon="13.2023045"><ele>22.200000000000003</ele><time>2026-03-22T08:14:51.051Z</time></trkpt><trkpt lat="41.4578873" lon="13.2021987"><ele>22.4</ele><time>2026-03-22T08:14:52.052Z</time></trkpt><trkpt lat="41.4579511" lon="13.2020839"><ele>22.6</ele><time>2026-03-22T08:14:53.044Z</time></trkpt><trkpt lat="41.4580182" lon="13.2019654"><ele>22.799999999999997</ele><time>2026-03-22T08:14:54.043Z</time></trkpt><trkpt lat="41.4580854" lon="13.2018444"><ele>23.0</ele><time>2026-03-22T08:14:55.046Z</time></trkpt><trkpt lat="41.4581542" lon="13.201719"><ele>23.0</ele><time>2026-03-22T08:14:56.05Z</time></trkpt><trkpt lat="41.4582297" lon="13.2015912"><ele>23.0</ele><time>2026-03-22T08:14:57.049Z</time></trkpt><trkpt lat="41.4582983" lon="13.2014707"><ele>23.0</ele><time>2026-03-22T08:14:58.051Z</time></trkpt><trkpt lat="41.4583605" lon="13.2013623"><ele>23.0</ele><time>2026-03-22T08:14:59.053Z</time></trkpt><trkpt lat="41.4584303" lon="13.2012556"><ele>23.0</ele><time>2026-03-22T08:15:00.054Z</time></trkpt><trkpt lat="41.4585012" lon="13.2011661"><ele>23.0</ele><time>2026-03-22T08:15:01.059Z</time></trkpt><trkpt lat="41.4585661" lon="13.2010841"><ele>23.0</ele><time>2026-03-22T08:15:02.045Z</time></trkpt><trkpt lat="41.4586369" lon="13.2010109"><ele>23.0</ele><time>2026-03-22T08:15:03.046Z</time></trkpt><trkpt lat="41.4587095" lon="13.2009479"><ele>23.0</ele><time>2026-03-22T08:15:04.045Z</time></trkpt><trkpt lat="41.4587811" lon="13.2008894"><ele>23.0</ele><time>2026-03-22T08:15:05.039Z</time></trkpt><trkpt lat="41.4588425" lon="13.2008434"><ele>23.0</ele><time>2026-03-22T08:15:06.059Z</time></trkpt><trkpt lat="41.4589602" lon="13.2008027"><ele>22.833333333333336</ele><time>2026-03-22T08:15:08.048Z</time></trkpt><trkpt lat="41.4590238" lon="13.2007999"><ele>22.666666666666668</ele><time>2026-03-22T08:15:09.045Z</time></trkpt><trkpt lat="41.4591032" lon="13.2007804"><ele>22.5</ele><time>2026-03-22T08:15:10.044Z</time></trkpt><trkpt lat="41.4591921" lon="13.200747"><ele>22.333333333333332</ele><time>2026-03-22T08:15:11.043Z</time></trkpt><trkpt lat="41.4592711" lon="13.2007184"><ele>22.166666666666664</ele><time>2026-03-22T08:15:12.046Z</time></trkpt><trkpt lat="41.4593646" lon="13.2006973"><ele>22.0</ele><time>2026-03-22T08:15:14.049Z</time></trkpt><trkpt lat="41.4594372" lon="13.2007533"><ele>22.0</ele><time>2026-03-22T08:15:16.049Z</time></trkpt><trkpt lat="41.4595083" lon="13.200773"><ele>22.0</ele><time>2026-03-22T08:15:27.054Z</time></trkpt><trkpt lat="41.4595469" lon="13.2006939"><ele>22.0</ele><time>2026-03-22T08:15:29.058Z</time></trkpt><trkpt lat="41.4595565" lon="13.2005534"><ele>22.0</ele><time>2026-03-22T08:15:31.042Z</time></trkpt><trkpt lat="41.4595454" lon="13.2004699"><ele>22.0</ele><time>2026-03-22T08:15:32.053Z</time></trkpt><trkpt lat="41.4595308" lon="13.2003792"><ele>22.0</ele><time>2026-03-22T08:15:33.05Z</time></trkpt><trkpt lat="41.4595146" lon="13.2002749"><ele>22.0</ele><time>2026-03-22T08:15:34.049Z</time></trkpt><trkpt lat="41.4595003" lon="13.2001586"><ele>22.0</ele><time>2026-03-22T08:15:35.049Z</time></trkpt><trkpt lat="41.4594851" lon="13.2000506"><ele>22.0</ele><time>2026-03-22T08:15:36.046Z</time></trkpt><trkpt lat="41.4594649" lon="13.1999107"><ele>22.0</ele><time>2026-03-22T08:15:38.054Z</time></trkpt><trkpt lat="41.4595363" lon="13.1998606"><ele>22.0</ele><time>2026-03-22T08:15:41.063Z</time></trkpt><trkpt lat="41.4596058" lon="13.1998621"><ele>22.0</ele><time>2026-03-22T08:15:42.056Z</time></trkpt><trkpt lat="41.4596959" lon="13.1998557"><ele>22.0</ele><time>2026-03-22T08:15:43.049Z</time></trkpt><trkpt lat="41.4598028" lon="13.1998376"><ele>22.0</ele><time>2026-03-22T08:15:44.066Z</time></trkpt><trkpt lat="41.4599245" lon="13.1998104"><ele>22.0</ele><time>2026-03-22T08:15:45.043Z</time></trkpt><trkpt lat="41.4600621" lon="13.1997791"><ele>22.0</ele><time>2026-03-22T08:15:46.05Z</time></trkpt><trkpt lat="41.4602065" lon="13.1997479"><ele>22.0</ele><time>2026-03-22T08:15:47.049Z</time></trkpt><trkpt lat="41.4603565" lon="13.199716"><ele>22.0</ele><time>2026-03-22T08:15:48.047Z</time></trkpt><trkpt lat="41.460504" lon="13.1996845"><ele>22.0</ele><time>2026-03-22T08:15:49.058Z</time></trkpt><trkpt lat="41.4606446" lon="13.1996539"><ele>22.0</ele><time>2026-03-22T08:15:50.05Z</time></trkpt><trkpt lat="41.4607851" lon="13.1996227"><ele>22.0</ele><time>2026-03-22T08:15:51.047Z</time></trkpt><trkpt lat="41.4609239" lon="13.1995914"><ele>22.0</ele><time>2026-03-22T08:15:52.058Z</time></trkpt><trkpt lat="41.4610624" lon="13.1995536"><ele>22.0</ele><time>2026-03-22T08:15:53.047Z</time></trkpt><trkpt lat="41.4612025" lon="13.1995146"><ele>22.0</ele><time>2026-03-22T08:15:54.045Z</time></trkpt><trkpt lat="41.4613329" lon="13.1994342"><ele>22.0</ele><time>2026-03-22T08:15:55.046Z</time></trkpt><trkpt lat="41.4614585" lon="13.1993361"><ele>22.0</ele><time>2026-03-22T08:15:56.047Z</time></trkpt><trkpt lat="41.4615769" lon="13.1992234"><ele>22.0</ele><time>2026-03-22T08:15:57.068Z</time></trkpt><trkpt lat="41.461688" lon="13.1990922"><ele>22.0</ele><time>2026-03-22T08:15:58.042Z</time></trkpt><trkpt lat="41.4617921" lon="13.198942"><ele>22.25</ele><time>2026-03-22T08:15:59.047Z</time></trkpt><trkpt lat="41.4618874" lon="13.1987904"><ele>22.5</ele><time>2026-03-22T08:16:00.052Z</time></trkpt><trkpt lat="41.4619818" lon="13.1986405"><ele>22.75</ele><time>2026-03-22T08:16:01.048Z</time></trkpt><trkpt lat="41.4620754" lon="13.1984917"><ele>23.0</ele><time>2026-03-22T08:16:02.051Z</time></trkpt><trkpt lat="41.462168" lon="13.1983453"><ele>23.0</ele><time>2026-03-22T08:16:03.046Z</time></trkpt><trkpt lat="41.4622601" lon="13.1982005"><ele>23.0</ele><time>2026-03-22T08:16:04.056Z</time></trkpt><trkpt lat="41.462354" lon="13.1980587"><ele>23.0</ele><time>2026-03-22T08:16:05.044Z</time></trkpt><trkpt lat="41.4624475" lon="13.1979184"><ele>23.0</ele><time>2026-03-22T08:16:06.045Z</time></trkpt><trkpt lat="41.4625416" lon="13.1977807"><ele>23.0</ele><time>2026-03-22T08:16:07.04Z</time></trkpt><trkpt lat="41.4626344" lon="13.1976474"><ele>23.0</ele><time>2026-03-22T08:16:08.049Z</time></trkpt><trkpt lat="41.462723" lon="13.1975126"><ele>23.0</ele><time>2026-03-22T08:16:09.045Z</time></trkpt><trkpt lat="41.4628105" lon="13.1973746"><ele>23.0</ele><time>2026-03-22T08:16:10.044Z</time></trkpt><trkpt lat="41.4628992" lon="13.1972365"><ele>23.25</ele><time>2026-03-22T08:16:11.049Z</time></trkpt><trkpt lat="41.4629899" lon="13.1970982"><ele>23.5</ele><time>2026-03-22T08:16:12.044Z</time></trkpt><trkpt lat="41.4630814" lon="13.1969579"><ele>23.75</ele><time>2026-03-22T08:16:13.057Z</time></trkpt><trkpt lat="41.4631733" lon="13.196816"><ele>24.0</ele><time>2026-03-22T08:16:14.045Z</time></trkpt><trkpt lat="41.4632677" lon="13.196675"><ele>24.0</ele><time>2026-03-22T08:16:15.052Z</time></trkpt><trkpt lat="41.4633659" lon="13.1965349"><ele>24.0</ele><time>2026-03-22T08:16:16.054Z</time></trkpt><trkpt lat="41.4634676" lon="13.1964016"><ele>24.0</ele><time>2026-03-22T08:16:17.046Z</time></trkpt><trkpt lat="41.4635771" lon="13.1962795"><ele>24.0</ele><time>2026-03-22T08:16:18.056Z</time></trkpt><trkpt lat="41.4636936" lon="13.1961708"><ele>23.75</ele><time>2026-03-22T08:16:19.043Z</time></trkpt><trkpt lat="41.4638092" lon="13.1960656"><ele>23.5</ele><time>2026-03-22T08:16:20.05Z</time></trkpt><trkpt lat="41.4639398" lon="13.1959824"><ele>23.25</ele><time>2026-03-22T08:16:21.042Z</time></trkpt><trkpt lat="41.4640754" lon="13.1959135"><ele>23.0</ele><time>2026-03-22T08:16:22.053Z</time></trkpt><trkpt lat="41.4642128" lon="13.1958611"><ele>23.0</ele><time>2026-03-22T08:16:23.047Z</time></trkpt><trkpt lat="41.4643524" lon="13.1958299"><ele>23.0</ele><time>2026-03-22T08:16:24.057Z</time></trkpt><trkpt lat="41.4644956" lon="13.1958156"><ele>23.0</ele><time>2026-03-22T08:16:25.046Z</time></trkpt><trkpt lat="41.4646424" lon="13.1958175"><ele>23.0</ele><time>2026-03-22T08:16:26.05Z</time></trkpt><trkpt lat="41.4647875" lon="13.1958345"><ele>22.75</ele><time>2026-03-22T08:16:27.046Z</time></trkpt><trkpt lat="41.4649305" lon="13.1958525"><ele>22.5</ele><time>2026-03-22T08:16:28.051Z</time></trkpt><trkpt lat="41.4650573" lon="13.1958951"><ele>22.25</ele><time>2026-03-22T08:16:29.055Z</time></trkpt><trkpt lat="41.4651615" lon="13.1959446"><ele>22.0</ele><time>2026-03-22T08:16:30.047Z</time></trkpt><trkpt lat="41.4652441" lon="13.1959967"><ele>22.0</ele><time>2026-03-22T08:16:31.051Z</time></trkpt><trkpt lat="41.465315" lon="13.1960493"><ele>22.0</ele><time>2026-03-22T08:16:32.046Z</time></trkpt><trkpt lat="41.4653811" lon="13.1960876"><ele>22.0</ele><time>2026-03-22T08:16:33.046Z</time></trkpt><trkpt lat="41.4654479" lon="13.1961273"><ele>22.0</ele><time>2026-03-22T08:16:34.046Z</time></trkpt><trkpt lat="41.4655181" lon="13.196161"><ele>22.0</ele><time>2026-03-22T08:16:35.047Z</time></trkpt><trkpt lat="41.4655892" lon="13.1962157"><ele>22.0</ele><time>2026-03-22T08:16:36.055Z</time></trkpt><trkpt lat="41.4656733" lon="13.1962731"><ele>22.400000000000002</ele><time>2026-03-22T08:16:37.049Z</time></trkpt><trkpt lat="41.4657596" lon="13.1963235"><ele>22.8</ele><time>2026-03-22T08:16:38.048Z</time></trkpt><trkpt lat="41.465836" lon="13.1963704"><ele>23.2</ele><time>2026-03-22T08:16:39.047Z</time></trkpt><trkpt lat="41.465916" lon="13.1964198"><ele>23.6</ele><time>2026-03-22T08:16:40.047Z</time></trkpt><trkpt lat="41.4660127" lon="13.1964734"><ele>24.0</ele><time>2026-03-22T08:16:41.053Z</time></trkpt><trkpt lat="41.466116" lon="13.1965317"><ele>24.0</ele><time>2026-03-22T08:16:42.045Z</time></trkpt><trkpt lat="41.4662349" lon="13.1966004"><ele>24.0</ele><time>2026-03-22T08:16:43.054Z</time></trkpt><trkpt lat="41.4663597" lon="13.1966636"><ele>24.0</ele><time>2026-03-22T08:16:44.043Z</time></trkpt><trkpt lat="41.4664905" lon="13.1967299"><ele>24.0</ele><time>2026-03-22T08:16:45.045Z</time></trkpt><trkpt lat="41.4666263" lon="13.1967766"><ele>24.0</ele><time>2026-03-22T08:16:46.05Z</time></trkpt><trkpt lat="41.4667745" lon="13.1968073"><ele>24.0</ele><time>2026-03-22T08:16:47.051Z</time></trkpt><trkpt lat="41.4669341" lon="13.1968125"><ele>24.0</ele><time>2026-03-22T08:16:48.054Z</time></trkpt><trkpt lat="41.4670867" lon="13.1968039"><ele>24.25</ele><time>2026-03-22T08:16:49.038Z</time></trkpt><trkpt lat="41.4672222" lon="13.1967989"><ele>24.5</ele><time>2026-03-22T08:16:50.043Z</time></trkpt><trkpt lat="41.4673515" lon="13.1967912"><ele>24.75</ele><time>2026-03-22T08:16:51.051Z</time></trkpt><trkpt lat="41.4674809" lon="13.1967795"><ele>25.0</ele><time>2026-03-22T08:16:52.048Z</time></trkpt><trkpt lat="41.4676158" lon="13.1967637"><ele>25.0</ele><time>2026-03-22T08:16:53.06Z</time></trkpt><trkpt lat="41.4677535" lon="13.1967487"><ele>25.0</ele><time>2026-03-22T08:16:54.05Z</time></trkpt><trkpt lat="41.4678921" lon="13.196727"><ele>25.0</ele><time>2026-03-22T08:16:55.046Z</time></trkpt><trkpt lat="41.4680258" lon="13.196708"><ele>25.0</ele><time>2026-03-22T08:16:56.044Z</time></trkpt><trkpt lat="41.4681621" lon="13.1966851"><ele>24.75</ele><time>2026-03-22T08:16:57.047Z</time></trkpt><trkpt lat="41.4683013" lon="13.1966677"><ele>24.5</ele><time>2026-03-22T08:16:58.05Z</time></trkpt><trkpt lat="41.4684377" lon="13.1966572"><ele>24.25</ele><time>2026-03-22T08:16:59.045Z</time></trkpt><trkpt lat="41.4685704" lon="13.1966411"><ele>24.0</ele><time>2026-03-22T08:17:00.044Z</time></trkpt><trkpt lat="41.4687043" lon="13.1966238"><ele>23.75</ele><time>2026-03-22T08:17:01.054Z</time></trkpt><trkpt lat="41.468844" lon="13.1966053"><ele>23.5</ele><time>2026-03-22T08:17:02.047Z</time></trkpt><trkpt lat="41.4689877" lon="13.1965917"><ele>23.25</ele><time>2026-03-22T08:17:03.055Z</time></trkpt><trkpt lat="41.4691334" lon="13.1965761"><ele>23.0</ele><time>2026-03-22T08:17:04.052Z</time></trkpt><trkpt lat="41.4692766" lon="13.1965612"><ele>23.0</ele><time>2026-03-22T08:17:05.054Z</time></trkpt><trkpt lat="41.4694173" lon="13.1965419"><ele>23.0</ele><time>2026-03-22T08:17:06.055Z</time></trkpt><trkpt lat="41.469556" lon="13.1965262"><ele>23.0</ele><time>2026-03-22T08:17:07.054Z</time></trkpt><trkpt lat="41.4696963" lon="13.1965082"><ele>23.0</ele><time>2026-03-22T08:17:08.064Z</time></trkpt><trkpt lat="41.4698397" lon="13.19649"><ele>24.0</ele><time>2026-03-22T08:17:09.052Z</time></trkpt><trkpt lat="41.469977" lon="13.1964743"><ele>25.0</ele><time>2026-03-22T08:17:10.046Z</time></trkpt><trkpt lat="41.4701066" lon="13.1964567"><ele>26.0</ele><time>2026-03-22T08:17:11.048Z</time></trkpt><trkpt lat="41.470228" lon="13.196443"><ele>27.0</ele><time>2026-03-22T08:17:12.042Z</time></trkpt><trkpt lat="41.4703381" lon="13.1964326"><ele>27.0</ele><time>2026-03-22T08:17:13.046Z</time></trkpt><trkpt lat="41.4704408" lon="13.1964219"><ele>27.0</ele><time>2026-03-22T08:17:14.046Z</time></trkpt><trkpt lat="41.4705343" lon="13.1964123"><ele>27.0</ele><time>2026-03-22T08:17:15.045Z</time></trkpt><trkpt lat="41.4706131" lon="13.1964049"><ele>27.0</ele><time>2026-03-22T08:17:16.047Z</time></trkpt><trkpt lat="41.4706779" lon="13.1964028"><ele>27.0</ele><time>2026-03-22T08:17:17.051Z</time></trkpt><trkpt lat="41.4707567" lon="13.1964415"><ele>27.0</ele><time>2026-03-22T08:17:19.057Z</time></trkpt><trkpt lat="41.4707794" lon="13.1965539"><ele>26.6</ele><time>2026-03-22T08:17:21.053Z</time></trkpt><trkpt lat="41.470768" lon="13.1966971"><ele>26.200000000000003</ele><time>2026-03-22T08:17:23.048Z</time></trkpt><trkpt lat="41.4707662" lon="13.196803"><ele>25.8</ele><time>2026-03-22T08:17:25.053Z</time></trkpt><trkpt lat="41.4707975" lon="13.1969219"><ele>25.4</ele><time>2026-03-22T08:22:39.024Z</time></trkpt><trkpt lat="41.4708233" lon="13.1970734"><ele>25.0</ele><time>2026-03-22T08:22:41.049Z</time></trkpt><trkpt lat="41.4708857" lon="13.1971616"><ele>25.0</ele><time>2026-03-22T08:22:43.054Z</time></trkpt><trkpt lat="41.4710052" lon="13.1971539"><ele>25.0</ele><time>2026-03-22T08:22:45.051Z</time></trkpt><trkpt lat="41.471133" lon="13.1971554"><ele>25.0</ele><time>2026-03-22T08:22:47.046Z</time></trkpt><trkpt lat="41.4712048" lon="13.1971597"><ele>25.0</ele><time>2026-03-22T08:22:48.046Z</time></trkpt><trkpt lat="41.4712806" lon="13.1971588"><ele>25.0</ele><time>2026-03-22T08:22:49.049Z</time></trkpt><trkpt lat="41.4713629" lon="13.1971554"><ele>25.000000000000004</ele><time>2026-03-22T08:22:50.042Z</time></trkpt><trkpt lat="41.4714476" lon="13.1971453"><ele>25.0</ele><time>2026-03-22T08:22:51.052Z</time></trkpt><trkpt lat="41.4715374" lon="13.197133"><ele>25.0</ele><time>2026-03-22T08:22:52.05Z</time></trkpt><trkpt lat="41.4716258" lon="13.1971239"><ele>25.0</ele><time>2026-03-22T08:22:53.041Z</time></trkpt><trkpt lat="41.4717118" lon="13.1971127"><ele>25.000000000000004</ele><time>2026-03-22T08:22:54.05Z</time></trkpt><trkpt lat="41.4717937" lon="13.1971043"><ele>25.0</ele><time>2026-03-22T08:22:55.05Z</time></trkpt><trkpt lat="41.4718754" lon="13.1970981"><ele>25.0</ele><time>2026-03-22T08:22:56.047Z</time></trkpt><trkpt lat="41.4719584" lon="13.1970912"><ele>25.0</ele><time>2026-03-22T08:22:57.056Z</time></trkpt><trkpt lat="41.4720441" lon="13.1970834"><ele>25.0</ele><time>2026-03-22T08:22:58.047Z</time></trkpt><trkpt lat="41.4721427" lon="13.1970714"><ele>25.0</ele><time>2026-03-22T08:22:59.052Z</time></trkpt><trkpt lat="41.4722375" lon="13.1970615"><ele>25.0</ele><time>2026-03-22T08:23:00.05Z</time></trkpt><trkpt lat="41.4723359" lon="13.1970514"><ele>25.2</ele><time>2026-03-22T08:23:01.047Z</time></trkpt><trkpt lat="41.4724381" lon="13.197039"><ele>25.4</ele><time>2026-03-22T08:23:02.052Z</time></trkpt><trkpt lat="41.4725385" lon="13.1970284"><ele>25.6</ele><time>2026-03-22T08:23:03.047Z</time></trkpt><trkpt lat="41.4726415" lon="13.1970158"><ele>25.8</ele><time>2026-03-22T08:23:04.06Z</time></trkpt><trkpt lat="41.4727399" lon="13.1970047"><ele>26.0</ele><time>2026-03-22T08:23:05.048Z</time></trkpt><trkpt lat="41.4728399" lon="13.1969882"><ele>26.0</ele><time>2026-03-22T08:23:06.076Z</time></trkpt><trkpt lat="41.4729384" lon="13.1969768"><ele>26.0</ele><time>2026-03-22T08:23:07.05Z</time></trkpt><trkpt lat="41.4730374" lon="13.196965"><ele>26.0</ele><time>2026-03-22T08:23:08.046Z</time></trkpt><trkpt lat="41.4731387" lon="13.1969477"><ele>26.0</ele><time>2026-03-22T08:23:09.052Z</time></trkpt><trkpt lat="41.4732384" lon="13.1969329"><ele>26.0</ele><time>2026-03-22T08:23:10.045Z</time></trkpt><trkpt lat="41.4733385" lon="13.1969171"><ele>26.0</ele><time>2026-03-22T08:23:11.052Z</time></trkpt><trkpt lat="41.4734392" lon="13.1968983"><ele>26.0</ele><time>2026-03-22T08:23:12.045Z</time></trkpt><trkpt lat="41.4735368" lon="13.196875"><ele>26.0</ele><time>2026-03-22T08:23:13.045Z</time></trkpt><trkpt lat="41.4736279" lon="13.1968346"><ele>26.0</ele><time>2026-03-22T08:23:14.044Z</time></trkpt><trkpt lat="41.4737203" lon="13.1967926"><ele>26.0</ele><time>2026-03-22T08:23:15.046Z</time></trkpt><trkpt lat="41.4738022" lon="13.1967387"><ele>26.200000000000003</ele><time>2026-03-22T08:23:16.043Z</time></trkpt><trkpt lat="41.4738842" lon="13.1966823"><ele>26.400000000000002</ele><time>2026-03-22T08:23:17.047Z</time></trkpt><trkpt lat="41.4739674" lon="13.1966221"><ele>26.6</ele><time>2026-03-22T08:23:18.045Z</time></trkpt><trkpt lat="41.4740515" lon="13.196554"><ele>26.8</ele><time>2026-03-22T08:23:19.043Z</time></trkpt><trkpt lat="41.4741383" lon="13.1964799"><ele>27.0</ele><time>2026-03-22T08:23:20.049Z</time></trkpt><trkpt lat="41.474225" lon="13.1963942"><ele>26.8</ele><time>2026-03-22T08:23:21.046Z</time></trkpt><trkpt lat="41.4743077" lon="13.196309"><ele>26.6</ele><time>2026-03-22T08:23:22.047Z</time></trkpt><trkpt lat="41.4743888" lon="13.1962247"><ele>26.400000000000002</ele><time>2026-03-22T08:23:23.044Z</time></trkpt><trkpt lat="41.4744673" lon="13.1961425"><ele>26.200000000000003</ele><time>2026-03-22T08:23:24.054Z</time></trkpt><trkpt lat="41.4745354" lon="13.196061"><ele>26.0</ele><time>2026-03-22T08:23:25.048Z</time></trkpt><trkpt lat="41.4746099" lon="13.1959749"><ele>26.0</ele><time>2026-03-22T08:23:26.049Z</time></trkpt><trkpt lat="41.4746835" lon="13.1958867"><ele>26.0</ele><time>2026-03-22T08:23:27.048Z</time></trkpt><trkpt lat="41.4747593" lon="13.1957974"><ele>26.0</ele><time>2026-03-22T08:23:28.049Z</time></trkpt><trkpt lat="41.4748367" lon="13.1957096"><ele>26.0</ele><time>2026-03-22T08:23:29.05Z</time></trkpt><trkpt lat="41.4749158" lon="13.1956266"><ele>26.0</ele><time>2026-03-22T08:23:30.053Z</time></trkpt><trkpt lat="41.4749933" lon="13.195541"><ele>26.0</ele><time>2026-03-22T08:23:31.048Z</time></trkpt><trkpt lat="41.4750712" lon="13.1954511"><ele>26.0</ele><time>2026-03-22T08:23:32.062Z</time></trkpt><trkpt lat="41.4751461" lon="13.1953637"><ele>26.0</ele><time>2026-03-22T08:23:33.046Z</time></trkpt><trkpt lat="41.4752156" lon="13.1952831"><ele>26.0</ele><time>2026-03-22T08:23:34.044Z</time></trkpt><trkpt lat="41.4752844" lon="13.1952074"><ele>26.0</ele><time>2026-03-22T08:23:35.049Z</time></trkpt><trkpt lat="41.4753599" lon="13.1951336"><ele>26.833333333333332</ele><time>2026-03-22T08:23:36.05Z</time></trkpt><trkpt lat="41.4754398" lon="13.1950666"><ele>27.666666666666664</ele><time>2026-03-22T08:23:37.05Z</time></trkpt><trkpt lat="41.4755239" lon="13.1950091"><ele>28.5</ele><time>2026-03-22T08:23:38.068Z</time></trkpt><trkpt lat="41.4756028" lon="13.1949639"><ele>29.333333333333336</ele><time>2026-03-22T08:23:39.043Z</time></trkpt><trkpt lat="41.4756788" lon="13.1949256"><ele>30.166666666666668</ele><time>2026-03-22T08:23:40.048Z</time></trkpt><trkpt lat="41.4757624" lon="13.1948911"><ele>31.0</ele><time>2026-03-22T08:23:41.046Z</time></trkpt><trkpt lat="41.475851" lon="13.194856"><ele>30.6</ele><time>2026-03-22T08:23:42.055Z</time></trkpt><trkpt lat="41.4759506" lon="13.1948201"><ele>30.200000000000003</ele><time>2026-03-22T08:23:43.05Z</time></trkpt><trkpt lat="41.4760521" lon="13.1947787"><ele>29.799999999999997</ele><time>2026-03-22T08:23:44.047Z</time></trkpt><trkpt lat="41.4761621" lon="13.1947247"><ele>29.4</ele><time>2026-03-22T08:23:45.045Z</time></trkpt><trkpt lat="41.4762703" lon="13.1946687"><ele>29.0</ele><time>2026-03-22T08:23:46.052Z</time></trkpt><trkpt lat="41.4763798" lon="13.194616"><ele>29.0</ele><time>2026-03-22T08:23:47.049Z</time></trkpt><trkpt lat="41.4764961" lon="13.1945728"><ele>29.0</ele><time>2026-03-22T08:23:48.065Z</time></trkpt><trkpt lat="41.4766105" lon="13.1945387"><ele>29.0</ele><time>2026-03-22T08:23:49.051Z</time></trkpt><trkpt lat="41.4767215" lon="13.1945131"><ele>29.0</ele><time>2026-03-22T08:23:50.043Z</time></trkpt><trkpt lat="41.4768299" lon="13.1944963"><ele>29.0</ele><time>2026-03-22T08:23:51.045Z</time></trkpt><trkpt lat="41.4769415" lon="13.1944896"><ele>29.0</ele><time>2026-03-22T08:23:52.051Z</time></trkpt><trkpt lat="41.4770566" lon="13.1944895"><ele>29.0</ele><time>2026-03-22T08:23:53.055Z</time></trkpt><trkpt lat="41.4771745" lon="13.1944972"><ele>29.0</ele><time>2026-03-22T08:23:54.05Z</time></trkpt><trkpt lat="41.4772936" lon="13.1945127"><ele>28.5</ele><time>2026-03-22T08:23:55.052Z</time></trkpt><trkpt lat="41.4774106" lon="13.1945426"><ele>28.0</ele><time>2026-03-22T08:23:56.068Z</time></trkpt><trkpt lat="41.4775267" lon="13.1945732"><ele>27.5</ele><time>2026-03-22T08:23:57.043Z</time></trkpt><trkpt lat="41.4776382" lon="13.1946343"><ele>27.0</ele><time>2026-03-22T08:23:58.047Z</time></trkpt><trkpt lat="41.4777433" lon="13.194702"><ele>27.0</ele><time>2026-03-22T08:23:59.053Z</time></trkpt><trkpt lat="41.4778348" lon="13.1947687"><ele>27.000000000000004</ele><time>2026-03-22T08:24:00.046Z</time></trkpt><trkpt lat="41.4779167" lon="13.1948436"><ele>27.000000000000004</ele><time>2026-03-22T08:24:01.056Z</time></trkpt><trkpt lat="41.4779942" lon="13.1949263"><ele>27.0</ele><time>2026-03-22T08:24:02.041Z</time></trkpt><trkpt lat="41.4780641" lon="13.1950052"><ele>27.0</ele><time>2026-03-22T08:24:03.047Z</time></trkpt><trkpt lat="41.4781316" lon="13.1950859"><ele>26.833333333333332</ele><time>2026-03-22T08:24:04.049Z</time></trkpt><trkpt lat="41.478193" lon="13.1951674"><ele>26.666666666666664</ele><time>2026-03-22T08:24:05.05Z</time></trkpt><trkpt lat="41.4782551" lon="13.195249"><ele>26.5</ele><time>2026-03-22T08:24:06.048Z</time></trkpt><trkpt lat="41.4782936" lon="13.1953407"><ele>26.333333333333332</ele><time>2026-03-22T08:24:07.05Z</time></trkpt><trkpt lat="41.4783338" lon="13.1954356"><ele>26.166666666666664</ele><time>2026-03-22T08:24:08.046Z</time></trkpt><trkpt lat="41.4783824" lon="13.1955308"><ele>26.0</ele><time>2026-03-22T08:24:09.045Z</time></trkpt><trkpt lat="41.4784354" lon="13.1956322"><ele>26.200000000000003</ele><time>2026-03-22T08:24:10.051Z</time></trkpt><trkpt lat="41.4784845" lon="13.1957473"><ele>26.400000000000002</ele><time>2026-03-22T08:24:11.044Z</time></trkpt><trkpt lat="41.478527" lon="13.1958732"><ele>26.6</ele><time>2026-03-22T08:24:12.046Z</time></trkpt><trkpt lat="41.4785669" lon="13.1960066"><ele>26.8</ele><time>2026-03-22T08:24:13.047Z</time></trkpt><trkpt lat="41.4786087" lon="13.1961364"><ele>27.0</ele><time>2026-03-22T08:24:14.045Z</time></trkpt><trkpt lat="41.4786593" lon="13.1962634"><ele>27.0</ele><time>2026-03-22T08:24:15.046Z</time></trkpt><trkpt lat="41.4787178" lon="13.1963895"><ele>27.000000000000004</ele><time>2026-03-22T08:24:16.049Z</time></trkpt><trkpt lat="41.4787751" lon="13.1965099"><ele>27.000000000000004</ele><time>2026-03-22T08:24:17.054Z</time></trkpt><trkpt lat="41.4788326" lon="13.1966344"><ele>27.0</ele><time>2026-03-22T08:24:18.049Z</time></trkpt><trkpt lat="41.4788886" lon="13.1967504"><ele>27.0</ele><time>2026-03-22T08:24:19.053Z</time></trkpt><trkpt lat="41.4789484" lon="13.1968553"><ele>27.0</ele><time>2026-03-22T08:24:20.042Z</time></trkpt><trkpt lat="41.4790163" lon="13.1969532"><ele>27.000000000000004</ele><time>2026-03-22T08:24:21.048Z</time></trkpt><trkpt lat="41.4790889" lon="13.1970498"><ele>27.000000000000004</ele><time>2026-03-22T08:24:22.042Z</time></trkpt><trkpt lat="41.479169" lon="13.197147"><ele>27.0</ele><time>2026-03-22T08:24:23.04Z</time></trkpt><trkpt lat="41.4792559" lon="13.1972387"><ele>27.0</ele><time>2026-03-22T08:24:24.05Z</time></trkpt><trkpt lat="41.4793476" lon="13.1973204"><ele>27.0</ele><time>2026-03-22T08:24:25.054Z</time></trkpt><trkpt lat="41.4794373" lon="13.1973852"><ele>27.000000000000004</ele><time>2026-03-22T08:24:26.058Z</time></trkpt><trkpt lat="41.4795291" lon="13.19744"><ele>27.000000000000004</ele><time>2026-03-22T08:24:27.049Z</time></trkpt><trkpt lat="41.4796232" lon="13.1974828"><ele>27.0</ele><time>2026-03-22T08:24:28.043Z</time></trkpt><trkpt lat="41.4797181" lon="13.197518"><ele>27.0</ele><time>2026-03-22T08:24:29.046Z</time></trkpt><trkpt lat="41.4798126" lon="13.1975532"><ele>26.8</ele><time>2026-03-22T08:24:30.044Z</time></trkpt><trkpt lat="41.4799099" lon="13.1975808"><ele>26.6</ele><time>2026-03-22T08:24:31.052Z</time></trkpt><trkpt lat="41.4800101" lon="13.197608"><ele>26.400000000000002</ele><time>2026-03-22T08:24:32.042Z</time></trkpt><trkpt lat="41.480104" lon="13.197632"><ele>26.200000000000003</ele><time>2026-03-22T08:24:33.038Z</time></trkpt><trkpt lat="41.4801902" lon="13.1976561"><ele>26.0</ele><time>2026-03-22T08:24:34.049Z</time></trkpt><trkpt lat="41.4802635" lon="13.1976936"><ele>25.999999999999996</ele><time>2026-03-22T08:24:35.041Z</time></trkpt><trkpt lat="41.4803373" lon="13.197719"><ele>26.0</ele><time>2026-03-22T08:24:36.046Z</time></trkpt><trkpt lat="41.480412" lon="13.1977546"><ele>26.0</ele><time>2026-03-22T08:24:37.052Z</time></trkpt><trkpt lat="41.4804888" lon="13.1978103"><ele>26.0</ele><time>2026-03-22T08:24:38.043Z</time></trkpt><trkpt lat="41.4805658" lon="13.1978845"><ele>25.999999999999996</ele><time>2026-03-22T08:24:39.047Z</time></trkpt><trkpt lat="41.4806382" lon="13.1979796"><ele>26.0</ele><time>2026-03-22T08:24:40.047Z</time></trkpt><trkpt lat="41.4807079" lon="13.1980867"><ele>26.4</ele><time>2026-03-22T08:24:41.079Z</time></trkpt><trkpt lat="41.4807709" lon="13.1982004"><ele>26.8</ele><time>2026-03-22T08:24:42.069Z</time></trkpt><trkpt lat="41.4808316" lon="13.1983196"><ele>27.199999999999996</ele><time>2026-03-22T08:24:43.041Z</time></trkpt><trkpt lat="41.4808905" lon="13.1984393"><ele>27.599999999999998</ele><time>2026-03-22T08:24:44.048Z</time></trkpt><trkpt lat="41.480944" lon="13.1985592"><ele>28.0</ele><time>2026-03-22T08:24:45.045Z</time></trkpt><trkpt lat="41.4809833" lon="13.1986751"><ele>28.0</ele><time>2026-03-22T08:24:46.049Z</time></trkpt><trkpt lat="41.4810038" lon="13.1987954"><ele>27.999999999999996</ele><time>2026-03-22T08:24:47.045Z</time></trkpt><trkpt lat="41.481025" lon="13.1989169"><ele>27.999999999999996</ele><time>2026-03-22T08:24:48.061Z</time></trkpt><trkpt lat="41.481069" lon="13.1990399"><ele>28.0</ele><time>2026-03-22T08:24:49.048Z</time></trkpt><trkpt lat="41.4811292" lon="13.1991648"><ele>28.0</ele><time>2026-03-22T08:24:50.045Z</time></trkpt><trkpt lat="41.48119" lon="13.1992863"><ele>28.0</ele><time>2026-03-22T08:24:51.047Z</time></trkpt><trkpt lat="41.4812485" lon="13.1994173"><ele>27.999999999999996</ele><time>2026-03-22T08:24:52.042Z</time></trkpt><trkpt lat="41.4813071" lon="13.1995492"><ele>27.999999999999996</ele><time>2026-03-22T08:24:53.055Z</time></trkpt><trkpt lat="41.4813611" lon="13.1996681"><ele>28.0</ele><time>2026-03-22T08:24:54.047Z</time></trkpt><trkpt lat="41.4814074" lon="13.1997714"><ele>28.0</ele><time>2026-03-22T08:24:55.047Z</time></trkpt><trkpt lat="41.481455" lon="13.1998367"><ele>28.2</ele><time>2026-03-22T08:24:56.044Z</time></trkpt><trkpt lat="41.4815309" lon="13.1999765"><ele>28.4</ele><time>2026-03-22T08:24:58.059Z</time></trkpt><trkpt lat="41.4815843" lon="13.2000554"><ele>28.599999999999998</ele><time>2026-03-22T08:24:59.052Z</time></trkpt><trkpt lat="41.4816491" lon="13.200137"><ele>28.799999999999997</ele><time>2026-03-22T08:25:00.043Z</time></trkpt><trkpt lat="41.4817277" lon="13.2002239"><ele>29.0</ele><time>2026-03-22T08:25:01.047Z</time></trkpt><trkpt lat="41.4818176" lon="13.2003097"><ele>29.0</ele><time>2026-03-22T08:25:02.044Z</time></trkpt><trkpt lat="41.4819237" lon="13.200389"><ele>29.0</ele><time>2026-03-22T08:25:03.057Z</time></trkpt><trkpt lat="41.482034" lon="13.200456"><ele>29.0</ele><time>2026-03-22T08:25:04.049Z</time></trkpt><trkpt lat="41.4821521" lon="13.2005157"><ele>29.0</ele><time>2026-03-22T08:25:05.05Z</time></trkpt><trkpt lat="41.4822751" lon="13.2005664"><ele>28.75</ele><time>2026-03-22T08:25:06.047Z</time></trkpt><trkpt lat="41.4823932" lon="13.2006198"><ele>28.5</ele><time>2026-03-22T08:25:07.043Z</time></trkpt><trkpt lat="41.4825034" lon="13.2006785"><ele>28.25</ele><time>2026-03-22T08:25:08.042Z</time></trkpt><trkpt lat="41.4826103" lon="13.200734"><ele>28.0</ele><time>2026-03-22T08:25:09.048Z</time></trkpt><trkpt lat="41.4827098" lon="13.2007868"><ele>28.0</ele><time>2026-03-22T08:25:10.047Z</time></trkpt><trkpt lat="41.4828029" lon="13.2008367"><ele>27.999999999999996</ele><time>2026-03-22T08:25:11.054Z</time></trkpt><trkpt lat="41.482893" lon="13.2008884"><ele>27.999999999999996</ele><time>2026-03-22T08:25:12.054Z</time></trkpt><trkpt lat="41.4829804" lon="13.2009446"><ele>28.0</ele><time>2026-03-22T08:25:13.049Z</time></trkpt><trkpt lat="41.4830709" lon="13.2009959"><ele>28.0</ele><time>2026-03-22T08:25:14.052Z</time></trkpt><trkpt lat="41.4831615" lon="13.2010394"><ele>28.0</ele><time>2026-03-22T08:25:15.039Z</time></trkpt><trkpt lat="41.4832537" lon="13.20109"><ele>27.999999999999996</ele><time>2026-03-22T08:25:16.046Z</time></trkpt><trkpt lat="41.4833419" lon="13.2011424"><ele>27.999999999999996</ele><time>2026-03-22T08:25:17.051Z</time></trkpt><trkpt lat="41.4834324" lon="13.2011955"><ele>28.0</ele><time>2026-03-22T08:25:18.056Z</time></trkpt><trkpt lat="41.4835198" lon="13.2012471"><ele>28.0</ele><time>2026-03-22T08:25:19.053Z</time></trkpt><trkpt lat="41.4835954" lon="13.201298"><ele>28.0</ele><time>2026-03-22T08:25:20.05Z</time></trkpt><trkpt lat="41.483659" lon="13.2013497"><ele>27.999999999999996</ele><time>2026-03-22T08:25:21.05Z</time></trkpt><trkpt lat="41.4837076" lon="13.2014081"><ele>27.999999999999996</ele><time>2026-03-22T08:25:22.05Z</time></trkpt><trkpt lat="41.4837778" lon="13.2015206"><ele>28.0</ele><time>2026-03-22T08:25:24.046Z</time></trkpt><trkpt lat="41.4838286" lon="13.2015823"><ele>28.0</ele><time>2026-03-22T08:25:27.061Z</time></trkpt><trkpt lat="41.4839264" lon="13.2014249"><ele>28.166666666666668</ele><time>2026-03-22T08:26:35.051Z</time></trkpt><trkpt lat="41.4839457" lon="13.2013372"><ele>28.333333333333336</ele><time>2026-03-22T08:26:36.049Z</time></trkpt><trkpt lat="41.4839654" lon="13.2012322"><ele>28.5</ele><time>2026-03-22T08:26:37.054Z</time></trkpt><trkpt lat="41.4839832" lon="13.2011139"><ele>28.666666666666664</ele><time>2026-03-22T08:26:38.048Z</time></trkpt><trkpt lat="41.4840028" lon="13.2009868"><ele>28.833333333333332</ele><time>2026-03-22T08:26:39.046Z</time></trkpt><trkpt lat="41.4840242" lon="13.2008531"><ele>29.0</ele><time>2026-03-22T08:26:40.046Z</time></trkpt><trkpt lat="41.484043" lon="13.2007314"><ele>29.000000000000004</ele><time>2026-03-22T08:26:41.052Z</time></trkpt><trkpt lat="41.4840592" lon="13.2006232"><ele>29.0</ele><time>2026-03-22T08:26:42.046Z</time></trkpt><trkpt lat="41.484073" lon="13.2005238"><ele>29.000000000000004</ele><time>2026-03-22T08:26:43.052Z</time></trkpt><trkpt lat="41.4840874" lon="13.2004306"><ele>29.000000000000004</ele><time>2026-03-22T08:26:44.051Z</time></trkpt><trkpt lat="41.484102" lon="13.200342"><ele>29.0</ele><time>2026-03-22T08:26:45.054Z</time></trkpt><trkpt lat="41.4841168" lon="13.2002549"><ele>29.000000000000004</ele><time>2026-03-22T08:26:46.053Z</time></trkpt><trkpt lat="41.4841309" lon="13.2001645"><ele>29.000000000000004</ele><time>2026-03-22T08:26:47.048Z</time></trkpt><trkpt lat="41.4841447" lon="13.2000745"><ele>28.999999999999996</ele><time>2026-03-22T08:26:48.061Z</time></trkpt><trkpt lat="41.48416" lon="13.1999836"><ele>29.0</ele><time>2026-03-22T08:26:49.046Z</time></trkpt><trkpt lat="41.4841894" lon="13.1998864"><ele>29.0</ele><time>2026-03-22T08:26:50.047Z</time></trkpt><trkpt lat="41.4842368" lon="13.1997883"><ele>29.0</ele><time>2026-03-22T08:26:51.052Z</time></trkpt><trkpt lat="41.4842939" lon="13.1996792"><ele>28.999999999999996</ele><time>2026-03-22T08:26:52.05Z</time></trkpt><trkpt lat="41.4843512" lon="13.1995569"><ele>29.0</ele><time>2026-03-22T08:26:53.061Z</time></trkpt><trkpt lat="41.4844109" lon="13.199427"><ele>29.25</ele><time>2026-03-22T08:26:54.047Z</time></trkpt><trkpt lat="41.4844833" lon="13.1992964"><ele>29.5</ele><time>2026-03-22T08:26:55.048Z</time></trkpt><trkpt lat="41.4845719" lon="13.1991818"><ele>29.75</ele><time>2026-03-22T08:26:56.052Z</time></trkpt><trkpt lat="41.4846765" lon="13.1990769"><ele>30.0</ele><time>2026-03-22T08:26:57.044Z</time></trkpt><trkpt lat="41.4847909" lon="13.1989756"><ele>29.5</ele><time>2026-03-22T08:26:58.058Z</time></trkpt><trkpt lat="41.484909" lon="13.1988783"><ele>29.0</ele><time>2026-03-22T08:26:59.045Z</time></trkpt><trkpt lat="41.4850284" lon="13.1987843"><ele>28.5</ele><time>2026-03-22T08:27:00.051Z</time></trkpt><trkpt lat="41.4851494" lon="13.1986911"><ele>28.0</ele><time>2026-03-22T08:27:01.046Z</time></trkpt><trkpt lat="41.4852722" lon="13.1985957"><ele>28.0</ele><time>2026-03-22T08:27:02.043Z</time></trkpt><trkpt lat="41.4853969" lon="13.1984984"><ele>28.0</ele><time>2026-03-22T08:27:03.049Z</time></trkpt><trkpt lat="41.4855158" lon="13.1984063"><ele>28.0</ele><time>2026-03-22T08:27:04.042Z</time></trkpt><trkpt lat="41.4856307" lon="13.1983224"><ele>28.0</ele><time>2026-03-22T08:27:05.067Z</time></trkpt><trkpt lat="41.4857379" lon="13.1982508"><ele>27.799999999999997</ele><time>2026-03-22T08:27:06.051Z</time></trkpt><trkpt lat="41.4858353" lon="13.1981855"><ele>27.599999999999998</ele><time>2026-03-22T08:27:07.047Z</time></trkpt><trkpt lat="41.4859303" lon="13.1981224"><ele>27.400000000000002</ele><time>2026-03-22T08:27:08.045Z</time></trkpt><trkpt lat="41.4860313" lon="13.1980575"><ele>27.200000000000003</ele><time>2026-03-22T08:27:09.049Z</time></trkpt><trkpt lat="41.4861265" lon="13.1979964"><ele>27.0</ele><time>2026-03-22T08:27:10.048Z</time></trkpt><trkpt lat="41.4862119" lon="13.1979427"><ele>27.0</ele><time>2026-03-22T08:27:11.048Z</time></trkpt><trkpt lat="41.4862846" lon="13.1978856"><ele>27.0</ele><time>2026-03-22T08:27:12.043Z</time></trkpt><trkpt lat="41.4863434" lon="13.1978153"><ele>27.0</ele><time>2026-03-22T08:27:13.056Z</time></trkpt><trkpt lat="41.4863873" lon="13.1977331"><ele>27.0</ele><time>2026-03-22T08:27:14.047Z</time></trkpt><trkpt lat="41.4864073" lon="13.1976379"><ele>27.0</ele><time>2026-03-22T08:27:15.045Z</time></trkpt><trkpt lat="41.4863972" lon="13.1975363"><ele>27.0</ele><time>2026-03-22T08:27:16.048Z</time></trkpt><trkpt lat="41.4863672" lon="13.1974153"><ele>27.0</ele><time>2026-03-22T08:27:17.039Z</time></trkpt><trkpt lat="41.4863348" lon="13.1972766"><ele>27.0</ele><time>2026-03-22T08:27:18.05Z</time></trkpt><trkpt lat="41.4863028" lon="13.1971215"><ele>27.0</ele><time>2026-03-22T08:27:19.052Z</time></trkpt><trkpt lat="41.4862717" lon="13.1969545"><ele>27.0</ele><time>2026-03-22T08:27:20.043Z</time></trkpt><trkpt lat="41.4862446" lon="13.1967827"><ele>27.25</ele><time>2026-03-22T08:27:21.053Z</time></trkpt><trkpt lat="41.4862177" lon="13.1966139"><ele>27.5</ele><time>2026-03-22T08:27:22.05Z</time></trkpt><trkpt lat="41.4861853" lon="13.1964468"><ele>27.75</ele><time>2026-03-22T08:27:23.042Z</time></trkpt><trkpt lat="41.486151" lon="13.1962922"><ele>28.0</ele><time>2026-03-22T08:27:24.046Z</time></trkpt><trkpt lat="41.4861231" lon="13.1961411"><ele>28.0</ele><time>2026-03-22T08:27:25.051Z</time></trkpt><trkpt lat="41.4861052" lon="13.1959775"><ele>28.0</ele><time>2026-03-22T08:27:26.046Z</time></trkpt><trkpt lat="41.4860928" lon="13.1958039"><ele>28.0</ele><time>2026-03-22T08:27:27.047Z</time></trkpt><trkpt lat="41.4860838" lon="13.1956289"><ele>28.0</ele><time>2026-03-22T08:27:28.059Z</time></trkpt><trkpt lat="41.4860808" lon="13.1954659"><ele>27.666666666666668</ele><time>2026-03-22T08:27:29.048Z</time></trkpt><trkpt lat="41.4860848" lon="13.1953275"><ele>27.333333333333336</ele><time>2026-03-22T08:27:30.045Z</time></trkpt><trkpt lat="41.4861014" lon="13.1952135"><ele>27.0</ele><time>2026-03-22T08:27:31.041Z</time></trkpt><trkpt lat="41.4861358" lon="13.1951207"><ele>26.666666666666664</ele><time>2026-03-22T08:27:32.045Z</time></trkpt><trkpt lat="41.4861891" lon="13.1950344"><ele>26.333333333333332</ele><time>2026-03-22T08:27:33.05Z</time></trkpt><trkpt lat="41.4862515" lon="13.1949404"><ele>26.0</ele><time>2026-03-22T08:27:34.052Z</time></trkpt><trkpt lat="41.4863008" lon="13.1948346"><ele>26.666666666666664</ele><time>2026-03-22T08:27:35.048Z</time></trkpt><trkpt lat="41.4863283" lon="13.1947195"><ele>27.333333333333332</ele><time>2026-03-22T08:27:36.057Z</time></trkpt><trkpt lat="41.4863352" lon="13.1945938"><ele>28.0</ele><time>2026-03-22T08:27:37.047Z</time></trkpt><trkpt lat="41.4863283" lon="13.1944819"><ele>28.666666666666664</ele><time>2026-03-22T08:27:38.038Z</time></trkpt><trkpt lat="41.4863249" lon="13.1943811"><ele>29.333333333333332</ele><time>2026-03-22T08:27:39.049Z</time></trkpt><trkpt lat="41.4863375" lon="13.1942833"><ele>30.0</ele><time>2026-03-22T08:27:40.042Z</time></trkpt><trkpt lat="41.4863749" lon="13.1941825"><ele>30.0</ele><time>2026-03-22T08:27:41.063Z</time></trkpt><trkpt lat="41.486428" lon="13.1940814"><ele>30.0</ele><time>2026-03-22T08:27:42.037Z</time></trkpt><trkpt lat="41.4864921" lon="13.1939785"><ele>30.0</ele><time>2026-03-22T08:27:43.048Z</time></trkpt><trkpt lat="41.4865653" lon="13.1938891"><ele>30.0</ele><time>2026-03-22T08:27:44.044Z</time></trkpt><trkpt lat="41.4866496" lon="13.1938157"><ele>30.0</ele><time>2026-03-22T08:27:45.047Z</time></trkpt><trkpt lat="41.4867456" lon="13.1937599"><ele>30.0</ele><time>2026-03-22T08:27:46.049Z</time></trkpt><trkpt lat="41.4868515" lon="13.193719"><ele>30.0</ele><time>2026-03-22T08:27:47.045Z</time></trkpt><trkpt lat="41.4869614" lon="13.1936778"><ele>30.0</ele><time>2026-03-22T08:27:48.048Z</time></trkpt><trkpt lat="41.4870774" lon="13.1936355"><ele>30.0</ele><time>2026-03-22T08:27:49.044Z</time></trkpt><trkpt lat="41.4872028" lon="13.1935751"><ele>29.75</ele><time>2026-03-22T08:27:50.042Z</time></trkpt><trkpt lat="41.4873375" lon="13.1935046"><ele>29.5</ele><time>2026-03-22T08:27:51.044Z</time></trkpt><trkpt lat="41.48747" lon="13.1934272"><ele>29.25</ele><time>2026-03-22T08:27:52.047Z</time></trkpt><trkpt lat="41.4875965" lon="13.1933432"><ele>29.0</ele><time>2026-03-22T08:27:53.05Z</time></trkpt><trkpt lat="41.4877051" lon="13.1932638"><ele>28.999999999999996</ele><time>2026-03-22T08:27:54.05Z</time></trkpt><trkpt lat="41.4877935" lon="13.1931891"><ele>29.0</ele><time>2026-03-22T08:27:55.049Z</time></trkpt><trkpt lat="41.4878665" lon="13.1931123"><ele>29.0</ele><time>2026-03-22T08:27:56.047Z</time></trkpt><trkpt lat="41.4879298" lon="13.1930352"><ele>29.0</ele><time>2026-03-22T08:27:57.047Z</time></trkpt><trkpt lat="41.487984" lon="13.1929656"><ele>28.999999999999996</ele><time>2026-03-22T08:27:58.047Z</time></trkpt><trkpt lat="41.4880361" lon="13.1929165"><ele>29.0</ele><time>2026-03-22T08:27:59.064Z</time></trkpt><trkpt lat="41.4881632" lon="13.1928897"><ele>28.799999999999997</ele><time>2026-03-22T08:28:01.047Z</time></trkpt><trkpt lat="41.4882429" lon="13.1929115"><ele>28.599999999999998</ele><time>2026-03-22T08:28:02.045Z</time></trkpt><trkpt lat="41.4883304" lon="13.1929529"><ele>28.4</ele><time>2026-03-22T08:28:03.043Z</time></trkpt><trkpt lat="41.4884269" lon="13.1930039"><ele>28.2</ele><time>2026-03-22T08:28:04.049Z</time></trkpt><trkpt lat="41.4885279" lon="13.1930566"><ele>28.0</ele><time>2026-03-22T08:28:05.051Z</time></trkpt><trkpt lat="41.4886291" lon="13.1931082"><ele>28.0</ele><time>2026-03-22T08:28:06.049Z</time></trkpt><trkpt lat="41.4887319" lon="13.1931572"><ele>27.999999999999996</ele><time>2026-03-22T08:28:07.046Z</time></trkpt><trkpt lat="41.4888312" lon="13.1931986"><ele>27.999999999999996</ele><time>2026-03-22T08:28:08.044Z</time></trkpt><trkpt lat="41.4889312" lon="13.1932242"><ele>28.0</ele><time>2026-03-22T08:28:09.044Z</time></trkpt><trkpt lat="41.4890358" lon="13.1932252"><ele>28.0</ele><time>2026-03-22T08:28:10.045Z</time></trkpt><trkpt lat="41.4891401" lon="13.1932014"><ele>28.2</ele><time>2026-03-22T08:28:11.063Z</time></trkpt><trkpt lat="41.4892439" lon="13.1931781"><ele>28.4</ele><time>2026-03-22T08:28:12.044Z</time></trkpt><trkpt lat="41.4893409" lon="13.1931461"><ele>28.599999999999998</ele><time>2026-03-22T08:28:13.047Z</time></trkpt><trkpt lat="41.4894372" lon="13.1930938"><ele>28.799999999999997</ele><time>2026-03-22T08:28:14.046Z</time></trkpt><trkpt lat="41.4895328" lon="13.1930199"><ele>29.0</ele><time>2026-03-22T08:28:15.047Z</time></trkpt><trkpt lat="41.4896272" lon="13.1929461"><ele>29.5</ele><time>2026-03-22T08:28:16.052Z</time></trkpt><trkpt lat="41.4897272" lon="13.192872"><ele>30.0</ele><time>2026-03-22T08:28:17.042Z</time></trkpt><trkpt lat="41.4898322" lon="13.1928038"><ele>30.5</ele><time>2026-03-22T08:28:18.045Z</time></trkpt><trkpt lat="41.4899431" lon="13.1927465"><ele>31.0</ele><time>2026-03-22T08:28:19.047Z</time></trkpt><trkpt lat="41.4900501" lon="13.1926924"><ele>31.0</ele><time>2026-03-22T08:28:20.068Z</time></trkpt><trkpt lat="41.4901495" lon="13.1926412"><ele>31.0</ele><time>2026-03-22T08:28:21.046Z</time></trkpt><trkpt lat="41.4902388" lon="13.1925981"><ele>31.0</ele><time>2026-03-22T08:28:22.053Z</time></trkpt><trkpt lat="41.4903176" lon="13.1925592"><ele>31.0</ele><time>2026-03-22T08:28:23.048Z</time></trkpt><trkpt lat="41.4903857" lon="13.1925236"><ele>31.0</ele><time>2026-03-22T08:28:24.049Z</time></trkpt><trkpt lat="41.4904903" lon="13.1924678"><ele>31.833333333333336</ele><time>2026-03-22T08:28:26.047Z</time></trkpt><trkpt lat="41.4905617" lon="13.1924425"><ele>32.66666666666667</ele><time>2026-03-22T08:28:29.062Z</time></trkpt><trkpt lat="41.4906265" lon="13.1925358"><ele>33.5</ele><time>2026-03-22T08:28:40.042Z</time></trkpt><trkpt lat="41.4906602" lon="13.192665"><ele>34.333333333333336</ele><time>2026-03-22T08:28:42.043Z</time></trkpt><trkpt lat="41.4906848" lon="13.1927794"><ele>35.166666666666664</ele><time>2026-03-22T08:28:44.048Z</time></trkpt><trkpt lat="41.4907353" lon="13.1928721"><ele>36.0</ele><time>2026-03-22T08:28:46.055Z</time></trkpt><trkpt lat="41.4908508" lon="13.192895"><ele>36.0</ele><time>2026-03-22T08:28:48.047Z</time></trkpt><trkpt lat="41.4909264" lon="13.1928643"><ele>36.0</ele><time>2026-03-22T08:28:49.05Z</time></trkpt><trkpt lat="41.4910167" lon="13.1928274"><ele>36.0</ele><time>2026-03-22T08:28:50.048Z</time></trkpt><trkpt lat="41.4911143" lon="13.1927711"><ele>36.0</ele><time>2026-03-22T08:28:51.07Z</time></trkpt><trkpt lat="41.4912168" lon="13.1927114"><ele>36.0</ele><time>2026-03-22T08:28:52.046Z</time></trkpt><trkpt lat="41.4913269" lon="13.19265"><ele>35.5</ele><time>2026-03-22T08:28:53.038Z</time></trkpt><trkpt lat="41.4914427" lon="13.1925849"><ele>35.0</ele><time>2026-03-22T08:28:54.054Z</time></trkpt><trkpt lat="41.4915601" lon="13.1925183"><ele>34.5</ele><time>2026-03-22T08:28:55.046Z</time></trkpt><trkpt lat="41.4916801" lon="13.1924502"><ele>34.0</ele><time>2026-03-22T08:28:56.06Z</time></trkpt><trkpt lat="41.4918017" lon="13.1923822"><ele>34.25</ele><time>2026-03-22T08:28:57.046Z</time></trkpt><trkpt lat="41.4919248" lon="13.1923129"><ele>34.5</ele><time>2026-03-22T08:28:58.043Z</time></trkpt><trkpt lat="41.4920571" lon="13.1922413"><ele>34.75</ele><time>2026-03-22T08:28:59.048Z</time></trkpt><trkpt lat="41.4921927" lon="13.1921641"><ele>35.0</ele><time>2026-03-22T08:29:00.044Z</time></trkpt><trkpt lat="41.4923354" lon="13.1920885"><ele>35.0</ele><time>2026-03-22T08:29:01.05Z</time></trkpt><trkpt lat="41.4924785" lon="13.1920138"><ele>35.0</ele><time>2026-03-22T08:29:02.051Z</time></trkpt><trkpt lat="41.4926102" lon="13.1919465"><ele>35.0</ele><time>2026-03-22T08:29:03.045Z</time></trkpt><trkpt lat="41.4927363" lon="13.1918754"><ele>35.0</ele><time>2026-03-22T08:29:04.064Z</time></trkpt><trkpt lat="41.4928633" lon="13.1917923"><ele>35.0</ele><time>2026-03-22T08:29:05.046Z</time></trkpt><trkpt lat="41.4929861" lon="13.1916948"><ele>35.0</ele><time>2026-03-22T08:29:06.052Z</time></trkpt><trkpt lat="41.4931047" lon="13.1915814"><ele>35.0</ele><time>2026-03-22T08:29:07.048Z</time></trkpt><trkpt lat="41.4932203" lon="13.1914565"><ele>35.0</ele><time>2026-03-22T08:29:08.054Z</time></trkpt><trkpt lat="41.4933356" lon="13.1913286"><ele>34.75</ele><time>2026-03-22T08:29:09.048Z</time></trkpt><trkpt lat="41.4934455" lon="13.1912048"><ele>34.5</ele><time>2026-03-22T08:29:10.054Z</time></trkpt><trkpt lat="41.4935579" lon="13.1910822"><ele>34.25</ele><time>2026-03-22T08:29:11.044Z</time></trkpt><trkpt lat="41.4936677" lon="13.190973"><ele>34.0</ele><time>2026-03-22T08:29:12.044Z</time></trkpt><trkpt lat="41.4937665" lon="13.1908946"><ele>34.0</ele><time>2026-03-22T08:29:13.062Z</time></trkpt><trkpt lat="41.4938555" lon="13.1908265"><ele>34.0</ele><time>2026-03-22T08:29:14.052Z</time></trkpt><trkpt lat="41.4939461" lon="13.19083"><ele>34.0</ele><time>2026-03-22T08:29:15.049Z</time></trkpt><trkpt lat="41.494025" lon="13.1908657"><ele>34.0</ele><time>2026-03-22T08:29:16.053Z</time></trkpt><trkpt lat="41.4940977" lon="13.1909262"><ele>34.0</ele><time>2026-03-22T08:29:17.048Z</time></trkpt><trkpt lat="41.4941682" lon="13.191004"><ele>34.0</ele><time>2026-03-22T08:29:18.05Z</time></trkpt><trkpt lat="41.494249" lon="13.1910925"><ele>34.0</ele><time>2026-03-22T08:29:19.046Z</time></trkpt><trkpt lat="41.4943381" lon="13.1911921"><ele>34.0</ele><time>2026-03-22T08:29:20.064Z</time></trkpt><trkpt lat="41.4944249" lon="13.1913068"><ele>34.0</ele><time>2026-03-22T08:29:21.05Z</time></trkpt><trkpt lat="41.4945155" lon="13.1914275"><ele>34.5</ele><time>2026-03-22T08:29:22.041Z</time></trkpt><trkpt lat="41.4945888" lon="13.1915815"><ele>35.0</ele><time>2026-03-22T08:29:23.044Z</time></trkpt><trkpt lat="41.4946593" lon="13.1917331"><ele>35.5</ele><time>2026-03-22T08:29:24.053Z</time></trkpt><trkpt lat="41.4947355" lon="13.1918876"><ele>36.0</ele><time>2026-03-22T08:29:25.054Z</time></trkpt><trkpt lat="41.4948165" lon="13.1920449"><ele>36.0</ele><time>2026-03-22T08:29:26.045Z</time></trkpt><trkpt lat="41.4949048" lon="13.1921986"><ele>36.0</ele><time>2026-03-22T08:29:27.044Z</time></trkpt><trkpt lat="41.4949948" lon="13.1923365"><ele>36.0</ele><time>2026-03-22T08:29:28.046Z</time></trkpt><trkpt lat="41.495079" lon="13.1924547"><ele>36.0</ele><time>2026-03-22T08:29:29.047Z</time></trkpt><trkpt lat="41.4951591" lon="13.192557"><ele>36.0</ele><time>2026-03-22T08:29:30.048Z</time></trkpt><trkpt lat="41.4952463" lon="13.192642"><ele>36.0</ele><time>2026-03-22T08:29:31.043Z</time></trkpt><trkpt lat="41.49535" lon="13.192701"><ele>36.0</ele><time>2026-03-22T08:29:32.059Z</time></trkpt><trkpt lat="41.4954699" lon="13.1927331"><ele>36.0</ele><time>2026-03-22T08:29:33.047Z</time></trkpt><trkpt lat="41.4956007" lon="13.1927506"><ele>35.75</ele><time>2026-03-22T08:29:34.045Z</time></trkpt><trkpt lat="41.495738" lon="13.1927675"><ele>35.5</ele><time>2026-03-22T08:29:35.046Z</time></trkpt><trkpt lat="41.4958749" lon="13.192781"><ele>35.25</ele><time>2026-03-22T08:29:36.05Z</time></trkpt><trkpt lat="41.4959972" lon="13.1927911"><ele>35.0</ele><time>2026-03-22T08:29:37.047Z</time></trkpt><trkpt lat="41.4960969" lon="13.1927992"><ele>35.0</ele><time>2026-03-22T08:29:38.062Z</time></trkpt><trkpt lat="41.4961859" lon="13.1928165"><ele>35.0</ele><time>2026-03-22T08:29:39.045Z</time></trkpt><trkpt lat="41.4962634" lon="13.1928535"><ele>35.0</ele><time>2026-03-22T08:29:40.053Z</time></trkpt><trkpt lat="41.4963241" lon="13.1929146"><ele>35.0</ele><time>2026-03-22T08:29:41.053Z</time></trkpt><trkpt lat="41.496371" lon="13.1929996"><ele>35.0</ele><time>2026-03-22T08:29:42.049Z</time></trkpt><trkpt lat="41.4964103" lon="13.1931083"><ele>35.0</ele><time>2026-03-22T08:29:43.056Z</time></trkpt><trkpt lat="41.4964444" lon="13.1932333"><ele>35.75</ele><time>2026-03-22T08:29:44.045Z</time></trkpt><trkpt lat="41.4964726" lon="13.1933743"><ele>36.5</ele><time>2026-03-22T08:29:45.049Z</time></trkpt><trkpt lat="41.4964988" lon="13.19353"><ele>37.25</ele><time>2026-03-22T08:29:46.041Z</time></trkpt><trkpt lat="41.4965268" lon="13.1936877"><ele>38.0</ele><time>2026-03-22T08:29:47.05Z</time></trkpt><trkpt lat="41.4965584" lon="13.1938485"><ele>37.75</ele><time>2026-03-22T08:29:48.047Z</time></trkpt><trkpt lat="41.4965939" lon="13.1940184"><ele>37.5</ele><time>2026-03-22T08:29:49.045Z</time></trkpt><trkpt lat="41.4966307" lon="13.1941867"><ele>37.25</ele><time>2026-03-22T08:29:50.053Z</time></trkpt><trkpt lat="41.4966674" lon="13.1943552"><ele>37.0</ele><time>2026-03-22T08:29:51.046Z</time></trkpt><trkpt lat="41.4967034" lon="13.1945233"><ele>37.0</ele><time>2026-03-22T08:29:52.049Z</time></trkpt><trkpt lat="41.4967385" lon="13.1946943"><ele>37.0</ele><time>2026-03-22T08:29:53.045Z</time></trkpt><trkpt lat="41.4967748" lon="13.1948645"><ele>37.0</ele><time>2026-03-22T08:29:54.042Z</time></trkpt><trkpt lat="41.4968163" lon="13.1950352"><ele>37.0</ele><time>2026-03-22T08:29:55.049Z</time></trkpt><trkpt lat="41.4968642" lon="13.1952073"><ele>36.75</ele><time>2026-03-22T08:29:56.046Z</time></trkpt><trkpt lat="41.4969181" lon="13.19537"><ele>36.5</ele><time>2026-03-22T08:29:57.053Z</time></trkpt><trkpt lat="41.4969783" lon="13.1955133"><ele>36.25</ele><time>2026-03-22T08:29:58.047Z</time></trkpt><trkpt lat="41.4970502" lon="13.1956477"><ele>36.0</ele><time>2026-03-22T08:29:59.058Z</time></trkpt><trkpt lat="41.4971368" lon="13.1957678"><ele>35.75</ele><time>2026-03-22T08:30:00.054Z</time></trkpt><trkpt lat="41.4972229" lon="13.1958844"><ele>35.5</ele><time>2026-03-22T08:30:01.048Z</time></trkpt><trkpt lat="41.4973362" lon="13.1959638"><ele>35.25</ele><time>2026-03-22T08:30:02.05Z</time></trkpt><trkpt lat="41.4974548" lon="13.1960217"><ele>35.0</ele><time>2026-03-22T08:30:03.05Z</time></trkpt><trkpt lat="41.4975733" lon="13.1960619"><ele>35.0</ele><time>2026-03-22T08:30:04.065Z</time></trkpt><trkpt lat="41.4976864" lon="13.1960985"><ele>35.0</ele><time>2026-03-22T08:30:05.053Z</time></trkpt><trkpt lat="41.4978026" lon="13.1961349"><ele>35.0</ele><time>2026-03-22T08:30:06.047Z</time></trkpt><trkpt lat="41.4979222" lon="13.1961614"><ele>35.0</ele><time>2026-03-22T08:30:07.05Z</time></trkpt><trkpt lat="41.4980431" lon="13.1961833"><ele>35.5</ele><time>2026-03-22T08:30:08.044Z</time></trkpt><trkpt lat="41.4981681" lon="13.1961607"><ele>36.0</ele><time>2026-03-22T08:30:09.055Z</time></trkpt><trkpt lat="41.4982934" lon="13.1961219"><ele>36.5</ele><time>2026-03-22T08:30:10.055Z</time></trkpt><trkpt lat="41.4984187" lon="13.1960766"><ele>37.0</ele><time>2026-03-22T08:30:11.047Z</time></trkpt><trkpt lat="41.4985441" lon="13.1960321"><ele>37.0</ele><time>2026-03-22T08:30:12.046Z</time></trkpt><trkpt lat="41.4986632" lon="13.1959908"><ele>37.0</ele><time>2026-03-22T08:30:13.049Z</time></trkpt><trkpt lat="41.4987797" lon="13.195952"><ele>37.0</ele><time>2026-03-22T08:30:14.046Z</time></trkpt><trkpt lat="41.4988971" lon="13.195913"><ele>37.0</ele><time>2026-03-22T08:30:15.05Z</time></trkpt><trkpt lat="41.4990037" lon="13.1958787"><ele>37.0</ele><time>2026-03-22T08:30:16.046Z</time></trkpt><trkpt lat="41.4991008" lon="13.1958562"><ele>37.0</ele><time>2026-03-22T08:30:17.051Z</time></trkpt><trkpt lat="41.4991993" lon="13.1958496"><ele>37.0</ele><time>2026-03-22T08:30:18.059Z</time></trkpt><trkpt lat="41.4993015" lon="13.1958494"><ele>37.0</ele><time>2026-03-22T08:30:19.052Z</time></trkpt><trkpt lat="41.499407" lon="13.1958358"><ele>37.0</ele><time>2026-03-22T08:30:20.052Z</time></trkpt><trkpt lat="41.4995037" lon="13.1958072"><ele>37.0</ele><time>2026-03-22T08:30:21.048Z</time></trkpt><trkpt lat="41.4995834" lon="13.1957809"><ele>37.0</ele><time>2026-03-22T08:30:22.047Z</time></trkpt><trkpt lat="41.4996544" lon="13.1957733"><ele>37.0</ele><time>2026-03-22T08:30:23.052Z</time></trkpt><trkpt lat="41.4997216" lon="13.1957976"><ele>37.0</ele><time>2026-03-22T08:30:24.058Z</time></trkpt><trkpt lat="41.499783" lon="13.1958528"><ele>37.0</ele><time>2026-03-22T08:30:25.062Z</time></trkpt><trkpt lat="41.4998381" lon="13.1959339"><ele>37.0</ele><time>2026-03-22T08:30:26.05Z</time></trkpt><trkpt lat="41.4998904" lon="13.1960374"><ele>37.25</ele><time>2026-03-22T08:30:27.048Z</time></trkpt><trkpt lat="41.499945" lon="13.1961561"><ele>37.5</ele><time>2026-03-22T08:30:28.051Z</time></trkpt><trkpt lat="41.5000075" lon="13.1962882"><ele>37.75</ele><time>2026-03-22T08:30:29.049Z</time></trkpt><trkpt lat="41.5000707" lon="13.1964208"><ele>38.0</ele><time>2026-03-22T08:30:30.044Z</time></trkpt><trkpt lat="41.5001304" lon="13.196558"><ele>38.25</ele><time>2026-03-22T08:30:31.039Z</time></trkpt><trkpt lat="41.5001823" lon="13.1967068"><ele>38.5</ele><time>2026-03-22T08:30:32.045Z</time></trkpt><trkpt lat="41.5002239" lon="13.1968635"><ele>38.75</ele><time>2026-03-22T08:30:33.044Z</time></trkpt><trkpt lat="41.5002657" lon="13.1970199"><ele>39.0</ele><time>2026-03-22T08:30:34.052Z</time></trkpt><trkpt lat="41.500316" lon="13.1971803"><ele>39.0</ele><time>2026-03-22T08:30:35.043Z</time></trkpt><trkpt lat="41.5003753" lon="13.1973301"><ele>39.0</ele><time>2026-03-22T08:30:36.045Z</time></trkpt><trkpt lat="41.5004407" lon="13.1974699"><ele>39.0</ele><time>2026-03-22T08:30:37.046Z</time></trkpt><trkpt lat="41.5005026" lon="13.1975963"><ele>39.0</ele><time>2026-03-22T08:30:38.045Z</time></trkpt><trkpt lat="41.5005577" lon="13.197709"><ele>39.0</ele><time>2026-03-22T08:30:39.041Z</time></trkpt><trkpt lat="41.500606" lon="13.1978126"><ele>39.0</ele><time>2026-03-22T08:30:40.05Z</time></trkpt><trkpt lat="41.5006479" lon="13.19791"><ele>39.0</ele><time>2026-03-22T08:30:41.043Z</time></trkpt><trkpt lat="41.5006867" lon="13.1980018"><ele>39.0</ele><time>2026-03-22T08:30:42.042Z</time></trkpt><trkpt lat="41.5007276" lon="13.1980895"><ele>39.0</ele><time>2026-03-22T08:30:43.043Z</time></trkpt><trkpt lat="41.5007737" lon="13.198164"><ele>39.0</ele><time>2026-03-22T08:30:44.043Z</time></trkpt><trkpt lat="41.5008246" lon="13.1982193"><ele>39.0</ele><time>2026-03-22T08:30:45.047Z</time></trkpt><trkpt lat="41.500885" lon="13.1982514"><ele>39.0</ele><time>2026-03-22T08:30:46.047Z</time></trkpt><trkpt lat="41.500958" lon="13.1982635"><ele>39.0</ele><time>2026-03-22T08:30:47.057Z</time></trkpt><trkpt lat="41.5010454" lon="13.1982573"><ele>39.0</ele><time>2026-03-22T08:30:48.052Z</time></trkpt><trkpt lat="41.5011402" lon="13.1982475"><ele>39.0</ele><time>2026-03-22T08:30:49.046Z</time></trkpt><trkpt lat="41.5012403" lon="13.1982487"><ele>39.0</ele><time>2026-03-22T08:30:50.043Z</time></trkpt><trkpt lat="41.5013402" lon="13.1982708"><ele>39.2</ele><time>2026-03-22T08:30:51.054Z</time></trkpt><trkpt lat="41.5014351" lon="13.1983135"><ele>39.4</ele><time>2026-03-22T08:30:52.048Z</time></trkpt><trkpt lat="41.5015278" lon="13.1983682"><ele>39.6</ele><time>2026-03-22T08:30:53.05Z</time></trkpt><trkpt lat="41.5016136" lon="13.1984191"><ele>39.8</ele><time>2026-03-22T08:30:54.042Z</time></trkpt><trkpt lat="41.5016982" lon="13.1984755"><ele>40.0</ele><time>2026-03-22T08:30:55.049Z</time></trkpt><trkpt lat="41.5017765" lon="13.1985502"><ele>40.0</ele><time>2026-03-22T08:30:56.051Z</time></trkpt><trkpt lat="41.5018484" lon="13.1986351"><ele>40.0</ele><time>2026-03-22T08:30:57.054Z</time></trkpt><trkpt lat="41.5019146" lon="13.1987078"><ele>40.0</ele><time>2026-03-22T08:30:58.049Z</time></trkpt><trkpt lat="41.501987" lon="13.1987672"><ele>40.0</ele><time>2026-03-22T08:30:59.06Z</time></trkpt><trkpt lat="41.5020771" lon="13.1988117"><ele>40.0</ele><time>2026-03-22T08:31:00.047Z</time></trkpt><trkpt lat="41.5021783" lon="13.1988437"><ele>40.0</ele><time>2026-03-22T08:31:01.046Z</time></trkpt><trkpt lat="41.5022797" lon="13.1988681"><ele>40.0</ele><time>2026-03-22T08:31:02.05Z</time></trkpt><trkpt lat="41.5023786" lon="13.1988952"><ele>40.0</ele><time>2026-03-22T08:31:03.047Z</time></trkpt><trkpt lat="41.502478" lon="13.1989273"><ele>40.0</ele><time>2026-03-22T08:31:04.061Z</time></trkpt><trkpt lat="41.5025788" lon="13.1989654"><ele>40.0</ele><time>2026-03-22T08:31:05.044Z</time></trkpt><trkpt lat="41.5026824" lon="13.1990106"><ele>40.0</ele><time>2026-03-22T08:31:06.036Z</time></trkpt><trkpt lat="41.5027873" lon="13.1990599"><ele>40.0</ele><time>2026-03-22T08:31:07.042Z</time></trkpt><trkpt lat="41.5028955" lon="13.1991209"><ele>40.0</ele><time>2026-03-22T08:31:08.044Z</time></trkpt><trkpt lat="41.5030051" lon="13.1991957"><ele>40.0</ele><time>2026-03-22T08:31:09.047Z</time></trkpt><trkpt lat="41.5031123" lon="13.1992718"><ele>40.25</ele><time>2026-03-22T08:31:10.062Z</time></trkpt><trkpt lat="41.5032251" lon="13.1993507"><ele>40.5</ele><time>2026-03-22T08:31:11.048Z</time></trkpt><trkpt lat="41.5033407" lon="13.1994342"><ele>40.75</ele><time>2026-03-22T08:31:12.052Z</time></trkpt><trkpt lat="41.5034516" lon="13.1995183"><ele>41.0</ele><time>2026-03-22T08:31:13.049Z</time></trkpt><trkpt lat="41.5035612" lon="13.1996008"><ele>41.0</ele><time>2026-03-22T08:31:14.044Z</time></trkpt><trkpt lat="41.5036717" lon="13.1996822"><ele>41.0</ele><time>2026-03-22T08:31:15.047Z</time></trkpt><trkpt lat="41.5037836" lon="13.1997631"><ele>41.0</ele><time>2026-03-22T08:31:16.047Z</time></trkpt><trkpt lat="41.503895" lon="13.1998437"><ele>41.0</ele><time>2026-03-22T08:31:17.069Z</time></trkpt><trkpt lat="41.5040041" lon="13.1999248"><ele>41.25</ele><time>2026-03-22T08:31:18.049Z</time></trkpt><trkpt lat="41.504107" lon="13.2000032"><ele>41.5</ele><time>2026-03-22T08:31:19.048Z</time></trkpt><trkpt lat="41.5042088" lon="13.2000845"><ele>41.75</ele><time>2026-03-22T08:31:20.046Z</time></trkpt><trkpt lat="41.5043153" lon="13.2001728"><ele>42.0</ele><time>2026-03-22T08:31:21.05Z</time></trkpt><trkpt lat="41.5044257" lon="13.2002663"><ele>42.0</ele><time>2026-03-22T08:31:22.049Z</time></trkpt><trkpt lat="41.5045359" lon="13.2003611"><ele>42.0</ele><time>2026-03-22T08:31:23.044Z</time></trkpt><trkpt lat="41.5046448" lon="13.2004561"><ele>42.0</ele><time>2026-03-22T08:31:24.054Z</time></trkpt><trkpt lat="41.5047523" lon="13.2005531"><ele>42.0</ele><time>2026-03-22T08:31:25.044Z</time></trkpt><trkpt lat="41.5048581" lon="13.2006514"><ele>43.0</ele><time>2026-03-22T08:31:26.054Z</time></trkpt><trkpt lat="41.5049632" lon="13.2007513"><ele>44.0</ele><time>2026-03-22T08:31:27.043Z</time></trkpt><trkpt lat="41.5050693" lon="13.2008504"><ele>45.0</ele><time>2026-03-22T08:31:28.047Z</time></trkpt><trkpt lat="41.5051765" lon="13.2009504"><ele>46.0</ele><time>2026-03-22T08:31:29.043Z</time></trkpt><trkpt lat="41.5052825" lon="13.2010514"><ele>46.0</ele><time>2026-03-22T08:31:30.047Z</time></trkpt><trkpt lat="41.5053856" lon="13.2011559"><ele>46.0</ele><time>2026-03-22T08:31:31.043Z</time></trkpt><trkpt lat="41.5054849" lon="13.2012665"><ele>46.0</ele><time>2026-03-22T08:31:32.053Z</time></trkpt><trkpt lat="41.5055811" lon="13.201381"><ele>46.0</ele><time>2026-03-22T08:31:33.051Z</time></trkpt><trkpt lat="41.5056778" lon="13.2014938"><ele>46.25</ele><time>2026-03-22T08:31:34.046Z</time></trkpt><trkpt lat="41.5057765" lon="13.2016049"><ele>46.5</ele><time>2026-03-22T08:31:35.06Z</time></trkpt><trkpt lat="41.5058769" lon="13.2017145"><ele>46.75</ele><time>2026-03-22T08:31:36.05Z</time></trkpt><trkpt lat="41.5059806" lon="13.2018207"><ele>47.0</ele><time>2026-03-22T08:31:37.046Z</time></trkpt><trkpt lat="41.5060878" lon="13.2019227"><ele>47.0</ele><time>2026-03-22T08:31:38.056Z</time></trkpt><trkpt lat="41.5061883" lon="13.2020186"><ele>47.0</ele><time>2026-03-22T08:31:39.051Z</time></trkpt><trkpt lat="41.5062768" lon="13.2021065"><ele>47.0</ele><time>2026-03-22T08:31:40.055Z</time></trkpt><trkpt lat="41.5063588" lon="13.2021875"><ele>47.0</ele><time>2026-03-22T08:31:41.047Z</time></trkpt><trkpt lat="41.5064458" lon="13.202264"><ele>47.0</ele><time>2026-03-22T08:31:42.047Z</time></trkpt><trkpt lat="41.5065436" lon="13.2023313"><ele>47.5</ele><time>2026-03-22T08:31:43.047Z</time></trkpt><trkpt lat="41.5066544" lon="13.202388"><ele>48.0</ele><time>2026-03-22T08:31:44.038Z</time></trkpt><trkpt lat="41.5067754" lon="13.2024378"><ele>48.5</ele><time>2026-03-22T08:31:45.047Z</time></trkpt><trkpt lat="41.5068967" lon="13.2024862"><ele>49.0</ele><time>2026-03-22T08:31:46.053Z</time></trkpt><trkpt lat="41.5070154" lon="13.2025377"><ele>49.5</ele><time>2026-03-22T08:31:47.05Z</time></trkpt><trkpt lat="41.5071329" lon="13.2025949"><ele>50.0</ele><time>2026-03-22T08:31:48.045Z</time></trkpt><trkpt lat="41.5072502" lon="13.202657"><ele>50.5</ele><time>2026-03-22T08:31:49.05Z</time></trkpt><trkpt lat="41.5073651" lon="13.2027263"><ele>51.0</ele><time>2026-03-22T08:31:50.045Z</time></trkpt><trkpt lat="41.5074776" lon="13.2028053"><ele>51.0</ele><time>2026-03-22T08:31:51.048Z</time></trkpt><trkpt lat="41.5075886" lon="13.2028902"><ele>51.0</ele><time>2026-03-22T08:31:52.048Z</time></trkpt><trkpt lat="41.5076983" lon="13.202978"><ele>51.0</ele><time>2026-03-22T08:31:53.04Z</time></trkpt><trkpt lat="41.5078086" lon="13.2030659"><ele>51.0</ele><time>2026-03-22T08:31:54.044Z</time></trkpt><trkpt lat="41.5079132" lon="13.2031552"><ele>51.75</ele><time>2026-03-22T08:31:55.042Z</time></trkpt><trkpt lat="41.5080113" lon="13.2032398"><ele>52.5</ele><time>2026-03-22T08:31:56.057Z</time></trkpt><trkpt lat="41.5080936" lon="13.2033328"><ele>53.25</ele><time>2026-03-22T08:31:57.048Z</time></trkpt><trkpt lat="41.5081718" lon="13.2034411"><ele>54.0</ele><time>2026-03-22T08:31:58.041Z</time></trkpt><trkpt lat="41.5082441" lon="13.2035647"><ele>54.0</ele><time>2026-03-22T08:31:59.044Z</time></trkpt><trkpt lat="41.5083119" lon="13.2036892"><ele>54.0</ele><time>2026-03-22T08:32:00.051Z</time></trkpt><trkpt lat="41.508381" lon="13.2038146"><ele>54.0</ele><time>2026-03-22T08:32:01.041Z</time></trkpt><trkpt lat="41.5084508" lon="13.203941"><ele>54.0</ele><time>2026-03-22T08:32:02.046Z</time></trkpt><trkpt lat="41.5085158" lon="13.2040665"><ele>54.2</ele><time>2026-03-22T08:32:03.049Z</time></trkpt><trkpt lat="41.5085769" lon="13.2041861"><ele>54.400000000000006</ele><time>2026-03-22T08:32:04.046Z</time></trkpt><trkpt lat="41.5086388" lon="13.204298"><ele>54.6</ele><time>2026-03-22T08:32:05.056Z</time></trkpt><trkpt lat="41.5087019" lon="13.2043943"><ele>54.8</ele><time>2026-03-22T08:32:06.042Z</time></trkpt><trkpt lat="41.5087754" lon="13.2044792"><ele>55.0</ele><time>2026-03-22T08:32:07.044Z</time></trkpt><trkpt lat="41.5088467" lon="13.2045602"><ele>55.166666666666664</ele><time>2026-03-22T08:32:08.043Z</time></trkpt><trkpt lat="41.5089269" lon="13.2046118"><ele>55.33333333333333</ele><time>2026-03-22T08:32:09.045Z</time></trkpt><trkpt lat="41.5090025" lon="13.2046535"><ele>55.5</ele><time>2026-03-22T08:32:10.05Z</time></trkpt><trkpt lat="41.5090716" lon="13.2046886"><ele>55.66666666666667</ele><time>2026-03-22T08:32:11.043Z</time></trkpt><trkpt lat="41.5091671" lon="13.2047427"><ele>55.833333333333336</ele><time>2026-03-22T08:32:13.046Z</time></trkpt><trkpt lat="41.5092369" lon="13.2047777"><ele>56.0</ele><time>2026-03-22T08:32:16.067Z</time></trkpt><trkpt lat="41.5093114" lon="13.2046963"><ele>56.0</ele><time>2026-03-22T08:32:26.041Z</time></trkpt><trkpt lat="41.5093652" lon="13.2045296"><ele>55.99999999999999</ele><time>2026-03-22T08:32:28.045Z</time></trkpt><trkpt lat="41.5093943" lon="13.2044274"><ele>55.99999999999999</ele><time>2026-03-22T08:32:29.05Z</time></trkpt><trkpt lat="41.5094259" lon="13.2043143"><ele>56.0</ele><time>2026-03-22T08:32:30.054Z</time></trkpt><trkpt lat="41.5094576" lon="13.2042072"><ele>56.0</ele><time>2026-03-22T08:32:31.051Z</time></trkpt><trkpt lat="41.5094893" lon="13.2041027"><ele>56.0</ele><time>2026-03-22T08:32:32.058Z</time></trkpt><trkpt lat="41.5095453" lon="13.2040211"><ele>55.99999999999999</ele><time>2026-03-22T08:32:33.052Z</time></trkpt><trkpt lat="41.5096023" lon="13.2039414"><ele>55.99999999999999</ele><time>2026-03-22T08:32:34.049Z</time></trkpt><trkpt lat="41.5096818" lon="13.2038945"><ele>56.0</ele><time>2026-03-22T08:32:35.056Z</time></trkpt><trkpt lat="41.5097771" lon="13.2038465"><ele>56.0</ele><time>2026-03-22T08:32:36.052Z</time></trkpt><trkpt lat="41.5098739" lon="13.2038009"><ele>56.5</ele><time>2026-03-22T08:32:37.051Z</time></trkpt><trkpt lat="41.5099815" lon="13.2037635"><ele>57.0</ele><time>2026-03-22T08:32:38.05Z</time></trkpt><trkpt lat="41.5101004" lon="13.2037198"><ele>57.5</ele><time>2026-03-22T08:32:39.055Z</time></trkpt><trkpt lat="41.5102197" lon="13.2036765"><ele>58.0</ele><time>2026-03-22T08:32:40.054Z</time></trkpt><trkpt lat="41.510343" lon="13.2036354"><ele>59.0</ele><time>2026-03-22T08:32:41.055Z</time></trkpt><trkpt lat="41.5104694" lon="13.2035938"><ele>60.0</ele><time>2026-03-22T08:32:42.046Z</time></trkpt><trkpt lat="41.5106037" lon="13.203554"><ele>61.0</ele><time>2026-03-22T08:32:43.039Z</time></trkpt><trkpt lat="41.5107417" lon="13.2035087"><ele>62.0</ele><time>2026-03-22T08:32:44.043Z</time></trkpt><trkpt lat="41.5108665" lon="13.2034575"><ele>62.0</ele><time>2026-03-22T08:32:45.057Z</time></trkpt><trkpt lat="41.5109761" lon="13.203394"><ele>62.0</ele><time>2026-03-22T08:32:46.05Z</time></trkpt><trkpt lat="41.511076" lon="13.2033094"><ele>62.0</ele><time>2026-03-22T08:32:47.064Z</time></trkpt><trkpt lat="41.5111725" lon="13.2032078"><ele>62.0</ele><time>2026-03-22T08:32:48.05Z</time></trkpt><trkpt lat="41.5112707" lon="13.2030983"><ele>62.0</ele><time>2026-03-22T08:32:49.056Z</time></trkpt><trkpt lat="41.5113718" lon="13.2029906"><ele>62.0</ele><time>2026-03-22T08:32:50.047Z</time></trkpt><trkpt lat="41.5114649" lon="13.2029035"><ele>62.0</ele><time>2026-03-22T08:32:51.051Z</time></trkpt><trkpt lat="41.5115435" lon="13.2028473"><ele>62.0</ele><time>2026-03-22T08:32:52.064Z</time></trkpt><trkpt lat="41.5116131" lon="13.2028228"><ele>62.0</ele><time>2026-03-22T08:32:53.054Z</time></trkpt><trkpt lat="41.5116768" lon="13.2028013"><ele>62.00000000000001</ele><time>2026-03-22T08:32:54.046Z</time></trkpt><trkpt lat="41.5117442" lon="13.2028225"><ele>62.0</ele><time>2026-03-22T08:32:55.051Z</time></trkpt><trkpt lat="41.5118191" lon="13.2028421"><ele>62.0</ele><time>2026-03-22T08:32:56.046Z</time></trkpt><trkpt lat="41.5118961" lon="13.2028368"><ele>62.0</ele><time>2026-03-22T08:32:57.054Z</time></trkpt><trkpt lat="41.5119702" lon="13.2028023"><ele>62.00000000000001</ele><time>2026-03-22T08:32:58.049Z</time></trkpt><trkpt lat="41.5120417" lon="13.2027393"><ele>62.0</ele><time>2026-03-22T08:32:59.068Z</time></trkpt><trkpt lat="41.5121259" lon="13.2026574"><ele>62.6</ele><time>2026-03-22T08:33:00.057Z</time></trkpt><trkpt lat="41.5122112" lon="13.2025782"><ele>63.2</ele><time>2026-03-22T08:33:01.048Z</time></trkpt><trkpt lat="41.5123073" lon="13.2025047"><ele>63.8</ele><time>2026-03-22T08:33:02.053Z</time></trkpt><trkpt lat="41.5124052" lon="13.202425"><ele>64.4</ele><time>2026-03-22T08:33:03.054Z</time></trkpt><trkpt lat="41.5125045" lon="13.2023386"><ele>65.0</ele><time>2026-03-22T08:33:04.051Z</time></trkpt><trkpt lat="41.5126079" lon="13.2022392"><ele>65.0</ele><time>2026-03-22T08:33:05.055Z</time></trkpt><trkpt lat="41.5127095" lon="13.2021316"><ele>65.0</ele><time>2026-03-22T08:33:06.054Z</time></trkpt><trkpt lat="41.5128065" lon="13.2020172"><ele>65.0</ele><time>2026-03-22T08:33:07.049Z</time></trkpt><trkpt lat="41.5128904" lon="13.2019047"><ele>65.0</ele><time>2026-03-22T08:33:08.049Z</time></trkpt><trkpt lat="41.512965" lon="13.2018006"><ele>64.83333333333334</ele><time>2026-03-22T08:33:09.063Z</time></trkpt><trkpt lat="41.5130277" lon="13.2017097"><ele>64.66666666666667</ele><time>2026-03-22T08:33:10.045Z</time></trkpt><trkpt lat="41.5130897" lon="13.2016244"><ele>64.5</ele><time>2026-03-22T08:33:11.044Z</time></trkpt><trkpt lat="41.5131526" lon="13.2015647"><ele>64.33333333333333</ele><time>2026-03-22T08:33:12.045Z</time></trkpt><trkpt lat="41.5132135" lon="13.2015001"><ele>64.16666666666666</ele><time>2026-03-22T08:33:13.046Z</time></trkpt><trkpt lat="41.5132773" lon="13.2014293"><ele>64.0</ele><time>2026-03-22T08:33:14.058Z</time></trkpt><trkpt lat="41.513345" lon="13.2013503"><ele>64.0</ele><time>2026-03-22T08:33:15.048Z</time></trkpt><trkpt lat="41.5134192" lon="13.2012727"><ele>64.0</ele><time>2026-03-22T08:33:16.039Z</time></trkpt><trkpt lat="41.5135008" lon="13.2011987"><ele>64.0</ele><time>2026-03-22T08:33:17.051Z</time></trkpt><trkpt lat="41.5135907" lon="13.2011214"><ele>64.0</ele><time>2026-03-22T08:33:18.04Z</time></trkpt><trkpt lat="41.5136817" lon="13.2010441"><ele>64.0</ele><time>2026-03-22T08:33:19.061Z</time></trkpt><trkpt lat="41.5137702" lon="13.2009554"><ele>64.60000000000001</ele><time>2026-03-22T08:33:20.045Z</time></trkpt><trkpt lat="41.5138597" lon="13.2008631"><ele>65.2</ele><time>2026-03-22T08:33:21.046Z</time></trkpt><trkpt lat="41.513947" lon="13.2007788"><ele>65.80000000000001</ele><time>2026-03-22T08:33:22.043Z</time></trkpt><trkpt lat="41.5140282" lon="13.2007046"><ele>66.4</ele><time>2026-03-22T08:33:23.048Z</time></trkpt><trkpt lat="41.5141028" lon="13.2006507"><ele>67.0</ele><time>2026-03-22T08:33:24.044Z</time></trkpt><trkpt lat="41.5141689" lon="13.200612"><ele>67.0</ele><time>2026-03-22T08:33:25.045Z</time></trkpt><trkpt lat="41.5142703" lon="13.2005543"><ele>67.0</ele><time>2026-03-22T08:33:27.045Z</time></trkpt><trkpt lat="41.514344" lon="13.2005128"><ele>67.0</ele><time>2026-03-22T08:33:29.047Z</time></trkpt><trkpt lat="41.5144106" lon="13.2004347"><ele>67.0</ele><time>2026-03-22T08:33:31.043Z</time></trkpt><trkpt lat="41.5144652" lon="13.2003475"><ele>67.0</ele><time>2026-03-22T08:33:33.045Z</time></trkpt><trkpt lat="41.5145274" lon="13.2002506"><ele>67.0</ele><time>2026-03-22T08:33:35.047Z</time></trkpt><trkpt lat="41.5145898" lon="13.2001659"><ele>67.0</ele><time>2026-03-22T08:33:37.047Z</time></trkpt><trkpt lat="41.5146557" lon="13.2001344"><ele>67.0</ele><time>2026-03-22T08:33:40.048Z</time></trkpt><trkpt lat="41.5145789" lon="13.2002079"><ele>67.0</ele><time>2026-03-22T08:33:49.05Z</time></trkpt><trkpt lat="41.5145052" lon="13.2003101"><ele>67.0</ele><time>2026-03-22T08:33:51.061Z</time></trkpt><trkpt lat="41.5144339" lon="13.2004181"><ele>67.0</ele><time>2026-03-22T08:33:53.048Z</time></trkpt><trkpt lat="41.5143808" lon="13.2004961"><ele>67.0</ele><time>2026-03-22T08:33:55.042Z</time></trkpt><trkpt lat="41.5143139" lon="13.2005412"><ele>67.0</ele><time>2026-03-22T08:33:59.046Z</time></trkpt><trkpt lat="41.5143099" lon="13.2004382"><ele>67.0</ele><time>2026-03-22T08:34:02.057Z</time></trkpt><trkpt lat="41.5143431" lon="13.200262"><ele>67.0</ele><time>2026-03-22T08:34:04.048Z</time></trkpt><trkpt lat="41.5143662" lon="13.2001441"><ele>67.0</ele><time>2026-03-22T08:34:05.051Z</time></trkpt><trkpt lat="41.5143958" lon="13.2000172"><ele>67.0</ele><time>2026-03-22T08:34:06.047Z</time></trkpt><trkpt lat="41.5144276" lon="13.1998833"><ele>67.0</ele><time>2026-03-22T08:34:07.046Z</time></trkpt><trkpt lat="41.5144621" lon="13.199742"><ele>67.0</ele><time>2026-03-22T08:34:08.045Z</time></trkpt><trkpt lat="41.5145085" lon="13.1996016"><ele>67.0</ele><time>2026-03-22T08:34:09.047Z</time></trkpt><trkpt lat="41.5145732" lon="13.1994754"><ele>68.25</ele><time>2026-03-22T08:34:10.045Z</time></trkpt><trkpt lat="41.5146434" lon="13.1993387"><ele>69.5</ele><time>2026-03-22T08:34:11.058Z</time></trkpt><trkpt lat="41.5147116" lon="13.1992023"><ele>70.75</ele><time>2026-03-22T08:34:12.042Z</time></trkpt><trkpt lat="41.5147831" lon="13.1990764"><ele>72.0</ele><time>2026-03-22T08:34:13.043Z</time></trkpt><trkpt lat="41.5148467" lon="13.1989633"><ele>72.0</ele><time>2026-03-22T08:34:14.049Z</time></trkpt><trkpt lat="41.5149139" lon="13.1988818"><ele>72.0</ele><time>2026-03-22T08:34:15.048Z</time></trkpt><trkpt lat="41.5149799" lon="13.1988043"><ele>72.0</ele><time>2026-03-22T08:34:16.065Z</time></trkpt><trkpt lat="41.5150485" lon="13.1987162"><ele>72.0</ele><time>2026-03-22T08:34:17.049Z</time></trkpt><trkpt lat="41.5151109" lon="13.1986254"><ele>72.0</ele><time>2026-03-22T08:34:18.048Z</time></trkpt><trkpt lat="41.5151752" lon="13.1985314"><ele>72.0</ele><time>2026-03-22T08:34:19.05Z</time></trkpt><trkpt lat="41.5152374" lon="13.198447"><ele>72.0</ele><time>2026-03-22T08:34:20.041Z</time></trkpt><trkpt lat="41.5153072" lon="13.1983557"><ele>72.0</ele><time>2026-03-22T08:34:21.07Z</time></trkpt><trkpt lat="41.515371" lon="13.1982656"><ele>72.0</ele><time>2026-03-22T08:34:22.05Z</time></trkpt><trkpt lat="41.5154255" lon="13.1981819"><ele>72.0</ele><time>2026-03-22T08:34:23.049Z</time></trkpt><trkpt lat="41.5154739" lon="13.1981109"><ele>72.0</ele><time>2026-03-22T08:34:24.046Z</time></trkpt><trkpt lat="41.5155436" lon="13.1980152"><ele>73.33333333333333</ele><time>2026-03-22T08:34:26.044Z</time></trkpt><trkpt lat="41.5156054" lon="13.1979423"><ele>74.66666666666667</ele><time>2026-03-22T08:34:28.048Z</time></trkpt><trkpt lat="41.5156663" lon="13.1978432"><ele>76.0</ele><time>2026-03-22T08:34:30.047Z</time></trkpt><trkpt lat="41.5157208" lon="13.197758"><ele>77.33333333333334</ele><time>2026-03-22T08:34:32.046Z</time></trkpt><trkpt lat="41.5157693" lon="13.1977041"><ele>78.66666666666667</ele><time>2026-03-22T08:34:34.053Z</time></trkpt><trkpt lat="41.51584" lon="13.1976613"><ele>80.0</ele><time>2026-03-22T08:34:36.053Z</time></trkpt><trkpt lat="41.5159232" lon="13.1976196"><ele>80.0</ele><time>2026-03-22T08:34:38.046Z</time></trkpt><trkpt lat="41.5159965" lon="13.1975777"><ele>80.0</ele><time>2026-03-22T08:34:40.05Z</time></trkpt><trkpt lat="41.5160733" lon="13.1975127"><ele>80.0</ele><time>2026-03-22T08:34:42.055Z</time></trkpt><trkpt lat="41.5161558" lon="13.1974556"><ele>80.0</ele><time>2026-03-22T08:34:44.048Z</time></trkpt><trkpt lat="41.5162481" lon="13.1973756"><ele>80.0</ele><time>2026-03-22T08:34:46.046Z</time></trkpt><trkpt lat="41.5163347" lon="13.1972906"><ele>81.5</ele><time>2026-03-22T08:34:48.043Z</time></trkpt><trkpt lat="41.5164206" lon="13.1971899"><ele>83.0</ele><time>2026-03-22T08:34:50.043Z</time></trkpt><trkpt lat="41.5165011" lon="13.1970955"><ele>84.5</ele><time>2026-03-22T08:34:52.046Z</time></trkpt><trkpt lat="41.5165651" lon="13.1970311"><ele>86.0</ele><time>2026-03-22T08:34:54.044Z</time></trkpt><trkpt lat="41.5166287" lon="13.1969775"><ele>87.5</ele><time>2026-03-22T08:34:56.046Z</time></trkpt><trkpt lat="41.516685" lon="13.1969342"><ele>89.0</ele><time>2026-03-22T08:34:58.05Z</time></trkpt><trkpt lat="41.5167467" lon="13.1968706"><ele>89.0</ele><time>2026-03-22T08:35:00.049Z</time></trkpt><trkpt lat="41.5168217" lon="13.1968199"><ele>89.0</ele><time>2026-03-22T08:35:02.054Z</time></trkpt><trkpt lat="41.5168857" lon="13.1968008"><ele>89.0</ele><time>2026-03-22T08:35:04.047Z</time></trkpt><trkpt lat="41.5169781" lon="13.1967916"><ele>89.0</ele><time>2026-03-22T08:35:07.049Z</time></trkpt><trkpt lat="41.5170532" lon="13.1967762"><ele>89.0</ele><time>2026-03-22T08:35:10.046Z</time></trkpt><trkpt lat="41.5171285" lon="13.1967471"><ele>89.0</ele><time>2026-03-22T08:35:12.053Z</time></trkpt><trkpt lat="41.5172029" lon="13.1966856"><ele>90.16666666666667</ele><time>2026-03-22T08:35:14.049Z</time></trkpt><trkpt lat="41.5172685" lon="13.1966397"><ele>91.33333333333334</ele><time>2026-03-22T08:35:16.046Z</time></trkpt><trkpt lat="41.5173451" lon="13.1965914"><ele>92.5</ele><time>2026-03-22T08:35:19.05Z</time></trkpt><trkpt lat="41.5174114" lon="13.1965446"><ele>93.66666666666667</ele><time>2026-03-22T08:35:24.055Z</time></trkpt><trkpt lat="41.5174782" lon="13.1965152"><ele>94.83333333333333</ele><time>2026-03-22T08:35:26.049Z</time></trkpt><trkpt lat="41.517546" lon="13.1964837"><ele>96.0</ele><time>2026-03-22T08:35:29.051Z</time></trkpt><trkpt lat="41.5176212" lon="13.1964499"><ele>96.0</ele><time>2026-03-22T08:35:32.054Z</time></trkpt><trkpt lat="41.5177468" lon="13.1963995"><ele>96.0</ele><time>2026-03-22T08:35:46.044Z</time></trkpt><trkpt lat="41.5178413" lon="13.1963804"><ele>96.0</ele><time>2026-03-22T08:35:49.05Z</time></trkpt><trkpt lat="41.5179115" lon="13.1963598"><ele>96.0</ele><time>2026-03-22T08:35:51.051Z</time></trkpt><trkpt lat="41.5179761" lon="13.1963445"><ele>96.0</ele><time>2026-03-22T08:35:53.054Z</time></trkpt><trkpt lat="41.5180656" lon="13.1963146"><ele>98.33333333333333</ele><time>2026-03-22T08:35:56.086Z</time></trkpt><trkpt lat="41.5181589" lon="13.1963032"><ele>100.66666666666666</ele><time>2026-03-22T08:36:03.044Z</time></trkpt><trkpt lat="41.518246" lon="13.1962716"><ele>103.0</ele><time>2026-03-22T08:36:05.047Z</time></trkpt><trkpt lat="41.518335" lon="13.1962515"><ele>105.33333333333333</ele><time>2026-03-22T08:36:07.046Z</time></trkpt><trkpt lat="41.5184204" lon="13.1962054"><ele>107.66666666666666</ele><time>2026-03-22T08:36:09.052Z</time></trkpt><trkpt lat="41.5184827" lon="13.1961579"><ele>110.0</ele><time>2026-03-22T08:36:11.047Z</time></trkpt><trkpt lat="41.5185625" lon="13.1961173"><ele>109.99999999999999</ele><time>2026-03-22T08:36:14.054Z</time></trkpt><trkpt lat="41.5186765" lon="13.1961012"><ele>110.0</ele><time>2026-03-22T08:36:20.054Z</time></trkpt><trkpt lat="41.5187419" lon="13.1960389"><ele>110.0</ele><time>2026-03-22T08:36:23.052Z</time></trkpt><trkpt lat="41.5187941" lon="13.1959835"><ele>110.0</ele><time>2026-03-22T08:36:25.056Z</time></trkpt><trkpt lat="41.5188511" lon="13.1959316"><ele>109.99999999999999</ele><time>2026-03-22T08:36:27.047Z</time></trkpt><trkpt lat="41.5189092" lon="13.1958844"><ele>110.0</ele><time>2026-03-22T08:36:29.052Z</time></trkpt><trkpt lat="41.5189791" lon="13.195851"><ele>110.99999999999999</ele><time>2026-03-22T08:36:31.046Z</time></trkpt><trkpt lat="41.5190588" lon="13.1958196"><ele>112.0</ele><time>2026-03-22T08:36:33.048Z</time></trkpt><trkpt lat="41.519157" lon="13.1957926"><ele>113.0</ele><time>2026-03-22T08:36:35.046Z</time></trkpt><trkpt lat="41.5192327" lon="13.1957488"><ele>114.0</ele><time>2026-03-22T08:36:37.06Z</time></trkpt><trkpt lat="41.5192932" lon="13.1956987"><ele>114.99999999999999</ele><time>2026-03-22T08:36:39.053Z</time></trkpt><trkpt lat="41.5193674" lon="13.1956268"><ele>116.0</ele><time>2026-03-22T08:36:42.046Z</time></trkpt><trkpt lat="41.519346" lon="13.1957107"><ele>117.83333333333333</ele><time>2026-03-22T08:37:03.046Z</time></trkpt><trkpt lat="41.5192719" lon="13.1957735"><ele>119.66666666666666</ele><time>2026-03-22T08:37:06.051Z</time></trkpt><trkpt lat="41.5191991" lon="13.1958013"><ele>121.5</ele><time>2026-03-22T08:37:09.055Z</time></trkpt><trkpt lat="41.5191764" lon="13.195887"><ele>123.33333333333334</ele><time>2026-03-22T08:37:27.06Z</time></trkpt><trkpt lat="41.5191887" lon="13.1959933"><ele>125.16666666666667</ele><time>2026-03-22T08:37:30.056Z</time></trkpt><trkpt lat="41.5192606" lon="13.1959766"><ele>127.0</ele><time>2026-03-22T08:37:33.082Z</time></trkpt><trkpt lat="41.5193275" lon="13.1959008"><ele>127.00000000000001</ele><time>2026-03-22T08:37:35.048Z</time></trkpt><trkpt lat="41.5193885" lon="13.1958284"><ele>127.0</ele><time>2026-03-22T08:37:37.047Z</time></trkpt><trkpt lat="41.5194485" lon="13.1957491"><ele>127.0</ele><time>2026-03-22T08:37:40.047Z</time></trkpt><trkpt lat="41.5194832" lon="13.1956621"><ele>127.0</ele><time>2026-03-22T08:37:48.049Z</time></trkpt><trkpt lat="41.5195241" lon="13.1955697"><ele>127.00000000000001</ele><time>2026-03-22T08:37:53.055Z</time></trkpt><trkpt lat="41.5195871" lon="13.1955526"><ele>127.0</ele><time>2026-03-22T08:37:57.05Z</time></trkpt><trkpt lat="41.5196733" lon="13.1955812"><ele>127.0</ele><time>2026-03-22T08:37:59.048Z</time></trkpt><trkpt lat="41.5197914" lon="13.1956077"><ele>126.99999999999999</ele><time>2026-03-22T08:38:01.051Z</time></trkpt><trkpt lat="41.5198625" lon="13.195589"><ele>126.99999999999999</ele><time>2026-03-22T08:38:02.044Z</time></trkpt><trkpt lat="41.5199266" lon="13.1955703"><ele>127.0</ele><time>2026-03-22T08:38:03.048Z</time></trkpt><trkpt lat="41.5200324" lon="13.1955268"><ele>127.0</ele><time>2026-03-22T08:38:05.042Z</time></trkpt><trkpt lat="41.5201354" lon="13.1954925"><ele>127.0</ele><time>2026-03-22T08:38:07.053Z</time></trkpt><trkpt lat="41.5202539" lon="13.1954585"><ele>126.99999999999999</ele><time>2026-03-22T08:38:09.056Z</time></trkpt><trkpt lat="41.5203232" lon="13.1954417"><ele>126.99999999999999</ele><time>2026-03-22T08:38:10.041Z</time></trkpt><trkpt lat="41.520444" lon="13.1954269"><ele>127.0</ele><time>2026-03-22T08:38:12.048Z</time></trkpt><trkpt lat="41.5205551" lon="13.195388"><ele>127.0</ele><time>2026-03-22T08:38:14.048Z</time></trkpt><trkpt lat="41.520639" lon="13.1953099"><ele>128.83333333333334</ele><time>2026-03-22T08:38:16.049Z</time></trkpt><trkpt lat="41.5207345" lon="13.1952582"><ele>130.66666666666669</ele><time>2026-03-22T08:38:18.064Z</time></trkpt><trkpt lat="41.5208014" lon="13.1952399"><ele>132.5</ele><time>2026-03-22T08:38:19.042Z</time></trkpt><trkpt lat="41.5208721" lon="13.195206"><ele>134.33333333333334</ele><time>2026-03-22T08:38:20.052Z</time></trkpt><trkpt lat="41.5209583" lon="13.1951698"><ele>136.16666666666666</ele><time>2026-03-22T08:38:21.044Z</time></trkpt><trkpt lat="41.5210409" lon="13.1951343"><ele>138.0</ele><time>2026-03-22T08:38:22.046Z</time></trkpt><trkpt lat="41.521106" lon="13.1950842"><ele>138.0</ele><time>2026-03-22T08:38:23.047Z</time></trkpt><trkpt lat="41.5211583" lon="13.1950198"><ele>138.0</ele><time>2026-03-22T08:38:24.045Z</time></trkpt><trkpt lat="41.5212107" lon="13.1949422"><ele>138.0</ele><time>2026-03-22T08:38:25.046Z</time></trkpt><trkpt lat="41.5212628" lon="13.1948588"><ele>138.0</ele><time>2026-03-22T08:38:26.046Z</time></trkpt><trkpt lat="41.5213057" lon="13.1947673"><ele>138.0</ele><time>2026-03-22T08:38:27.058Z</time></trkpt><trkpt lat="41.5213504" lon="13.1946802"><ele>138.0</ele><time>2026-03-22T08:38:28.054Z</time></trkpt><trkpt lat="41.5213996" lon="13.1946006"><ele>139.5</ele><time>2026-03-22T08:38:29.052Z</time></trkpt><trkpt lat="41.5214559" lon="13.1945195"><ele>141.0</ele><time>2026-03-22T08:38:30.045Z</time></trkpt><trkpt lat="41.5215175" lon="13.1944369"><ele>142.5</ele><time>2026-03-22T08:38:31.047Z</time></trkpt><trkpt lat="41.5215802" lon="13.1943708"><ele>144.0</ele><time>2026-03-22T08:38:32.047Z</time></trkpt><trkpt lat="41.5216473" lon="13.194314"><ele>145.5</ele><time>2026-03-22T08:38:33.049Z</time></trkpt><trkpt lat="41.5217105" lon="13.1942689"><ele>147.0</ele><time>2026-03-22T08:38:34.048Z</time></trkpt><trkpt lat="41.521774" lon="13.1942314"><ele>147.0</ele><time>2026-03-22T08:38:35.063Z</time></trkpt><trkpt lat="41.5218373" lon="13.1942022"><ele>147.0</ele><time>2026-03-22T08:38:36.052Z</time></trkpt><trkpt lat="41.5219497" lon="13.1941697"><ele>147.0</ele><time>2026-03-22T08:38:38.05Z</time></trkpt><trkpt lat="41.5220159" lon="13.1941127"><ele>147.0</ele><time>2026-03-22T08:38:40.057Z</time></trkpt><trkpt lat="41.522067" lon="13.1939871"><ele>147.0</ele><time>2026-03-22T08:38:42.048Z</time></trkpt><trkpt lat="41.5220954" lon="13.193899"><ele>147.0</ele><time>2026-03-22T08:38:43.052Z</time></trkpt><trkpt lat="41.5221305" lon="13.1938155"><ele>149.33333333333334</ele><time>2026-03-22T08:38:44.048Z</time></trkpt><trkpt lat="41.5221663" lon="13.1937167"><ele>151.66666666666666</ele><time>2026-03-22T08:38:45.049Z</time></trkpt><trkpt lat="41.522202" lon="13.1936233"><ele>154.0</ele><time>2026-03-22T08:38:46.057Z</time></trkpt><trkpt lat="41.5222361" lon="13.1935268"><ele>156.33333333333331</ele><time>2026-03-22T08:38:47.044Z</time></trkpt><trkpt lat="41.5222704" lon="13.1934292"><ele>158.66666666666666</ele><time>2026-03-22T08:38:48.043Z</time></trkpt><trkpt lat="41.5222985" lon="13.193339"><ele>161.0</ele><time>2026-03-22T08:38:49.05Z</time></trkpt><trkpt lat="41.5223189" lon="13.1932431"><ele>159.83333333333331</ele><time>2026-03-22T08:38:50.051Z</time></trkpt><trkpt lat="41.5223327" lon="13.1931484"><ele>158.66666666666666</ele><time>2026-03-22T08:38:51.049Z</time></trkpt><trkpt lat="41.5223512" lon="13.1930501"><ele>157.5</ele><time>2026-03-22T08:38:52.046Z</time></trkpt><trkpt lat="41.5223689" lon="13.192967"><ele>156.33333333333334</ele><time>2026-03-22T08:38:53.048Z</time></trkpt><trkpt lat="41.522402" lon="13.1928198"><ele>155.16666666666669</ele><time>2026-03-22T08:38:55.042Z</time></trkpt><trkpt lat="41.5224356" lon="13.1926903"><ele>154.0</ele><time>2026-03-22T08:38:57.05Z</time></trkpt><trkpt lat="41.5224666" lon="13.1926144"><ele>154.0</ele><time>2026-03-22T08:38:58.053Z</time></trkpt><trkpt lat="41.5225028" lon="13.1925442"><ele>154.0</ele><time>2026-03-22T08:38:59.051Z</time></trkpt><trkpt lat="41.5225922" lon="13.192438"><ele>154.0</ele><time>2026-03-22T08:39:01.049Z</time></trkpt><trkpt lat="41.5226794" lon="13.1923877"><ele>154.0</ele><time>2026-03-22T08:39:03.06Z</time></trkpt><trkpt lat="41.5227763" lon="13.1923757"><ele>154.0</ele><time>2026-03-22T08:39:05.053Z</time></trkpt><trkpt lat="41.5228975" lon="13.1923387"><ele>159.0</ele><time>2026-03-22T08:39:07.043Z</time></trkpt><trkpt lat="41.5229575" lon="13.1923094"><ele>164.0</ele><time>2026-03-22T08:39:08.043Z</time></trkpt><trkpt lat="41.5230442" lon="13.1923111"><ele>169.0</ele><time>2026-03-22T08:39:10.056Z</time></trkpt><trkpt lat="41.5230968" lon="13.1923903"><ele>174.0</ele><time>2026-03-22T08:39:17.044Z</time></trkpt><trkpt lat="41.5231609" lon="13.19244"><ele>179.0</ele><time>2026-03-22T08:39:20.05Z</time></trkpt><trkpt lat="41.5232214" lon="13.1923818"><ele>184.0</ele><time>2026-03-22T08:39:23.043Z</time></trkpt><trkpt lat="41.5232321" lon="13.192209"><ele>184.5</ele><time>2026-03-22T08:39:25.056Z</time></trkpt><trkpt lat="41.5232414" lon="13.1921062"><ele>185.0</ele><time>2026-03-22T08:39:26.044Z</time></trkpt><trkpt lat="41.5232496" lon="13.1920071"><ele>185.5</ele><time>2026-03-22T08:39:27.048Z</time></trkpt><trkpt lat="41.5232713" lon="13.1919062"><ele>186.0</ele><time>2026-03-22T08:39:28.05Z</time></trkpt><trkpt lat="41.5232836" lon="13.1917825"><ele>186.5</ele><time>2026-03-22T08:39:29.04Z</time></trkpt><trkpt lat="41.5232884" lon="13.191646"><ele>187.0</ele><time>2026-03-22T08:39:30.052Z</time></trkpt><trkpt lat="41.5232941" lon="13.1915131"><ele>188.6</ele><time>2026-03-22T08:39:31.046Z</time></trkpt><trkpt lat="41.5233027" lon="13.1913743"><ele>190.2</ele><time>2026-03-22T08:39:32.05Z</time></trkpt><trkpt lat="41.5233204" lon="13.1912316"><ele>191.8</ele><time>2026-03-22T08:39:33.042Z</time></trkpt><trkpt lat="41.5233436" lon="13.1910927"><ele>193.4</ele><time>2026-03-22T08:39:34.046Z</time></trkpt><trkpt lat="41.5233719" lon="13.1909506"><ele>195.0</ele><time>2026-03-22T08:39:35.042Z</time></trkpt><trkpt lat="41.5234009" lon="13.1907973"><ele>196.8</ele><time>2026-03-22T08:39:36.046Z</time></trkpt><trkpt lat="41.5234264" lon="13.1906438"><ele>198.6</ele><time>2026-03-22T08:39:37.042Z</time></trkpt><trkpt lat="41.523451" lon="13.1904997"><ele>200.39999999999998</ele><time>2026-03-22T08:39:38.046Z</time></trkpt><trkpt lat="41.5234715" lon="13.1903735"><ele>202.2</ele><time>2026-03-22T08:39:39.044Z</time></trkpt><trkpt lat="41.5234652" lon="13.1902497"><ele>204.0</ele><time>2026-03-22T08:39:40.05Z</time></trkpt><trkpt lat="41.5234524" lon="13.1901392"><ele>204.0</ele><time>2026-03-22T08:39:41.043Z</time></trkpt><trkpt lat="41.5234222" lon="13.1900387"><ele>204.0</ele><time>2026-03-22T08:39:42.052Z</time></trkpt><trkpt lat="41.523374" lon="13.1899352"><ele>204.0</ele><time>2026-03-22T08:39:43.042Z</time></trkpt><trkpt lat="41.5233254" lon="13.1898273"><ele>204.0</ele><time>2026-03-22T08:39:44.043Z</time></trkpt><trkpt lat="41.5232616" lon="13.1897196"><ele>204.0</ele><time>2026-03-22T08:39:45.044Z</time></trkpt><trkpt lat="41.5231971" lon="13.1896075"><ele>202.6</ele><time>2026-03-22T08:39:46.039Z</time></trkpt><trkpt lat="41.5231302" lon="13.1894956"><ele>201.2</ele><time>2026-03-22T08:39:47.052Z</time></trkpt><trkpt lat="41.5230649" lon="13.1893908"><ele>199.79999999999998</ele><time>2026-03-22T08:39:48.052Z</time></trkpt><trkpt lat="41.5229881" lon="13.1892939"><ele>198.39999999999998</ele><time>2026-03-22T08:39:49.047Z</time></trkpt><trkpt lat="41.5229066" lon="13.1892012"><ele>197.0</ele><time>2026-03-22T08:39:50.048Z</time></trkpt><trkpt lat="41.5228261" lon="13.1891102"><ele>197.0</ele><time>2026-03-22T08:39:51.039Z</time></trkpt><trkpt lat="41.5227459" lon="13.1890137"><ele>197.0</ele><time>2026-03-22T08:39:52.05Z</time></trkpt><trkpt lat="41.5226669" lon="13.1889174"><ele>197.0</ele><time>2026-03-22T08:39:53.042Z</time></trkpt><trkpt lat="41.52259" lon="13.1888159"><ele>197.0</ele><time>2026-03-22T08:39:54.051Z</time></trkpt><trkpt lat="41.5225137" lon="13.1887126"><ele>197.0</ele><time>2026-03-22T08:39:55.045Z</time></trkpt><trkpt lat="41.5224387" lon="13.1886058"><ele>203.0</ele><time>2026-03-22T08:39:56.043Z</time></trkpt><trkpt lat="41.5223696" lon="13.1884968"><ele>209.0</ele><time>2026-03-22T08:39:57.046Z</time></trkpt><trkpt lat="41.5222947" lon="13.1883882"><ele>215.0</ele><time>2026-03-22T08:39:58.042Z</time></trkpt><trkpt lat="41.5222223" lon="13.1882848"><ele>221.0</ele><time>2026-03-22T08:39:59.064Z</time></trkpt><trkpt lat="41.5221473" lon="13.1881818"><ele>227.0</ele><time>2026-03-22T08:40:00.041Z</time></trkpt><trkpt lat="41.5220722" lon="13.1880753"><ele>227.0</ele><time>2026-03-22T08:40:01.05Z</time></trkpt><trkpt lat="41.5219986" lon="13.1879707"><ele>227.0</ele><time>2026-03-22T08:40:02.051Z</time></trkpt><trkpt lat="41.5219321" lon="13.1878707"><ele>227.0</ele><time>2026-03-22T08:40:03.049Z</time></trkpt><trkpt lat="41.5218764" lon="13.1877581"><ele>227.0</ele><time>2026-03-22T08:40:04.048Z</time></trkpt><trkpt lat="41.5218163" lon="13.1876494"><ele>227.0</ele><time>2026-03-22T08:40:05.055Z</time></trkpt><trkpt lat="41.521755" lon="13.187546"><ele>227.0</ele><time>2026-03-22T08:40:06.046Z</time></trkpt><trkpt lat="41.5216921" lon="13.1874491"><ele>227.0</ele><time>2026-03-22T08:40:07.045Z</time></trkpt><trkpt lat="41.5216319" lon="13.1873552"><ele>227.0</ele><time>2026-03-22T08:40:08.047Z</time></trkpt><trkpt lat="41.5215742" lon="13.1872596"><ele>227.0</ele><time>2026-03-22T08:40:09.051Z</time></trkpt><trkpt lat="41.5215191" lon="13.1871571"><ele>227.0</ele><time>2026-03-22T08:40:10.058Z</time></trkpt><trkpt lat="41.5214639" lon="13.1870551"><ele>229.83333333333334</ele><time>2026-03-22T08:40:11.043Z</time></trkpt><trkpt lat="41.521412" lon="13.1869597"><ele>232.66666666666669</ele><time>2026-03-22T08:40:12.048Z</time></trkpt><trkpt lat="41.5213647" lon="13.186871"><ele>235.5</ele><time>2026-03-22T08:40:13.048Z</time></trkpt><trkpt lat="41.5213232" lon="13.1867814"><ele>238.33333333333331</ele><time>2026-03-22T08:40:14.047Z</time></trkpt><trkpt lat="41.521285" lon="13.1866893"><ele>241.16666666666666</ele><time>2026-03-22T08:40:15.044Z</time></trkpt><trkpt lat="41.5212507" lon="13.1865886"><ele>244.0</ele><time>2026-03-22T08:40:16.048Z</time></trkpt><trkpt lat="41.5212188" lon="13.1864868"><ele>243.99999999999997</ele><time>2026-03-22T08:40:17.046Z</time></trkpt><trkpt lat="41.5211882" lon="13.1863855"><ele>244.0</ele><time>2026-03-22T08:40:18.066Z</time></trkpt><trkpt lat="41.5211517" lon="13.186286"><ele>244.0</ele><time>2026-03-22T08:40:19.052Z</time></trkpt><trkpt lat="41.5211151" lon="13.1861846"><ele>244.0</ele><time>2026-03-22T08:40:20.048Z</time></trkpt><trkpt lat="41.5210639" lon="13.1860795"><ele>243.99999999999997</ele><time>2026-03-22T08:40:21.046Z</time></trkpt><trkpt lat="41.5210146" lon="13.1859809"><ele>244.0</ele><time>2026-03-22T08:40:22.048Z</time></trkpt><trkpt lat="41.5209661" lon="13.185882"><ele>243.99999999999997</ele><time>2026-03-22T08:40:23.046Z</time></trkpt><trkpt lat="41.5209215" lon="13.1857839"><ele>244.0</ele><time>2026-03-22T08:40:24.044Z</time></trkpt><trkpt lat="41.5208774" lon="13.1856902"><ele>244.0</ele><time>2026-03-22T08:40:25.047Z</time></trkpt><trkpt lat="41.520843" lon="13.1855974"><ele>244.0</ele><time>2026-03-22T08:40:26.055Z</time></trkpt><trkpt lat="41.5208118" lon="13.1855044"><ele>243.99999999999997</ele><time>2026-03-22T08:40:27.045Z</time></trkpt><trkpt lat="41.5207874" lon="13.1854098"><ele>244.0</ele><time>2026-03-22T08:40:28.051Z</time></trkpt><trkpt lat="41.5207687" lon="13.1853177"><ele>246.99999999999997</ele><time>2026-03-22T08:40:29.043Z</time></trkpt><trkpt lat="41.5207559" lon="13.1852257"><ele>250.0</ele><time>2026-03-22T08:40:30.053Z</time></trkpt><trkpt lat="41.5207485" lon="13.1851369"><ele>252.99999999999997</ele><time>2026-03-22T08:40:31.053Z</time></trkpt><trkpt lat="41.5207483" lon="13.1850472"><ele>255.99999999999997</ele><time>2026-03-22T08:40:32.052Z</time></trkpt><trkpt lat="41.5207571" lon="13.1849553"><ele>259.0</ele><time>2026-03-22T08:40:33.043Z</time></trkpt><trkpt lat="41.5207706" lon="13.1848628"><ele>261.99999999999994</ele><time>2026-03-22T08:40:34.038Z</time></trkpt><trkpt lat="41.5207852" lon="13.1847673"><ele>265.0</ele><time>2026-03-22T08:40:35.041Z</time></trkpt><trkpt lat="41.520795" lon="13.1846699"><ele>265.3333333333333</ele><time>2026-03-22T08:40:36.053Z</time></trkpt><trkpt lat="41.5207993" lon="13.1845678"><ele>265.66666666666663</ele><time>2026-03-22T08:40:37.045Z</time></trkpt><trkpt lat="41.5207977" lon="13.1844628"><ele>266.0</ele><time>2026-03-22T08:40:38.048Z</time></trkpt><trkpt lat="41.5207941" lon="13.1843566"><ele>266.3333333333333</ele><time>2026-03-22T08:40:39.046Z</time></trkpt><trkpt lat="41.5207924" lon="13.1842482"><ele>266.6666666666667</ele><time>2026-03-22T08:40:40.054Z</time></trkpt><trkpt lat="41.5207908" lon="13.1841461"><ele>267.0</ele><time>2026-03-22T08:40:41.046Z</time></trkpt><trkpt lat="41.5207927" lon="13.184053"><ele>266.5</ele><time>2026-03-22T08:40:42.048Z</time></trkpt><trkpt lat="41.5208" lon="13.1839596"><ele>266.0</ele><time>2026-03-22T08:40:43.048Z</time></trkpt><trkpt lat="41.5208087" lon="13.1838624"><ele>265.5</ele><time>2026-03-22T08:40:44.055Z</time></trkpt><trkpt lat="41.5208312" lon="13.1837664"><ele>265.0</ele><time>2026-03-22T08:40:45.055Z</time></trkpt><trkpt lat="41.5208577" lon="13.1836646"><ele>264.5</ele><time>2026-03-22T08:40:46.06Z</time></trkpt><trkpt lat="41.52089" lon="13.1835661"><ele>264.0</ele><time>2026-03-22T08:40:47.049Z</time></trkpt><trkpt lat="41.5209285" lon="13.1834662"><ele>264.0</ele><time>2026-03-22T08:40:48.046Z</time></trkpt><trkpt lat="41.5209691" lon="13.1833665"><ele>264.0</ele><time>2026-03-22T08:40:49.047Z</time></trkpt><trkpt lat="41.5210091" lon="13.1832747"><ele>264.0</ele><time>2026-03-22T08:40:50.05Z</time></trkpt><trkpt lat="41.5210485" lon="13.1832007"><ele>264.0</ele><time>2026-03-22T08:40:51.049Z</time></trkpt><trkpt lat="41.5211116" lon="13.1831011"><ele>264.0</ele><time>2026-03-22T08:40:53.045Z</time></trkpt><trkpt lat="41.5211763" lon="13.1830459"><ele>264.0</ele><time>2026-03-22T08:40:56.061Z</time></trkpt><trkpt lat="41.5211812" lon="13.1831544"><ele>264.0</ele><time>2026-03-22T08:40:59.048Z</time></trkpt><trkpt lat="41.5211403" lon="13.1832897"><ele>264.0</ele><time>2026-03-22T08:41:01.05Z</time></trkpt><trkpt lat="41.5211325" lon="13.183378"><ele>264.0</ele><time>2026-03-22T08:41:02.057Z</time></trkpt><trkpt lat="41.5211353" lon="13.1834643"><ele>264.0</ele><time>2026-03-22T08:41:03.044Z</time></trkpt><trkpt lat="41.5211383" lon="13.1835512"><ele>264.0</ele><time>2026-03-22T08:41:04.047Z</time></trkpt><trkpt lat="41.5211979" lon="13.1836581"><ele>264.0</ele><time>2026-03-22T08:41:06.062Z</time></trkpt><trkpt lat="41.5212689" lon="13.1836177"><ele>270.2</ele><time>2026-03-22T08:41:08.06Z</time></trkpt><trkpt lat="41.5213345" lon="13.183456"><ele>276.4</ele><time>2026-03-22T08:41:10.046Z</time></trkpt><trkpt lat="41.5213733" lon="13.1833496"><ele>282.6</ele><time>2026-03-22T08:41:11.046Z</time></trkpt><trkpt lat="41.5214204" lon="13.1832472"><ele>288.8</ele><time>2026-03-22T08:41:12.04Z</time></trkpt><trkpt lat="41.5214772" lon="13.1831453"><ele>295.0</ele><time>2026-03-22T08:41:13.052Z</time></trkpt><trkpt lat="41.5215383" lon="13.18305"><ele>295.0</ele><time>2026-03-22T08:41:14.042Z</time></trkpt><trkpt lat="41.5216062" lon="13.1829716"><ele>295.0</ele><time>2026-03-22T08:41:15.048Z</time></trkpt><trkpt lat="41.5216813" lon="13.1829062"><ele>295.0</ele><time>2026-03-22T08:41:16.046Z</time></trkpt><trkpt lat="41.5217552" lon="13.1828434"><ele>295.0</ele><time>2026-03-22T08:41:17.044Z</time></trkpt><trkpt lat="41.5218177" lon="13.1827931"><ele>295.0</ele><time>2026-03-22T08:41:18.048Z</time></trkpt><trkpt lat="41.5218879" lon="13.1827627"><ele>295.0</ele><time>2026-03-22T08:41:20.049Z</time></trkpt><trkpt lat="41.5219446" lon="13.1828086"><ele>295.0</ele><time>2026-03-22T08:41:23.05Z</time></trkpt><trkpt lat="41.5218697" lon="13.1829196"><ele>295.0</ele><time>2026-03-22T08:41:25.055Z</time></trkpt><trkpt lat="41.5218075" lon="13.1830165"><ele>295.0</ele><time>2026-03-22T08:41:26.043Z</time></trkpt><trkpt lat="41.5217517" lon="13.1831275"><ele>295.0</ele><time>2026-03-22T08:41:27.066Z</time></trkpt><trkpt lat="41.5216959" lon="13.1832541"><ele>295.0</ele><time>2026-03-22T08:41:28.042Z</time></trkpt><trkpt lat="41.5216445" lon="13.1834021"><ele>299.5</ele><time>2026-03-22T08:41:29.046Z</time></trkpt><trkpt lat="41.5215917" lon="13.1835538"><ele>304.0</ele><time>2026-03-22T08:41:30.054Z</time></trkpt><trkpt lat="41.521558" lon="13.1837086"><ele>308.5</ele><time>2026-03-22T08:41:31.05Z</time></trkpt><trkpt lat="41.5215369" lon="13.1838647"><ele>313.0</ele><time>2026-03-22T08:41:32.057Z</time></trkpt><trkpt lat="41.5215248" lon="13.184022"><ele>313.0</ele><time>2026-03-22T08:41:33.044Z</time></trkpt><trkpt lat="41.5215182" lon="13.1841703"><ele>313.0</ele><time>2026-03-22T08:41:34.05Z</time></trkpt><trkpt lat="41.5215137" lon="13.1843176"><ele>313.0</ele><time>2026-03-22T08:41:35.048Z</time></trkpt><trkpt lat="41.5215162" lon="13.1844659"><ele>313.0</ele><time>2026-03-22T08:41:36.05Z</time></trkpt><trkpt lat="41.5215248" lon="13.1846065"><ele>313.0</ele><time>2026-03-22T08:41:37.05Z</time></trkpt><trkpt lat="41.5215352" lon="13.1847464"><ele>311.0</ele><time>2026-03-22T08:41:38.051Z</time></trkpt><trkpt lat="41.5215476" lon="13.1848854"><ele>309.0</ele><time>2026-03-22T08:41:39.041Z</time></trkpt><trkpt lat="41.5215676" lon="13.1850327"><ele>307.0</ele><time>2026-03-22T08:41:40.052Z</time></trkpt><trkpt lat="41.521599" lon="13.1851849"><ele>305.0</ele><time>2026-03-22T08:41:41.052Z</time></trkpt><trkpt lat="41.5216392" lon="13.1853362"><ele>305.0</ele><time>2026-03-22T08:41:42.04Z</time></trkpt><trkpt lat="41.5216919" lon="13.185493"><ele>305.0</ele><time>2026-03-22T08:41:43.043Z</time></trkpt><trkpt lat="41.5217537" lon="13.1856487"><ele>305.0</ele><time>2026-03-22T08:41:44.044Z</time></trkpt><trkpt lat="41.5218165" lon="13.185798"><ele>305.0</ele><time>2026-03-22T08:41:45.05Z</time></trkpt><trkpt lat="41.5218878" lon="13.1859472"><ele>307.25</ele><time>2026-03-22T08:41:46.041Z</time></trkpt><trkpt lat="41.5219692" lon="13.1860954"><ele>309.5</ele><time>2026-03-22T08:41:47.042Z</time></trkpt><trkpt lat="41.5220624" lon="13.1862359"><ele>311.75</ele><time>2026-03-22T08:41:48.035Z</time></trkpt><trkpt lat="41.5221636" lon="13.1863712"><ele>314.0</ele><time>2026-03-22T08:41:49.048Z</time></trkpt><trkpt lat="41.522266" lon="13.1865043"><ele>307.5</ele><time>2026-03-22T08:41:50.045Z</time></trkpt><trkpt lat="41.5223701" lon="13.1866356"><ele>301.0</ele><time>2026-03-22T08:41:51.048Z</time></trkpt><trkpt lat="41.5224732" lon="13.1867639"><ele>294.5</ele><time>2026-03-22T08:41:52.049Z</time></trkpt><trkpt lat="41.5225735" lon="13.1868839"><ele>288.0</ele><time>2026-03-22T08:41:53.044Z</time></trkpt><trkpt lat="41.5226678" lon="13.1869912"><ele>288.0</ele><time>2026-03-22T08:41:54.05Z</time></trkpt><trkpt lat="41.5227661" lon="13.1870917"><ele>288.0</ele><time>2026-03-22T08:41:55.051Z</time></trkpt><trkpt lat="41.5228687" lon="13.1871902"><ele>288.0</ele><time>2026-03-22T08:41:56.044Z</time></trkpt><trkpt lat="41.5229743" lon="13.1872857"><ele>288.0</ele><time>2026-03-22T08:41:57.055Z</time></trkpt><trkpt lat="41.5230811" lon="13.1873782"><ele>287.5</ele><time>2026-03-22T08:41:58.044Z</time></trkpt><trkpt lat="41.5231902" lon="13.1874647"><ele>287.0</ele><time>2026-03-22T08:41:59.05Z</time></trkpt><trkpt lat="41.523299" lon="13.187549"><ele>286.5</ele><time>2026-03-22T08:42:00.045Z</time></trkpt><trkpt lat="41.5234087" lon="13.1876327"><ele>286.0</ele><time>2026-03-22T08:42:01.046Z</time></trkpt><trkpt lat="41.5235169" lon="13.1877167"><ele>286.0</ele><time>2026-03-22T08:42:02.046Z</time></trkpt><trkpt lat="41.5236195" lon="13.1877957"><ele>286.0</ele><time>2026-03-22T08:42:03.046Z</time></trkpt><trkpt lat="41.5237155" lon="13.18787"><ele>286.0</ele><time>2026-03-22T08:42:04.05Z</time></trkpt><trkpt lat="41.5238095" lon="13.187941"><ele>286.0</ele><time>2026-03-22T08:42:05.044Z</time></trkpt><trkpt lat="41.523896" lon="13.1880054"><ele>286.0</ele><time>2026-03-22T08:42:06.05Z</time></trkpt><trkpt lat="41.5239784" lon="13.1880667"><ele>285.6</ele><time>2026-03-22T08:42:07.049Z</time></trkpt><trkpt lat="41.5240516" lon="13.1881205"><ele>285.20000000000005</ele><time>2026-03-22T08:42:08.047Z</time></trkpt><trkpt lat="41.5241231" lon="13.1881741"><ele>284.79999999999995</ele><time>2026-03-22T08:42:09.044Z</time></trkpt><trkpt lat="41.5241984" lon="13.1882422"><ele>284.4</ele><time>2026-03-22T08:42:10.046Z</time></trkpt><trkpt lat="41.5242747" lon="13.1883204"><ele>284.0</ele><time>2026-03-22T08:42:11.063Z</time></trkpt><trkpt lat="41.5243525" lon="13.1884095"><ele>284.0</ele><time>2026-03-22T08:42:12.043Z</time></trkpt><trkpt lat="41.5244281" lon="13.1884999"><ele>284.0</ele><time>2026-03-22T08:42:13.052Z</time></trkpt><trkpt lat="41.5245015" lon="13.188588"><ele>284.0</ele><time>2026-03-22T08:42:14.05Z</time></trkpt><trkpt lat="41.5245658" lon="13.1886882"><ele>284.0</ele><time>2026-03-22T08:42:15.046Z</time></trkpt><trkpt lat="41.5246289" lon="13.1887845"><ele>284.0</ele><time>2026-03-22T08:42:16.048Z</time></trkpt><trkpt lat="41.5246871" lon="13.1888748"><ele>287.33333333333337</ele><time>2026-03-22T08:42:17.05Z</time></trkpt><trkpt lat="41.5247355" lon="13.1889743"><ele>290.6666666666667</ele><time>2026-03-22T08:42:18.041Z</time></trkpt><trkpt lat="41.5247732" lon="13.1890752"><ele>294.0</ele><time>2026-03-22T08:42:19.054Z</time></trkpt><trkpt lat="41.5248053" lon="13.1891787"><ele>297.3333333333333</ele><time>2026-03-22T08:42:20.046Z</time></trkpt><trkpt lat="41.5248369" lon="13.1892803"><ele>300.66666666666663</ele><time>2026-03-22T08:42:21.044Z</time></trkpt><trkpt lat="41.5248625" lon="13.1893688"><ele>304.0</ele><time>2026-03-22T08:42:22.05Z</time></trkpt><trkpt lat="41.5248823" lon="13.1894492"><ele>304.0</ele><time>2026-03-22T08:42:23.049Z</time></trkpt><trkpt lat="41.5249125" lon="13.1895861"><ele>304.0</ele><time>2026-03-22T08:42:25.046Z</time></trkpt><trkpt lat="41.5249826" lon="13.1896221"><ele>304.0</ele><time>2026-03-22T08:42:28.058Z</time></trkpt><trkpt lat="41.5250052" lon="13.1895341"><ele>304.0</ele><time>2026-03-22T08:42:30.048Z</time></trkpt><trkpt lat="41.5249962" lon="13.1894092"><ele>304.0</ele><time>2026-03-22T08:42:32.048Z</time></trkpt><trkpt lat="41.5249713" lon="13.1892761"><ele>304.0</ele><time>2026-03-22T08:42:34.052Z</time></trkpt><trkpt lat="41.5249442" lon="13.1891352"><ele>304.0</ele><time>2026-03-22T08:42:36.05Z</time></trkpt><trkpt lat="41.524932" lon="13.1890507"><ele>304.0</ele><time>2026-03-22T08:42:37.045Z</time></trkpt><trkpt lat="41.5249148" lon="13.1889575"><ele>304.0</ele><time>2026-03-22T08:42:38.04Z</time></trkpt><trkpt lat="41.5248955" lon="13.1888603"><ele>304.0</ele><time>2026-03-22T08:42:39.038Z</time></trkpt><trkpt lat="41.5248698" lon="13.1887444"><ele>304.0</ele><time>2026-03-22T08:42:40.039Z</time></trkpt><trkpt lat="41.5248402" lon="13.1886188"><ele>304.0</ele><time>2026-03-22T08:42:41.036Z</time></trkpt><trkpt lat="41.5248089" lon="13.1884955"><ele>307.0</ele><time>2026-03-22T08:42:42.041Z</time></trkpt><trkpt lat="41.5247744" lon="13.1883645"><ele>310.0</ele><time>2026-03-22T08:42:43.042Z</time></trkpt><trkpt lat="41.52474" lon="13.1882363"><ele>313.0</ele><time>2026-03-22T08:42:44.04Z</time></trkpt><trkpt lat="41.5247077" lon="13.1881168"><ele>316.0</ele><time>2026-03-22T08:42:45.065Z</time></trkpt><trkpt lat="41.5246667" lon="13.1880188"><ele>319.0</ele><time>2026-03-22T08:42:46.041Z</time></trkpt><trkpt lat="41.524615" lon="13.1879261"><ele>317.8333333333333</ele><time>2026-03-22T08:42:47.042Z</time></trkpt><trkpt lat="41.5245576" lon="13.1878385"><ele>316.66666666666663</ele><time>2026-03-22T08:42:48.038Z</time></trkpt><trkpt lat="41.5245038" lon="13.1877516"><ele>315.5</ele><time>2026-03-22T08:42:49.038Z</time></trkpt><trkpt lat="41.5244509" lon="13.1876635"><ele>314.3333333333333</ele><time>2026-03-22T08:42:50.037Z</time></trkpt><trkpt lat="41.524393" lon="13.1875725"><ele>313.1666666666667</ele><time>2026-03-22T08:42:51.044Z</time></trkpt><trkpt lat="41.5243329" lon="13.1874837"><ele>312.0</ele><time>2026-03-22T08:42:52.036Z</time></trkpt><trkpt lat="41.5242678" lon="13.1873971"><ele>316.6</ele><time>2026-03-22T08:42:53.037Z</time></trkpt><trkpt lat="41.5242027" lon="13.1873095"><ele>321.2</ele><time>2026-03-22T08:42:54.036Z</time></trkpt><trkpt lat="41.5241318" lon="13.1872191"><ele>325.8</ele><time>2026-03-22T08:42:55.042Z</time></trkpt><trkpt lat="41.5240605" lon="13.1871289"><ele>330.4</ele><time>2026-03-22T08:42:56.034Z</time></trkpt><trkpt lat="41.5239951" lon="13.1870385"><ele>335.0</ele><time>2026-03-22T08:42:57.036Z</time></trkpt><trkpt lat="41.5239314" lon="13.1869379"><ele>335.0</ele><time>2026-03-22T08:42:58.038Z</time></trkpt><trkpt lat="41.523862" lon="13.1868459"><ele>335.0</ele><time>2026-03-22T08:42:59.039Z</time></trkpt><trkpt lat="41.5237936" lon="13.1867535"><ele>335.0</ele><time>2026-03-22T08:43:00.041Z</time></trkpt><trkpt lat="41.523726" lon="13.1866622"><ele>335.0</ele><time>2026-03-22T08:43:01.04Z</time></trkpt><trkpt lat="41.523655" lon="13.1865794"><ele>335.0</ele><time>2026-03-22T08:43:02.058Z</time></trkpt><trkpt lat="41.5235852" lon="13.1865032"><ele>336.1666666666667</ele><time>2026-03-22T08:43:03.042Z</time></trkpt><trkpt lat="41.5235164" lon="13.1864142"><ele>337.33333333333337</ele><time>2026-03-22T08:43:04.045Z</time></trkpt><trkpt lat="41.5234489" lon="13.1863271"><ele>338.5</ele><time>2026-03-22T08:43:05.041Z</time></trkpt><trkpt lat="41.5233853" lon="13.1862439"><ele>339.6666666666667</ele><time>2026-03-22T08:43:06.035Z</time></trkpt><trkpt lat="41.5233265" lon="13.1861597"><ele>340.8333333333333</ele><time>2026-03-22T08:43:07.041Z</time></trkpt><trkpt lat="41.5232725" lon="13.1860822"><ele>342.0</ele><time>2026-03-22T08:43:08.042Z</time></trkpt><trkpt lat="41.5232278" lon="13.1860179"><ele>342.0</ele><time>2026-03-22T08:43:09.042Z</time></trkpt><trkpt lat="41.5231818" lon="13.1859537"><ele>342.0</ele><time>2026-03-22T08:43:10.064Z</time></trkpt><trkpt lat="41.5231316" lon="13.1858832"><ele>342.0</ele><time>2026-03-22T08:43:11.038Z</time></trkpt><trkpt lat="41.5230837" lon="13.185811"><ele>342.0</ele><time>2026-03-22T08:43:12.039Z</time></trkpt><trkpt lat="41.5230383" lon="13.1857325"><ele>342.0</ele><time>2026-03-22T08:43:13.041Z</time></trkpt><trkpt lat="41.5229936" lon="13.1856444"><ele>342.0</ele><time>2026-03-22T08:43:14.037Z</time></trkpt><trkpt lat="41.5229494" lon="13.1855477"><ele>341.0</ele><time>2026-03-22T08:43:15.039Z</time></trkpt><trkpt lat="41.5229074" lon="13.1854431"><ele>340.0</ele><time>2026-03-22T08:43:16.06Z</time></trkpt><trkpt lat="41.5228663" lon="13.1853441"><ele>339.0</ele><time>2026-03-22T08:43:17.045Z</time></trkpt><trkpt lat="41.5228258" lon="13.185244"><ele>338.0</ele><time>2026-03-22T08:43:18.037Z</time></trkpt><trkpt lat="41.5227916" lon="13.1851484"><ele>337.0</ele><time>2026-03-22T08:43:19.039Z</time></trkpt><trkpt lat="41.522765" lon="13.1850567"><ele>336.0</ele><time>2026-03-22T08:43:20.043Z</time></trkpt><trkpt lat="41.5227439" lon="13.1849636"><ele>336.0</ele><time>2026-03-22T08:43:21.04Z</time></trkpt><trkpt lat="41.5227216" lon="13.1848693"><ele>336.0</ele><time>2026-03-22T08:43:22.057Z</time></trkpt><trkpt lat="41.5227026" lon="13.1847756"><ele>336.0</ele><time>2026-03-22T08:43:23.043Z</time></trkpt><trkpt lat="41.5226895" lon="13.1846832"><ele>336.0</ele><time>2026-03-22T08:43:24.043Z</time></trkpt><trkpt lat="41.5226861" lon="13.1845886"><ele>336.0</ele><time>2026-03-22T08:43:25.042Z</time></trkpt><trkpt lat="41.5226941" lon="13.1844932"><ele>336.0</ele><time>2026-03-22T08:43:26.039Z</time></trkpt><trkpt lat="41.5227144" lon="13.1843973"><ele>336.0</ele><time>2026-03-22T08:43:27.06Z</time></trkpt><trkpt lat="41.5227445" lon="13.1843177"><ele>337.3333333333333</ele><time>2026-03-22T08:43:28.04Z</time></trkpt><trkpt lat="41.5227859" lon="13.1842485"><ele>338.6666666666667</ele><time>2026-03-22T08:43:29.042Z</time></trkpt><trkpt lat="41.522836" lon="13.1841909"><ele>340.0</ele><time>2026-03-22T08:43:30.041Z</time></trkpt><trkpt lat="41.5229418" lon="13.1841428"><ele>341.33333333333337</ele><time>2026-03-22T08:43:32.038Z</time></trkpt><trkpt lat="41.5230539" lon="13.1841681"><ele>342.6666666666667</ele><time>2026-03-22T08:43:34.041Z</time></trkpt><trkpt lat="41.5231226" lon="13.1842212"><ele>344.0</ele><time>2026-03-22T08:43:35.038Z</time></trkpt><trkpt lat="41.523193" lon="13.1842738"><ele>344.2</ele><time>2026-03-22T08:43:36.041Z</time></trkpt><trkpt lat="41.5232646" lon="13.1843396"><ele>344.4</ele><time>2026-03-22T08:43:37.042Z</time></trkpt><trkpt lat="41.5233417" lon="13.1844074"><ele>344.6</ele><time>2026-03-22T08:43:38.043Z</time></trkpt><trkpt lat="41.5234216" lon="13.1844818"><ele>344.8</ele><time>2026-03-22T08:43:39.039Z</time></trkpt><trkpt lat="41.5235059" lon="13.1845615"><ele>345.0</ele><time>2026-03-22T08:43:40.072Z</time></trkpt><trkpt lat="41.5235898" lon="13.1846413"><ele>345.0</ele><time>2026-03-22T08:43:41.041Z</time></trkpt><trkpt lat="41.523673" lon="13.1847242"><ele>345.0</ele><time>2026-03-22T08:43:42.041Z</time></trkpt><trkpt lat="41.5237619" lon="13.1848065"><ele>345.0</ele><time>2026-03-22T08:43:43.04Z</time></trkpt><trkpt lat="41.5238509" lon="13.184892"><ele>345.0</ele><time>2026-03-22T08:43:44.05Z</time></trkpt><trkpt lat="41.5239366" lon="13.1849719"><ele>345.0</ele><time>2026-03-22T08:43:45.036Z</time></trkpt><trkpt lat="41.5240242" lon="13.185053"><ele>343.2</ele><time>2026-03-22T08:43:46.053Z</time></trkpt><trkpt lat="41.5241067" lon="13.1851341"><ele>341.4</ele><time>2026-03-22T08:43:47.038Z</time></trkpt><trkpt lat="41.5241818" lon="13.1852168"><ele>339.6</ele><time>2026-03-22T08:43:48.041Z</time></trkpt><trkpt lat="41.5242552" lon="13.1853019"><ele>337.8</ele><time>2026-03-22T08:43:49.046Z</time></trkpt><trkpt lat="41.5243322" lon="13.1853916"><ele>336.0</ele><time>2026-03-22T08:43:50.038Z</time></trkpt><trkpt lat="41.5244067" lon="13.185497"><ele>336.0</ele><time>2026-03-22T08:43:51.068Z</time></trkpt><trkpt lat="41.5244827" lon="13.185603"><ele>336.0</ele><time>2026-03-22T08:43:52.038Z</time></trkpt><trkpt lat="41.5245554" lon="13.185705"><ele>336.0</ele><time>2026-03-22T08:43:53.048Z</time></trkpt><trkpt lat="41.5246177" lon="13.185806"><ele>336.0</ele><time>2026-03-22T08:43:54.036Z</time></trkpt><trkpt lat="41.524684" lon="13.1859117"><ele>336.0</ele><time>2026-03-22T08:43:55.047Z</time></trkpt><trkpt lat="41.5247458" lon="13.1860085"><ele>334.8333333333333</ele><time>2026-03-22T08:43:56.041Z</time></trkpt><trkpt lat="41.5248028" lon="13.1860976"><ele>333.6666666666667</ele><time>2026-03-22T08:43:57.049Z</time></trkpt><trkpt lat="41.5248618" lon="13.1861844"><ele>332.5</ele><time>2026-03-22T08:43:58.044Z</time></trkpt><trkpt lat="41.5249252" lon="13.1862707"><ele>331.33333333333337</ele><time>2026-03-22T08:43:59.043Z</time></trkpt><trkpt lat="41.5249879" lon="13.1863496"><ele>330.1666666666667</ele><time>2026-03-22T08:44:00.043Z</time></trkpt><trkpt lat="41.5250435" lon="13.1864174"><ele>329.0</ele><time>2026-03-22T08:44:01.038Z</time></trkpt><trkpt lat="41.5250897" lon="13.1864864"><ele>330.0</ele><time>2026-03-22T08:44:02.047Z</time></trkpt><trkpt lat="41.5251307" lon="13.1865666"><ele>331.0</ele><time>2026-03-22T08:44:03.041Z</time></trkpt><trkpt lat="41.5251693" lon="13.1866633"><ele>332.0</ele><time>2026-03-22T08:44:04.054Z</time></trkpt><trkpt lat="41.5252008" lon="13.1867658"><ele>333.0</ele><time>2026-03-22T08:44:05.032Z</time></trkpt><trkpt lat="41.5252328" lon="13.1868686"><ele>334.0</ele><time>2026-03-22T08:44:06.042Z</time></trkpt><trkpt lat="41.525283" lon="13.1869755"><ele>335.0</ele><time>2026-03-22T08:44:07.04Z</time></trkpt><trkpt lat="41.5253437" lon="13.1870775"><ele>335.2</ele><time>2026-03-22T08:44:08.041Z</time></trkpt><trkpt lat="41.5254125" lon="13.1871782"><ele>335.4</ele><time>2026-03-22T08:44:09.054Z</time></trkpt><trkpt lat="41.5254734" lon="13.1872867"><ele>335.6</ele><time>2026-03-22T08:44:10.039Z</time></trkpt><trkpt lat="41.5255179" lon="13.1873955"><ele>335.8</ele><time>2026-03-22T08:44:11.038Z</time></trkpt><trkpt lat="41.5255534" lon="13.1874971"><ele>336.0</ele><time>2026-03-22T08:44:12.041Z</time></trkpt><trkpt lat="41.5255924" lon="13.187583"><ele>339.20000000000005</ele><time>2026-03-22T08:44:13.033Z</time></trkpt><trkpt lat="41.5256838" lon="13.187657"><ele>342.40000000000003</ele><time>2026-03-22T08:44:15.045Z</time></trkpt><trkpt lat="41.525802" lon="13.1876289"><ele>345.6</ele><time>2026-03-22T08:44:17.04Z</time></trkpt><trkpt lat="41.5258685" lon="13.1875811"><ele>348.8</ele><time>2026-03-22T08:44:18.04Z</time></trkpt><trkpt lat="41.5259441" lon="13.1875261"><ele>352.0</ele><time>2026-03-22T08:44:19.037Z</time></trkpt><trkpt lat="41.5260227" lon="13.1874689"><ele>352.0</ele><time>2026-03-22T08:44:20.062Z</time></trkpt><trkpt lat="41.5261124" lon="13.187404"><ele>352.0</ele><time>2026-03-22T08:44:21.033Z</time></trkpt><trkpt lat="41.5262093" lon="13.1873388"><ele>352.0</ele><time>2026-03-22T08:44:22.04Z</time></trkpt><trkpt lat="41.5263095" lon="13.1872784"><ele>352.0</ele><time>2026-03-22T08:44:23.045Z</time></trkpt><trkpt lat="41.5264199" lon="13.1872277"><ele>352.0</ele><time>2026-03-22T08:44:24.041Z</time></trkpt><trkpt lat="41.5265364" lon="13.1871904"><ele>351.6</ele><time>2026-03-22T08:44:25.061Z</time></trkpt><trkpt lat="41.526652" lon="13.187161"><ele>351.20000000000005</ele><time>2026-03-22T08:44:26.044Z</time></trkpt><trkpt lat="41.5267588" lon="13.1871291"><ele>350.8</ele><time>2026-03-22T08:44:27.046Z</time></trkpt><trkpt lat="41.5268455" lon="13.1870884"><ele>350.4</ele><time>2026-03-22T08:44:28.036Z</time></trkpt><trkpt lat="41.5269224" lon="13.1870295"><ele>350.0</ele><time>2026-03-22T08:44:29.043Z</time></trkpt><trkpt lat="41.5269974" lon="13.1869494"><ele>354.2</ele><time>2026-03-22T08:44:30.047Z</time></trkpt><trkpt lat="41.5270703" lon="13.1868534"><ele>358.4</ele><time>2026-03-22T08:44:31.04Z</time></trkpt><trkpt lat="41.5271383" lon="13.1867585"><ele>362.6</ele><time>2026-03-22T08:44:32.055Z</time></trkpt><trkpt lat="41.5272012" lon="13.18667"><ele>366.8</ele><time>2026-03-22T08:44:33.043Z</time></trkpt><trkpt lat="41.5272595" lon="13.186591"><ele>371.0</ele><time>2026-03-22T08:44:34.04Z</time></trkpt><trkpt lat="41.5273437" lon="13.1865166"><ele>371.0</ele><time>2026-03-22T08:44:36.035Z</time></trkpt><trkpt lat="41.5274025" lon="13.1865917"><ele>371.0</ele><time>2026-03-22T08:44:39.039Z</time></trkpt><trkpt lat="41.5273774" lon="13.1867214"><ele>371.0</ele><time>2026-03-22T08:44:41.049Z</time></trkpt><trkpt lat="41.5273554" lon="13.1868036"><ele>371.0</ele><time>2026-03-22T08:44:42.041Z</time></trkpt><trkpt lat="41.5273211" lon="13.1868891"><ele>371.0</ele><time>2026-03-22T08:44:43.044Z</time></trkpt><trkpt lat="41.5272835" lon="13.1869843"><ele>371.0</ele><time>2026-03-22T08:44:44.037Z</time></trkpt><trkpt lat="41.527244" lon="13.1870995"><ele>371.0</ele><time>2026-03-22T08:44:45.04Z</time></trkpt><trkpt lat="41.5272015" lon="13.1872236"><ele>371.0</ele><time>2026-03-22T08:44:46.041Z</time></trkpt><trkpt lat="41.5271557" lon="13.1873454"><ele>371.0</ele><time>2026-03-22T08:44:47.044Z</time></trkpt><trkpt lat="41.5271044" lon="13.187471"><ele>371.0</ele><time>2026-03-22T08:44:48.038Z</time></trkpt><trkpt lat="41.5270459" lon="13.1875959"><ele>371.0</ele><time>2026-03-22T08:44:49.064Z</time></trkpt><trkpt lat="41.5269812" lon="13.187719"><ele>370.20000000000005</ele><time>2026-03-22T08:44:50.038Z</time></trkpt><trkpt lat="41.5269108" lon="13.1878375"><ele>369.40000000000003</ele><time>2026-03-22T08:44:51.045Z</time></trkpt><trkpt lat="41.5268411" lon="13.18795"><ele>368.6</ele><time>2026-03-22T08:44:52.037Z</time></trkpt><trkpt lat="41.5267733" lon="13.1880589"><ele>367.8</ele><time>2026-03-22T08:44:53.046Z</time></trkpt><trkpt lat="41.5267087" lon="13.1881684"><ele>367.0</ele><time>2026-03-22T08:44:54.037Z</time></trkpt><trkpt lat="41.5266477" lon="13.1882831"><ele>371.20000000000005</ele><time>2026-03-22T08:44:55.039Z</time></trkpt><trkpt lat="41.526586" lon="13.1883995"><ele>375.4</ele><time>2026-03-22T08:44:56.042Z</time></trkpt><trkpt lat="41.5265304" lon="13.1885242"><ele>379.6</ele><time>2026-03-22T08:44:57.042Z</time></trkpt><trkpt lat="41.5264899" lon="13.1886507"><ele>383.79999999999995</ele><time>2026-03-22T08:44:58.045Z</time></trkpt><trkpt lat="41.5264652" lon="13.1887787"><ele>388.0</ele><time>2026-03-22T08:44:59.063Z</time></trkpt><trkpt lat="41.5264547" lon="13.1889127"><ele>390.0</ele><time>2026-03-22T08:45:00.047Z</time></trkpt><trkpt lat="41.526458" lon="13.1890561"><ele>392.0</ele><time>2026-03-22T08:45:01.045Z</time></trkpt><trkpt lat="41.5264698" lon="13.1892045"><ele>394.0</ele><time>2026-03-22T08:45:02.047Z</time></trkpt><trkpt lat="41.5264877" lon="13.1893588"><ele>396.0</ele><time>2026-03-22T08:45:03.038Z</time></trkpt><trkpt lat="41.5265128" lon="13.1895121"><ele>396.0</ele><time>2026-03-22T08:45:04.061Z</time></trkpt><trkpt lat="41.5265367" lon="13.1896593"><ele>396.0</ele><time>2026-03-22T08:45:05.035Z</time></trkpt><trkpt lat="41.5265579" lon="13.1898043"><ele>396.0</ele><time>2026-03-22T08:45:06.04Z</time></trkpt><trkpt lat="41.5265791" lon="13.1899482"><ele>396.0</ele><time>2026-03-22T08:45:07.04Z</time></trkpt><trkpt lat="41.5266028" lon="13.1900904"><ele>396.0</ele><time>2026-03-22T08:45:08.041Z</time></trkpt><trkpt lat="41.5266365" lon="13.1902303"><ele>396.4</ele><time>2026-03-22T08:45:09.042Z</time></trkpt><trkpt lat="41.5266853" lon="13.1903652"><ele>396.8</ele><time>2026-03-22T08:45:10.05Z</time></trkpt><trkpt lat="41.526743" lon="13.1904959"><ele>397.2</ele><time>2026-03-22T08:45:11.042Z</time></trkpt><trkpt lat="41.5268036" lon="13.1906209"><ele>397.59999999999997</ele><time>2026-03-22T08:45:12.044Z</time></trkpt><trkpt lat="41.5268663" lon="13.1907441"><ele>398.0</ele><time>2026-03-22T08:45:13.033Z</time></trkpt><trkpt lat="41.5269279" lon="13.1908695"><ele>397.0</ele><time>2026-03-22T08:45:14.039Z</time></trkpt><trkpt lat="41.5269809" lon="13.1909959"><ele>396.0</ele><time>2026-03-22T08:45:15.041Z</time></trkpt><trkpt lat="41.527029" lon="13.1911259"><ele>395.0</ele><time>2026-03-22T08:45:16.042Z</time></trkpt><trkpt lat="41.5270774" lon="13.1912588"><ele>394.0</ele><time>2026-03-22T08:45:17.045Z</time></trkpt><trkpt lat="41.5271267" lon="13.1913912"><ele>393.0</ele><time>2026-03-22T08:45:18.033Z</time></trkpt><trkpt lat="41.5271781" lon="13.1915213"><ele>399.79999999999995</ele><time>2026-03-22T08:45:19.039Z</time></trkpt><trkpt lat="41.527233" lon="13.1916473"><ele>406.6</ele><time>2026-03-22T08:45:20.037Z</time></trkpt><trkpt lat="41.5272946" lon="13.19177"><ele>413.40000000000003</ele><time>2026-03-22T08:45:21.034Z</time></trkpt><trkpt lat="41.5273607" lon="13.1918898"><ele>420.20000000000005</ele><time>2026-03-22T08:45:22.038Z</time></trkpt><trkpt lat="41.5274304" lon="13.1920106"><ele>427.0</ele><time>2026-03-22T08:45:23.041Z</time></trkpt><trkpt lat="41.5274978" lon="13.1921381"><ele>427.0</ele><time>2026-03-22T08:45:24.037Z</time></trkpt><trkpt lat="41.5275593" lon="13.1922726"><ele>427.0</ele><time>2026-03-22T08:45:25.046Z</time></trkpt><trkpt lat="41.5276202" lon="13.1924087"><ele>427.0</ele><time>2026-03-22T08:45:26.045Z</time></trkpt><trkpt lat="41.5276825" lon="13.1925416"><ele>427.0</ele><time>2026-03-22T08:45:27.037Z</time></trkpt><trkpt lat="41.5277451" lon="13.1926704"><ele>423.25</ele><time>2026-03-22T08:45:28.044Z</time></trkpt><trkpt lat="41.5278077" lon="13.1927982"><ele>419.5</ele><time>2026-03-22T08:45:29.039Z</time></trkpt><trkpt lat="41.5278705" lon="13.1929262"><ele>415.75</ele><time>2026-03-22T08:45:30.057Z</time></trkpt><trkpt lat="41.5279346" lon="13.1930528"><ele>412.0</ele><time>2026-03-22T08:45:31.04Z</time></trkpt><trkpt lat="41.5280002" lon="13.1931687"><ele>418.8</ele><time>2026-03-22T08:45:32.04Z</time></trkpt><trkpt lat="41.5280695" lon="13.1932753"><ele>425.6</ele><time>2026-03-22T08:45:33.041Z</time></trkpt><trkpt lat="41.5281454" lon="13.1933724"><ele>432.40000000000003</ele><time>2026-03-22T08:45:34.04Z</time></trkpt><trkpt lat="41.5282172" lon="13.1934561"><ele>439.20000000000005</ele><time>2026-03-22T08:45:35.069Z</time></trkpt><trkpt lat="41.5282773" lon="13.1935248"><ele>446.0</ele><time>2026-03-22T08:45:36.04Z</time></trkpt><trkpt lat="41.5283246" lon="13.1935927"><ele>445.99999999999994</ele><time>2026-03-22T08:45:37.039Z</time></trkpt><trkpt lat="41.5283572" lon="13.1936677"><ele>446.0</ele><time>2026-03-22T08:45:38.036Z</time></trkpt><trkpt lat="41.5283822" lon="13.1937587"><ele>446.0</ele><time>2026-03-22T08:45:39.044Z</time></trkpt><trkpt lat="41.5284009" lon="13.1938626"><ele>446.0</ele><time>2026-03-22T08:45:40.045Z</time></trkpt><trkpt lat="41.5284014" lon="13.1939713"><ele>445.99999999999994</ele><time>2026-03-22T08:45:41.036Z</time></trkpt><trkpt lat="41.5283813" lon="13.1940729"><ele>446.0</ele><time>2026-03-22T08:45:42.059Z</time></trkpt><trkpt lat="41.5283449" lon="13.1941758"><ele>445.4</ele><time>2026-03-22T08:45:43.035Z</time></trkpt><trkpt lat="41.5283048" lon="13.1942935"><ele>444.8</ele><time>2026-03-22T08:45:44.044Z</time></trkpt><trkpt lat="41.5282652" lon="13.1944253"><ele>444.19999999999993</ele><time>2026-03-22T08:45:45.035Z</time></trkpt><trkpt lat="41.5282264" lon="13.1945596"><ele>443.59999999999997</ele><time>2026-03-22T08:45:46.037Z</time></trkpt><trkpt lat="41.5281899" lon="13.1946939"><ele>443.0</ele><time>2026-03-22T08:45:47.034Z</time></trkpt><trkpt lat="41.5281534" lon="13.194831"><ele>445.2</ele><time>2026-03-22T08:45:48.04Z</time></trkpt><trkpt lat="41.5281203" lon="13.1949722"><ele>447.4</ele><time>2026-03-22T08:45:49.039Z</time></trkpt><trkpt lat="41.5280968" lon="13.1951165"><ele>449.59999999999997</ele><time>2026-03-22T08:45:50.036Z</time></trkpt><trkpt lat="41.528087" lon="13.1952638"><ele>451.79999999999995</ele><time>2026-03-22T08:45:51.038Z</time></trkpt><trkpt lat="41.5280949" lon="13.1954084"><ele>454.0</ele><time>2026-03-22T08:45:52.04Z</time></trkpt><trkpt lat="41.5281195" lon="13.1955399"><ele>454.0</ele><time>2026-03-22T08:45:53.039Z</time></trkpt><trkpt lat="41.5281585" lon="13.1956608"><ele>454.0</ele><time>2026-03-22T08:45:54.052Z</time></trkpt><trkpt lat="41.5282085" lon="13.1957727"><ele>454.0</ele><time>2026-03-22T08:45:55.033Z</time></trkpt><trkpt lat="41.5282676" lon="13.1958761"><ele>454.0</ele><time>2026-03-22T08:45:56.046Z</time></trkpt><trkpt lat="41.5283277" lon="13.1959748"><ele>454.0</ele><time>2026-03-22T08:45:57.041Z</time></trkpt><trkpt lat="41.5283771" lon="13.1960838"><ele>454.0</ele><time>2026-03-22T08:45:58.04Z</time></trkpt><trkpt lat="41.5284117" lon="13.1962086"><ele>454.0</ele><time>2026-03-22T08:45:59.039Z</time></trkpt><trkpt lat="41.5284373" lon="13.1963451"><ele>454.0</ele><time>2026-03-22T08:46:00.038Z</time></trkpt><trkpt lat="41.5284591" lon="13.1964908"><ele>454.0</ele><time>2026-03-22T08:46:01.05Z</time></trkpt><trkpt lat="41.5284793" lon="13.1966447"><ele>454.0</ele><time>2026-03-22T08:46:02.037Z</time></trkpt><trkpt lat="41.5284962" lon="13.1968014"><ele>452.25</ele><time>2026-03-22T08:46:03.044Z</time></trkpt><trkpt lat="41.5285078" lon="13.1969606"><ele>450.5</ele><time>2026-03-22T08:46:04.035Z</time></trkpt><trkpt lat="41.5285138" lon="13.19712"><ele>448.75</ele><time>2026-03-22T08:46:05.036Z</time></trkpt><trkpt lat="41.5285129" lon="13.1972728"><ele>447.0</ele><time>2026-03-22T08:46:06.04Z</time></trkpt><trkpt lat="41.5285059" lon="13.1974254"><ele>447.0</ele><time>2026-03-22T08:46:07.042Z</time></trkpt><trkpt lat="41.5284912" lon="13.1975783"><ele>447.0</ele><time>2026-03-22T08:46:08.036Z</time></trkpt><trkpt lat="41.5284679" lon="13.1977324"><ele>447.0</ele><time>2026-03-22T08:46:09.048Z</time></trkpt><trkpt lat="41.5284341" lon="13.1978835"><ele>447.0</ele><time>2026-03-22T08:46:10.049Z</time></trkpt><trkpt lat="41.5283943" lon="13.1980379"><ele>449.20000000000005</ele><time>2026-03-22T08:46:11.034Z</time></trkpt><trkpt lat="41.5283553" lon="13.1981915"><ele>451.40000000000003</ele><time>2026-03-22T08:46:12.038Z</time></trkpt><trkpt lat="41.5283224" lon="13.198335"><ele>453.59999999999997</ele><time>2026-03-22T08:46:13.04Z</time></trkpt><trkpt lat="41.5282996" lon="13.1984646"><ele>455.79999999999995</ele><time>2026-03-22T08:46:14.046Z</time></trkpt><trkpt lat="41.5282898" lon="13.1985892"><ele>458.0</ele><time>2026-03-22T08:46:15.038Z</time></trkpt><trkpt lat="41.5282953" lon="13.1987027"><ele>458.0</ele><time>2026-03-22T08:46:16.066Z</time></trkpt><trkpt lat="41.5283159" lon="13.1988167"><ele>457.99999999999994</ele><time>2026-03-22T08:46:17.043Z</time></trkpt><trkpt lat="41.528349" lon="13.1989378"><ele>457.99999999999994</ele><time>2026-03-22T08:46:18.036Z</time></trkpt><trkpt lat="41.5283868" lon="13.1990621"><ele>458.0</ele><time>2026-03-22T08:46:19.042Z</time></trkpt><trkpt lat="41.5284322" lon="13.1991862"><ele>458.0</ele><time>2026-03-22T08:46:20.038Z</time></trkpt><trkpt lat="41.5284853" lon="13.1993113"><ele>456.5</ele><time>2026-03-22T08:46:21.058Z</time></trkpt><trkpt lat="41.5285429" lon="13.199437"><ele>455.0</ele><time>2026-03-22T08:46:22.034Z</time></trkpt><trkpt lat="41.5286037" lon="13.1995657"><ele>453.5</ele><time>2026-03-22T08:46:23.042Z</time></trkpt><trkpt lat="41.5286651" lon="13.1996943"><ele>452.0</ele><time>2026-03-22T08:46:24.04Z</time></trkpt><trkpt lat="41.5287361" lon="13.1998239"><ele>461.0</ele><time>2026-03-22T08:46:25.042Z</time></trkpt><trkpt lat="41.5288087" lon="13.1999496"><ele>470.0</ele><time>2026-03-22T08:46:26.036Z</time></trkpt><trkpt lat="41.5288839" lon="13.2000732"><ele>479.0</ele><time>2026-03-22T08:46:27.038Z</time></trkpt><trkpt lat="41.5289602" lon="13.2001944"><ele>488.0</ele><time>2026-03-22T08:46:28.04Z</time></trkpt><trkpt lat="41.5290387" lon="13.2003116"><ele>488.0</ele><time>2026-03-22T08:46:29.037Z</time></trkpt><trkpt lat="41.5291169" lon="13.200428"><ele>488.0</ele><time>2026-03-22T08:46:30.036Z</time></trkpt><trkpt lat="41.5291913" lon="13.2005506"><ele>488.0</ele><time>2026-03-22T08:46:31.038Z</time></trkpt><trkpt lat="41.5292641" lon="13.2006727"><ele>488.0</ele><time>2026-03-22T08:46:32.054Z</time></trkpt><trkpt lat="41.5293354" lon="13.2007894"><ele>483.79999999999995</ele><time>2026-03-22T08:46:33.036Z</time></trkpt><trkpt lat="41.5294049" lon="13.2008996"><ele>479.59999999999997</ele><time>2026-03-22T08:46:34.036Z</time></trkpt><trkpt lat="41.5294782" lon="13.2010005"><ele>475.40000000000003</ele><time>2026-03-22T08:46:35.033Z</time></trkpt><trkpt lat="41.5295534" lon="13.201089"><ele>471.20000000000005</ele><time>2026-03-22T08:46:36.032Z</time></trkpt><trkpt lat="41.5296288" lon="13.2011631"><ele>467.0</ele><time>2026-03-22T08:46:37.035Z</time></trkpt><trkpt lat="41.5296925" lon="13.2012273"><ele>475.40000000000003</ele><time>2026-03-22T08:46:38.044Z</time></trkpt><trkpt lat="41.5297371" lon="13.2012939"><ele>483.80000000000007</ele><time>2026-03-22T08:46:39.037Z</time></trkpt><trkpt lat="41.5297549" lon="13.2014176"><ele>492.2</ele><time>2026-03-22T08:46:41.037Z</time></trkpt><trkpt lat="41.5297125" lon="13.2015677"><ele>500.6</ele><time>2026-03-22T08:46:43.04Z</time></trkpt><trkpt lat="41.5296641" lon="13.2016587"><ele>509.0</ele><time>2026-03-22T08:46:44.046Z</time></trkpt><trkpt lat="41.529597" lon="13.2017532"><ele>500.79999999999995</ele><time>2026-03-22T08:46:45.043Z</time></trkpt><trkpt lat="41.5295241" lon="13.2018435"><ele>492.59999999999997</ele><time>2026-03-22T08:46:46.037Z</time></trkpt><trkpt lat="41.5294423" lon="13.2019379"><ele>484.4</ele><time>2026-03-22T08:46:47.037Z</time></trkpt><trkpt lat="41.5293576" lon="13.2020365"><ele>476.2</ele><time>2026-03-22T08:46:48.042Z</time></trkpt><trkpt lat="41.5292739" lon="13.202133"><ele>468.0</ele><time>2026-03-22T08:46:49.04Z</time></trkpt><trkpt lat="41.5291933" lon="13.2022257"><ele>468.0</ele><time>2026-03-22T08:46:50.039Z</time></trkpt><trkpt lat="41.5291136" lon="13.2023121"><ele>467.99999999999994</ele><time>2026-03-22T08:46:51.062Z</time></trkpt><trkpt lat="41.5290375" lon="13.2023885"><ele>467.99999999999994</ele><time>2026-03-22T08:46:52.047Z</time></trkpt><trkpt lat="41.5289664" lon="13.202459"><ele>468.0</ele><time>2026-03-22T08:46:53.038Z</time></trkpt><trkpt lat="41.5288992" lon="13.202523"><ele>468.0</ele><time>2026-03-22T08:46:54.041Z</time></trkpt><trkpt lat="41.5288312" lon="13.2025814"><ele>472.1666666666667</ele><time>2026-03-22T08:46:55.042Z</time></trkpt><trkpt lat="41.5287576" lon="13.2026379"><ele>476.33333333333337</ele><time>2026-03-22T08:46:56.042Z</time></trkpt><trkpt lat="41.5286797" lon="13.2026941"><ele>480.5</ele><time>2026-03-22T08:46:57.038Z</time></trkpt><trkpt lat="41.5285999" lon="13.2027501"><ele>484.6666666666667</ele><time>2026-03-22T08:46:58.034Z</time></trkpt><trkpt lat="41.5285189" lon="13.2028027"><ele>488.83333333333337</ele><time>2026-03-22T08:46:59.038Z</time></trkpt><trkpt lat="41.5284366" lon="13.2028482"><ele>493.0</ele><time>2026-03-22T08:47:00.045Z</time></trkpt><trkpt lat="41.5283492" lon="13.2028874"><ele>493.0</ele><time>2026-03-22T08:47:01.033Z</time></trkpt><trkpt lat="41.5282607" lon="13.2029261"><ele>492.99999999999994</ele><time>2026-03-22T08:47:02.056Z</time></trkpt><trkpt lat="41.5281643" lon="13.2029623"><ele>492.99999999999994</ele><time>2026-03-22T08:47:03.041Z</time></trkpt><trkpt lat="41.5280641" lon="13.2030028"><ele>493.0</ele><time>2026-03-22T08:47:04.038Z</time></trkpt><trkpt lat="41.5279644" lon="13.2030445"><ele>493.0</ele><time>2026-03-22T08:47:05.04Z</time></trkpt><trkpt lat="41.5278666" lon="13.2030862"><ele>492.0</ele><time>2026-03-22T08:47:06.041Z</time></trkpt><trkpt lat="41.5277686" lon="13.2031299"><ele>490.99999999999994</ele><time>2026-03-22T08:47:07.039Z</time></trkpt><trkpt lat="41.5276702" lon="13.2031739"><ele>489.99999999999994</ele><time>2026-03-22T08:47:08.037Z</time></trkpt><trkpt lat="41.5275741" lon="13.2032148"><ele>489.0</ele><time>2026-03-22T08:47:09.038Z</time></trkpt><trkpt lat="41.5274755" lon="13.2032474"><ele>488.0</ele><time>2026-03-22T08:47:10.048Z</time></trkpt><trkpt lat="41.5273751" lon="13.2032704"><ele>495.59999999999997</ele><time>2026-03-22T08:47:11.04Z</time></trkpt><trkpt lat="41.5272777" lon="13.2032911"><ele>503.19999999999993</ele><time>2026-03-22T08:47:12.06Z</time></trkpt><trkpt lat="41.5271812" lon="13.2033019"><ele>510.8</ele><time>2026-03-22T08:47:13.049Z</time></trkpt><trkpt lat="41.5270873" lon="13.2033082"><ele>518.4</ele><time>2026-03-22T08:47:14.039Z</time></trkpt><trkpt lat="41.5269916" lon="13.2033156"><ele>526.0</ele><time>2026-03-22T08:47:15.036Z</time></trkpt><trkpt lat="41.5268972" lon="13.2033186"><ele>527.2</ele><time>2026-03-22T08:47:16.039Z</time></trkpt><trkpt lat="41.5267993" lon="13.2033255"><ele>528.4000000000001</ele><time>2026-03-22T08:47:17.033Z</time></trkpt><trkpt lat="41.5266947" lon="13.2033334"><ele>529.6</ele><time>2026-03-22T08:47:18.041Z</time></trkpt><trkpt lat="41.5265976" lon="13.2033443"><ele>530.8000000000001</ele><time>2026-03-22T08:47:19.038Z</time></trkpt><trkpt lat="41.5265134" lon="13.2033576"><ele>532.0</ele><time>2026-03-22T08:47:20.056Z</time></trkpt><trkpt lat="41.5264321" lon="13.203367"><ele>532.0</ele><time>2026-03-22T08:47:21.043Z</time></trkpt><trkpt lat="41.5263556" lon="13.2033775"><ele>532.0</ele><time>2026-03-22T08:47:22.04Z</time></trkpt><trkpt lat="41.5262479" lon="13.203387"><ele>532.0</ele><time>2026-03-22T08:47:24.038Z</time></trkpt><trkpt lat="41.5262252" lon="13.2034835"><ele>532.0</ele><time>2026-03-22T08:47:28.047Z</time></trkpt><trkpt lat="41.5263221" lon="13.2034952"><ele>532.0</ele><time>2026-03-22T08:47:31.039Z</time></trkpt><trkpt lat="41.5264325" lon="13.2034713"><ele>532.0</ele><time>2026-03-22T08:47:33.042Z</time></trkpt><trkpt lat="41.5265001" lon="13.2034763"><ele>532.0</ele><time>2026-03-22T08:47:34.056Z</time></trkpt><trkpt lat="41.5265772" lon="13.2034923"><ele>532.0</ele><time>2026-03-22T08:47:35.044Z</time></trkpt><trkpt lat="41.5266555" lon="13.2035133"><ele>532.0</ele><time>2026-03-22T08:47:36.037Z</time></trkpt><trkpt lat="41.5267381" lon="13.2035348"><ele>532.0</ele><time>2026-03-22T08:47:37.041Z</time></trkpt><trkpt lat="41.5268232" lon="13.2035541"><ele>532.0</ele><time>2026-03-22T08:47:38.043Z</time></trkpt><trkpt lat="41.5269053" lon="13.2035772"><ele>532.0</ele><time>2026-03-22T08:47:39.037Z</time></trkpt><trkpt lat="41.5269895" lon="13.2036005"><ele>532.0</ele><time>2026-03-22T08:47:40.06Z</time></trkpt><trkpt lat="41.5270671" lon="13.2036301"><ele>532.0</ele><time>2026-03-22T08:47:41.035Z</time></trkpt><trkpt lat="41.5271544" lon="13.2036846"><ele>532.0</ele><time>2026-03-22T08:47:42.033Z</time></trkpt><trkpt lat="41.5272392" lon="13.2037416"><ele>532.0</ele><time>2026-03-22T08:47:43.04Z</time></trkpt><trkpt lat="41.5273238" lon="13.2037997"><ele>531.0</ele><time>2026-03-22T08:47:44.041Z</time></trkpt><trkpt lat="41.5274087" lon="13.2038626"><ele>530.0</ele><time>2026-03-22T08:47:45.038Z</time></trkpt><trkpt lat="41.5274912" lon="13.2039271"><ele>529.0</ele><time>2026-03-22T08:47:46.048Z</time></trkpt><trkpt lat="41.5275684" lon="13.2039802"><ele>528.0</ele><time>2026-03-22T08:47:47.04Z</time></trkpt><trkpt lat="41.5276435" lon="13.2040234"><ele>527.0</ele><time>2026-03-22T08:47:48.043Z</time></trkpt><trkpt lat="41.5277181" lon="13.2040712"><ele>526.0</ele><time>2026-03-22T08:47:49.034Z</time></trkpt><trkpt lat="41.5277867" lon="13.2041182"><ele>528.5714285714286</ele><time>2026-03-22T08:47:50.037Z</time></trkpt><trkpt lat="41.5278388" lon="13.2041712"><ele>531.1428571428571</ele><time>2026-03-22T08:47:51.042Z</time></trkpt><trkpt lat="41.5278788" lon="13.2042403"><ele>533.7142857142857</ele><time>2026-03-22T08:47:52.036Z</time></trkpt><trkpt lat="41.5279157" lon="13.2043183"><ele>536.2857142857142</ele><time>2026-03-22T08:47:53.056Z</time></trkpt><trkpt lat="41.5279476" lon="13.2044107"><ele>538.8571428571429</ele><time>2026-03-22T08:47:54.034Z</time></trkpt><trkpt lat="41.5279834" lon="13.2045111"><ele>541.4285714285713</ele><time>2026-03-22T08:47:55.039Z</time></trkpt><trkpt lat="41.528017" lon="13.2046121"><ele>544.0</ele><time>2026-03-22T08:47:56.038Z</time></trkpt><trkpt lat="41.5280455" lon="13.2047143"><ele>546.1666666666667</ele><time>2026-03-22T08:47:57.036Z</time></trkpt><trkpt lat="41.528073" lon="13.2048211"><ele>548.3333333333334</ele><time>2026-03-22T08:47:58.062Z</time></trkpt><trkpt lat="41.5280976" lon="13.2049191"><ele>550.5</ele><time>2026-03-22T08:47:59.036Z</time></trkpt><trkpt lat="41.5281211" lon="13.2050105"><ele>552.6666666666666</ele><time>2026-03-22T08:48:00.042Z</time></trkpt><trkpt lat="41.5281411" lon="13.2051096"><ele>554.8333333333333</ele><time>2026-03-22T08:48:01.04Z</time></trkpt><trkpt lat="41.5281559" lon="13.2052186"><ele>557.0</ele><time>2026-03-22T08:48:02.042Z</time></trkpt><trkpt lat="41.5281666" lon="13.2053361"><ele>558.0</ele><time>2026-03-22T08:48:03.068Z</time></trkpt><trkpt lat="41.5281757" lon="13.2054604"><ele>559.0</ele><time>2026-03-22T08:48:04.04Z</time></trkpt><trkpt lat="41.5281919" lon="13.2055934"><ele>560.0</ele><time>2026-03-22T08:48:05.041Z</time></trkpt><trkpt lat="41.5282087" lon="13.2057224"><ele>561.0</ele><time>2026-03-22T08:48:06.043Z</time></trkpt><trkpt lat="41.5282433" lon="13.205846"><ele>562.0</ele><time>2026-03-22T08:48:07.045Z</time></trkpt><trkpt lat="41.5282796" lon="13.2059728"><ele>562.0</ele><time>2026-03-22T08:48:08.059Z</time></trkpt><trkpt lat="41.5283266" lon="13.2060959"><ele>562.0</ele><time>2026-03-22T08:48:09.04Z</time></trkpt><trkpt lat="41.5283793" lon="13.2062239"><ele>562.0</ele><time>2026-03-22T08:48:10.036Z</time></trkpt><trkpt lat="41.5284325" lon="13.2063493"><ele>562.0</ele><time>2026-03-22T08:48:11.037Z</time></trkpt><trkpt lat="41.5284842" lon="13.2064741"><ele>562.0</ele><time>2026-03-22T08:48:12.038Z</time></trkpt><trkpt lat="41.5285287" lon="13.206586"><ele>561.0</ele><time>2026-03-22T08:48:13.039Z</time></trkpt><trkpt lat="41.5285712" lon="13.2066941"><ele>560.0</ele><time>2026-03-22T08:48:14.037Z</time></trkpt><trkpt lat="41.5286306" lon="13.2067876"><ele>559.0</ele><time>2026-03-22T08:48:15.051Z</time></trkpt><trkpt lat="41.5286992" lon="13.2068651"><ele>558.0</ele><time>2026-03-22T08:48:16.037Z</time></trkpt><trkpt lat="41.5287806" lon="13.2069292"><ele>557.0</ele><time>2026-03-22T08:48:17.042Z</time></trkpt><trkpt lat="41.528868" lon="13.2069844"><ele>563.0</ele><time>2026-03-22T08:48:18.033Z</time></trkpt><trkpt lat="41.5289613" lon="13.2070402"><ele>569.0</ele><time>2026-03-22T08:48:19.041Z</time></trkpt><trkpt lat="41.5290514" lon="13.2071027"><ele>575.0</ele><time>2026-03-22T08:48:20.035Z</time></trkpt><trkpt lat="41.5291358" lon="13.2071623"><ele>581.0</ele><time>2026-03-22T08:48:21.033Z</time></trkpt><trkpt lat="41.5292178" lon="13.2072207"><ele>587.0</ele><time>2026-03-22T08:48:22.036Z</time></trkpt><trkpt lat="41.5292951" lon="13.2072783"><ele>589.2</ele><time>2026-03-22T08:48:23.043Z</time></trkpt><trkpt lat="41.529375" lon="13.2073329"><ele>591.4000000000001</ele><time>2026-03-22T08:48:24.036Z</time></trkpt><trkpt lat="41.5294588" lon="13.2073872"><ele>593.5999999999999</ele><time>2026-03-22T08:48:25.039Z</time></trkpt><trkpt lat="41.5295405" lon="13.2074423"><ele>595.8</ele><time>2026-03-22T08:48:26.038Z</time></trkpt><trkpt lat="41.5296231" lon="13.2074981"><ele>598.0</ele><time>2026-03-22T08:48:27.038Z</time></trkpt><trkpt lat="41.5297071" lon="13.2075539"><ele>598.0</ele><time>2026-03-22T08:48:28.043Z</time></trkpt><trkpt lat="41.5297933" lon="13.2076137"><ele>598.0</ele><time>2026-03-22T08:48:29.042Z</time></trkpt><trkpt lat="41.5298805" lon="13.2076718"><ele>598.0</ele><time>2026-03-22T08:48:30.066Z</time></trkpt><trkpt lat="41.5299674" lon="13.2077239"><ele>598.0</ele><time>2026-03-22T08:48:31.043Z</time></trkpt><trkpt lat="41.5300502" lon="13.2077832"><ele>598.0</ele><time>2026-03-22T08:48:32.04Z</time></trkpt><trkpt lat="41.5301274" lon="13.2078502"><ele>598.0</ele><time>2026-03-22T08:48:33.041Z</time></trkpt><trkpt lat="41.530196" lon="13.2079221"><ele>598.0</ele><time>2026-03-22T08:48:34.034Z</time></trkpt><trkpt lat="41.5302608" lon="13.2080012"><ele>598.0</ele><time>2026-03-22T08:48:35.062Z</time></trkpt><trkpt lat="41.5303275" lon="13.2080816"><ele>598.0</ele><time>2026-03-22T08:48:36.037Z</time></trkpt><trkpt lat="41.5303936" lon="13.2081604"><ele>598.0</ele><time>2026-03-22T08:48:37.037Z</time></trkpt><trkpt lat="41.5304598" lon="13.2082386"><ele>598.0</ele><time>2026-03-22T08:48:38.038Z</time></trkpt><trkpt lat="41.5305233" lon="13.2083195"><ele>602.0</ele><time>2026-03-22T08:48:39.036Z</time></trkpt><trkpt lat="41.5305803" lon="13.208408"><ele>606.0</ele><time>2026-03-22T08:48:40.041Z</time></trkpt><trkpt lat="41.5306308" lon="13.2084996"><ele>610.0</ele><time>2026-03-22T08:48:41.038Z</time></trkpt><trkpt lat="41.5306778" lon="13.2085931"><ele>614.0</ele><time>2026-03-22T08:48:42.057Z</time></trkpt><trkpt lat="41.5307191" lon="13.208688"><ele>618.0</ele><time>2026-03-22T08:48:43.035Z</time></trkpt><trkpt lat="41.5307539" lon="13.2087856"><ele>622.0</ele><time>2026-03-22T08:48:44.032Z</time></trkpt><trkpt lat="41.5307804" lon="13.2088883"><ele>621.0</ele><time>2026-03-22T08:48:45.045Z</time></trkpt><trkpt lat="41.5307978" lon="13.2089957"><ele>620.0</ele><time>2026-03-22T08:48:46.036Z</time></trkpt><trkpt lat="41.5308044" lon="13.2091039"><ele>619.0</ele><time>2026-03-22T08:48:47.04Z</time></trkpt><trkpt lat="41.5307975" lon="13.2092131"><ele>618.0</ele><time>2026-03-22T08:48:48.036Z</time></trkpt><trkpt lat="41.5307828" lon="13.2093302"><ele>617.0</ele><time>2026-03-22T08:48:49.041Z</time></trkpt><trkpt lat="41.5307681" lon="13.2094501"><ele>616.0</ele><time>2026-03-22T08:48:50.037Z</time></trkpt><trkpt lat="41.5307487" lon="13.2095787"><ele>616.0</ele><time>2026-03-22T08:48:51.033Z</time></trkpt><trkpt lat="41.5307254" lon="13.2097063"><ele>616.0</ele><time>2026-03-22T08:48:52.043Z</time></trkpt><trkpt lat="41.530701" lon="13.2098342"><ele>616.0</ele><time>2026-03-22T08:48:53.045Z</time></trkpt><trkpt lat="41.5306752" lon="13.2099653"><ele>616.0</ele><time>2026-03-22T08:48:54.054Z</time></trkpt><trkpt lat="41.5306472" lon="13.2100983"><ele>616.0</ele><time>2026-03-22T08:48:55.038Z</time></trkpt><trkpt lat="41.5306214" lon="13.2102282"><ele>618.8</ele><time>2026-03-22T08:48:56.031Z</time></trkpt><trkpt lat="41.5305948" lon="13.2103549"><ele>621.6</ele><time>2026-03-22T08:48:57.038Z</time></trkpt><trkpt lat="41.5305598" lon="13.2104817"><ele>624.4</ele><time>2026-03-22T08:48:58.034Z</time></trkpt><trkpt lat="41.5305202" lon="13.210609"><ele>627.2</ele><time>2026-03-22T08:48:59.05Z</time></trkpt><trkpt lat="41.5304943" lon="13.2107207"><ele>630.0</ele><time>2026-03-22T08:49:00.032Z</time></trkpt><trkpt lat="41.5304711" lon="13.2108324"><ele>631.6666666666666</ele><time>2026-03-22T08:49:01.029Z</time></trkpt><trkpt lat="41.5304494" lon="13.2109337"><ele>633.3333333333334</ele><time>2026-03-22T08:49:02.039Z</time></trkpt><trkpt lat="41.5304298" lon="13.2110296"><ele>635.0</ele><time>2026-03-22T08:49:03.04Z</time></trkpt><trkpt lat="41.5304155" lon="13.2111302"><ele>636.6666666666667</ele><time>2026-03-22T08:49:04.061Z</time></trkpt><trkpt lat="41.5303959" lon="13.211235"><ele>638.3333333333334</ele><time>2026-03-22T08:49:05.04Z</time></trkpt><trkpt lat="41.5304036" lon="13.211329"><ele>640.0</ele><time>2026-03-22T08:49:06.044Z</time></trkpt><trkpt lat="41.5304224" lon="13.2114499"><ele>640.1666666666667</ele><time>2026-03-22T08:49:08.049Z</time></trkpt><trkpt lat="41.5304343" lon="13.2115495"><ele>640.3333333333334</ele><time>2026-03-22T08:49:10.046Z</time></trkpt><trkpt lat="41.530444" lon="13.2116388"><ele>640.5</ele><time>2026-03-22T08:49:12.036Z</time></trkpt><trkpt lat="41.5304658" lon="13.2117477"><ele>640.6666666666666</ele><time>2026-03-22T08:49:15.056Z</time></trkpt><trkpt lat="41.5304838" lon="13.211884"><ele>640.8333333333333</ele><time>2026-03-22T08:49:17.037Z</time></trkpt><trkpt lat="41.5304984" lon="13.2120244"><ele>641.0</ele><time>2026-03-22T08:49:19.044Z</time></trkpt><trkpt lat="41.5305103" lon="13.2121454"><ele>641.0</ele><time>2026-03-22T08:49:21.045Z</time></trkpt><trkpt lat="41.5305169" lon="13.2122525"><ele>641.0</ele><time>2026-03-22T08:49:24.051Z</time></trkpt><trkpt lat="41.530509" lon="13.2123493"><ele>641.0</ele><time>2026-03-22T08:50:22.046Z</time></trkpt><trkpt lat="41.5304916" lon="13.2124666"><ele>641.0</ele><time>2026-03-22T08:50:24.045Z</time></trkpt><trkpt lat="41.530427" lon="13.2126154"><ele>641.0</ele><time>2026-03-22T08:50:26.058Z</time></trkpt><trkpt lat="41.530388" lon="13.2126969"><ele>641.0</ele><time>2026-03-22T08:50:27.044Z</time></trkpt><trkpt lat="41.5303481" lon="13.212793"><ele>638.0</ele><time>2026-03-22T08:50:28.041Z</time></trkpt><trkpt lat="41.530305" lon="13.2128973"><ele>635.0</ele><time>2026-03-22T08:50:29.037Z</time></trkpt><trkpt lat="41.530251" lon="13.2130027"><ele>632.0</ele><time>2026-03-22T08:50:30.041Z</time></trkpt><trkpt lat="41.5301942" lon="13.2131134"><ele>629.0</ele><time>2026-03-22T08:50:31.039Z</time></trkpt><trkpt lat="41.5301228" lon="13.2132118"><ele>626.0</ele><time>2026-03-22T08:50:32.041Z</time></trkpt><trkpt lat="41.5300497" lon="13.2133038"><ele>626.0</ele><time>2026-03-22T08:50:33.045Z</time></trkpt><trkpt lat="41.5299725" lon="13.2134013"><ele>626.0</ele><time>2026-03-22T08:50:34.043Z</time></trkpt><trkpt lat="41.5298977" lon="13.2135119"><ele>626.0</ele><time>2026-03-22T08:50:35.041Z</time></trkpt><trkpt lat="41.5298265" lon="13.2136336"><ele>626.0</ele><time>2026-03-22T08:50:36.063Z</time></trkpt><trkpt lat="41.5297573" lon="13.2137567"><ele>626.0</ele><time>2026-03-22T08:50:37.04Z</time></trkpt><trkpt lat="41.5296903" lon="13.2138747"><ele>626.0</ele><time>2026-03-22T08:50:38.041Z</time></trkpt><trkpt lat="41.5296303" lon="13.2139764"><ele>626.0</ele><time>2026-03-22T08:50:39.046Z</time></trkpt><trkpt lat="41.5295729" lon="13.2140566"><ele>626.0</ele><time>2026-03-22T08:50:40.042Z</time></trkpt><trkpt lat="41.5294912" lon="13.2141355"><ele>626.0</ele><time>2026-03-22T08:50:42.037Z</time></trkpt><trkpt lat="41.5294263" lon="13.2142008"><ele>626.0</ele><time>2026-03-22T08:50:45.045Z</time></trkpt><trkpt lat="41.5293696" lon="13.214244"><ele>626.0</ele><time>2026-03-22T08:50:47.04Z</time></trkpt><trkpt lat="41.5292991" lon="13.2143134"><ele>627.1428571428571</ele><time>2026-03-22T08:50:50.044Z</time></trkpt><trkpt lat="41.5292386" lon="13.2143601"><ele>628.2857142857143</ele><time>2026-03-22T08:50:52.043Z</time></trkpt><trkpt lat="41.5291823" lon="13.2144004"><ele>629.4285714285714</ele><time>2026-03-22T08:50:54.047Z</time></trkpt><trkpt lat="41.5291297" lon="13.2144712"><ele>630.5714285714286</ele><time>2026-03-22T08:50:56.041Z</time></trkpt><trkpt lat="41.5290773" lon="13.2145571"><ele>631.7142857142857</ele><time>2026-03-22T08:50:58.038Z</time></trkpt><trkpt lat="41.5290365" lon="13.2146262"><ele>632.8571428571429</ele><time>2026-03-22T08:51:00.04Z</time></trkpt><trkpt lat="41.5289953" lon="13.2147003"><ele>634.0</ele><time>2026-03-22T08:51:03.043Z</time></trkpt><trkpt lat="41.5289305" lon="13.2147681"><ele>634.1428571428571</ele><time>2026-03-22T08:51:07.036Z</time></trkpt><trkpt lat="41.528902" lon="13.21486"><ele>634.2857142857142</ele><time>2026-03-22T08:51:12.041Z</time></trkpt><trkpt lat="41.5288764" lon="13.2149591"><ele>634.4285714285713</ele><time>2026-03-22T08:51:16.063Z</time></trkpt><trkpt lat="41.5288442" lon="13.2150516"><ele>634.5714285714286</ele><time>2026-03-22T08:51:20.042Z</time></trkpt><trkpt lat="41.528838" lon="13.2151643"><ele>634.7142857142857</ele><time>2026-03-22T08:51:24.044Z</time></trkpt><trkpt lat="41.528831" lon="13.2152491"><ele>634.8571428571428</ele><time>2026-03-22T08:51:27.04Z</time></trkpt><trkpt lat="41.5288349" lon="13.2153383"><ele>635.0</ele><time>2026-03-22T08:51:31.05Z</time></trkpt><trkpt lat="41.5288692" lon="13.2154129"><ele>635.0</ele><time>2026-03-22T08:52:31.051Z</time></trkpt><trkpt lat="41.5289244" lon="13.2154918"><ele>635.0</ele><time>2026-03-22T08:52:35.043Z</time></trkpt><trkpt lat="41.5289353" lon="13.2155839"><ele>635.0</ele><time>2026-03-22T08:52:38.044Z</time></trkpt><trkpt lat="41.528887" lon="13.2156654"><ele>635.0</ele><time>2026-03-22T08:52:43.059Z</time></trkpt><trkpt lat="41.5288423" lon="13.2157261"><ele>635.0</ele><time>2026-03-22T08:52:46.045Z</time></trkpt><trkpt lat="41.5288061" lon="13.2158044"><ele>635.0</ele><time>2026-03-22T08:52:52.041Z</time></trkpt><trkpt lat="41.5287151" lon="13.215935"><ele>633.2857142857142</ele><time>2026-03-22T08:53:18.041Z</time></trkpt><trkpt lat="41.5286857" lon="13.2160332"><ele>631.5714285714286</ele><time>2026-03-22T08:53:23.047Z</time></trkpt><trkpt lat="41.528657" lon="13.2161265"><ele>629.8571428571429</ele><time>2026-03-22T08:53:27.045Z</time></trkpt><trkpt lat="41.5286086" lon="13.2161812"><ele>628.1428571428571</ele><time>2026-03-22T08:53:36.049Z</time></trkpt><trkpt lat="41.5285895" lon="13.2162716"><ele>626.4285714285714</ele><time>2026-03-22T08:53:42.042Z</time></trkpt><trkpt lat="41.528553" lon="13.2163478"><ele>624.7142857142857</ele><time>2026-03-22T08:53:51.039Z</time></trkpt><trkpt lat="41.5284847" lon="13.2164101"><ele>623.0</ele><time>2026-03-22T08:53:59.061Z</time></trkpt><trkpt lat="41.5284363" lon="13.2164643"><ele>623.0</ele><time>2026-03-22T08:54:02.048Z</time></trkpt><trkpt lat="41.5283968" lon="13.2165575"><ele>613.0</ele><time>2026-03-22T08:54:10.086Z</time></trkpt><trkpt lat="41.5283405" lon="13.2166398"><ele>613.0</ele><time>2026-03-22T08:54:23.054Z</time></trkpt><trkpt lat="41.5283427" lon="13.2167267"><ele>613.0</ele><time>2026-03-22T08:54:38.04Z</time></trkpt></trkseg><trkseg><trkpt lat="41.5288263" lon="13.2186563"><ele>636.0</ele><time>2026-03-22T09:17:28.035Z</time></trkpt><trkpt lat="41.5287811" lon="13.2187243"><ele>636.0</ele><time>2026-03-22T09:17:51.052Z</time></trkpt><trkpt lat="41.5287222" lon="13.218811"><ele>636.0</ele><time>2026-03-22T09:17:54.055Z</time></trkpt><trkpt lat="41.5286766" lon="13.2188759"><ele>636.0</ele><time>2026-03-22T09:17:56.055Z</time></trkpt><trkpt lat="41.5286175" lon="13.21896"><ele>636.0</ele><time>2026-03-22T09:17:59.046Z</time></trkpt><trkpt lat="41.5285507" lon="13.2190462"><ele>636.0</ele><time>2026-03-22T09:18:02.047Z</time></trkpt><trkpt lat="41.5284848" lon="13.2191244"><ele>635.6666666666666</ele><time>2026-03-22T09:18:05.055Z</time></trkpt><trkpt lat="41.5284235" lon="13.2191999"><ele>635.3333333333334</ele><time>2026-03-22T09:18:08.049Z</time></trkpt><trkpt lat="41.5283498" lon="13.2192729"><ele>635.0</ele><time>2026-03-22T09:18:11.048Z</time></trkpt><trkpt lat="41.5282805" lon="13.2193423"><ele>634.6666666666667</ele><time>2026-03-22T09:18:14.056Z</time></trkpt><trkpt lat="41.5282309" lon="13.219401"><ele>634.3333333333334</ele><time>2026-03-22T09:18:16.053Z</time></trkpt><trkpt lat="41.528183" lon="13.2194633"><ele>634.0</ele><time>2026-03-22T09:18:18.054Z</time></trkpt><trkpt lat="41.5281225" lon="13.2195379"><ele>634.0</ele><time>2026-03-22T09:18:21.056Z</time></trkpt><trkpt lat="41.5280646" lon="13.2196149"><ele>634.0</ele><time>2026-03-22T09:18:24.054Z</time></trkpt><trkpt lat="41.5279935" lon="13.2196609"><ele>634.0</ele><time>2026-03-22T09:18:27.054Z</time></trkpt><trkpt lat="41.5279219" lon="13.2197015"><ele>634.0</ele><time>2026-03-22T09:18:30.045Z</time></trkpt><trkpt lat="41.5278459" lon="13.2197222"><ele>634.0</ele><time>2026-03-22T09:18:33.043Z</time></trkpt><trkpt lat="41.527792" lon="13.219767"><ele>634.0</ele><time>2026-03-22T09:18:35.053Z</time></trkpt><trkpt lat="41.5277305" lon="13.2198082"><ele>634.0</ele><time>2026-03-22T09:18:37.053Z</time></trkpt><trkpt lat="41.5276548" lon="13.2198628"><ele>632.0</ele><time>2026-03-22T09:18:40.046Z</time></trkpt><trkpt lat="41.5276048" lon="13.2199295"><ele>630.0</ele><time>2026-03-22T09:18:44.047Z</time></trkpt><trkpt lat="41.5275806" lon="13.220009"><ele>628.0</ele><time>2026-03-22T09:18:47.05Z</time></trkpt><trkpt lat="41.527568" lon="13.2200948"><ele>626.0</ele><time>2026-03-22T09:18:54.044Z</time></trkpt><trkpt lat="41.5276108" lon="13.2201916"><ele>624.0</ele><time>2026-03-22T09:19:00.057Z</time></trkpt><trkpt lat="41.5275667" lon="13.220253"><ele>622.0</ele><time>2026-03-22T09:19:06.054Z</time></trkpt><trkpt lat="41.5275419" lon="13.2203493"><ele>620.0</ele><time>2026-03-22T09:19:12.065Z</time></trkpt><trkpt lat="41.5275222" lon="13.2204695"><ele>620.0</ele><time>2026-03-22T09:19:14.044Z</time></trkpt><trkpt lat="41.5274919" lon="13.220595"><ele>620.0</ele><time>2026-03-22T09:19:16.05Z</time></trkpt><trkpt lat="41.5274656" lon="13.2206775"><ele>620.0</ele><time>2026-03-22T09:19:18.051Z</time></trkpt><trkpt lat="41.5274356" lon="13.2207764"><ele>620.0</ele><time>2026-03-22T09:19:21.049Z</time></trkpt><trkpt lat="41.5273688" lon="13.2208707"><ele>620.0</ele><time>2026-03-22T09:19:24.048Z</time></trkpt><trkpt lat="41.5273339" lon="13.2209556"><ele>620.0</ele><time>2026-03-22T09:19:27.06Z</time></trkpt><trkpt lat="41.5272652" lon="13.2210231"><ele>621.0</ele><time>2026-03-22T09:19:31.051Z</time></trkpt><trkpt lat="41.5272514" lon="13.2211414"><ele>622.0</ele><time>2026-03-22T09:19:34.05Z</time></trkpt><trkpt lat="41.5272623" lon="13.2212628"><ele>623.0</ele><time>2026-03-22T09:19:37.054Z</time></trkpt><trkpt lat="41.5272336" lon="13.2213736"><ele>624.0</ele><time>2026-03-22T09:19:40.052Z</time></trkpt><trkpt lat="41.5272176" lon="13.2214676"><ele>625.0</ele><time>2026-03-22T09:19:42.053Z</time></trkpt><trkpt lat="41.5272124" lon="13.2215799"><ele>626.0</ele><time>2026-03-22T09:19:44.064Z</time></trkpt><trkpt lat="41.527241" lon="13.2216615"><ele>627.1666666666666</ele><time>2026-03-22T09:19:46.049Z</time></trkpt><trkpt lat="41.527284" lon="13.2217426"><ele>628.3333333333333</ele><time>2026-03-22T09:19:48.05Z</time></trkpt><trkpt lat="41.527331" lon="13.2218395"><ele>629.5</ele><time>2026-03-22T09:19:51.054Z</time></trkpt><trkpt lat="41.5273881" lon="13.221927"><ele>630.6666666666666</ele><time>2026-03-22T09:19:55.046Z</time></trkpt><trkpt lat="41.5274312" lon="13.2220047"><ele>631.8333333333334</ele><time>2026-03-22T09:19:57.056Z</time></trkpt><trkpt lat="41.5274986" lon="13.2220515"><ele>633.0</ele><time>2026-03-22T09:19:59.05Z</time></trkpt><trkpt lat="41.527555" lon="13.2220905"><ele>633.0</ele><time>2026-03-22T09:20:01.058Z</time></trkpt><trkpt lat="41.5276015" lon="13.2221508"><ele>633.0</ele><time>2026-03-22T09:20:03.052Z</time></trkpt><trkpt lat="41.5276593" lon="13.2222062"><ele>633.0</ele><time>2026-03-22T09:20:05.06Z</time></trkpt><trkpt lat="41.5277203" lon="13.2222355"><ele>633.0</ele><time>2026-03-22T09:20:07.051Z</time></trkpt><trkpt lat="41.5278092" lon="13.2222091"><ele>633.0</ele><time>2026-03-22T09:20:10.056Z</time></trkpt><trkpt lat="41.5278784" lon="13.222188"><ele>633.0</ele><time>2026-03-22T09:20:12.056Z</time></trkpt><trkpt lat="41.5279501" lon="13.2221412"><ele>633.0</ele><time>2026-03-22T09:20:14.051Z</time></trkpt><trkpt lat="41.5280226" lon="13.2221036"><ele>630.6666666666666</ele><time>2026-03-22T09:20:16.048Z</time></trkpt><trkpt lat="41.5281166" lon="13.2220725"><ele>628.3333333333334</ele><time>2026-03-22T09:20:19.047Z</time></trkpt><trkpt lat="41.5281768" lon="13.2220361"><ele>626.0</ele><time>2026-03-22T09:20:21.049Z</time></trkpt><trkpt lat="41.5282551" lon="13.2220221"><ele>623.6666666666667</ele><time>2026-03-22T09:20:24.058Z</time></trkpt><trkpt lat="41.5283168" lon="13.222063"><ele>621.3333333333334</ele><time>2026-03-22T09:20:27.048Z</time></trkpt><trkpt lat="41.5283893" lon="13.2220975"><ele>619.0</ele><time>2026-03-22T09:20:30.053Z</time></trkpt><trkpt lat="41.5284537" lon="13.2221178"><ele>619.0</ele><time>2026-03-22T09:20:37.05Z</time></trkpt><trkpt lat="41.5285242" lon="13.222163"><ele>619.0</ele><time>2026-03-22T09:20:42.051Z</time></trkpt><trkpt lat="41.5285887" lon="13.222215"><ele>619.0</ele><time>2026-03-22T09:20:44.052Z</time></trkpt><trkpt lat="41.5286542" lon="13.222266"><ele>619.0</ele><time>2026-03-22T09:20:46.06Z</time></trkpt><trkpt lat="41.5287375" lon="13.2223248"><ele>619.0</ele><time>2026-03-22T09:20:49.047Z</time></trkpt><trkpt lat="41.5287941" lon="13.222412"><ele>619.0</ele><time>2026-03-22T09:20:51.064Z</time></trkpt><trkpt lat="41.5288492" lon="13.2225115"><ele>617.0</ele><time>2026-03-22T09:20:53.046Z</time></trkpt><trkpt lat="41.5289236" lon="13.222597"><ele>615.0</ele><time>2026-03-22T09:20:55.059Z</time></trkpt><trkpt lat="41.5290011" lon="13.2226722"><ele>613.0</ele><time>2026-03-22T09:20:57.046Z</time></trkpt><trkpt lat="41.5290823" lon="13.222736"><ele>611.0</ele><time>2026-03-22T09:20:59.062Z</time></trkpt><trkpt lat="41.52918" lon="13.2228052"><ele>609.0</ele><time>2026-03-22T09:21:01.057Z</time></trkpt><trkpt lat="41.5292757" lon="13.2228992"><ele>609.0</ele><time>2026-03-22T09:21:03.055Z</time></trkpt><trkpt lat="41.5293323" lon="13.2229514"><ele>609.0</ele><time>2026-03-22T09:21:04.051Z</time></trkpt><trkpt lat="41.529392" lon="13.2230496"><ele>609.0</ele><time>2026-03-22T09:21:06.052Z</time></trkpt><trkpt lat="41.5293834" lon="13.2231716"><ele>609.0</ele><time>2026-03-22T09:21:08.049Z</time></trkpt><trkpt lat="41.5293884" lon="13.2232641"><ele>609.0</ele><time>2026-03-22T09:21:10.052Z</time></trkpt><trkpt lat="41.5294023" lon="13.2233609"><ele>609.0</ele><time>2026-03-22T09:21:12.047Z</time></trkpt><trkpt lat="41.5294153" lon="13.2234528"><ele>609.0</ele><time>2026-03-22T09:21:14.046Z</time></trkpt><trkpt lat="41.5294308" lon="13.2235477"><ele>609.0</ele><time>2026-03-22T09:21:16.043Z</time></trkpt><trkpt lat="41.5294555" lon="13.2236549"><ele>609.0</ele><time>2026-03-22T09:21:19.05Z</time></trkpt><trkpt lat="41.5294417" lon="13.2237701"><ele>609.0</ele><time>2026-03-22T09:21:22.053Z</time></trkpt><trkpt lat="41.5293993" lon="13.2238607"><ele>609.0</ele><time>2026-03-22T09:21:24.045Z</time></trkpt><trkpt lat="41.5293661" lon="13.2239335"><ele>609.0</ele><time>2026-03-22T09:21:26.051Z</time></trkpt><trkpt lat="41.5293131" lon="13.224028"><ele>607.0</ele><time>2026-03-22T09:21:29.047Z</time></trkpt><trkpt lat="41.529269" lon="13.2241585"><ele>605.0</ele><time>2026-03-22T09:21:31.054Z</time></trkpt><trkpt lat="41.5292277" lon="13.2242537"><ele>603.0</ele><time>2026-03-22T09:21:33.042Z</time></trkpt><trkpt lat="41.5291819" lon="13.2243826"><ele>601.0</ele><time>2026-03-22T09:21:35.05Z</time></trkpt><trkpt lat="41.5291466" lon="13.2244838"><ele>599.0</ele><time>2026-03-22T09:21:37.05Z</time></trkpt><trkpt lat="41.529149" lon="13.2245819"><ele>599.0</ele><time>2026-03-22T09:21:41.054Z</time></trkpt><trkpt lat="41.529183" lon="13.2246561"><ele>599.0</ele><time>2026-03-22T09:21:44.057Z</time></trkpt><trkpt lat="41.5292306" lon="13.2247412"><ele>599.0</ele><time>2026-03-22T09:21:47.047Z</time></trkpt><trkpt lat="41.529268" lon="13.2248134"><ele>599.0</ele><time>2026-03-22T09:21:49.046Z</time></trkpt><trkpt lat="41.5292805" lon="13.2249153"><ele>599.0</ele><time>2026-03-22T09:21:52.062Z</time></trkpt><trkpt lat="41.5292977" lon="13.2250352"><ele>599.0</ele><time>2026-03-22T09:21:55.045Z</time></trkpt><trkpt lat="41.5293107" lon="13.2251472"><ele>596.8333333333333</ele><time>2026-03-22T09:21:57.054Z</time></trkpt><trkpt lat="41.529339" lon="13.2252381"><ele>594.6666666666666</ele><time>2026-03-22T09:21:59.043Z</time></trkpt><trkpt lat="41.5293692" lon="13.2253279"><ele>592.5</ele><time>2026-03-22T09:22:01.046Z</time></trkpt><trkpt lat="41.5294276" lon="13.225404"><ele>590.3333333333334</ele><time>2026-03-22T09:22:04.052Z</time></trkpt><trkpt lat="41.5294919" lon="13.2254616"><ele>588.1666666666667</ele><time>2026-03-22T09:22:06.054Z</time></trkpt><trkpt lat="41.5295447" lon="13.225562"><ele>586.0</ele><time>2026-03-22T09:22:08.048Z</time></trkpt><trkpt lat="41.5296085" lon="13.225706"><ele>581.8333333333334</ele><time>2026-03-22T09:22:10.053Z</time></trkpt><trkpt lat="41.529653" lon="13.225801"><ele>577.6666666666667</ele><time>2026-03-22T09:22:11.06Z</time></trkpt><trkpt lat="41.5297006" lon="13.2258973"><ele>573.5</ele><time>2026-03-22T09:22:12.049Z</time></trkpt><trkpt lat="41.5297442" lon="13.2260079"><ele>569.3333333333334</ele><time>2026-03-22T09:22:13.047Z</time></trkpt><trkpt lat="41.5297754" lon="13.2261091"><ele>565.1666666666666</ele><time>2026-03-22T09:22:14.045Z</time></trkpt><trkpt lat="41.5298052" lon="13.2262139"><ele>561.0</ele><time>2026-03-22T09:22:15.046Z</time></trkpt><trkpt lat="41.5298349" lon="13.2263401"><ele>559.8</ele><time>2026-03-22T09:22:16.047Z</time></trkpt><trkpt lat="41.5298619" lon="13.226478"><ele>558.6</ele><time>2026-03-22T09:22:17.046Z</time></trkpt><trkpt lat="41.5298988" lon="13.2265835"><ele>557.4</ele><time>2026-03-22T09:22:18.048Z</time></trkpt><trkpt lat="41.5299306" lon="13.2267024"><ele>556.2</ele><time>2026-03-22T09:22:19.063Z</time></trkpt><trkpt lat="41.5299607" lon="13.2268209"><ele>555.0</ele><time>2026-03-22T09:22:20.05Z</time></trkpt><trkpt lat="41.5299934" lon="13.2269261"><ele>555.0</ele><time>2026-03-22T09:22:21.044Z</time></trkpt><trkpt lat="41.5300271" lon="13.2270346"><ele>555.0</ele><time>2026-03-22T09:22:22.044Z</time></trkpt><trkpt lat="41.5300587" lon="13.2271409"><ele>555.0</ele><time>2026-03-22T09:22:23.045Z</time></trkpt><trkpt lat="41.5300872" lon="13.2272326"><ele>555.0</ele><time>2026-03-22T09:22:24.05Z</time></trkpt><trkpt lat="41.5301049" lon="13.2273191"><ele>555.0</ele><time>2026-03-22T09:22:25.047Z</time></trkpt><trkpt lat="41.5301511" lon="13.2274536"><ele>555.0</ele><time>2026-03-22T09:22:27.051Z</time></trkpt><trkpt lat="41.5301887" lon="13.2275727"><ele>554.3333333333334</ele><time>2026-03-22T09:22:29.064Z</time></trkpt><trkpt lat="41.5302258" lon="13.2276793"><ele>553.6666666666666</ele><time>2026-03-22T09:22:31.049Z</time></trkpt><trkpt lat="41.530248" lon="13.2277797"><ele>553.0</ele><time>2026-03-22T09:22:33.046Z</time></trkpt><trkpt lat="41.530255" lon="13.2278723"><ele>552.3333333333333</ele><time>2026-03-22T09:22:35.047Z</time></trkpt><trkpt lat="41.5302122" lon="13.2279733"><ele>551.6666666666666</ele><time>2026-03-22T09:22:38.058Z</time></trkpt><trkpt lat="41.5301461" lon="13.2280234"><ele>551.0</ele><time>2026-03-22T09:22:41.047Z</time></trkpt><trkpt lat="41.5300708" lon="13.228087"><ele>550.8333333333333</ele><time>2026-03-22T09:22:44.048Z</time></trkpt><trkpt lat="41.5300082" lon="13.2281437"><ele>550.6666666666666</ele><time>2026-03-22T09:22:47.047Z</time></trkpt><trkpt lat="41.52993" lon="13.2281953"><ele>550.5</ele><time>2026-03-22T09:22:50.043Z</time></trkpt><trkpt lat="41.5298521" lon="13.2282431"><ele>550.3333333333334</ele><time>2026-03-22T09:22:53.045Z</time></trkpt><trkpt lat="41.529793" lon="13.2282876"><ele>550.1666666666667</ele><time>2026-03-22T09:22:55.054Z</time></trkpt><trkpt lat="41.5297149" lon="13.228338"><ele>550.0</ele><time>2026-03-22T09:22:57.055Z</time></trkpt><trkpt lat="41.5296081" lon="13.2284151"><ele>550.0</ele><time>2026-03-22T09:22:59.054Z</time></trkpt><trkpt lat="41.5295467" lon="13.2284591"><ele>550.0</ele><time>2026-03-22T09:23:00.059Z</time></trkpt><trkpt lat="41.5294821" lon="13.2285022"><ele>550.0</ele><time>2026-03-22T09:23:01.05Z</time></trkpt><trkpt lat="41.5294142" lon="13.2285504"><ele>550.0</ele><time>2026-03-22T09:23:02.052Z</time></trkpt><trkpt lat="41.5293435" lon="13.2286081"><ele>550.0</ele><time>2026-03-22T09:23:03.049Z</time></trkpt><trkpt lat="41.5292686" lon="13.2286627"><ele>550.0</ele><time>2026-03-22T09:23:04.05Z</time></trkpt><trkpt lat="41.5291899" lon="13.2287242"><ele>550.0</ele><time>2026-03-22T09:23:05.048Z</time></trkpt><trkpt lat="41.5291122" lon="13.2287844"><ele>550.0</ele><time>2026-03-22T09:23:06.046Z</time></trkpt><trkpt lat="41.5290132" lon="13.228832"><ele>550.0</ele><time>2026-03-22T09:23:07.062Z</time></trkpt><trkpt lat="41.5289082" lon="13.2288725"><ele>550.0</ele><time>2026-03-22T09:23:08.044Z</time></trkpt><trkpt lat="41.5287999" lon="13.2289235"><ele>550.0</ele><time>2026-03-22T09:23:09.046Z</time></trkpt><trkpt lat="41.5286937" lon="13.228976"><ele>549.2</ele><time>2026-03-22T09:23:10.05Z</time></trkpt><trkpt lat="41.528585" lon="13.2290294"><ele>548.4</ele><time>2026-03-22T09:23:11.049Z</time></trkpt><trkpt lat="41.5284729" lon="13.2290775"><ele>547.6</ele><time>2026-03-22T09:23:12.047Z</time></trkpt><trkpt lat="41.5283716" lon="13.2291171"><ele>546.8</ele><time>2026-03-22T09:23:13.047Z</time></trkpt><trkpt lat="41.5282816" lon="13.2291717"><ele>546.0</ele><time>2026-03-22T09:23:14.058Z</time></trkpt><trkpt lat="41.5281902" lon="13.229258"><ele>546.0</ele><time>2026-03-22T09:23:15.053Z</time></trkpt><trkpt lat="41.528095" lon="13.2293483"><ele>546.0</ele><time>2026-03-22T09:23:16.053Z</time></trkpt><trkpt lat="41.5279846" lon="13.2294013"><ele>546.0</ele><time>2026-03-22T09:23:17.049Z</time></trkpt><trkpt lat="41.5278629" lon="13.2294267"><ele>546.0</ele><time>2026-03-22T09:23:18.045Z</time></trkpt><trkpt lat="41.527739" lon="13.2294477"><ele>547.25</ele><time>2026-03-22T09:23:19.049Z</time></trkpt><trkpt lat="41.5276209" lon="13.2294702"><ele>548.5</ele><time>2026-03-22T09:23:20.042Z</time></trkpt><trkpt lat="41.5275046" lon="13.2295021"><ele>549.75</ele><time>2026-03-22T09:23:21.053Z</time></trkpt><trkpt lat="41.5273792" lon="13.2295466"><ele>551.0</ele><time>2026-03-22T09:23:22.044Z</time></trkpt><trkpt lat="41.527251" lon="13.2295974"><ele>551.0</ele><time>2026-03-22T09:23:23.046Z</time></trkpt><trkpt lat="41.5271244" lon="13.2296496"><ele>551.0</ele><time>2026-03-22T09:23:24.041Z</time></trkpt><trkpt lat="41.5270033" lon="13.2297094"><ele>551.0</ele><time>2026-03-22T09:23:25.047Z</time></trkpt><trkpt lat="41.5268831" lon="13.2297694"><ele>551.0</ele><time>2026-03-22T09:23:26.05Z</time></trkpt><trkpt lat="41.5267624" lon="13.2298308"><ele>550.75</ele><time>2026-03-22T09:23:27.046Z</time></trkpt><trkpt lat="41.5266458" lon="13.229887"><ele>550.5</ele><time>2026-03-22T09:23:28.045Z</time></trkpt><trkpt lat="41.5265364" lon="13.2299368"><ele>550.25</ele><time>2026-03-22T09:23:29.05Z</time></trkpt><trkpt lat="41.5264352" lon="13.2299839"><ele>550.0</ele><time>2026-03-22T09:23:30.051Z</time></trkpt><trkpt lat="41.526338" lon="13.2300328"><ele>550.0</ele><time>2026-03-22T09:23:31.042Z</time></trkpt><trkpt lat="41.5262455" lon="13.2300727"><ele>550.0</ele><time>2026-03-22T09:23:32.047Z</time></trkpt><trkpt lat="41.5261542" lon="13.2300882"><ele>550.0</ele><time>2026-03-22T09:23:33.05Z</time></trkpt><trkpt lat="41.5260675" lon="13.2300761"><ele>550.0</ele><time>2026-03-22T09:23:34.041Z</time></trkpt><trkpt lat="41.5259801" lon="13.2300614"><ele>550.0</ele><time>2026-03-22T09:23:35.057Z</time></trkpt><trkpt lat="41.5258871" lon="13.2300672"><ele>550.1666666666667</ele><time>2026-03-22T09:23:36.042Z</time></trkpt><trkpt lat="41.5257959" lon="13.2301"><ele>550.3333333333334</ele><time>2026-03-22T09:23:37.041Z</time></trkpt><trkpt lat="41.5257128" lon="13.2301317"><ele>550.5</ele><time>2026-03-22T09:23:38.05Z</time></trkpt><trkpt lat="41.5256335" lon="13.2301575"><ele>550.6666666666666</ele><time>2026-03-22T09:23:39.043Z</time></trkpt><trkpt lat="41.5255539" lon="13.2301779"><ele>550.8333333333333</ele><time>2026-03-22T09:23:40.053Z</time></trkpt><trkpt lat="41.5254665" lon="13.2301904"><ele>551.0</ele><time>2026-03-22T09:23:41.043Z</time></trkpt><trkpt lat="41.5253701" lon="13.2302044"><ele>551.5</ele><time>2026-03-22T09:23:42.05Z</time></trkpt><trkpt lat="41.5252632" lon="13.2302181"><ele>552.0</ele><time>2026-03-22T09:23:43.049Z</time></trkpt><trkpt lat="41.5251505" lon="13.2302318"><ele>552.5</ele><time>2026-03-22T09:23:44.043Z</time></trkpt><trkpt lat="41.5250359" lon="13.2302563"><ele>553.0</ele><time>2026-03-22T09:23:45.043Z</time></trkpt><trkpt lat="41.5249189" lon="13.2302985"><ele>553.0</ele><time>2026-03-22T09:23:46.045Z</time></trkpt><trkpt lat="41.524799" lon="13.2303468"><ele>553.0</ele><time>2026-03-22T09:23:47.049Z</time></trkpt><trkpt lat="41.5246803" lon="13.230396"><ele>553.0</ele><time>2026-03-22T09:23:48.041Z</time></trkpt><trkpt lat="41.5245687" lon="13.2304287"><ele>553.0</ele><time>2026-03-22T09:23:49.046Z</time></trkpt><trkpt lat="41.5244712" lon="13.230449"><ele>552.4</ele><time>2026-03-22T09:23:50.046Z</time></trkpt><trkpt lat="41.5243784" lon="13.2304581"><ele>551.8</ele><time>2026-03-22T09:23:51.064Z</time></trkpt><trkpt lat="41.5242877" lon="13.2304409"><ele>551.2</ele><time>2026-03-22T09:23:52.048Z</time></trkpt><trkpt lat="41.524197" lon="13.2303917"><ele>550.6</ele><time>2026-03-22T09:23:53.042Z</time></trkpt><trkpt lat="41.5241061" lon="13.2303131"><ele>550.0</ele><time>2026-03-22T09:23:54.041Z</time></trkpt><trkpt lat="41.5240113" lon="13.2302181"><ele>550.0</ele><time>2026-03-22T09:23:55.047Z</time></trkpt><trkpt lat="41.5239104" lon="13.2301164"><ele>550.0</ele><time>2026-03-22T09:23:56.046Z</time></trkpt><trkpt lat="41.5238099" lon="13.2300141"><ele>550.0</ele><time>2026-03-22T09:23:57.047Z</time></trkpt><trkpt lat="41.5237149" lon="13.2299146"><ele>550.0</ele><time>2026-03-22T09:23:58.056Z</time></trkpt><trkpt lat="41.5236244" lon="13.2298181"><ele>549.8333333333334</ele><time>2026-03-22T09:23:59.049Z</time></trkpt><trkpt lat="41.5235416" lon="13.2297342"><ele>549.6666666666667</ele><time>2026-03-22T09:24:00.046Z</time></trkpt><trkpt lat="41.5234729" lon="13.2296598"><ele>549.5</ele><time>2026-03-22T09:24:01.047Z</time></trkpt><trkpt lat="41.5234102" lon="13.2295934"><ele>549.3333333333334</ele><time>2026-03-22T09:24:02.04Z</time></trkpt><trkpt lat="41.5233491" lon="13.2295378"><ele>549.1666666666666</ele><time>2026-03-22T09:24:03.052Z</time></trkpt><trkpt lat="41.5232809" lon="13.2295071"><ele>549.0</ele><time>2026-03-22T09:24:04.036Z</time></trkpt><trkpt lat="41.5232088" lon="13.229509"><ele>549.0</ele><time>2026-03-22T09:24:05.045Z</time></trkpt><trkpt lat="41.5231405" lon="13.2295505"><ele>549.0</ele><time>2026-03-22T09:24:06.049Z</time></trkpt><trkpt lat="41.5230805" lon="13.2296236"><ele>549.0</ele><time>2026-03-22T09:24:07.046Z</time></trkpt><trkpt lat="41.5230303" lon="13.2297215"><ele>549.0</ele><time>2026-03-22T09:24:08.061Z</time></trkpt><trkpt lat="41.522991" lon="13.2298422"><ele>549.0</ele><time>2026-03-22T09:24:09.047Z</time></trkpt><trkpt lat="41.5229591" lon="13.2299889"><ele>547.25</ele><time>2026-03-22T09:24:10.049Z</time></trkpt><trkpt lat="41.5229256" lon="13.230149"><ele>545.5</ele><time>2026-03-22T09:24:11.054Z</time></trkpt><trkpt lat="41.5228927" lon="13.2303099"><ele>543.75</ele><time>2026-03-22T09:24:12.058Z</time></trkpt><trkpt lat="41.5228376" lon="13.2304598"><ele>542.0</ele><time>2026-03-22T09:24:13.056Z</time></trkpt><trkpt lat="41.5227839" lon="13.230605"><ele>542.6</ele><time>2026-03-22T09:24:14.047Z</time></trkpt><trkpt lat="41.5227228" lon="13.2307359"><ele>543.2</ele><time>2026-03-22T09:24:15.042Z</time></trkpt><trkpt lat="41.5226635" lon="13.2308453"><ele>543.8</ele><time>2026-03-22T09:24:16.046Z</time></trkpt><trkpt lat="41.5225984" lon="13.2309571"><ele>544.4</ele><time>2026-03-22T09:24:17.051Z</time></trkpt><trkpt lat="41.5225338" lon="13.2310737"><ele>545.0</ele><time>2026-03-22T09:24:18.049Z</time></trkpt><trkpt lat="41.5224672" lon="13.2311962"><ele>545.0</ele><time>2026-03-22T09:24:19.046Z</time></trkpt><trkpt lat="41.5223989" lon="13.2313119"><ele>545.0</ele><time>2026-03-22T09:24:20.048Z</time></trkpt><trkpt lat="41.5223318" lon="13.2314239"><ele>545.0</ele><time>2026-03-22T09:24:21.048Z</time></trkpt><trkpt lat="41.5222732" lon="13.2315444"><ele>545.0</ele><time>2026-03-22T09:24:22.05Z</time></trkpt><trkpt lat="41.5222221" lon="13.2316779"><ele>545.0</ele><time>2026-03-22T09:24:23.046Z</time></trkpt><trkpt lat="41.5221777" lon="13.2318088"><ele>545.2</ele><time>2026-03-22T09:24:24.051Z</time></trkpt><trkpt lat="41.5221344" lon="13.2319348"><ele>545.4</ele><time>2026-03-22T09:24:25.044Z</time></trkpt><trkpt lat="41.5220906" lon="13.232052"><ele>545.6</ele><time>2026-03-22T09:24:26.05Z</time></trkpt><trkpt lat="41.5220478" lon="13.2321635"><ele>545.8</ele><time>2026-03-22T09:24:27.048Z</time></trkpt><trkpt lat="41.5220058" lon="13.2322711"><ele>546.0</ele><time>2026-03-22T09:24:28.046Z</time></trkpt><trkpt lat="41.5219639" lon="13.2323725"><ele>546.0</ele><time>2026-03-22T09:24:29.052Z</time></trkpt><trkpt lat="41.521924" lon="13.2324692"><ele>546.0</ele><time>2026-03-22T09:24:30.041Z</time></trkpt><trkpt lat="41.5218883" lon="13.2325683"><ele>546.0</ele><time>2026-03-22T09:24:31.057Z</time></trkpt><trkpt lat="41.5218605" lon="13.2326712"><ele>546.0</ele><time>2026-03-22T09:24:32.043Z</time></trkpt><trkpt lat="41.5218406" lon="13.2327766"><ele>546.0</ele><time>2026-03-22T09:24:33.046Z</time></trkpt><trkpt lat="41.5218234" lon="13.2328794"><ele>546.0</ele><time>2026-03-22T09:24:34.044Z</time></trkpt><trkpt lat="41.5218128" lon="13.2329771"><ele>546.0</ele><time>2026-03-22T09:24:35.052Z</time></trkpt><trkpt lat="41.5218074" lon="13.233066"><ele>546.0</ele><time>2026-03-22T09:24:36.058Z</time></trkpt><trkpt lat="41.521838" lon="13.233231"><ele>546.0</ele><time>2026-03-22T09:24:38.037Z</time></trkpt><trkpt lat="41.5218835" lon="13.2333592"><ele>546.0</ele><time>2026-03-22T09:24:40.05Z</time></trkpt><trkpt lat="41.5219375" lon="13.2334425"><ele>546.0</ele><time>2026-03-22T09:24:42.044Z</time></trkpt><trkpt lat="41.5219775" lon="13.23351"><ele>546.0</ele><time>2026-03-22T09:24:44.052Z</time></trkpt><trkpt lat="41.522024" lon="13.2335674"><ele>543.8333333333334</ele><time>2026-03-22T09:24:46.042Z</time></trkpt><trkpt lat="41.5220756" lon="13.2336277"><ele>541.6666666666666</ele><time>2026-03-22T09:24:48.042Z</time></trkpt><trkpt lat="41.5221395" lon="13.2337017"><ele>539.5</ele><time>2026-03-22T09:24:50.067Z</time></trkpt><trkpt lat="41.5222255" lon="13.2338087"><ele>537.3333333333333</ele><time>2026-03-22T09:24:52.039Z</time></trkpt><trkpt lat="41.5222803" lon="13.2338756"><ele>535.1666666666666</ele><time>2026-03-22T09:24:53.039Z</time></trkpt><trkpt lat="41.5223478" lon="13.2339596"><ele>533.0</ele><time>2026-03-22T09:24:54.046Z</time></trkpt><trkpt lat="41.5224187" lon="13.234037"><ele>533.0</ele><time>2026-03-22T09:24:55.057Z</time></trkpt><trkpt lat="41.5224973" lon="13.2341236"><ele>533.0</ele><time>2026-03-22T09:24:56.038Z</time></trkpt><trkpt lat="41.5225709" lon="13.2342308"><ele>533.0</ele><time>2026-03-22T09:24:57.038Z</time></trkpt><trkpt lat="41.5226423" lon="13.234341"><ele>533.0</ele><time>2026-03-22T09:24:58.038Z</time></trkpt><trkpt lat="41.5227073" lon="13.2344757"><ele>533.0</ele><time>2026-03-22T09:24:59.044Z</time></trkpt><trkpt lat="41.5227538" lon="13.2346347"><ele>535.25</ele><time>2026-03-22T09:25:00.043Z</time></trkpt><trkpt lat="41.5227961" lon="13.2348069"><ele>537.5</ele><time>2026-03-22T09:25:01.044Z</time></trkpt><trkpt lat="41.5228382" lon="13.2349845"><ele>539.75</ele><time>2026-03-22T09:25:02.05Z</time></trkpt><trkpt lat="41.5228869" lon="13.2351682"><ele>542.0</ele><time>2026-03-22T09:25:03.037Z</time></trkpt><trkpt lat="41.522938" lon="13.2353407"><ele>537.0</ele><time>2026-03-22T09:25:04.049Z</time></trkpt><trkpt lat="41.5229907" lon="13.2355124"><ele>532.0</ele><time>2026-03-22T09:25:05.038Z</time></trkpt><trkpt lat="41.5230391" lon="13.2356808"><ele>527.0</ele><time>2026-03-22T09:25:06.041Z</time></trkpt><trkpt lat="41.5230845" lon="13.2358627"><ele>522.0</ele><time>2026-03-22T09:25:07.039Z</time></trkpt><trkpt lat="41.5231173" lon="13.2360337"><ele>522.0</ele><time>2026-03-22T09:25:08.043Z</time></trkpt><trkpt lat="41.5231518" lon="13.2361697"><ele>522.0</ele><time>2026-03-22T09:25:09.056Z</time></trkpt><trkpt lat="41.5231891" lon="13.236312"><ele>522.0</ele><time>2026-03-22T09:25:10.044Z</time></trkpt><trkpt lat="41.523233" lon="13.2364544"><ele>522.0</ele><time>2026-03-22T09:25:11.043Z</time></trkpt><trkpt lat="41.5232782" lon="13.2365998"><ele>522.6</ele><time>2026-03-22T09:25:12.04Z</time></trkpt><trkpt lat="41.523334" lon="13.2367303"><ele>523.2</ele><time>2026-03-22T09:25:13.041Z</time></trkpt><trkpt lat="41.5233859" lon="13.2368537"><ele>523.8</ele><time>2026-03-22T09:25:14.045Z</time></trkpt><trkpt lat="41.523441" lon="13.2369688"><ele>524.4</ele><time>2026-03-22T09:25:15.041Z</time></trkpt><trkpt lat="41.5234958" lon="13.2370778"><ele>525.0</ele><time>2026-03-22T09:25:16.055Z</time></trkpt><trkpt lat="41.5235317" lon="13.2371923"><ele>524.6666666666666</ele><time>2026-03-22T09:25:17.045Z</time></trkpt><trkpt lat="41.5235396" lon="13.2373087"><ele>524.3333333333334</ele><time>2026-03-22T09:25:18.049Z</time></trkpt><trkpt lat="41.5235245" lon="13.2374148"><ele>524.0</ele><time>2026-03-22T09:25:19.046Z</time></trkpt><trkpt lat="41.5234959" lon="13.2375082"><ele>523.6666666666667</ele><time>2026-03-22T09:25:20.046Z</time></trkpt><trkpt lat="41.5234652" lon="13.2376061"><ele>523.3333333333334</ele><time>2026-03-22T09:25:21.045Z</time></trkpt><trkpt lat="41.5234346" lon="13.2377096"><ele>523.0</ele><time>2026-03-22T09:25:22.05Z</time></trkpt><trkpt lat="41.5234163" lon="13.2378032"><ele>523.0</ele><time>2026-03-22T09:25:23.042Z</time></trkpt><trkpt lat="41.5233968" lon="13.2378962"><ele>523.0</ele><time>2026-03-22T09:25:24.046Z</time></trkpt><trkpt lat="41.5233886" lon="13.2379903"><ele>523.0</ele><time>2026-03-22T09:25:25.044Z</time></trkpt><trkpt lat="41.5233994" lon="13.2380887"><ele>523.0</ele><time>2026-03-22T09:25:26.04Z</time></trkpt><trkpt lat="41.5234144" lon="13.2381934"><ele>523.0</ele><time>2026-03-22T09:25:27.041Z</time></trkpt><trkpt lat="41.5234612" lon="13.2383007"><ele>523.0</ele><time>2026-03-22T09:25:28.045Z</time></trkpt><trkpt lat="41.5234891" lon="13.2384224"><ele>522.4</ele><time>2026-03-22T09:25:29.051Z</time></trkpt><trkpt lat="41.5235172" lon="13.2385515"><ele>521.8</ele><time>2026-03-22T09:25:30.049Z</time></trkpt><trkpt lat="41.5235422" lon="13.2386898"><ele>521.2</ele><time>2026-03-22T09:25:31.051Z</time></trkpt><trkpt lat="41.5235658" lon="13.2388239"><ele>520.6</ele><time>2026-03-22T09:25:32.048Z</time></trkpt><trkpt lat="41.5235888" lon="13.2389566"><ele>520.0</ele><time>2026-03-22T09:25:33.044Z</time></trkpt><trkpt lat="41.5236102" lon="13.2390868"><ele>520.0</ele><time>2026-03-22T09:25:34.045Z</time></trkpt><trkpt lat="41.5236319" lon="13.2392187"><ele>520.0</ele><time>2026-03-22T09:25:35.043Z</time></trkpt><trkpt lat="41.5236449" lon="13.2393395"><ele>520.0</ele><time>2026-03-22T09:25:36.044Z</time></trkpt><trkpt lat="41.5236488" lon="13.2394473"><ele>520.0</ele><time>2026-03-22T09:25:37.052Z</time></trkpt><trkpt lat="41.5236586" lon="13.2395448"><ele>520.0</ele><time>2026-03-22T09:25:38.038Z</time></trkpt><trkpt lat="41.5236868" lon="13.2396507"><ele>520.0</ele><time>2026-03-22T09:25:39.054Z</time></trkpt><trkpt lat="41.5237345" lon="13.2397596"><ele>518.2</ele><time>2026-03-22T09:25:40.043Z</time></trkpt><trkpt lat="41.5237997" lon="13.239864"><ele>516.4</ele><time>2026-03-22T09:25:41.04Z</time></trkpt><trkpt lat="41.5238791" lon="13.2399596"><ele>514.6</ele><time>2026-03-22T09:25:42.043Z</time></trkpt><trkpt lat="41.5239609" lon="13.240059"><ele>512.8</ele><time>2026-03-22T09:25:43.044Z</time></trkpt><trkpt lat="41.5240457" lon="13.2401684"><ele>511.0</ele><time>2026-03-22T09:25:44.05Z</time></trkpt><trkpt lat="41.5241291" lon="13.2402865"><ele>511.0</ele><time>2026-03-22T09:25:45.043Z</time></trkpt><trkpt lat="41.5242018" lon="13.2404126"><ele>511.0</ele><time>2026-03-22T09:25:46.038Z</time></trkpt><trkpt lat="41.5242642" lon="13.2405435"><ele>511.0</ele><time>2026-03-22T09:25:47.047Z</time></trkpt><trkpt lat="41.5243179" lon="13.2406859"><ele>511.0</ele><time>2026-03-22T09:25:48.043Z</time></trkpt><trkpt lat="41.5243582" lon="13.2408408"><ele>511.25</ele><time>2026-03-22T09:25:49.04Z</time></trkpt><trkpt lat="41.5243801" lon="13.2409996"><ele>511.5</ele><time>2026-03-22T09:25:50.059Z</time></trkpt><trkpt lat="41.5243939" lon="13.2411564"><ele>511.75</ele><time>2026-03-22T09:25:51.043Z</time></trkpt><trkpt lat="41.5244024" lon="13.2413182"><ele>512.0</ele><time>2026-03-22T09:25:52.04Z</time></trkpt><trkpt lat="41.5244022" lon="13.2414853"><ele>510.5</ele><time>2026-03-22T09:25:53.039Z</time></trkpt><trkpt lat="41.5244002" lon="13.2416586"><ele>509.0</ele><time>2026-03-22T09:25:54.04Z</time></trkpt><trkpt lat="41.5243993" lon="13.2418282"><ele>507.5</ele><time>2026-03-22T09:25:55.06Z</time></trkpt><trkpt lat="41.5243849" lon="13.2420018"><ele>506.0</ele><time>2026-03-22T09:25:56.046Z</time></trkpt><trkpt lat="41.5243569" lon="13.2421724"><ele>504.25</ele><time>2026-03-22T09:25:57.053Z</time></trkpt><trkpt lat="41.5243237" lon="13.2423331"><ele>502.5</ele><time>2026-03-22T09:25:58.042Z</time></trkpt><trkpt lat="41.5242987" lon="13.2424979"><ele>500.75</ele><time>2026-03-22T09:25:59.043Z</time></trkpt><trkpt lat="41.5242849" lon="13.2426714"><ele>499.0</ele><time>2026-03-22T09:26:00.042Z</time></trkpt><trkpt lat="41.5242784" lon="13.2428516"><ele>499.0</ele><time>2026-03-22T09:26:01.042Z</time></trkpt><trkpt lat="41.5242762" lon="13.2430343"><ele>499.0</ele><time>2026-03-22T09:26:02.042Z</time></trkpt><trkpt lat="41.524277" lon="13.2432123"><ele>499.0</ele><time>2026-03-22T09:26:03.044Z</time></trkpt><trkpt lat="41.5242762" lon="13.2433928"><ele>499.0</ele><time>2026-03-22T09:26:04.042Z</time></trkpt><trkpt lat="41.5242632" lon="13.2435748"><ele>498.25</ele><time>2026-03-22T09:26:05.036Z</time></trkpt><trkpt lat="41.5242424" lon="13.2437472"><ele>497.5</ele><time>2026-03-22T09:26:06.039Z</time></trkpt><trkpt lat="41.524222" lon="13.2439049"><ele>496.75</ele><time>2026-03-22T09:26:07.044Z</time></trkpt><trkpt lat="41.5242063" lon="13.2440478"><ele>496.0</ele><time>2026-03-22T09:26:08.044Z</time></trkpt><trkpt lat="41.5242035" lon="13.2441826"><ele>495.20000000000005</ele><time>2026-03-22T09:26:09.04Z</time></trkpt><trkpt lat="41.5242088" lon="13.2443132"><ele>494.40000000000003</ele><time>2026-03-22T09:26:10.061Z</time></trkpt><trkpt lat="41.5242169" lon="13.2444468"><ele>493.6</ele><time>2026-03-22T09:26:11.038Z</time></trkpt><trkpt lat="41.5242258" lon="13.2445762"><ele>492.8</ele><time>2026-03-22T09:26:12.04Z</time></trkpt><trkpt lat="41.5242378" lon="13.2447038"><ele>492.0</ele><time>2026-03-22T09:26:13.043Z</time></trkpt><trkpt lat="41.524264" lon="13.2448293"><ele>492.20000000000005</ele><time>2026-03-22T09:26:14.048Z</time></trkpt><trkpt lat="41.5243089" lon="13.2449467"><ele>492.40000000000003</ele><time>2026-03-22T09:26:15.047Z</time></trkpt><trkpt lat="41.5243697" lon="13.2450489"><ele>492.59999999999997</ele><time>2026-03-22T09:26:16.042Z</time></trkpt><trkpt lat="41.5244436" lon="13.2451375"><ele>492.79999999999995</ele><time>2026-03-22T09:26:17.039Z</time></trkpt><trkpt lat="41.5245271" lon="13.2452115"><ele>493.0</ele><time>2026-03-22T09:26:18.041Z</time></trkpt><trkpt lat="41.5246175" lon="13.2452719"><ele>493.0</ele><time>2026-03-22T09:26:19.044Z</time></trkpt><trkpt lat="41.5247182" lon="13.245319"><ele>492.99999999999994</ele><time>2026-03-22T09:26:20.04Z</time></trkpt><trkpt lat="41.5248262" lon="13.2453645"><ele>492.99999999999994</ele><time>2026-03-22T09:26:21.039Z</time></trkpt><trkpt lat="41.524928" lon="13.2454077"><ele>493.0</ele><time>2026-03-22T09:26:22.049Z</time></trkpt><trkpt lat="41.5250283" lon="13.2454433"><ele>493.0</ele><time>2026-03-22T09:26:23.053Z</time></trkpt><trkpt lat="41.5251303" lon="13.2454652"><ele>493.0</ele><time>2026-03-22T09:26:24.059Z</time></trkpt><trkpt lat="41.5252313" lon="13.2454684"><ele>492.99999999999994</ele><time>2026-03-22T09:26:25.05Z</time></trkpt><trkpt lat="41.5253286" lon="13.2454571"><ele>492.99999999999994</ele><time>2026-03-22T09:26:26.048Z</time></trkpt><trkpt lat="41.5254305" lon="13.2454386"><ele>493.0</ele><time>2026-03-22T09:26:27.055Z</time></trkpt><trkpt lat="41.5255314" lon="13.2454317"><ele>493.0</ele><time>2026-03-22T09:26:28.047Z</time></trkpt><trkpt lat="41.5256327" lon="13.2454417"><ele>492.2</ele><time>2026-03-22T09:26:29.051Z</time></trkpt><trkpt lat="41.5257298" lon="13.2454602"><ele>491.4</ele><time>2026-03-22T09:26:30.053Z</time></trkpt><trkpt lat="41.5258256" lon="13.2454695"><ele>490.59999999999997</ele><time>2026-03-22T09:26:31.046Z</time></trkpt><trkpt lat="41.5259222" lon="13.2454601"><ele>489.79999999999995</ele><time>2026-03-22T09:26:32.065Z</time></trkpt><trkpt lat="41.5260189" lon="13.2454444"><ele>489.0</ele><time>2026-03-22T09:26:33.05Z</time></trkpt><trkpt lat="41.5261153" lon="13.2454458"><ele>489.0</ele><time>2026-03-22T09:26:34.051Z</time></trkpt><trkpt lat="41.5262075" lon="13.2454742"><ele>489.0</ele><time>2026-03-22T09:26:35.05Z</time></trkpt><trkpt lat="41.5262941" lon="13.2455269"><ele>489.0</ele><time>2026-03-22T09:26:36.057Z</time></trkpt><trkpt lat="41.5263739" lon="13.2455935"><ele>489.0</ele><time>2026-03-22T09:26:37.06Z</time></trkpt><trkpt lat="41.5264499" lon="13.2456709"><ele>489.0</ele><time>2026-03-22T09:26:38.046Z</time></trkpt><trkpt lat="41.5265262" lon="13.2457578"><ele>483.6</ele><time>2026-03-22T09:26:39.052Z</time></trkpt><trkpt lat="41.5266051" lon="13.24585"><ele>478.2</ele><time>2026-03-22T09:26:40.048Z</time></trkpt><trkpt lat="41.5266845" lon="13.2459421"><ele>472.80000000000007</ele><time>2026-03-22T09:26:41.043Z</time></trkpt><trkpt lat="41.5267692" lon="13.2460352"><ele>467.40000000000003</ele><time>2026-03-22T09:26:42.043Z</time></trkpt><trkpt lat="41.5268573" lon="13.2461327"><ele>462.0</ele><time>2026-03-22T09:26:43.05Z</time></trkpt><trkpt lat="41.5269457" lon="13.2462304"><ele>462.0</ele><time>2026-03-22T09:26:44.044Z</time></trkpt><trkpt lat="41.5270329" lon="13.2463257"><ele>462.00000000000006</ele><time>2026-03-22T09:26:45.048Z</time></trkpt><trkpt lat="41.5271109" lon="13.2464311"><ele>462.00000000000006</ele><time>2026-03-22T09:26:46.046Z</time></trkpt><trkpt lat="41.5271842" lon="13.2465355"><ele>462.0</ele><time>2026-03-22T09:26:47.051Z</time></trkpt><trkpt lat="41.527248" lon="13.2466472"><ele>462.0</ele><time>2026-03-22T09:26:48.04Z</time></trkpt><trkpt lat="41.5272979" lon="13.2467543"><ele>460.1666666666667</ele><time>2026-03-22T09:26:49.047Z</time></trkpt><trkpt lat="41.5273456" lon="13.2468575"><ele>458.33333333333337</ele><time>2026-03-22T09:26:50.046Z</time></trkpt><trkpt lat="41.5273882" lon="13.2469645"><ele>456.5</ele><time>2026-03-22T09:26:51.046Z</time></trkpt><trkpt lat="41.5274184" lon="13.2470801"><ele>454.6666666666667</ele><time>2026-03-22T09:26:52.059Z</time></trkpt><trkpt lat="41.5274488" lon="13.247194"><ele>452.83333333333337</ele><time>2026-03-22T09:26:53.043Z</time></trkpt><trkpt lat="41.5274431" lon="13.2472927"><ele>451.0</ele><time>2026-03-22T09:26:54.043Z</time></trkpt><trkpt lat="41.5273787" lon="13.2474128"><ele>451.0</ele><time>2026-03-22T09:26:56.041Z</time></trkpt><trkpt lat="41.527316" lon="13.2474366"><ele>451.0</ele><time>2026-03-22T09:26:57.041Z</time></trkpt><trkpt lat="41.5272273" lon="13.2474193"><ele>451.0</ele><time>2026-03-22T09:26:58.045Z</time></trkpt><trkpt lat="41.5271205" lon="13.247402"><ele>451.0</ele><time>2026-03-22T09:26:59.046Z</time></trkpt><trkpt lat="41.5270005" lon="13.247381"><ele>451.0</ele><time>2026-03-22T09:27:00.044Z</time></trkpt><trkpt lat="41.5268732" lon="13.2473669"><ele>450.0</ele><time>2026-03-22T09:27:01.048Z</time></trkpt><trkpt lat="41.5267385" lon="13.2473553"><ele>449.0</ele><time>2026-03-22T09:27:02.048Z</time></trkpt><trkpt lat="41.5266088" lon="13.2473302"><ele>448.0</ele><time>2026-03-22T09:27:03.039Z</time></trkpt><trkpt lat="41.5264898" lon="13.2473102"><ele>447.0</ele><time>2026-03-22T09:27:04.036Z</time></trkpt><trkpt lat="41.526374" lon="13.2472905"><ele>445.25</ele><time>2026-03-22T09:27:05.039Z</time></trkpt><trkpt lat="41.5262544" lon="13.2472935"><ele>443.5</ele><time>2026-03-22T09:27:06.039Z</time></trkpt><trkpt lat="41.5261352" lon="13.2473178"><ele>441.75</ele><time>2026-03-22T09:27:07.054Z</time></trkpt><trkpt lat="41.5260187" lon="13.2473497"><ele>440.0</ele><time>2026-03-22T09:27:08.044Z</time></trkpt><trkpt lat="41.5259047" lon="13.2473727"><ele>440.0</ele><time>2026-03-22T09:27:09.04Z</time></trkpt><trkpt lat="41.5257838" lon="13.2474004"><ele>440.0</ele><time>2026-03-22T09:27:10.05Z</time></trkpt><trkpt lat="41.5256633" lon="13.2474476"><ele>440.0</ele><time>2026-03-22T09:27:11.052Z</time></trkpt><trkpt lat="41.5255375" lon="13.2475029"><ele>440.0</ele><time>2026-03-22T09:27:12.043Z</time></trkpt><trkpt lat="41.5254111" lon="13.2475815"><ele>440.75</ele><time>2026-03-22T09:27:13.058Z</time></trkpt><trkpt lat="41.5252862" lon="13.2476686"><ele>441.5</ele><time>2026-03-22T09:27:14.046Z</time></trkpt><trkpt lat="41.5251598" lon="13.2477535"><ele>442.25</ele><time>2026-03-22T09:27:15.042Z</time></trkpt><trkpt lat="41.5250297" lon="13.2478353"><ele>443.0</ele><time>2026-03-22T09:27:16.046Z</time></trkpt><trkpt lat="41.5248972" lon="13.247915"><ele>443.0</ele><time>2026-03-22T09:27:17.038Z</time></trkpt><trkpt lat="41.5247624" lon="13.2479926"><ele>443.0</ele><time>2026-03-22T09:27:18.046Z</time></trkpt><trkpt lat="41.5246307" lon="13.2480684"><ele>443.0</ele><time>2026-03-22T09:27:19.047Z</time></trkpt><trkpt lat="41.5245021" lon="13.2481451"><ele>443.0</ele><time>2026-03-22T09:27:20.042Z</time></trkpt><trkpt lat="41.5243732" lon="13.2482314"><ele>440.25</ele><time>2026-03-22T09:27:21.044Z</time></trkpt><trkpt lat="41.5242442" lon="13.2483207"><ele>437.5</ele><time>2026-03-22T09:27:22.043Z</time></trkpt><trkpt lat="41.5241272" lon="13.2484393"><ele>434.75</ele><time>2026-03-22T09:27:23.043Z</time></trkpt><trkpt lat="41.5240231" lon="13.2485656"><ele>432.0</ele><time>2026-03-22T09:27:24.04Z</time></trkpt><trkpt lat="41.5239205" lon="13.248701"><ele>432.0</ele><time>2026-03-22T09:27:25.041Z</time></trkpt><trkpt lat="41.5238258" lon="13.2488341"><ele>432.0</ele><time>2026-03-22T09:27:26.042Z</time></trkpt><trkpt lat="41.5237376" lon="13.2489557"><ele>432.0</ele><time>2026-03-22T09:27:27.055Z</time></trkpt><trkpt lat="41.523648" lon="13.2490757"><ele>432.0</ele><time>2026-03-22T09:27:28.045Z</time></trkpt><trkpt lat="41.5235501" lon="13.2491854"><ele>431.5</ele><time>2026-03-22T09:27:29.048Z</time></trkpt><trkpt lat="41.5234565" lon="13.2492893"><ele>431.0</ele><time>2026-03-22T09:27:30.042Z</time></trkpt><trkpt lat="41.5233542" lon="13.2493528"><ele>430.5</ele><time>2026-03-22T09:27:31.044Z</time></trkpt><trkpt lat="41.5232486" lon="13.2493976"><ele>430.0</ele><time>2026-03-22T09:27:32.045Z</time></trkpt><trkpt lat="41.5231401" lon="13.2494337"><ele>430.0</ele><time>2026-03-22T09:27:33.044Z</time></trkpt><trkpt lat="41.5230338" lon="13.2494637"><ele>430.0</ele><time>2026-03-22T09:27:34.045Z</time></trkpt><trkpt lat="41.5229263" lon="13.2494853"><ele>430.0</ele><time>2026-03-22T09:27:35.039Z</time></trkpt><trkpt lat="41.5228171" lon="13.2494949"><ele>430.0</ele><time>2026-03-22T09:27:36.037Z</time></trkpt><trkpt lat="41.5227052" lon="13.2494909"><ele>430.0</ele><time>2026-03-22T09:27:37.039Z</time></trkpt><trkpt lat="41.5225927" lon="13.2494689"><ele>429.25</ele><time>2026-03-22T09:27:38.056Z</time></trkpt><trkpt lat="41.5224822" lon="13.2494303"><ele>428.5</ele><time>2026-03-22T09:27:39.046Z</time></trkpt><trkpt lat="41.5223736" lon="13.2493797"><ele>427.75</ele><time>2026-03-22T09:27:40.041Z</time></trkpt><trkpt lat="41.5222672" lon="13.2493268"><ele>427.0</ele><time>2026-03-22T09:27:41.043Z</time></trkpt><trkpt lat="41.522163" lon="13.2492781"><ele>425.6666666666667</ele><time>2026-03-22T09:27:42.042Z</time></trkpt><trkpt lat="41.5220622" lon="13.2492282"><ele>424.33333333333337</ele><time>2026-03-22T09:27:43.054Z</time></trkpt><trkpt lat="41.5219695" lon="13.2491765"><ele>423.0</ele><time>2026-03-22T09:27:44.041Z</time></trkpt><trkpt lat="41.5218875" lon="13.2491289"><ele>421.66666666666663</ele><time>2026-03-22T09:27:45.045Z</time></trkpt><trkpt lat="41.5218126" lon="13.2490865"><ele>420.3333333333333</ele><time>2026-03-22T09:27:46.045Z</time></trkpt><trkpt lat="41.5217461" lon="13.2490965"><ele>419.0</ele><time>2026-03-22T09:27:47.046Z</time></trkpt><trkpt lat="41.52168" lon="13.2491124"><ele>419.0</ele><time>2026-03-22T09:27:48.042Z</time></trkpt><trkpt lat="41.5216427" lon="13.2491956"><ele>419.0</ele><time>2026-03-22T09:27:49.07Z</time></trkpt><trkpt lat="41.5216123" lon="13.2492963"><ele>419.0</ele><time>2026-03-22T09:27:50.043Z</time></trkpt><trkpt lat="41.521578" lon="13.2494096"><ele>419.0</ele><time>2026-03-22T09:27:51.043Z</time></trkpt><trkpt lat="41.5215349" lon="13.249543"><ele>419.0</ele><time>2026-03-22T09:27:52.042Z</time></trkpt><trkpt lat="41.5214883" lon="13.2497015"><ele>414.25</ele><time>2026-03-22T09:27:53.047Z</time></trkpt><trkpt lat="41.5214501" lon="13.2498789"><ele>409.5</ele><time>2026-03-22T09:27:54.06Z</time></trkpt><trkpt lat="41.5214101" lon="13.2500594"><ele>404.75</ele><time>2026-03-22T09:27:55.044Z</time></trkpt><trkpt lat="41.5213786" lon="13.2502487"><ele>400.0</ele><time>2026-03-22T09:27:56.043Z</time></trkpt><trkpt lat="41.5213512" lon="13.2504379"><ele>395.0</ele><time>2026-03-22T09:27:57.045Z</time></trkpt><trkpt lat="41.521326" lon="13.2506257"><ele>390.0</ele><time>2026-03-22T09:27:58.044Z</time></trkpt><trkpt lat="41.5213041" lon="13.2508113"><ele>385.0</ele><time>2026-03-22T09:27:59.054Z</time></trkpt><trkpt lat="41.5212879" lon="13.2509874"><ele>380.0</ele><time>2026-03-22T09:28:00.046Z</time></trkpt><trkpt lat="41.5212759" lon="13.2511533"><ele>380.0</ele><time>2026-03-22T09:28:01.039Z</time></trkpt><trkpt lat="41.5212687" lon="13.2513076"><ele>380.0</ele><time>2026-03-22T09:28:02.047Z</time></trkpt><trkpt lat="41.5212635" lon="13.2514457"><ele>380.0</ele><time>2026-03-22T09:28:03.043Z</time></trkpt><trkpt lat="41.5212567" lon="13.2515633"><ele>380.0</ele><time>2026-03-22T09:28:04.066Z</time></trkpt><trkpt lat="41.5212389" lon="13.2516631"><ele>380.0</ele><time>2026-03-22T09:28:05.041Z</time></trkpt><trkpt lat="41.521205" lon="13.2517483"><ele>379.83333333333337</ele><time>2026-03-22T09:28:06.051Z</time></trkpt><trkpt lat="41.5211718" lon="13.2518296"><ele>379.6666666666667</ele><time>2026-03-22T09:28:07.053Z</time></trkpt><trkpt lat="41.5211007" lon="13.2518525"><ele>379.5</ele><time>2026-03-22T09:28:08.046Z</time></trkpt><trkpt lat="41.5210155" lon="13.2518343"><ele>379.3333333333333</ele><time>2026-03-22T09:28:09.053Z</time></trkpt><trkpt lat="41.5209185" lon="13.2517919"><ele>379.16666666666663</ele><time>2026-03-22T09:28:10.049Z</time></trkpt><trkpt lat="41.5208191" lon="13.2517277"><ele>379.0</ele><time>2026-03-22T09:28:11.043Z</time></trkpt><trkpt lat="41.5207199" lon="13.2516396"><ele>379.0</ele><time>2026-03-22T09:28:12.052Z</time></trkpt><trkpt lat="41.52062" lon="13.2515401"><ele>379.0</ele><time>2026-03-22T09:28:13.046Z</time></trkpt><trkpt lat="41.5205231" lon="13.2514371"><ele>379.0</ele><time>2026-03-22T09:28:14.063Z</time></trkpt><trkpt lat="41.5204216" lon="13.251341"><ele>379.0</ele><time>2026-03-22T09:28:15.039Z</time></trkpt><trkpt lat="41.5203119" lon="13.2512669"><ele>382.0</ele><time>2026-03-22T09:28:16.043Z</time></trkpt><trkpt lat="41.5201976" lon="13.2512201"><ele>385.0</ele><time>2026-03-22T09:28:17.042Z</time></trkpt><trkpt lat="41.5200844" lon="13.2512035"><ele>388.0</ele><time>2026-03-22T09:28:18.039Z</time></trkpt><trkpt lat="41.5199721" lon="13.2511937"><ele>391.0</ele><time>2026-03-22T09:28:19.046Z</time></trkpt><trkpt lat="41.5198583" lon="13.251173"><ele>391.0</ele><time>2026-03-22T09:28:20.05Z</time></trkpt><trkpt lat="41.5197448" lon="13.251146"><ele>391.0</ele><time>2026-03-22T09:28:21.045Z</time></trkpt><trkpt lat="41.519635" lon="13.2511221"><ele>391.0</ele><time>2026-03-22T09:28:22.046Z</time></trkpt><trkpt lat="41.5195256" lon="13.2510973"><ele>391.0</ele><time>2026-03-22T09:28:23.042Z</time></trkpt><trkpt lat="41.5194181" lon="13.2510643"><ele>391.0</ele><time>2026-03-22T09:28:24.059Z</time></trkpt><trkpt lat="41.5193169" lon="13.2510241"><ele>389.6666666666667</ele><time>2026-03-22T09:28:25.041Z</time></trkpt><trkpt lat="41.5192241" lon="13.2509941"><ele>388.33333333333337</ele><time>2026-03-22T09:28:26.049Z</time></trkpt><trkpt lat="41.5191364" lon="13.2509866"><ele>387.0</ele><time>2026-03-22T09:28:27.049Z</time></trkpt><trkpt lat="41.5190569" lon="13.2510041"><ele>385.6666666666667</ele><time>2026-03-22T09:28:28.045Z</time></trkpt><trkpt lat="41.5189884" lon="13.2510517"><ele>384.33333333333337</ele><time>2026-03-22T09:28:29.057Z</time></trkpt><trkpt lat="41.5189314" lon="13.2511335"><ele>383.0</ele><time>2026-03-22T09:28:30.047Z</time></trkpt><trkpt lat="41.5188775" lon="13.2512396"><ele>383.0</ele><time>2026-03-22T09:28:31.041Z</time></trkpt><trkpt lat="41.51882" lon="13.251359"><ele>383.0</ele><time>2026-03-22T09:28:32.046Z</time></trkpt><trkpt lat="41.5187597" lon="13.2514839"><ele>383.0</ele><time>2026-03-22T09:28:33.047Z</time></trkpt><trkpt lat="41.5186979" lon="13.2516347"><ele>383.0</ele><time>2026-03-22T09:28:34.062Z</time></trkpt><trkpt lat="41.5186395" lon="13.2517977"><ele>383.0</ele><time>2026-03-22T09:28:35.042Z</time></trkpt><trkpt lat="41.5185875" lon="13.2519789"><ele>383.0</ele><time>2026-03-22T09:28:36.043Z</time></trkpt><trkpt lat="41.5185369" lon="13.2521607"><ele>383.0</ele><time>2026-03-22T09:28:37.049Z</time></trkpt><trkpt lat="41.5184868" lon="13.2523305"><ele>383.0</ele><time>2026-03-22T09:28:38.048Z</time></trkpt><trkpt lat="41.5184369" lon="13.2524939"><ele>377.5</ele><time>2026-03-22T09:28:39.072Z</time></trkpt><trkpt lat="41.5183838" lon="13.2526612"><ele>372.0</ele><time>2026-03-22T09:28:40.043Z</time></trkpt><trkpt lat="41.5183261" lon="13.2528274"><ele>366.5</ele><time>2026-03-22T09:28:41.042Z</time></trkpt><trkpt lat="41.5182698" lon="13.2529942"><ele>361.0</ele><time>2026-03-22T09:28:42.047Z</time></trkpt><trkpt lat="41.5182147" lon="13.2531567"><ele>355.0</ele><time>2026-03-22T09:28:43.043Z</time></trkpt><trkpt lat="41.5181569" lon="13.2533182"><ele>349.0</ele><time>2026-03-22T09:28:44.057Z</time></trkpt><trkpt lat="41.5180968" lon="13.2534743"><ele>343.0</ele><time>2026-03-22T09:28:45.047Z</time></trkpt><trkpt lat="41.5180352" lon="13.2536247"><ele>337.0</ele><time>2026-03-22T09:28:46.042Z</time></trkpt><trkpt lat="41.5179724" lon="13.2537736"><ele>337.0</ele><time>2026-03-22T09:28:47.036Z</time></trkpt><trkpt lat="41.5179085" lon="13.2539246"><ele>337.0</ele><time>2026-03-22T09:28:48.043Z</time></trkpt><trkpt lat="41.5178452" lon="13.2540712"><ele>337.0</ele><time>2026-03-22T09:28:49.044Z</time></trkpt><trkpt lat="41.5177863" lon="13.2542178"><ele>337.0</ele><time>2026-03-22T09:28:50.063Z</time></trkpt><trkpt lat="41.517733" lon="13.2543669"><ele>334.25</ele><time>2026-03-22T09:28:51.045Z</time></trkpt><trkpt lat="41.517685" lon="13.2545165"><ele>331.5</ele><time>2026-03-22T09:28:52.043Z</time></trkpt><trkpt lat="41.517639" lon="13.2546681"><ele>328.75</ele><time>2026-03-22T09:28:53.039Z</time></trkpt><trkpt lat="41.5175957" lon="13.2548182"><ele>326.0</ele><time>2026-03-22T09:28:54.043Z</time></trkpt><trkpt lat="41.517551" lon="13.254969"><ele>326.0</ele><time>2026-03-22T09:28:55.056Z</time></trkpt><trkpt lat="41.5175058" lon="13.2551235"><ele>326.0</ele><time>2026-03-22T09:28:56.054Z</time></trkpt><trkpt lat="41.5174637" lon="13.2552753"><ele>326.0</ele><time>2026-03-22T09:28:57.046Z</time></trkpt><trkpt lat="41.5174225" lon="13.2554257"><ele>326.0</ele><time>2026-03-22T09:28:58.05Z</time></trkpt><trkpt lat="41.5173816" lon="13.2555719"><ele>322.6</ele><time>2026-03-22T09:28:59.046Z</time></trkpt><trkpt lat="41.517339" lon="13.2557132"><ele>319.20000000000005</ele><time>2026-03-22T09:29:00.058Z</time></trkpt><trkpt lat="41.5172936" lon="13.2558502"><ele>315.79999999999995</ele><time>2026-03-22T09:29:01.048Z</time></trkpt><trkpt lat="41.5172448" lon="13.2559811"><ele>312.4</ele><time>2026-03-22T09:29:02.055Z</time></trkpt><trkpt lat="41.517197" lon="13.2561089"><ele>309.0</ele><time>2026-03-22T09:29:03.047Z</time></trkpt><trkpt lat="41.517157" lon="13.256243"><ele>309.0</ele><time>2026-03-22T09:29:04.044Z</time></trkpt><trkpt lat="41.5171271" lon="13.2563829"><ele>309.0</ele><time>2026-03-22T09:29:05.043Z</time></trkpt><trkpt lat="41.517107" lon="13.2565235"><ele>309.0</ele><time>2026-03-22T09:29:06.051Z</time></trkpt><trkpt lat="41.5170943" lon="13.256646"><ele>309.0</ele><time>2026-03-22T09:29:07.059Z</time></trkpt><trkpt lat="41.5170798" lon="13.2567567"><ele>309.0</ele><time>2026-03-22T09:29:08.058Z</time></trkpt><trkpt lat="41.5170613" lon="13.2568691"><ele>308.1666666666667</ele><time>2026-03-22T09:29:09.05Z</time></trkpt><trkpt lat="41.5170324" lon="13.2569817"><ele>307.3333333333333</ele><time>2026-03-22T09:29:10.05Z</time></trkpt><trkpt lat="41.5169921" lon="13.2570753"><ele>306.5</ele><time>2026-03-22T09:29:11.047Z</time></trkpt><trkpt lat="41.5169544" lon="13.2571449"><ele>305.66666666666663</ele><time>2026-03-22T09:29:12.064Z</time></trkpt><trkpt lat="41.5169014" lon="13.2572535"><ele>304.8333333333333</ele><time>2026-03-22T09:29:14.048Z</time></trkpt><trkpt lat="41.5169365" lon="13.2573279"><ele>304.0</ele><time>2026-03-22T09:29:17.058Z</time></trkpt><trkpt lat="41.5170139" lon="13.257258"><ele>301.4</ele><time>2026-03-22T09:29:19.044Z</time></trkpt><trkpt lat="41.5170608" lon="13.257189"><ele>298.79999999999995</ele><time>2026-03-22T09:29:20.044Z</time></trkpt><trkpt lat="41.5171128" lon="13.2570994"><ele>296.20000000000005</ele><time>2026-03-22T09:29:21.042Z</time></trkpt><trkpt lat="41.517172" lon="13.2569903"><ele>293.6</ele><time>2026-03-22T09:29:22.048Z</time></trkpt><trkpt lat="41.5172357" lon="13.2568653"><ele>291.0</ele><time>2026-03-22T09:29:23.043Z</time></trkpt><trkpt lat="41.5172922" lon="13.2567296"><ele>291.0</ele><time>2026-03-22T09:29:24.049Z</time></trkpt><trkpt lat="41.5173456" lon="13.2565908"><ele>291.0</ele><time>2026-03-22T09:29:25.041Z</time></trkpt><trkpt lat="41.5174061" lon="13.2564544"><ele>291.0</ele><time>2026-03-22T09:29:26.042Z</time></trkpt><trkpt lat="41.5174781" lon="13.2563263"><ele>291.0</ele><time>2026-03-22T09:29:27.05Z</time></trkpt><trkpt lat="41.5175565" lon="13.256204"><ele>295.5</ele><time>2026-03-22T09:29:28.05Z</time></trkpt><trkpt lat="41.5176379" lon="13.2560825"><ele>300.0</ele><time>2026-03-22T09:29:29.053Z</time></trkpt><trkpt lat="41.5177178" lon="13.2559603"><ele>304.5</ele><time>2026-03-22T09:29:30.042Z</time></trkpt><trkpt lat="41.5177945" lon="13.255837"><ele>309.0</ele><time>2026-03-22T09:29:31.046Z</time></trkpt><trkpt lat="41.5178695" lon="13.2557081"><ele>303.0</ele><time>2026-03-22T09:29:32.048Z</time></trkpt><trkpt lat="41.5179474" lon="13.2555728"><ele>297.0</ele><time>2026-03-22T09:29:33.043Z</time></trkpt><trkpt lat="41.5180254" lon="13.2554344"><ele>291.0</ele><time>2026-03-22T09:29:34.05Z</time></trkpt><trkpt lat="41.5181077" lon="13.2552862"><ele>285.0</ele><time>2026-03-22T09:29:35.041Z</time></trkpt><trkpt lat="41.5181998" lon="13.2551244"><ele>285.0</ele><time>2026-03-22T09:29:36.055Z</time></trkpt><trkpt lat="41.5182923" lon="13.254966"><ele>285.0</ele><time>2026-03-22T09:29:37.045Z</time></trkpt><trkpt lat="41.518383" lon="13.2548169"><ele>285.0</ele><time>2026-03-22T09:29:38.062Z</time></trkpt><trkpt lat="41.5184696" lon="13.2546768"><ele>285.0</ele><time>2026-03-22T09:29:39.047Z</time></trkpt><trkpt lat="41.5185497" lon="13.2545501"><ele>282.5</ele><time>2026-03-22T09:29:40.045Z</time></trkpt><trkpt lat="41.5186181" lon="13.2544442"><ele>280.0</ele><time>2026-03-22T09:29:41.042Z</time></trkpt><trkpt lat="41.5186674" lon="13.2543596"><ele>277.5</ele><time>2026-03-22T09:29:42.044Z</time></trkpt><trkpt lat="41.5187046" lon="13.2542897"><ele>275.0</ele><time>2026-03-22T09:29:43.061Z</time></trkpt><trkpt lat="41.5187726" lon="13.2542281"><ele>272.5</ele><time>2026-03-22T09:29:45.041Z</time></trkpt><trkpt lat="41.5188151" lon="13.2542904"><ele>270.0</ele><time>2026-03-22T09:29:47.052Z</time></trkpt><trkpt lat="41.5187682" lon="13.2543978"><ele>273.0</ele><time>2026-03-22T09:29:49.042Z</time></trkpt><trkpt lat="41.518722" lon="13.2544638"><ele>276.0</ele><time>2026-03-22T09:29:50.049Z</time></trkpt><trkpt lat="41.5186681" lon="13.2545412"><ele>279.0</ele><time>2026-03-22T09:29:51.037Z</time></trkpt><trkpt lat="41.5186136" lon="13.2546482"><ele>282.0</ele><time>2026-03-22T09:29:52.052Z</time></trkpt><trkpt lat="41.5185596" lon="13.2547759"><ele>285.0</ele><time>2026-03-22T09:29:53.041Z</time></trkpt><trkpt lat="41.5185115" lon="13.2549169"><ele>285.0</ele><time>2026-03-22T09:29:54.057Z</time></trkpt><trkpt lat="41.5184697" lon="13.2550702"><ele>285.0</ele><time>2026-03-22T09:29:55.046Z</time></trkpt><trkpt lat="41.5184347" lon="13.2552299"><ele>285.0</ele><time>2026-03-22T09:29:56.038Z</time></trkpt><trkpt lat="41.5184037" lon="13.2553934"><ele>285.0</ele><time>2026-03-22T09:29:57.043Z</time></trkpt><trkpt lat="41.5183755" lon="13.2555623"><ele>280.75</ele><time>2026-03-22T09:29:58.044Z</time></trkpt><trkpt lat="41.5183474" lon="13.2557351"><ele>276.5</ele><time>2026-03-22T09:29:59.045Z</time></trkpt><trkpt lat="41.5183148" lon="13.2559032"><ele>272.25</ele><time>2026-03-22T09:30:00.042Z</time></trkpt><trkpt lat="41.5182795" lon="13.2560653"><ele>268.0</ele><time>2026-03-22T09:30:01.058Z</time></trkpt><trkpt lat="41.5182416" lon="13.2562303"><ele>268.0</ele><time>2026-03-22T09:30:02.044Z</time></trkpt><trkpt lat="41.5181995" lon="13.2563985"><ele>268.0</ele><time>2026-03-22T09:30:03.042Z</time></trkpt><trkpt lat="41.5181567" lon="13.2565613"><ele>268.0</ele><time>2026-03-22T09:30:04.047Z</time></trkpt><trkpt lat="41.5181179" lon="13.2567183"><ele>268.0</ele><time>2026-03-22T09:30:05.043Z</time></trkpt><trkpt lat="41.518085" lon="13.2568725"><ele>263.5</ele><time>2026-03-22T09:30:06.046Z</time></trkpt><trkpt lat="41.5180626" lon="13.257028"><ele>259.0</ele><time>2026-03-22T09:30:07.057Z</time></trkpt><trkpt lat="41.5180538" lon="13.2571814"><ele>254.5</ele><time>2026-03-22T09:30:08.041Z</time></trkpt><trkpt lat="41.5180521" lon="13.257331"><ele>250.0</ele><time>2026-03-22T09:30:09.041Z</time></trkpt><trkpt lat="41.5180496" lon="13.2574758"><ele>246.0</ele><time>2026-03-22T09:30:10.061Z</time></trkpt><trkpt lat="41.5180399" lon="13.2576255"><ele>242.0</ele><time>2026-03-22T09:30:11.041Z</time></trkpt><trkpt lat="41.5180221" lon="13.2577861"><ele>238.0</ele><time>2026-03-22T09:30:12.048Z</time></trkpt><trkpt lat="41.5180027" lon="13.2579617"><ele>234.0</ele><time>2026-03-22T09:30:13.046Z</time></trkpt><trkpt lat="41.5179848" lon="13.2581432"><ele>231.2</ele><time>2026-03-22T09:30:14.05Z</time></trkpt><trkpt lat="41.5179675" lon="13.2583072"><ele>228.39999999999998</ele><time>2026-03-22T09:30:15.042Z</time></trkpt><trkpt lat="41.517945" lon="13.2584509"><ele>225.6</ele><time>2026-03-22T09:30:16.047Z</time></trkpt><trkpt lat="41.517917" lon="13.258579"><ele>222.8</ele><time>2026-03-22T09:30:17.046Z</time></trkpt><trkpt lat="41.5178837" lon="13.2586995"><ele>220.0</ele><time>2026-03-22T09:30:18.052Z</time></trkpt><trkpt lat="41.5178504" lon="13.2588167"><ele>223.66666666666666</ele><time>2026-03-22T09:30:19.044Z</time></trkpt><trkpt lat="41.5178169" lon="13.2589249"><ele>227.33333333333331</ele><time>2026-03-22T09:30:20.062Z</time></trkpt><trkpt lat="41.5177851" lon="13.2590257"><ele>231.0</ele><time>2026-03-22T09:30:21.045Z</time></trkpt><trkpt lat="41.5177545" lon="13.2591259"><ele>234.66666666666669</ele><time>2026-03-22T09:30:22.056Z</time></trkpt><trkpt lat="41.5177242" lon="13.2592301"><ele>238.33333333333334</ele><time>2026-03-22T09:30:23.046Z</time></trkpt><trkpt lat="41.5176931" lon="13.2593356"><ele>242.0</ele><time>2026-03-22T09:30:24.046Z</time></trkpt><trkpt lat="41.5176611" lon="13.2594384"><ele>242.00000000000003</ele><time>2026-03-22T09:30:25.045Z</time></trkpt><trkpt lat="41.5176281" lon="13.2595426"><ele>242.0</ele><time>2026-03-22T09:30:26.044Z</time></trkpt><trkpt lat="41.5175958" lon="13.2596483"><ele>242.0</ele><time>2026-03-22T09:30:27.045Z</time></trkpt><trkpt lat="41.5175628" lon="13.2597553"><ele>242.0</ele><time>2026-03-22T09:30:28.042Z</time></trkpt><trkpt lat="41.5175234" lon="13.2598537"><ele>242.00000000000003</ele><time>2026-03-22T09:30:29.045Z</time></trkpt><trkpt lat="41.517478" lon="13.2599241"><ele>242.0</ele><time>2026-03-22T09:30:30.042Z</time></trkpt><trkpt lat="41.5173923" lon="13.2599969"><ele>239.8</ele><time>2026-03-22T09:30:32.042Z</time></trkpt><trkpt lat="41.5172733" lon="13.2599689"><ele>237.6</ele><time>2026-03-22T09:30:34.042Z</time></trkpt><trkpt lat="41.5171994" lon="13.2599393"><ele>235.40000000000003</ele><time>2026-03-22T09:30:35.04Z</time></trkpt><trkpt lat="41.5171157" lon="13.2599039"><ele>233.20000000000002</ele><time>2026-03-22T09:30:36.046Z</time></trkpt><trkpt lat="41.5170235" lon="13.2598674"><ele>231.0</ele><time>2026-03-22T09:30:37.044Z</time></trkpt><trkpt lat="41.5169263" lon="13.259836"><ele>231.0</ele><time>2026-03-22T09:30:38.045Z</time></trkpt><trkpt lat="41.5168335" lon="13.2598046"><ele>231.0</ele><time>2026-03-22T09:30:39.062Z</time></trkpt><trkpt lat="41.5167407" lon="13.2597744"><ele>231.0</ele><time>2026-03-22T09:30:40.045Z</time></trkpt><trkpt lat="41.5166527" lon="13.2597464"><ele>231.0</ele><time>2026-03-22T09:30:41.045Z</time></trkpt><trkpt lat="41.5165742" lon="13.2597372"><ele>231.0</ele><time>2026-03-22T09:30:42.042Z</time></trkpt><trkpt lat="41.5164952" lon="13.2597275"><ele>231.0</ele><time>2026-03-22T09:30:43.047Z</time></trkpt><trkpt lat="41.5164142" lon="13.2597444"><ele>232.4</ele><time>2026-03-22T09:30:44.049Z</time></trkpt><trkpt lat="41.5163172" lon="13.2597674"><ele>233.8</ele><time>2026-03-22T09:30:45.046Z</time></trkpt><trkpt lat="41.5162212" lon="13.2597846"><ele>235.20000000000002</ele><time>2026-03-22T09:30:46.046Z</time></trkpt><trkpt lat="41.5161119" lon="13.2598067"><ele>236.60000000000002</ele><time>2026-03-22T09:30:47.049Z</time></trkpt><trkpt lat="41.5159955" lon="13.2598315"><ele>238.0</ele><time>2026-03-22T09:30:48.047Z</time></trkpt><trkpt lat="41.5158775" lon="13.2598821"><ele>238.0</ele><time>2026-03-22T09:30:49.045Z</time></trkpt><trkpt lat="41.5157578" lon="13.259937"><ele>238.0</ele><time>2026-03-22T09:30:50.04Z</time></trkpt><trkpt lat="41.5156418" lon="13.2599709"><ele>238.0</ele><time>2026-03-22T09:30:51.049Z</time></trkpt><trkpt lat="41.5155268" lon="13.259999"><ele>238.0</ele><time>2026-03-22T09:30:52.047Z</time></trkpt><trkpt lat="41.5154157" lon="13.2600215"><ele>238.49999999999997</ele><time>2026-03-22T09:30:53.044Z</time></trkpt><trkpt lat="41.515319" lon="13.2600317"><ele>239.0</ele><time>2026-03-22T09:30:54.046Z</time></trkpt><trkpt lat="41.5152359" lon="13.2600425"><ele>239.5</ele><time>2026-03-22T09:30:55.043Z</time></trkpt><trkpt lat="41.51516" lon="13.2600572"><ele>240.0</ele><time>2026-03-22T09:30:56.044Z</time></trkpt><trkpt lat="41.5150888" lon="13.2600737"><ele>240.49999999999997</ele><time>2026-03-22T09:30:57.042Z</time></trkpt><trkpt lat="41.5150171" lon="13.2600899"><ele>241.0</ele><time>2026-03-22T09:30:58.046Z</time></trkpt><trkpt lat="41.5149379" lon="13.2601049"><ele>241.0</ele><time>2026-03-22T09:30:59.042Z</time></trkpt><trkpt lat="41.5148493" lon="13.2601226"><ele>241.00000000000003</ele><time>2026-03-22T09:31:00.048Z</time></trkpt><trkpt lat="41.5147493" lon="13.2601443"><ele>241.00000000000003</ele><time>2026-03-22T09:31:01.047Z</time></trkpt><trkpt lat="41.5146487" lon="13.2601665"><ele>241.0</ele><time>2026-03-22T09:31:02.042Z</time></trkpt><trkpt lat="41.514542" lon="13.2601807"><ele>241.0</ele><time>2026-03-22T09:31:03.051Z</time></trkpt><trkpt lat="41.5144343" lon="13.2601918"><ele>240.75</ele><time>2026-03-22T09:31:04.04Z</time></trkpt><trkpt lat="41.5143213" lon="13.2601926"><ele>240.5</ele><time>2026-03-22T09:31:05.044Z</time></trkpt><trkpt lat="41.5142019" lon="13.2601925"><ele>240.25</ele><time>2026-03-22T09:31:06.046Z</time></trkpt><trkpt lat="41.5140783" lon="13.2601936"><ele>240.0</ele><time>2026-03-22T09:31:07.042Z</time></trkpt><trkpt lat="41.5139508" lon="13.2601962"><ele>240.0</ele><time>2026-03-22T09:31:08.048Z</time></trkpt><trkpt lat="41.5138239" lon="13.2602094"><ele>240.0</ele><time>2026-03-22T09:31:09.047Z</time></trkpt><trkpt lat="41.5137053" lon="13.2602199"><ele>240.0</ele><time>2026-03-22T09:31:10.045Z</time></trkpt><trkpt lat="41.513593" lon="13.2602338"><ele>240.0</ele><time>2026-03-22T09:31:11.058Z</time></trkpt><trkpt lat="41.5134907" lon="13.2602438"><ele>239.83333333333334</ele><time>2026-03-22T09:31:12.04Z</time></trkpt><trkpt lat="41.5134075" lon="13.2602637"><ele>239.66666666666669</ele><time>2026-03-22T09:31:13.046Z</time></trkpt><trkpt lat="41.5133361" lon="13.2602808"><ele>239.5</ele><time>2026-03-22T09:31:14.043Z</time></trkpt><trkpt lat="41.5132285" lon="13.260327"><ele>239.33333333333334</ele><time>2026-03-22T09:31:16.057Z</time></trkpt><trkpt lat="41.5131879" lon="13.260415"><ele>239.16666666666669</ele><time>2026-03-22T09:31:18.043Z</time></trkpt><trkpt lat="41.513249" lon="13.260508"><ele>239.0</ele><time>2026-03-22T09:31:20.059Z</time></trkpt><trkpt lat="41.5133255" lon="13.2605242"><ele>239.0</ele><time>2026-03-22T09:31:21.046Z</time></trkpt><trkpt lat="41.5134205" lon="13.2605517"><ele>238.99999999999997</ele><time>2026-03-22T09:31:22.052Z</time></trkpt><trkpt lat="41.513528" lon="13.2605816"><ele>238.99999999999997</ele><time>2026-03-22T09:31:23.045Z</time></trkpt><trkpt lat="41.5136384" lon="13.260616"><ele>239.0</ele><time>2026-03-22T09:31:24.046Z</time></trkpt><trkpt lat="41.5137528" lon="13.260646"><ele>239.0</ele><time>2026-03-22T09:31:25.051Z</time></trkpt><trkpt lat="41.5138762" lon="13.2606665"><ele>231.25</ele><time>2026-03-22T09:31:26.046Z</time></trkpt><trkpt lat="41.5140002" lon="13.2606787"><ele>223.5</ele><time>2026-03-22T09:31:27.042Z</time></trkpt><trkpt lat="41.5141253" lon="13.2606863"><ele>215.75</ele><time>2026-03-22T09:31:28.046Z</time></trkpt><trkpt lat="41.5142484" lon="13.2606919"><ele>208.0</ele><time>2026-03-22T09:31:29.043Z</time></trkpt><trkpt lat="41.5143675" lon="13.2606925"><ele>208.0</ele><time>2026-03-22T09:31:30.045Z</time></trkpt><trkpt lat="41.5144827" lon="13.2606959"><ele>208.0</ele><time>2026-03-22T09:31:31.042Z</time></trkpt><trkpt lat="41.5145974" lon="13.2606984"><ele>208.0</ele><time>2026-03-22T09:31:32.046Z</time></trkpt><trkpt lat="41.5147135" lon="13.2606982"><ele>208.0</ele><time>2026-03-22T09:31:33.051Z</time></trkpt><trkpt lat="41.5148266" lon="13.2606993"><ele>208.33333333333331</ele><time>2026-03-22T09:31:34.048Z</time></trkpt><trkpt lat="41.5149228" lon="13.2606999"><ele>208.66666666666666</ele><time>2026-03-22T09:31:35.05Z</time></trkpt><trkpt lat="41.5150066" lon="13.2607012"><ele>209.0</ele><time>2026-03-22T09:31:36.051Z</time></trkpt><trkpt lat="41.5150815" lon="13.2607048"><ele>209.33333333333331</ele><time>2026-03-22T09:31:37.041Z</time></trkpt><trkpt lat="41.5151525" lon="13.2607059"><ele>209.66666666666666</ele><time>2026-03-22T09:31:38.046Z</time></trkpt><trkpt lat="41.5152199" lon="13.2607107"><ele>210.0</ele><time>2026-03-22T09:31:39.041Z</time></trkpt><trkpt lat="41.5152879" lon="13.260719"><ele>210.0</ele><time>2026-03-22T09:31:40.043Z</time></trkpt><trkpt lat="41.5153566" lon="13.2607315"><ele>210.0</ele><time>2026-03-22T09:31:41.041Z</time></trkpt><trkpt lat="41.5154239" lon="13.2607505"><ele>210.0</ele><time>2026-03-22T09:31:42.042Z</time></trkpt><trkpt lat="41.5154884" lon="13.2607701"><ele>210.0</ele><time>2026-03-22T09:31:43.049Z</time></trkpt><trkpt lat="41.5156051" lon="13.2608203"><ele>210.0</ele><time>2026-03-22T09:31:45.052Z</time></trkpt><trkpt lat="41.5157032" lon="13.2608656"><ele>210.0</ele><time>2026-03-22T09:31:47.047Z</time></trkpt><trkpt lat="41.5157638" lon="13.2608935"><ele>210.0</ele><time>2026-03-22T09:31:49.048Z</time></trkpt><trkpt lat="41.515723" lon="13.2609787"><ele>210.0</ele><time>2026-03-22T09:31:53.051Z</time></trkpt><trkpt lat="41.5156443" lon="13.2609834"><ele>210.0</ele><time>2026-03-22T09:31:55.052Z</time></trkpt><trkpt lat="41.5155037" lon="13.2609896"><ele>210.0</ele><time>2026-03-22T09:31:57.043Z</time></trkpt><trkpt lat="41.5154163" lon="13.2609911"><ele>210.0</ele><time>2026-03-22T09:31:58.045Z</time></trkpt><trkpt lat="41.5153242" lon="13.2609916"><ele>210.0</ele><time>2026-03-22T09:31:59.045Z</time></trkpt><trkpt lat="41.5152217" lon="13.2609921"><ele>210.0</ele><time>2026-03-22T09:32:00.054Z</time></trkpt><trkpt lat="41.515109" lon="13.2609949"><ele>210.0</ele><time>2026-03-22T09:32:01.044Z</time></trkpt><trkpt lat="41.5149959" lon="13.2610001"><ele>210.0</ele><time>2026-03-22T09:32:02.05Z</time></trkpt><trkpt lat="41.5148769" lon="13.2610049"><ele>210.0</ele><time>2026-03-22T09:32:03.043Z</time></trkpt><trkpt lat="41.5147505" lon="13.2610088"><ele>210.0</ele><time>2026-03-22T09:32:04.038Z</time></trkpt><trkpt lat="41.5146198" lon="13.2610121"><ele>210.0</ele><time>2026-03-22T09:32:05.043Z</time></trkpt><trkpt lat="41.514485" lon="13.2610132"><ele>210.0</ele><time>2026-03-22T09:32:06.044Z</time></trkpt><trkpt lat="41.514349" lon="13.261015"><ele>210.0</ele><time>2026-03-22T09:32:07.042Z</time></trkpt><trkpt lat="41.5142163" lon="13.2610151"><ele>209.6</ele><time>2026-03-22T09:32:08.04Z</time></trkpt><trkpt lat="41.5140923" lon="13.2610188"><ele>209.2</ele><time>2026-03-22T09:32:09.047Z</time></trkpt><trkpt lat="41.5139812" lon="13.2610211"><ele>208.8</ele><time>2026-03-22T09:32:10.039Z</time></trkpt><trkpt lat="41.5138821" lon="13.261022"><ele>208.4</ele><time>2026-03-22T09:32:11.05Z</time></trkpt><trkpt lat="41.5137908" lon="13.2610287"><ele>208.0</ele><time>2026-03-22T09:32:12.042Z</time></trkpt><trkpt lat="41.5137066" lon="13.2610329"><ele>207.60000000000002</ele><time>2026-03-22T09:32:13.044Z</time></trkpt><trkpt lat="41.5136341" lon="13.2610383"><ele>207.20000000000002</ele><time>2026-03-22T09:32:14.043Z</time></trkpt><trkpt lat="41.5135146" lon="13.2610399"><ele>206.8</ele><time>2026-03-22T09:32:16.042Z</time></trkpt><trkpt lat="41.5134178" lon="13.2610308"><ele>206.4</ele><time>2026-03-22T09:32:18.046Z</time></trkpt><trkpt lat="41.5133243" lon="13.2610194"><ele>206.0</ele><time>2026-03-22T09:32:20.046Z</time></trkpt><trkpt lat="41.5132201" lon="13.2610243"><ele>206.0</ele><time>2026-03-22T09:32:22.049Z</time></trkpt><trkpt lat="41.5130923" lon="13.2610317"><ele>206.0</ele><time>2026-03-22T09:32:24.042Z</time></trkpt><trkpt lat="41.5129701" lon="13.2610467"><ele>206.0</ele><time>2026-03-22T09:32:26.051Z</time></trkpt><trkpt lat="41.5128995" lon="13.2610575"><ele>206.0</ele><time>2026-03-22T09:32:27.046Z</time></trkpt><trkpt lat="41.5128173" lon="13.2610856"><ele>206.0</ele><time>2026-03-22T09:32:28.038Z</time></trkpt><trkpt lat="41.5127338" lon="13.2611125"><ele>206.4</ele><time>2026-03-22T09:32:29.044Z</time></trkpt><trkpt lat="41.5126522" lon="13.2611389"><ele>206.8</ele><time>2026-03-22T09:32:30.04Z</time></trkpt><trkpt lat="41.512567" lon="13.2611634"><ele>207.20000000000002</ele><time>2026-03-22T09:32:31.042Z</time></trkpt><trkpt lat="41.5124778" lon="13.2611901"><ele>207.60000000000002</ele><time>2026-03-22T09:32:32.042Z</time></trkpt><trkpt lat="41.5123729" lon="13.2612011"><ele>208.0</ele><time>2026-03-22T09:32:33.047Z</time></trkpt><trkpt lat="41.5122661" lon="13.2612086"><ele>208.0</ele><time>2026-03-22T09:32:34.061Z</time></trkpt><trkpt lat="41.5121581" lon="13.2612123"><ele>208.0</ele><time>2026-03-22T09:32:35.045Z</time></trkpt><trkpt lat="41.5120492" lon="13.2612166"><ele>208.0</ele><time>2026-03-22T09:32:36.041Z</time></trkpt><trkpt lat="41.5119387" lon="13.2612102"><ele>208.0</ele><time>2026-03-22T09:32:37.04Z</time></trkpt><trkpt lat="41.5118275" lon="13.2612003"><ele>208.0</ele><time>2026-03-22T09:32:38.04Z</time></trkpt><trkpt lat="41.5117206" lon="13.2611863"><ele>206.0</ele><time>2026-03-22T09:32:39.05Z</time></trkpt><trkpt lat="41.5116132" lon="13.2611582"><ele>204.0</ele><time>2026-03-22T09:32:40.041Z</time></trkpt><trkpt lat="41.5115076" lon="13.2611273"><ele>202.0</ele><time>2026-03-22T09:32:41.057Z</time></trkpt><trkpt lat="41.5114199" lon="13.2610416"><ele>200.0</ele><time>2026-03-22T09:32:42.046Z</time></trkpt><trkpt lat="41.5113423" lon="13.2609397"><ele>198.0</ele><time>2026-03-22T09:32:43.043Z</time></trkpt><trkpt lat="41.5112691" lon="13.260829"><ele>190.0</ele><time>2026-03-22T09:32:44.046Z</time></trkpt><trkpt lat="41.5112008" lon="13.2607114"><ele>182.0</ele><time>2026-03-22T09:32:45.047Z</time></trkpt><trkpt lat="41.5111432" lon="13.2605794"><ele>174.0</ele><time>2026-03-22T09:32:46.059Z</time></trkpt><trkpt lat="41.5110965" lon="13.2604366"><ele>166.0</ele><time>2026-03-22T09:32:47.045Z</time></trkpt><trkpt lat="41.5110551" lon="13.260286"><ele>166.0</ele><time>2026-03-22T09:32:48.047Z</time></trkpt><trkpt lat="41.5110155" lon="13.2601325"><ele>166.0</ele><time>2026-03-22T09:32:49.05Z</time></trkpt><trkpt lat="41.5109726" lon="13.259977"><ele>166.0</ele><time>2026-03-22T09:32:50.045Z</time></trkpt><trkpt lat="41.5109307" lon="13.2598188"><ele>166.0</ele><time>2026-03-22T09:32:51.068Z</time></trkpt><trkpt lat="41.5108888" lon="13.2596568"><ele>167.75</ele><time>2026-03-22T09:32:52.045Z</time></trkpt><trkpt lat="41.5108463" lon="13.259492"><ele>169.5</ele><time>2026-03-22T09:32:53.047Z</time></trkpt><trkpt lat="41.5108037" lon="13.2593249"><ele>171.25</ele><time>2026-03-22T09:32:54.047Z</time></trkpt><trkpt lat="41.5107576" lon="13.2591559"><ele>173.0</ele><time>2026-03-22T09:32:55.043Z</time></trkpt><trkpt lat="41.5107097" lon="13.2589862"><ele>174.25</ele><time>2026-03-22T09:32:56.049Z</time></trkpt><trkpt lat="41.5106631" lon="13.2588164"><ele>175.5</ele><time>2026-03-22T09:32:57.054Z</time></trkpt><trkpt lat="41.5106178" lon="13.258641"><ele>176.75</ele><time>2026-03-22T09:32:58.046Z</time></trkpt><trkpt lat="41.5105757" lon="13.2584605"><ele>178.0</ele><time>2026-03-22T09:32:59.04Z</time></trkpt><trkpt lat="41.5105382" lon="13.2582745"><ele>178.25</ele><time>2026-03-22T09:33:00.041Z</time></trkpt><trkpt lat="41.5105044" lon="13.2580858"><ele>178.5</ele><time>2026-03-22T09:33:01.058Z</time></trkpt><trkpt lat="41.5104727" lon="13.2578931"><ele>178.75</ele><time>2026-03-22T09:33:02.045Z</time></trkpt><trkpt lat="41.5104433" lon="13.2576975"><ele>179.0</ele><time>2026-03-22T09:33:03.047Z</time></trkpt><trkpt lat="41.5104182" lon="13.2574978"><ele>163.0</ele><time>2026-03-22T09:33:04.044Z</time></trkpt><trkpt lat="41.5103945" lon="13.2572978"><ele>147.0</ele><time>2026-03-22T09:33:05.041Z</time></trkpt><trkpt lat="41.5103683" lon="13.2570954"><ele>131.0</ele><time>2026-03-22T09:33:06.04Z</time></trkpt><trkpt lat="41.5103415" lon="13.2568941"><ele>131.0</ele><time>2026-03-22T09:33:07.044Z</time></trkpt><trkpt lat="41.5103152" lon="13.256693"><ele>131.0</ele><time>2026-03-22T09:33:08.06Z</time></trkpt><trkpt lat="41.510291" lon="13.2564922"><ele>131.0</ele><time>2026-03-22T09:33:09.045Z</time></trkpt><trkpt lat="41.5102663" lon="13.2562924"><ele>131.0</ele><time>2026-03-22T09:33:10.04Z</time></trkpt><trkpt lat="41.5102413" lon="13.2560942"><ele>131.0</ele><time>2026-03-22T09:33:11.045Z</time></trkpt><trkpt lat="41.5102185" lon="13.2558957"><ele>131.0</ele><time>2026-03-22T09:33:12.04Z</time></trkpt><trkpt lat="41.5101981" lon="13.2556974"><ele>131.25</ele><time>2026-03-22T09:33:13.058Z</time></trkpt><trkpt lat="41.5101825" lon="13.2555008"><ele>131.5</ele><time>2026-03-22T09:33:14.044Z</time></trkpt><trkpt lat="41.510169" lon="13.2553057"><ele>131.75</ele><time>2026-03-22T09:33:15.049Z</time></trkpt><trkpt lat="41.5101544" lon="13.2551117"><ele>132.0</ele><time>2026-03-22T09:33:16.049Z</time></trkpt><trkpt lat="41.5101405" lon="13.2549209"><ele>131.75</ele><time>2026-03-22T09:33:17.042Z</time></trkpt><trkpt lat="41.5101286" lon="13.2547307"><ele>131.5</ele><time>2026-03-22T09:33:18.059Z</time></trkpt><trkpt lat="41.5101202" lon="13.2545364"><ele>131.25</ele><time>2026-03-22T09:33:19.04Z</time></trkpt><trkpt lat="41.5101117" lon="13.25434"><ele>131.0</ele><time>2026-03-22T09:33:20.042Z</time></trkpt><trkpt lat="41.510104" lon="13.2541403"><ele>130.33333333333331</ele><time>2026-03-22T09:33:21.044Z</time></trkpt><trkpt lat="41.5100979" lon="13.2539372"><ele>129.66666666666666</ele><time>2026-03-22T09:33:22.042Z</time></trkpt><trkpt lat="41.5100934" lon="13.2537335"><ele>129.0</ele><time>2026-03-22T09:33:23.052Z</time></trkpt><trkpt lat="41.5100896" lon="13.2535291"><ele>129.0</ele><time>2026-03-22T09:33:24.041Z</time></trkpt><trkpt lat="41.5100838" lon="13.2533245"><ele>129.0</ele><time>2026-03-22T09:33:25.049Z</time></trkpt><trkpt lat="41.5100767" lon="13.2531158"><ele>129.0</ele><time>2026-03-22T09:33:26.04Z</time></trkpt><trkpt lat="41.5100678" lon="13.2528995"><ele>129.0</ele><time>2026-03-22T09:33:27.044Z</time></trkpt><trkpt lat="41.510058" lon="13.2526821"><ele>129.0</ele><time>2026-03-22T09:33:28.038Z</time></trkpt><trkpt lat="41.5100484" lon="13.252466"><ele>129.0</ele><time>2026-03-22T09:33:29.041Z</time></trkpt><trkpt lat="41.5100389" lon="13.2522537"><ele>129.33333333333334</ele><time>2026-03-22T09:33:30.046Z</time></trkpt><trkpt lat="41.5100287" lon="13.2520445"><ele>129.66666666666669</ele><time>2026-03-22T09:33:31.05Z</time></trkpt><trkpt lat="41.5100098" lon="13.2518318"><ele>130.0</ele><time>2026-03-22T09:33:32.043Z</time></trkpt><trkpt lat="41.5099809" lon="13.2516168"><ele>130.33333333333334</ele><time>2026-03-22T09:33:33.065Z</time></trkpt><trkpt lat="41.5099362" lon="13.2513976"><ele>130.66666666666666</ele><time>2026-03-22T09:33:34.055Z</time></trkpt><trkpt lat="41.5098798" lon="13.2511799"><ele>131.0</ele><time>2026-03-22T09:33:35.04Z</time></trkpt><trkpt lat="41.5098193" lon="13.2509724"><ele>131.0</ele><time>2026-03-22T09:33:36.039Z</time></trkpt><trkpt lat="41.5097606" lon="13.2507745"><ele>131.0</ele><time>2026-03-22T09:33:37.044Z</time></trkpt><trkpt lat="41.5097056" lon="13.2505822"><ele>131.0</ele><time>2026-03-22T09:33:38.046Z</time></trkpt><trkpt lat="41.5096506" lon="13.2503975"><ele>132.0</ele><time>2026-03-22T09:33:39.049Z</time></trkpt><trkpt lat="41.5095896" lon="13.2502249"><ele>133.0</ele><time>2026-03-22T09:33:40.05Z</time></trkpt><trkpt lat="41.5095132" lon="13.2500623"><ele>134.0</ele><time>2026-03-22T09:33:41.048Z</time></trkpt><trkpt lat="41.5094232" lon="13.2499135"><ele>135.0</ele><time>2026-03-22T09:33:42.055Z</time></trkpt><trkpt lat="41.5093357" lon="13.2497732"><ele>130.0</ele><time>2026-03-22T09:33:43.041Z</time></trkpt><trkpt lat="41.5092592" lon="13.2496277"><ele>125.0</ele><time>2026-03-22T09:33:44.041Z</time></trkpt><trkpt lat="41.5091968" lon="13.2494759"><ele>120.0</ele><time>2026-03-22T09:33:45.044Z</time></trkpt><trkpt lat="41.5091435" lon="13.249312"><ele>115.0</ele><time>2026-03-22T09:33:46.041Z</time></trkpt><trkpt lat="41.5091001" lon="13.2491432"><ele>115.0</ele><time>2026-03-22T09:33:47.06Z</time></trkpt><trkpt lat="41.5090647" lon="13.2489662"><ele>115.0</ele><time>2026-03-22T09:33:48.041Z</time></trkpt><trkpt lat="41.5090374" lon="13.2487808"><ele>115.0</ele><time>2026-03-22T09:33:49.047Z</time></trkpt><trkpt lat="41.5090216" lon="13.2485865"><ele>115.0</ele><time>2026-03-22T09:33:50.047Z</time></trkpt><trkpt lat="41.5090163" lon="13.248386"><ele>115.33333333333334</ele><time>2026-03-22T09:33:51.039Z</time></trkpt><trkpt lat="41.5090143" lon="13.2481821"><ele>115.66666666666666</ele><time>2026-03-22T09:33:52.034Z</time></trkpt><trkpt lat="41.5090113" lon="13.247975"><ele>116.0</ele><time>2026-03-22T09:33:53.042Z</time></trkpt><trkpt lat="41.5090106" lon="13.2477687"><ele>114.33333333333333</ele><time>2026-03-22T09:33:54.048Z</time></trkpt><trkpt lat="41.5090112" lon="13.2475661"><ele>112.66666666666666</ele><time>2026-03-22T09:33:55.038Z</time></trkpt><trkpt lat="41.5090071" lon="13.2473654"><ele>111.0</ele><time>2026-03-22T09:33:56.056Z</time></trkpt><trkpt lat="41.5089919" lon="13.2471617"><ele>111.0</ele><time>2026-03-22T09:33:57.043Z</time></trkpt><trkpt lat="41.5089674" lon="13.2469649"><ele>111.0</ele><time>2026-03-22T09:33:58.05Z</time></trkpt><trkpt lat="41.5089383" lon="13.2467769"><ele>111.0</ele><time>2026-03-22T09:33:59.043Z</time></trkpt><trkpt lat="41.5089094" lon="13.2465978"><ele>111.0</ele><time>2026-03-22T09:34:00.047Z</time></trkpt><trkpt lat="41.5088846" lon="13.2464252"><ele>111.75</ele><time>2026-03-22T09:34:01.045Z</time></trkpt><trkpt lat="41.5088586" lon="13.2462562"><ele>112.5</ele><time>2026-03-22T09:34:02.051Z</time></trkpt><trkpt lat="41.5088303" lon="13.2460913"><ele>113.25</ele><time>2026-03-22T09:34:03.049Z</time></trkpt><trkpt lat="41.5087925" lon="13.2459224"><ele>114.0</ele><time>2026-03-22T09:34:04.066Z</time></trkpt><trkpt lat="41.508751" lon="13.2457519"><ele>107.0</ele><time>2026-03-22T09:34:05.043Z</time></trkpt><trkpt lat="41.5087077" lon="13.2455812"><ele>100.0</ele><time>2026-03-22T09:34:06.039Z</time></trkpt><trkpt lat="41.5086651" lon="13.2454096"><ele>93.0</ele><time>2026-03-22T09:34:07.046Z</time></trkpt><trkpt lat="41.5086256" lon="13.245237"><ele>86.0</ele><time>2026-03-22T09:34:08.04Z</time></trkpt><trkpt lat="41.5085876" lon="13.2450673"><ele>86.0</ele><time>2026-03-22T09:34:09.054Z</time></trkpt><trkpt lat="41.5085502" lon="13.2448995"><ele>86.0</ele><time>2026-03-22T09:34:10.041Z</time></trkpt><trkpt lat="41.5085149" lon="13.2447349"><ele>86.0</ele><time>2026-03-22T09:34:11.044Z</time></trkpt><trkpt lat="41.508477" lon="13.2445641"><ele>86.0</ele><time>2026-03-22T09:34:12.046Z</time></trkpt><trkpt lat="41.5084443" lon="13.2443771"><ele>85.66666666666667</ele><time>2026-03-22T09:34:13.046Z</time></trkpt><trkpt lat="41.5084225" lon="13.244168"><ele>85.33333333333333</ele><time>2026-03-22T09:34:14.051Z</time></trkpt><trkpt lat="41.5084142" lon="13.2439354"><ele>85.0</ele><time>2026-03-22T09:34:15.04Z</time></trkpt><trkpt lat="41.5084138" lon="13.243686"><ele>83.66666666666666</ele><time>2026-03-22T09:34:16.045Z</time></trkpt><trkpt lat="41.5084148" lon="13.2434271"><ele>82.33333333333333</ele><time>2026-03-22T09:34:17.04Z</time></trkpt><trkpt lat="41.5084145" lon="13.2431758"><ele>81.0</ele><time>2026-03-22T09:34:18.048Z</time></trkpt><trkpt lat="41.5084175" lon="13.2429392"><ele>80.0</ele><time>2026-03-22T09:34:19.06Z</time></trkpt><trkpt lat="41.5084235" lon="13.2427151"><ele>79.0</ele><time>2026-03-22T09:34:20.059Z</time></trkpt><trkpt lat="41.5084235" lon="13.2424965"><ele>78.0</ele><time>2026-03-22T09:34:21.057Z</time></trkpt><trkpt lat="41.5084256" lon="13.2422883"><ele>77.75</ele><time>2026-03-22T09:34:22.042Z</time></trkpt><trkpt lat="41.5084332" lon="13.2420922"><ele>77.5</ele><time>2026-03-22T09:34:23.049Z</time></trkpt><trkpt lat="41.5084466" lon="13.2419092"><ele>77.25</ele><time>2026-03-22T09:34:24.05Z</time></trkpt><trkpt lat="41.5084658" lon="13.2417382"><ele>77.0</ele><time>2026-03-22T09:34:25.04Z</time></trkpt><trkpt lat="41.508487" lon="13.241573"><ele>76.6</ele><time>2026-03-22T09:34:26.068Z</time></trkpt><trkpt lat="41.508509" lon="13.2414184"><ele>76.2</ele><time>2026-03-22T09:34:27.049Z</time></trkpt><trkpt lat="41.5085336" lon="13.2412754"><ele>75.8</ele><time>2026-03-22T09:34:28.042Z</time></trkpt><trkpt lat="41.5085595" lon="13.2411451"><ele>75.4</ele><time>2026-03-22T09:34:29.05Z</time></trkpt><trkpt lat="41.5085841" lon="13.2410229"><ele>75.0</ele><time>2026-03-22T09:34:30.04Z</time></trkpt><trkpt lat="41.5086011" lon="13.2409049"><ele>75.0</ele><time>2026-03-22T09:34:31.057Z</time></trkpt><trkpt lat="41.508624" lon="13.2407919"><ele>75.0</ele><time>2026-03-22T09:34:32.043Z</time></trkpt><trkpt lat="41.5086427" lon="13.2406867"><ele>75.0</ele><time>2026-03-22T09:34:33.044Z</time></trkpt><trkpt lat="41.5086545" lon="13.2405851"><ele>75.0</ele><time>2026-03-22T09:34:34.039Z</time></trkpt><trkpt lat="41.5086538" lon="13.2404855"><ele>75.0</ele><time>2026-03-22T09:34:35.044Z</time></trkpt><trkpt lat="41.5086464" lon="13.240391"><ele>75.0</ele><time>2026-03-22T09:34:36.041Z</time></trkpt><trkpt lat="41.5086229" lon="13.2403094"><ele>76.0</ele><time>2026-03-22T09:34:37.039Z</time></trkpt><trkpt lat="41.5085814" lon="13.2402442"><ele>77.0</ele><time>2026-03-22T09:34:38.046Z</time></trkpt><trkpt lat="41.5084919" lon="13.2401825"><ele>78.0</ele><time>2026-03-22T09:34:40.045Z</time></trkpt><trkpt lat="41.5084148" lon="13.2401943"><ele>79.0</ele><time>2026-03-22T09:34:42.039Z</time></trkpt><trkpt lat="41.5083387" lon="13.2403273"><ele>80.0</ele><time>2026-03-22T09:34:47.044Z</time></trkpt><trkpt lat="41.5083213" lon="13.2404229"><ele>81.0</ele><time>2026-03-22T09:34:49.061Z</time></trkpt><trkpt lat="41.5082591" lon="13.2404363"><ele>81.0</ele><time>2026-03-22T09:34:51.053Z</time></trkpt><trkpt lat="41.5081349" lon="13.2405022"><ele>81.0</ele><time>2026-03-22T09:34:53.042Z</time></trkpt><trkpt lat="41.5080532" lon="13.2405503"><ele>81.0</ele><time>2026-03-22T09:34:54.046Z</time></trkpt><trkpt lat="41.507967" lon="13.2406012"><ele>81.0</ele><time>2026-03-22T09:34:55.047Z</time></trkpt><trkpt lat="41.5079027" lon="13.2406363"><ele>81.0</ele><time>2026-03-22T09:34:56.043Z</time></trkpt><trkpt lat="41.5078054" lon="13.2407017"><ele>79.39999999999999</ele><time>2026-03-22T09:34:58.044Z</time></trkpt><trkpt lat="41.5077241" lon="13.2407677"><ele>77.8</ele><time>2026-03-22T09:35:00.036Z</time></trkpt><trkpt lat="41.5076124" lon="13.2408468"><ele>76.19999999999999</ele><time>2026-03-22T09:35:02.042Z</time></trkpt><trkpt lat="41.5075594" lon="13.2409091"><ele>74.6</ele><time>2026-03-22T09:35:03.059Z</time></trkpt><trkpt lat="41.5075071" lon="13.2409623"><ele>73.0</ele><time>2026-03-22T09:35:04.035Z</time></trkpt><trkpt lat="41.5074053" lon="13.2410402"><ele>73.0</ele><time>2026-03-22T09:35:06.041Z</time></trkpt><trkpt lat="41.5073102" lon="13.2410684"><ele>73.0</ele><time>2026-03-22T09:35:08.045Z</time></trkpt><trkpt lat="41.5072471" lon="13.2410554"><ele>73.0</ele><time>2026-03-22T09:35:10.072Z</time></trkpt><trkpt lat="41.5071877" lon="13.2410146"><ele>73.0</ele><time>2026-03-22T09:35:12.047Z</time></trkpt><trkpt lat="41.5070855" lon="13.2409644"><ele>73.0</ele><time>2026-03-22T09:35:15.043Z</time></trkpt><trkpt lat="41.5070169" lon="13.24096"><ele>73.0</ele><time>2026-03-22T09:35:16.047Z</time></trkpt><trkpt lat="41.5069349" lon="13.2409659"><ele>72.2</ele><time>2026-03-22T09:35:17.047Z</time></trkpt><trkpt lat="41.5068385" lon="13.240955"><ele>71.4</ele><time>2026-03-22T09:35:18.048Z</time></trkpt><trkpt lat="41.5067367" lon="13.2409335"><ele>70.60000000000001</ele><time>2026-03-22T09:35:19.042Z</time></trkpt><trkpt lat="41.506633" lon="13.2409074"><ele>69.8</ele><time>2026-03-22T09:35:20.059Z</time></trkpt><trkpt lat="41.5065383" lon="13.24085"><ele>69.0</ele><time>2026-03-22T09:35:21.048Z</time></trkpt><trkpt lat="41.5064539" lon="13.2407876"><ele>69.0</ele><time>2026-03-22T09:35:22.05Z</time></trkpt><trkpt lat="41.5063777" lon="13.240714"><ele>69.0</ele><time>2026-03-22T09:35:23.049Z</time></trkpt><trkpt lat="41.5063128" lon="13.2406392"><ele>69.0</ele><time>2026-03-22T09:35:24.045Z</time></trkpt><trkpt lat="41.5062575" lon="13.2405598"><ele>69.0</ele><time>2026-03-22T09:35:25.052Z</time></trkpt><trkpt lat="41.5062053" lon="13.2404803"><ele>69.0</ele><time>2026-03-22T09:35:26.046Z</time></trkpt><trkpt lat="41.5061546" lon="13.2404176"><ele>69.0</ele><time>2026-03-22T09:35:27.041Z</time></trkpt><trkpt lat="41.5060321" lon="13.2403738"><ele>68.4</ele><time>2026-03-22T09:35:29.042Z</time></trkpt><trkpt lat="41.5059567" lon="13.2403928"><ele>67.80000000000001</ele><time>2026-03-22T09:35:30.058Z</time></trkpt><trkpt lat="41.5058691" lon="13.2404363"><ele>67.19999999999999</ele><time>2026-03-22T09:35:31.039Z</time></trkpt><trkpt lat="41.5057712" lon="13.2404968"><ele>66.6</ele><time>2026-03-22T09:35:32.04Z</time></trkpt><trkpt lat="41.5056619" lon="13.2405618"><ele>66.0</ele><time>2026-03-22T09:35:33.042Z</time></trkpt><trkpt lat="41.5055527" lon="13.2406228"><ele>65.5</ele><time>2026-03-22T09:35:34.06Z</time></trkpt><trkpt lat="41.5054463" lon="13.2406765"><ele>65.0</ele><time>2026-03-22T09:35:35.046Z</time></trkpt><trkpt lat="41.5053373" lon="13.2407296"><ele>64.5</ele><time>2026-03-22T09:35:36.042Z</time></trkpt><trkpt lat="41.5052272" lon="13.2407854"><ele>64.0</ele><time>2026-03-22T09:35:37.041Z</time></trkpt><trkpt lat="41.5051184" lon="13.2408473"><ele>63.5</ele><time>2026-03-22T09:35:38.042Z</time></trkpt><trkpt lat="41.5050072" lon="13.2409133"><ele>63.0</ele><time>2026-03-22T09:35:39.042Z</time></trkpt><trkpt lat="41.5048916" lon="13.2409797"><ele>62.5</ele><time>2026-03-22T09:35:40.046Z</time></trkpt><trkpt lat="41.5047654" lon="13.241046"><ele>62.0</ele><time>2026-03-22T09:35:41.054Z</time></trkpt><trkpt lat="41.5046303" lon="13.2411143"><ele>59.66666666666667</ele><time>2026-03-22T09:35:42.046Z</time></trkpt><trkpt lat="41.5044939" lon="13.241184"><ele>57.33333333333333</ele><time>2026-03-22T09:35:43.045Z</time></trkpt><trkpt lat="41.5043528" lon="13.241257"><ele>55.0</ele><time>2026-03-22T09:35:44.044Z</time></trkpt><trkpt lat="41.504207" lon="13.241333"><ele>55.0</ele><time>2026-03-22T09:35:45.043Z</time></trkpt><trkpt lat="41.504057" lon="13.2414106"><ele>55.0</ele><time>2026-03-22T09:35:46.043Z</time></trkpt><trkpt lat="41.5039051" lon="13.2414901"><ele>55.0</ele><time>2026-03-22T09:35:47.042Z</time></trkpt><trkpt lat="41.5037529" lon="13.2415712"><ele>54.0</ele><time>2026-03-22T09:35:48.039Z</time></trkpt><trkpt lat="41.5036017" lon="13.2416531"><ele>53.0</ele><time>2026-03-22T09:35:49.051Z</time></trkpt><trkpt lat="41.5034528" lon="13.2417364"><ele>52.0</ele><time>2026-03-22T09:35:50.044Z</time></trkpt><trkpt lat="41.5033058" lon="13.2418176"><ele>52.0</ele><time>2026-03-22T09:35:51.049Z</time></trkpt><trkpt lat="41.5031566" lon="13.2418949"><ele>52.0</ele><time>2026-03-22T09:35:52.051Z</time></trkpt><trkpt lat="41.503003" lon="13.2419724"><ele>52.0</ele><time>2026-03-22T09:35:53.047Z</time></trkpt><trkpt lat="41.5028468" lon="13.2420493"><ele>51.33333333333333</ele><time>2026-03-22T09:35:54.049Z</time></trkpt><trkpt lat="41.5026911" lon="13.2421347"><ele>50.66666666666667</ele><time>2026-03-22T09:35:55.039Z</time></trkpt><trkpt lat="41.5025289" lon="13.2422186"><ele>50.0</ele><time>2026-03-22T09:35:56.046Z</time></trkpt><trkpt lat="41.5023653" lon="13.2423017"><ele>50.0</ele><time>2026-03-22T09:35:57.039Z</time></trkpt><trkpt lat="41.5022115" lon="13.2423831"><ele>50.0</ele><time>2026-03-22T09:35:58.042Z</time></trkpt><trkpt lat="41.5020631" lon="13.2424559"><ele>50.0</ele><time>2026-03-22T09:35:59.044Z</time></trkpt><trkpt lat="41.501913" lon="13.2425284"><ele>49.25</ele><time>2026-03-22T09:36:00.046Z</time></trkpt><trkpt lat="41.5017668" lon="13.2426013"><ele>48.5</ele><time>2026-03-22T09:36:01.046Z</time></trkpt><trkpt lat="41.5016299" lon="13.2426655"><ele>47.75</ele><time>2026-03-22T09:36:02.044Z</time></trkpt><trkpt lat="41.5015064" lon="13.242723"><ele>47.0</ele><time>2026-03-22T09:36:03.053Z</time></trkpt><trkpt lat="41.5013931" lon="13.2427733"><ele>47.0</ele><time>2026-03-22T09:36:04.046Z</time></trkpt><trkpt lat="41.5012857" lon="13.2428202"><ele>47.0</ele><time>2026-03-22T09:36:05.041Z</time></trkpt><trkpt lat="41.5011849" lon="13.2428637"><ele>47.0</ele><time>2026-03-22T09:36:06.054Z</time></trkpt><trkpt lat="41.501094" lon="13.2429074"><ele>47.0</ele><time>2026-03-22T09:36:07.042Z</time></trkpt><trkpt lat="41.50101" lon="13.2429534"><ele>47.0</ele><time>2026-03-22T09:36:08.044Z</time></trkpt><trkpt lat="41.5009366" lon="13.2430042"><ele>46.400000000000006</ele><time>2026-03-22T09:36:09.043Z</time></trkpt><trkpt lat="41.5008795" lon="13.2430568"><ele>45.800000000000004</ele><time>2026-03-22T09:36:10.046Z</time></trkpt><trkpt lat="41.5007994" lon="13.2431566"><ele>45.2</ele><time>2026-03-22T09:36:12.049Z</time></trkpt><trkpt lat="41.5007292" lon="13.2431632"><ele>44.6</ele><time>2026-03-22T09:36:14.043Z</time></trkpt><trkpt lat="41.5006812" lon="13.2430522"><ele>44.0</ele><time>2026-03-22T09:36:16.067Z</time></trkpt><trkpt lat="41.5005916" lon="13.242973"><ele>44.0</ele><time>2026-03-22T09:36:18.053Z</time></trkpt><trkpt lat="41.5004611" lon="13.242972"><ele>44.0</ele><time>2026-03-22T09:36:20.049Z</time></trkpt><trkpt lat="41.5003859" lon="13.2430023"><ele>44.0</ele><time>2026-03-22T09:36:21.046Z</time></trkpt><trkpt lat="41.5003088" lon="13.2430646"><ele>44.0</ele><time>2026-03-22T09:36:22.053Z</time></trkpt><trkpt lat="41.5002371" lon="13.2431266"><ele>44.0</ele><time>2026-03-22T09:36:23.041Z</time></trkpt><trkpt lat="41.5001675" lon="13.2431738"><ele>43.166666666666664</ele><time>2026-03-22T09:36:24.062Z</time></trkpt><trkpt lat="41.5000968" lon="13.2431949"><ele>42.33333333333333</ele><time>2026-03-22T09:36:25.047Z</time></trkpt><trkpt lat="41.5000333" lon="13.2431922"><ele>41.5</ele><time>2026-03-22T09:36:26.05Z</time></trkpt><trkpt lat="41.4999172" lon="13.2431387"><ele>40.666666666666664</ele><time>2026-03-22T09:36:28.059Z</time></trkpt><trkpt lat="41.499854" lon="13.2430892"><ele>39.833333333333336</ele><time>2026-03-22T09:36:29.092Z</time></trkpt><trkpt lat="41.4997818" lon="13.2430279"><ele>39.0</ele><time>2026-03-22T09:36:30.052Z</time></trkpt><trkpt lat="41.4996967" lon="13.242952"><ele>38.75</ele><time>2026-03-22T09:36:31.045Z</time></trkpt><trkpt lat="41.4996042" lon="13.2428618"><ele>38.5</ele><time>2026-03-22T09:36:32.05Z</time></trkpt><trkpt lat="41.4995089" lon="13.2427466"><ele>38.25</ele><time>2026-03-22T09:36:33.046Z</time></trkpt><trkpt lat="41.4994196" lon="13.2426227"><ele>38.0</ele><time>2026-03-22T09:36:34.063Z</time></trkpt><trkpt lat="41.4993262" lon="13.2424905"><ele>37.666666666666664</ele><time>2026-03-22T09:36:35.046Z</time></trkpt><trkpt lat="41.4992265" lon="13.2423454"><ele>37.333333333333336</ele><time>2026-03-22T09:36:36.041Z</time></trkpt><trkpt lat="41.4991229" lon="13.2421861"><ele>37.0</ele><time>2026-03-22T09:36:37.047Z</time></trkpt><trkpt lat="41.4990253" lon="13.2420273"><ele>37.0</ele><time>2026-03-22T09:36:38.05Z</time></trkpt><trkpt lat="41.4989368" lon="13.2418764"><ele>37.0</ele><time>2026-03-22T09:36:39.046Z</time></trkpt><trkpt lat="41.4988544" lon="13.241737"><ele>37.0</ele><time>2026-03-22T09:36:40.047Z</time></trkpt><trkpt lat="41.4987727" lon="13.2416006"><ele>37.0</ele><time>2026-03-22T09:36:41.051Z</time></trkpt><trkpt lat="41.4986871" lon="13.2414607"><ele>37.0</ele><time>2026-03-22T09:36:42.051Z</time></trkpt><trkpt lat="41.4985951" lon="13.241325"><ele>37.0</ele><time>2026-03-22T09:36:43.051Z</time></trkpt><trkpt lat="41.4985092" lon="13.2411984"><ele>37.0</ele><time>2026-03-22T09:36:44.062Z</time></trkpt><trkpt lat="41.4984253" lon="13.2410697"><ele>37.0</ele><time>2026-03-22T09:36:45.054Z</time></trkpt><trkpt lat="41.4983438" lon="13.2409308"><ele>37.0</ele><time>2026-03-22T09:36:46.044Z</time></trkpt><trkpt lat="41.4982586" lon="13.2407886"><ele>37.0</ele><time>2026-03-22T09:36:47.044Z</time></trkpt><trkpt lat="41.4981831" lon="13.2406232"><ele>37.0</ele><time>2026-03-22T09:36:48.047Z</time></trkpt><trkpt lat="41.4981002" lon="13.2404662"><ele>37.0</ele><time>2026-03-22T09:36:49.079Z</time></trkpt><trkpt lat="41.4980094" lon="13.240314"><ele>37.0</ele><time>2026-03-22T09:36:50.046Z</time></trkpt><trkpt lat="41.4979099" lon="13.240162"><ele>37.0</ele><time>2026-03-22T09:36:51.043Z</time></trkpt><trkpt lat="41.4978129" lon="13.2400166"><ele>37.0</ele><time>2026-03-22T09:36:52.044Z</time></trkpt><trkpt lat="41.4977211" lon="13.2398807"><ele>37.0</ele><time>2026-03-22T09:36:53.047Z</time></trkpt><trkpt lat="41.4976454" lon="13.2397365"><ele>36.5</ele><time>2026-03-22T09:36:54.048Z</time></trkpt><trkpt lat="41.4975791" lon="13.2395814"><ele>36.0</ele><time>2026-03-22T09:36:55.041Z</time></trkpt><trkpt lat="41.4975211" lon="13.239426"><ele>35.5</ele><time>2026-03-22T09:36:56.06Z</time></trkpt><trkpt lat="41.4974645" lon="13.2392885"><ele>35.0</ele><time>2026-03-22T09:36:57.048Z</time></trkpt><trkpt lat="41.4974082" lon="13.2391606"><ele>35.0</ele><time>2026-03-22T09:36:58.049Z</time></trkpt><trkpt lat="41.4973479" lon="13.2390455"><ele>35.0</ele><time>2026-03-22T09:36:59.048Z</time></trkpt><trkpt lat="41.4972712" lon="13.2389418"><ele>35.0</ele><time>2026-03-22T09:37:00.048Z</time></trkpt><trkpt lat="41.4971867" lon="13.2388431"><ele>35.0</ele><time>2026-03-22T09:37:01.052Z</time></trkpt><trkpt lat="41.4971065" lon="13.2387503"><ele>35.0</ele><time>2026-03-22T09:37:02.047Z</time></trkpt><trkpt lat="41.4970127" lon="13.2386548"><ele>35.0</ele><time>2026-03-22T09:37:03.051Z</time></trkpt><trkpt lat="41.4969194" lon="13.2385872"><ele>35.0</ele><time>2026-03-22T09:37:04.049Z</time></trkpt><trkpt lat="41.496835" lon="13.2385212"><ele>35.0</ele><time>2026-03-22T09:37:05.054Z</time></trkpt><trkpt lat="41.4967674" lon="13.2384383"><ele>35.0</ele><time>2026-03-22T09:37:06.058Z</time></trkpt><trkpt lat="41.4967077" lon="13.2383206"><ele>35.0</ele><time>2026-03-22T09:37:07.052Z</time></trkpt><trkpt lat="41.4966602" lon="13.2382002"><ele>35.25</ele><time>2026-03-22T09:37:08.046Z</time></trkpt><trkpt lat="41.4966015" lon="13.238086"><ele>35.5</ele><time>2026-03-22T09:37:09.054Z</time></trkpt><trkpt lat="41.4965258" lon="13.2379662"><ele>35.75</ele><time>2026-03-22T09:37:10.053Z</time></trkpt><trkpt lat="41.4964335" lon="13.2378615"><ele>36.0</ele><time>2026-03-22T09:37:11.066Z</time></trkpt><trkpt lat="41.4963476" lon="13.2377453"><ele>36.0</ele><time>2026-03-22T09:37:12.04Z</time></trkpt><trkpt lat="41.4962585" lon="13.2376272"><ele>36.0</ele><time>2026-03-22T09:37:13.053Z</time></trkpt><trkpt lat="41.4961678" lon="13.2375038"><ele>36.0</ele><time>2026-03-22T09:37:14.046Z</time></trkpt><trkpt lat="41.4960761" lon="13.2373833"><ele>36.0</ele><time>2026-03-22T09:37:15.05Z</time></trkpt><trkpt lat="41.495986" lon="13.2372616"><ele>35.75</ele><time>2026-03-22T09:37:16.045Z</time></trkpt><trkpt lat="41.495903" lon="13.2371342"><ele>35.5</ele><time>2026-03-22T09:37:17.062Z</time></trkpt><trkpt lat="41.4958295" lon="13.2370199"><ele>35.25</ele><time>2026-03-22T09:37:18.049Z</time></trkpt><trkpt lat="41.4957495" lon="13.2369086"><ele>35.0</ele><time>2026-03-22T09:37:19.042Z</time></trkpt><trkpt lat="41.4956666" lon="13.236788"><ele>35.0</ele><time>2026-03-22T09:37:20.056Z</time></trkpt><trkpt lat="41.4955834" lon="13.2366596"><ele>35.0</ele><time>2026-03-22T09:37:21.048Z</time></trkpt><trkpt lat="41.4955016" lon="13.2365269"><ele>35.0</ele><time>2026-03-22T09:37:22.044Z</time></trkpt><trkpt lat="41.4954221" lon="13.2363931"><ele>35.0</ele><time>2026-03-22T09:37:23.056Z</time></trkpt><trkpt lat="41.4953526" lon="13.2362444"><ele>35.25</ele><time>2026-03-22T09:37:24.047Z</time></trkpt><trkpt lat="41.495284" lon="13.2360835"><ele>35.5</ele><time>2026-03-22T09:37:25.045Z</time></trkpt><trkpt lat="41.4952273" lon="13.2359236"><ele>35.75</ele><time>2026-03-22T09:37:26.042Z</time></trkpt><trkpt lat="41.4951698" lon="13.2357737"><ele>36.0</ele><time>2026-03-22T09:37:27.048Z</time></trkpt><trkpt lat="41.4951098" lon="13.2356282"><ele>35.5</ele><time>2026-03-22T09:37:28.052Z</time></trkpt><trkpt lat="41.4950457" lon="13.235481"><ele>35.0</ele><time>2026-03-22T09:37:29.069Z</time></trkpt><trkpt lat="41.4949869" lon="13.235327"><ele>34.5</ele><time>2026-03-22T09:37:30.048Z</time></trkpt><trkpt lat="41.4949256" lon="13.2351725"><ele>34.0</ele><time>2026-03-22T09:37:31.048Z</time></trkpt><trkpt lat="41.4948704" lon="13.2350316"><ele>34.0</ele><time>2026-03-22T09:37:32.041Z</time></trkpt><trkpt lat="41.4948205" lon="13.2349053"><ele>34.0</ele><time>2026-03-22T09:37:33.047Z</time></trkpt><trkpt lat="41.4947806" lon="13.2347756"><ele>34.0</ele><time>2026-03-22T09:37:34.046Z</time></trkpt><trkpt lat="41.4947528" lon="13.2346372"><ele>34.0</ele><time>2026-03-22T09:37:35.05Z</time></trkpt><trkpt lat="41.4947295" lon="13.2344894"><ele>34.0</ele><time>2026-03-22T09:37:36.054Z</time></trkpt><trkpt lat="41.4947081" lon="13.2343434"><ele>34.0</ele><time>2026-03-22T09:37:37.051Z</time></trkpt><trkpt lat="41.4946969" lon="13.234193"><ele>34.0</ele><time>2026-03-22T09:37:38.054Z</time></trkpt><trkpt lat="41.4946958" lon="13.2340315"><ele>34.0</ele><time>2026-03-22T09:37:39.052Z</time></trkpt><trkpt lat="41.4946822" lon="13.2338783"><ele>34.0</ele><time>2026-03-22T09:37:40.043Z</time></trkpt><trkpt lat="41.4946589" lon="13.2337371"><ele>34.0</ele><time>2026-03-22T09:37:41.055Z</time></trkpt><trkpt lat="41.49462" lon="13.2335985"><ele>34.0</ele><time>2026-03-22T09:37:42.052Z</time></trkpt><trkpt lat="41.4945722" lon="13.2334622"><ele>34.0</ele><time>2026-03-22T09:37:43.072Z</time></trkpt><trkpt lat="41.4945257" lon="13.2333323"><ele>34.0</ele><time>2026-03-22T09:37:44.043Z</time></trkpt><trkpt lat="41.4944873" lon="13.2332111"><ele>34.0</ele><time>2026-03-22T09:37:45.054Z</time></trkpt><trkpt lat="41.4944577" lon="13.2331002"><ele>33.99999999999999</ele><time>2026-03-22T09:37:46.046Z</time></trkpt><trkpt lat="41.4944347" lon="13.2330056"><ele>34.0</ele><time>2026-03-22T09:37:47.053Z</time></trkpt><trkpt lat="41.4944106" lon="13.2329173"><ele>34.0</ele><time>2026-03-22T09:37:48.047Z</time></trkpt><trkpt lat="41.4943882" lon="13.2328322"><ele>34.0</ele><time>2026-03-22T09:37:49.053Z</time></trkpt><trkpt lat="41.4943606" lon="13.2327508"><ele>34.0</ele><time>2026-03-22T09:37:50.043Z</time></trkpt><trkpt lat="41.4943219" lon="13.2326668"><ele>33.99999999999999</ele><time>2026-03-22T09:37:51.062Z</time></trkpt><trkpt lat="41.4942641" lon="13.2325774"><ele>34.0</ele><time>2026-03-22T09:37:52.048Z</time></trkpt><trkpt lat="41.4941965" lon="13.2324856"><ele>34.0</ele><time>2026-03-22T09:37:53.047Z</time></trkpt><trkpt lat="41.4941236" lon="13.2323966"><ele>34.0</ele><time>2026-03-22T09:37:54.049Z</time></trkpt><trkpt lat="41.4940457" lon="13.2323002"><ele>34.0</ele><time>2026-03-22T09:37:55.044Z</time></trkpt><trkpt lat="41.4939786" lon="13.2321791"><ele>34.0</ele><time>2026-03-22T09:37:56.056Z</time></trkpt><trkpt lat="41.4939093" lon="13.2320278"><ele>34.25</ele><time>2026-03-22T09:37:57.045Z</time></trkpt><trkpt lat="41.4938518" lon="13.2318652"><ele>34.5</ele><time>2026-03-22T09:37:58.067Z</time></trkpt><trkpt lat="41.4937923" lon="13.2316921"><ele>34.75</ele><time>2026-03-22T09:37:59.05Z</time></trkpt><trkpt lat="41.4937382" lon="13.2315033"><ele>35.0</ele><time>2026-03-22T09:38:00.054Z</time></trkpt><trkpt lat="41.4936888" lon="13.2313181"><ele>35.25</ele><time>2026-03-22T09:38:01.05Z</time></trkpt><trkpt lat="41.4936396" lon="13.2311343"><ele>35.5</ele><time>2026-03-22T09:38:02.049Z</time></trkpt><trkpt lat="41.493592" lon="13.2309692"><ele>35.75</ele><time>2026-03-22T09:38:03.045Z</time></trkpt><trkpt lat="41.4935368" lon="13.230807"><ele>36.0</ele><time>2026-03-22T09:38:04.038Z</time></trkpt><trkpt lat="41.4934789" lon="13.2306398"><ele>36.25</ele><time>2026-03-22T09:38:05.041Z</time></trkpt><trkpt lat="41.4934181" lon="13.2304719"><ele>36.5</ele><time>2026-03-22T09:38:06.034Z</time></trkpt><trkpt lat="41.4933522" lon="13.2302991"><ele>36.75</ele><time>2026-03-22T09:38:07.04Z</time></trkpt><trkpt lat="41.4932863" lon="13.2301269"><ele>37.0</ele><time>2026-03-22T09:38:08.039Z</time></trkpt><trkpt lat="41.4932144" lon="13.2299542"><ele>37.25</ele><time>2026-03-22T09:38:09.056Z</time></trkpt><trkpt lat="41.4931444" lon="13.2297807"><ele>37.5</ele><time>2026-03-22T09:38:10.037Z</time></trkpt><trkpt lat="41.4930824" lon="13.2296041"><ele>37.75</ele><time>2026-03-22T09:38:11.039Z</time></trkpt><trkpt lat="41.4930268" lon="13.2294456"><ele>38.0</ele><time>2026-03-22T09:38:12.049Z</time></trkpt><trkpt lat="41.4929956" lon="13.229308"><ele>38.0</ele><time>2026-03-22T09:38:13.037Z</time></trkpt><trkpt lat="41.4929758" lon="13.2291721"><ele>38.0</ele><time>2026-03-22T09:38:14.057Z</time></trkpt><trkpt lat="41.4929653" lon="13.2290327"><ele>38.0</ele><time>2026-03-22T09:38:15.034Z</time></trkpt><trkpt lat="41.4929564" lon="13.2288878"><ele>38.0</ele><time>2026-03-22T09:38:16.039Z</time></trkpt><trkpt lat="41.4929558" lon="13.2287438"><ele>38.0</ele><time>2026-03-22T09:38:17.037Z</time></trkpt><trkpt lat="41.4929556" lon="13.2285971"><ele>37.6</ele><time>2026-03-22T09:38:18.039Z</time></trkpt><trkpt lat="41.4929584" lon="13.228451"><ele>37.199999999999996</ele><time>2026-03-22T09:38:19.041Z</time></trkpt><trkpt lat="41.49296" lon="13.2283054"><ele>36.8</ele><time>2026-03-22T09:38:20.041Z</time></trkpt><trkpt lat="41.4929679" lon="13.2281579"><ele>36.4</ele><time>2026-03-22T09:38:21.051Z</time></trkpt><trkpt lat="41.4929772" lon="13.2280069"><ele>36.0</ele><time>2026-03-22T09:38:22.041Z</time></trkpt><trkpt lat="41.492994" lon="13.227863"><ele>35.6</ele><time>2026-03-22T09:38:23.038Z</time></trkpt><trkpt lat="41.493015" lon="13.2277213"><ele>35.2</ele><time>2026-03-22T09:38:24.044Z</time></trkpt><trkpt lat="41.4930405" lon="13.2275773"><ele>34.8</ele><time>2026-03-22T09:38:25.041Z</time></trkpt><trkpt lat="41.4930606" lon="13.2274455"><ele>34.4</ele><time>2026-03-22T09:38:26.063Z</time></trkpt><trkpt lat="41.4930822" lon="13.227322"><ele>34.0</ele><time>2026-03-22T09:38:27.042Z</time></trkpt><trkpt lat="41.4931047" lon="13.227213"><ele>33.66666666666667</ele><time>2026-03-22T09:38:28.039Z</time></trkpt><trkpt lat="41.4931257" lon="13.2271196"><ele>33.333333333333336</ele><time>2026-03-22T09:38:29.04Z</time></trkpt><trkpt lat="41.4931489" lon="13.2270362"><ele>33.0</ele><time>2026-03-22T09:38:30.041Z</time></trkpt><trkpt lat="41.4931787" lon="13.2269437"><ele>32.666666666666664</ele><time>2026-03-22T09:38:31.06Z</time></trkpt><trkpt lat="41.493208" lon="13.2268555"><ele>32.33333333333333</ele><time>2026-03-22T09:38:32.04Z</time></trkpt><trkpt lat="41.4932492" lon="13.2267057"><ele>32.0</ele><time>2026-03-22T09:38:34.05Z</time></trkpt><trkpt lat="41.4932701" lon="13.2265523"><ele>32.0</ele><time>2026-03-22T09:38:36.061Z</time></trkpt><trkpt lat="41.4932752" lon="13.2264682"><ele>31.999999999999996</ele><time>2026-03-22T09:38:37.037Z</time></trkpt><trkpt lat="41.4932884" lon="13.2263767"><ele>32.0</ele><time>2026-03-22T09:38:38.045Z</time></trkpt><trkpt lat="41.4932968" lon="13.2262786"><ele>32.0</ele><time>2026-03-22T09:38:39.042Z</time></trkpt><trkpt lat="41.4932982" lon="13.2261804"><ele>31.999999999999996</ele><time>2026-03-22T09:38:40.047Z</time></trkpt><trkpt lat="41.4932931" lon="13.22608"><ele>32.0</ele><time>2026-03-22T09:38:41.05Z</time></trkpt><trkpt lat="41.4932843" lon="13.2259794"><ele>32.0</ele><time>2026-03-22T09:38:42.042Z</time></trkpt><trkpt lat="41.4932765" lon="13.2258796"><ele>31.999999999999996</ele><time>2026-03-22T09:38:43.038Z</time></trkpt><trkpt lat="41.4932722" lon="13.2257836"><ele>32.0</ele><time>2026-03-22T09:38:44.043Z</time></trkpt><trkpt lat="41.4932671" lon="13.2256983"><ele>32.0</ele><time>2026-03-22T09:38:45.038Z</time></trkpt><trkpt lat="41.4932603" lon="13.2255917"><ele>32.0</ele><time>2026-03-22T09:38:47.036Z</time></trkpt><trkpt lat="41.4932538" lon="13.2255046"><ele>31.999999999999996</ele><time>2026-03-22T09:38:51.039Z</time></trkpt><trkpt lat="41.4932462" lon="13.2254098"><ele>32.0</ele><time>2026-03-22T09:38:55.047Z</time></trkpt><trkpt lat="41.4932245" lon="13.2252759"><ele>32.4</ele><time>2026-03-22T09:38:58.041Z</time></trkpt><trkpt lat="41.4931967" lon="13.22512"><ele>32.800000000000004</ele><time>2026-03-22T09:39:00.041Z</time></trkpt><trkpt lat="41.4931804" lon="13.2250374"><ele>33.2</ele><time>2026-03-22T09:39:01.061Z</time></trkpt><trkpt lat="41.4931423" lon="13.224913"><ele>33.6</ele><time>2026-03-22T09:39:03.034Z</time></trkpt><trkpt lat="41.4930921" lon="13.2248117"><ele>34.0</ele><time>2026-03-22T09:39:05.042Z</time></trkpt><trkpt lat="41.4930771" lon="13.2246647"><ele>34.6</ele><time>2026-03-22T09:39:07.038Z</time></trkpt><trkpt lat="41.4930632" lon="13.2244991"><ele>35.2</ele><time>2026-03-22T09:39:09.037Z</time></trkpt><trkpt lat="41.4930589" lon="13.2243596"><ele>35.800000000000004</ele><time>2026-03-22T09:39:11.031Z</time></trkpt><trkpt lat="41.4930609" lon="13.2242307"><ele>36.4</ele><time>2026-03-22T09:39:13.036Z</time></trkpt><trkpt lat="41.4930799" lon="13.2240818"><ele>37.0</ele><time>2026-03-22T09:39:15.042Z</time></trkpt><trkpt lat="41.4931088" lon="13.2239167"><ele>37.285714285714285</ele><time>2026-03-22T09:39:17.044Z</time></trkpt><trkpt lat="41.4931218" lon="13.2238278"><ele>37.57142857142857</ele><time>2026-03-22T09:39:18.068Z</time></trkpt><trkpt lat="41.4931356" lon="13.2237393"><ele>37.85714285714286</ele><time>2026-03-22T09:39:19.041Z</time></trkpt><trkpt lat="41.4931482" lon="13.2236462"><ele>38.14285714285714</ele><time>2026-03-22T09:39:20.047Z</time></trkpt><trkpt lat="41.4931617" lon="13.223547"><ele>38.42857142857142</ele><time>2026-03-22T09:39:21.041Z</time></trkpt><trkpt lat="41.4931706" lon="13.223451"><ele>38.714285714285715</ele><time>2026-03-22T09:39:22.036Z</time></trkpt><trkpt lat="41.4931824" lon="13.2233503"><ele>39.0</ele><time>2026-03-22T09:39:23.039Z</time></trkpt><trkpt lat="41.4931924" lon="13.2232433"><ele>38.833333333333336</ele><time>2026-03-22T09:39:24.041Z</time></trkpt><trkpt lat="41.4931989" lon="13.2231308"><ele>38.666666666666664</ele><time>2026-03-22T09:39:25.041Z</time></trkpt><trkpt lat="41.4932012" lon="13.2230151"><ele>38.5</ele><time>2026-03-22T09:39:26.043Z</time></trkpt><trkpt lat="41.4932025" lon="13.2229083"><ele>38.33333333333333</ele><time>2026-03-22T09:39:27.055Z</time></trkpt><trkpt lat="41.4932011" lon="13.2227991"><ele>38.166666666666664</ele><time>2026-03-22T09:39:28.038Z</time></trkpt><trkpt lat="41.4932016" lon="13.2226862"><ele>38.0</ele><time>2026-03-22T09:39:29.043Z</time></trkpt><trkpt lat="41.493217" lon="13.2225671"><ele>38.0</ele><time>2026-03-22T09:39:30.043Z</time></trkpt><trkpt lat="41.4932393" lon="13.2224502"><ele>38.0</ele><time>2026-03-22T09:39:31.04Z</time></trkpt><trkpt lat="41.4932627" lon="13.2223356"><ele>38.0</ele><time>2026-03-22T09:39:32.041Z</time></trkpt><trkpt lat="41.4932789" lon="13.2222229"><ele>38.0</ele><time>2026-03-22T09:39:33.035Z</time></trkpt><trkpt lat="41.4932833" lon="13.2221073"><ele>38.0</ele><time>2026-03-22T09:39:34.057Z</time></trkpt><trkpt lat="41.4932816" lon="13.2219847"><ele>38.0</ele><time>2026-03-22T09:39:35.036Z</time></trkpt><trkpt lat="41.4932791" lon="13.2218566"><ele>37.6</ele><time>2026-03-22T09:39:36.038Z</time></trkpt><trkpt lat="41.4932814" lon="13.221721"><ele>37.199999999999996</ele><time>2026-03-22T09:39:37.035Z</time></trkpt><trkpt lat="41.4932809" lon="13.2215954"><ele>36.8</ele><time>2026-03-22T09:39:38.039Z</time></trkpt><trkpt lat="41.4932701" lon="13.2214686"><ele>36.4</ele><time>2026-03-22T09:39:39.035Z</time></trkpt><trkpt lat="41.4932618" lon="13.2213402"><ele>36.0</ele><time>2026-03-22T09:39:40.032Z</time></trkpt><trkpt lat="41.4932567" lon="13.2212242"><ele>35.8</ele><time>2026-03-22T09:39:41.037Z</time></trkpt><trkpt lat="41.4932519" lon="13.2211204"><ele>35.6</ele><time>2026-03-22T09:39:42.042Z</time></trkpt><trkpt lat="41.4932496" lon="13.2210241"><ele>35.4</ele><time>2026-03-22T09:39:43.035Z</time></trkpt><trkpt lat="41.4932505" lon="13.2209319"><ele>35.2</ele><time>2026-03-22T09:39:44.057Z</time></trkpt><trkpt lat="41.4932701" lon="13.220773"><ele>35.0</ele><time>2026-03-22T09:39:46.04Z</time></trkpt><trkpt lat="41.4933358" lon="13.2206337"><ele>35.0</ele><time>2026-03-22T09:39:48.036Z</time></trkpt><trkpt lat="41.4933937" lon="13.2205744"><ele>35.0</ele><time>2026-03-22T09:39:49.059Z</time></trkpt><trkpt lat="41.4934561" lon="13.2205113"><ele>35.0</ele><time>2026-03-22T09:39:50.042Z</time></trkpt><trkpt lat="41.4935294" lon="13.220443"><ele>35.0</ele><time>2026-03-22T09:39:51.039Z</time></trkpt><trkpt lat="41.4936057" lon="13.2203906"><ele>35.0</ele><time>2026-03-22T09:39:52.036Z</time></trkpt><trkpt lat="41.4936679" lon="13.2203627"><ele>35.0</ele><time>2026-03-22T09:39:53.037Z</time></trkpt><trkpt lat="41.4937756" lon="13.2203353"><ele>35.2</ele><time>2026-03-22T09:39:55.039Z</time></trkpt><trkpt lat="41.4938674" lon="13.2203724"><ele>35.4</ele><time>2026-03-22T09:39:57.04Z</time></trkpt><trkpt lat="41.4939282" lon="13.2204008"><ele>35.6</ele><time>2026-03-22T09:40:00.052Z</time></trkpt><trkpt lat="41.4939104" lon="13.2202663"><ele>35.8</ele><time>2026-03-22T09:40:03.036Z</time></trkpt><trkpt lat="41.4938491" lon="13.2201299"><ele>36.0</ele><time>2026-03-22T09:40:05.062Z</time></trkpt><trkpt lat="41.4938035" lon="13.2200196"><ele>36.0</ele><time>2026-03-22T09:40:07.038Z</time></trkpt><trkpt lat="41.4937656" lon="13.2199299"><ele>36.0</ele><time>2026-03-22T09:40:09.046Z</time></trkpt><trkpt lat="41.4937306" lon="13.2198486"><ele>36.0</ele><time>2026-03-22T09:40:11.042Z</time></trkpt><trkpt lat="41.493695" lon="13.2197501"><ele>36.0</ele><time>2026-03-22T09:40:14.055Z</time></trkpt><trkpt lat="41.4936586" lon="13.2196557"><ele>36.0</ele><time>2026-03-22T09:40:17.042Z</time></trkpt><trkpt lat="41.4936205" lon="13.2195529"><ele>36.0</ele><time>2026-03-22T09:40:19.043Z</time></trkpt><trkpt lat="41.4935971" lon="13.2194223"><ele>35.4</ele><time>2026-03-22T09:40:21.053Z</time></trkpt><trkpt lat="41.4935911" lon="13.2192592"><ele>34.8</ele><time>2026-03-22T09:40:23.041Z</time></trkpt><trkpt lat="41.4935874" lon="13.2191075"><ele>34.199999999999996</ele><time>2026-03-22T09:40:25.037Z</time></trkpt><trkpt lat="41.493589" lon="13.2189736"><ele>33.6</ele><time>2026-03-22T09:40:27.042Z</time></trkpt><trkpt lat="41.4935914" lon="13.218884"><ele>33.0</ele><time>2026-03-22T09:40:28.066Z</time></trkpt><trkpt lat="41.4935942" lon="13.2187529"><ele>33.0</ele><time>2026-03-22T09:40:29.038Z</time></trkpt><trkpt lat="41.4935963" lon="13.2186131"><ele>33.0</ele><time>2026-03-22T09:40:30.041Z</time></trkpt><trkpt lat="41.4935996" lon="13.2184681"><ele>33.0</ele><time>2026-03-22T09:40:31.039Z</time></trkpt><trkpt lat="41.4936035" lon="13.2183449"><ele>33.0</ele><time>2026-03-22T09:40:32.042Z</time></trkpt><trkpt lat="41.4936113" lon="13.2182358"><ele>33.0</ele><time>2026-03-22T09:40:34.037Z</time></trkpt><trkpt lat="41.4935486" lon="13.2181445"><ele>32.6</ele><time>2026-03-22T09:40:45.033Z</time></trkpt><trkpt lat="41.493496" lon="13.2180852"><ele>32.199999999999996</ele><time>2026-03-22T09:40:46.038Z</time></trkpt><trkpt lat="41.4934387" lon="13.218011"><ele>31.8</ele><time>2026-03-22T09:40:47.039Z</time></trkpt><trkpt lat="41.4933763" lon="13.2179072"><ele>31.4</ele><time>2026-03-22T09:40:48.037Z</time></trkpt><trkpt lat="41.4933066" lon="13.217794"><ele>31.0</ele><time>2026-03-22T09:40:49.033Z</time></trkpt><trkpt lat="41.4932403" lon="13.2176621"><ele>31.0</ele><time>2026-03-22T09:40:50.033Z</time></trkpt><trkpt lat="41.4931724" lon="13.2175259"><ele>31.0</ele><time>2026-03-22T09:40:51.037Z</time></trkpt><trkpt lat="41.4931136" lon="13.2173809"><ele>31.0</ele><time>2026-03-22T09:40:52.036Z</time></trkpt><trkpt lat="41.4930659" lon="13.217256"><ele>31.0</ele><time>2026-03-22T09:40:53.039Z</time></trkpt><trkpt lat="41.4930369" lon="13.2171531"><ele>31.0</ele><time>2026-03-22T09:40:54.038Z</time></trkpt><trkpt lat="41.4930155" lon="13.2170721"><ele>31.000000000000004</ele><time>2026-03-22T09:40:55.045Z</time></trkpt><trkpt lat="41.492993" lon="13.2169734"><ele>31.0</ele><time>2026-03-22T09:40:57.062Z</time></trkpt><trkpt lat="41.4929734" lon="13.2168922"><ele>31.0</ele><time>2026-03-22T09:41:00.04Z</time></trkpt><trkpt lat="41.4929481" lon="13.2168043"><ele>31.0</ele><time>2026-03-22T09:41:14.046Z</time></trkpt><trkpt lat="41.4929112" lon="13.2166973"><ele>31.000000000000004</ele><time>2026-03-22T09:41:16.052Z</time></trkpt><trkpt lat="41.4928622" lon="13.2165767"><ele>31.0</ele><time>2026-03-22T09:41:18.042Z</time></trkpt><trkpt lat="41.4928183" lon="13.2164596"><ele>31.0</ele><time>2026-03-22T09:41:20.039Z</time></trkpt><trkpt lat="41.4927746" lon="13.2163797"><ele>31.0</ele><time>2026-03-22T09:41:22.048Z</time></trkpt><trkpt lat="41.4926924" lon="13.2162407"><ele>31.0</ele><time>2026-03-22T09:41:24.038Z</time></trkpt><trkpt lat="41.492645" lon="13.2161558"><ele>31.0</ele><time>2026-03-22T09:41:25.052Z</time></trkpt><trkpt lat="41.4926008" lon="13.216066"><ele>31.0</ele><time>2026-03-22T09:41:26.036Z</time></trkpt><trkpt lat="41.4925523" lon="13.215971"><ele>31.000000000000004</ele><time>2026-03-22T09:41:27.038Z</time></trkpt><trkpt lat="41.4925063" lon="13.2158795"><ele>31.0</ele><time>2026-03-22T09:41:28.04Z</time></trkpt><trkpt lat="41.4924604" lon="13.2158021"><ele>31.0</ele><time>2026-03-22T09:41:29.037Z</time></trkpt><trkpt lat="41.4924122" lon="13.2157238"><ele>31.0</ele><time>2026-03-22T09:41:30.058Z</time></trkpt><trkpt lat="41.4923599" lon="13.2156336"><ele>31.000000000000004</ele><time>2026-03-22T09:41:31.037Z</time></trkpt><trkpt lat="41.4922989" lon="13.2155302"><ele>31.0</ele><time>2026-03-22T09:41:32.037Z</time></trkpt><trkpt lat="41.4922225" lon="13.2154113"><ele>31.0</ele><time>2026-03-22T09:41:33.038Z</time></trkpt><trkpt lat="41.492131" lon="13.2152941"><ele>31.0</ele><time>2026-03-22T09:41:34.039Z</time></trkpt><trkpt lat="41.4920309" lon="13.215184"><ele>31.0</ele><time>2026-03-22T09:41:35.061Z</time></trkpt><trkpt lat="41.4919171" lon="13.2150772"><ele>31.0</ele><time>2026-03-22T09:41:36.042Z</time></trkpt><trkpt lat="41.4918061" lon="13.2149847"><ele>31.0</ele><time>2026-03-22T09:41:37.036Z</time></trkpt><trkpt lat="41.491703" lon="13.2149023"><ele>31.0</ele><time>2026-03-22T09:41:38.037Z</time></trkpt><trkpt lat="41.4916023" lon="13.214828"><ele>31.0</ele><time>2026-03-22T09:41:39.036Z</time></trkpt><trkpt lat="41.4914988" lon="13.2147639"><ele>31.0</ele><time>2026-03-22T09:41:40.052Z</time></trkpt><trkpt lat="41.491391" lon="13.2146977"><ele>31.5</ele><time>2026-03-22T09:41:41.041Z</time></trkpt><trkpt lat="41.4912789" lon="13.2146218"><ele>32.0</ele><time>2026-03-22T09:41:42.035Z</time></trkpt><trkpt lat="41.4911604" lon="13.2145305"><ele>32.5</ele><time>2026-03-22T09:41:43.046Z</time></trkpt><trkpt lat="41.4910212" lon="13.214434"><ele>33.0</ele><time>2026-03-22T09:41:44.038Z</time></trkpt><trkpt lat="41.4908709" lon="13.2143357"><ele>33.333333333333336</ele><time>2026-03-22T09:41:45.06Z</time></trkpt><trkpt lat="41.4907164" lon="13.2142368"><ele>33.66666666666667</ele><time>2026-03-22T09:41:46.041Z</time></trkpt><trkpt lat="41.4905705" lon="13.214143"><ele>34.0</ele><time>2026-03-22T09:41:47.041Z</time></trkpt><trkpt lat="41.490437" lon="13.2140555"><ele>33.5</ele><time>2026-03-22T09:41:48.042Z</time></trkpt><trkpt lat="41.4903073" lon="13.2139671"><ele>33.0</ele><time>2026-03-22T09:41:49.048Z</time></trkpt><trkpt lat="41.4901881" lon="13.2138822"><ele>32.5</ele><time>2026-03-22T09:41:50.042Z</time></trkpt><trkpt lat="41.4900835" lon="13.2138026"><ele>32.0</ele><time>2026-03-22T09:41:51.038Z</time></trkpt><trkpt lat="41.4899873" lon="13.2137207"><ele>32.0</ele><time>2026-03-22T09:41:52.037Z</time></trkpt><trkpt lat="41.4898983" lon="13.2136345"><ele>32.0</ele><time>2026-03-22T09:41:53.037Z</time></trkpt><trkpt lat="41.4898223" lon="13.2135371"><ele>32.0</ele><time>2026-03-22T09:41:54.041Z</time></trkpt><trkpt lat="41.4897615" lon="13.2134197"><ele>32.0</ele><time>2026-03-22T09:41:55.036Z</time></trkpt><trkpt lat="41.489701" lon="13.2133121"><ele>32.0</ele><time>2026-03-22T09:41:56.039Z</time></trkpt><trkpt lat="41.4896481" lon="13.2131946"><ele>31.833333333333332</ele><time>2026-03-22T09:41:57.036Z</time></trkpt><trkpt lat="41.4895875" lon="13.2130749"><ele>31.666666666666664</ele><time>2026-03-22T09:41:58.036Z</time></trkpt><trkpt lat="41.4895407" lon="13.2129644"><ele>31.5</ele><time>2026-03-22T09:41:59.069Z</time></trkpt><trkpt lat="41.4894967" lon="13.2128637"><ele>31.333333333333336</ele><time>2026-03-22T09:42:00.041Z</time></trkpt><trkpt lat="41.489454" lon="13.2127739"><ele>31.166666666666668</ele><time>2026-03-22T09:42:01.043Z</time></trkpt><trkpt lat="41.4894162" lon="13.2126872"><ele>31.0</ele><time>2026-03-22T09:42:02.045Z</time></trkpt><trkpt lat="41.4893776" lon="13.2125956"><ele>31.000000000000004</ele><time>2026-03-22T09:42:03.036Z</time></trkpt><trkpt lat="41.4893421" lon="13.2125242"><ele>31.0</ele><time>2026-03-22T09:42:04.061Z</time></trkpt><trkpt lat="41.4893033" lon="13.2124579"><ele>31.0</ele><time>2026-03-22T09:42:05.047Z</time></trkpt><trkpt lat="41.4892448" lon="13.2123222"><ele>31.0</ele><time>2026-03-22T09:42:07.046Z</time></trkpt><trkpt lat="41.4892097" lon="13.2122398"><ele>31.000000000000004</ele><time>2026-03-22T09:42:08.044Z</time></trkpt><trkpt lat="41.4891722" lon="13.2121535"><ele>31.0</ele><time>2026-03-22T09:42:09.045Z</time></trkpt><trkpt lat="41.4891301" lon="13.2120674"><ele>31.000000000000004</ele><time>2026-03-22T09:42:10.057Z</time></trkpt><trkpt lat="41.4890857" lon="13.2119988"><ele>31.0</ele><time>2026-03-22T09:42:11.042Z</time></trkpt><trkpt lat="41.4890296" lon="13.211894"><ele>31.0</ele><time>2026-03-22T09:42:13.038Z</time></trkpt><trkpt lat="41.4890019" lon="13.21179"><ele>31.0</ele><time>2026-03-22T09:42:15.046Z</time></trkpt><trkpt lat="41.488978" lon="13.21167"><ele>31.000000000000004</ele><time>2026-03-22T09:42:17.04Z</time></trkpt><trkpt lat="41.4889373" lon="13.2115696"><ele>31.0</ele><time>2026-03-22T09:42:19.037Z</time></trkpt><trkpt lat="41.4888625" lon="13.2114681"><ele>31.0</ele><time>2026-03-22T09:42:21.038Z</time></trkpt><trkpt lat="41.4887838" lon="13.2113517"><ele>31.0</ele><time>2026-03-22T09:42:23.061Z</time></trkpt><trkpt lat="41.488733" lon="13.2112171"><ele>31.0</ele><time>2026-03-22T09:42:25.042Z</time></trkpt><trkpt lat="41.4886809" lon="13.2110612"><ele>31.0</ele><time>2026-03-22T09:42:27.038Z</time></trkpt><trkpt lat="41.4886535" lon="13.2109794"><ele>31.0</ele><time>2026-03-22T09:42:28.037Z</time></trkpt><trkpt lat="41.4886209" lon="13.2108903"><ele>31.000000000000004</ele><time>2026-03-22T09:42:29.037Z</time></trkpt><trkpt lat="41.4885929" lon="13.2108069"><ele>31.0</ele><time>2026-03-22T09:42:30.042Z</time></trkpt><trkpt lat="41.488572" lon="13.2107204"><ele>31.0</ele><time>2026-03-22T09:42:31.034Z</time></trkpt><trkpt lat="41.488557" lon="13.2106286"><ele>31.0</ele><time>2026-03-22T09:42:32.056Z</time></trkpt><trkpt lat="41.4885415" lon="13.2105453"><ele>31.000000000000004</ele><time>2026-03-22T09:42:33.036Z</time></trkpt><trkpt lat="41.4884887" lon="13.2104136"><ele>31.0</ele><time>2026-03-22T09:42:35.037Z</time></trkpt><trkpt lat="41.4884273" lon="13.210311"><ele>31.0</ele><time>2026-03-22T09:42:37.035Z</time></trkpt><trkpt lat="41.4883825" lon="13.2101881"><ele>31.0</ele><time>2026-03-22T09:42:39.05Z</time></trkpt><trkpt lat="41.4883388" lon="13.2100442"><ele>31.0</ele><time>2026-03-22T09:42:41.038Z</time></trkpt><trkpt lat="41.4882919" lon="13.2098892"><ele>31.0</ele><time>2026-03-22T09:42:43.041Z</time></trkpt><trkpt lat="41.4882634" lon="13.2098048"><ele>31.0</ele><time>2026-03-22T09:42:44.045Z</time></trkpt><trkpt lat="41.4882351" lon="13.2097197"><ele>30.8</ele><time>2026-03-22T09:42:45.038Z</time></trkpt><trkpt lat="41.4882056" lon="13.2096359"><ele>30.6</ele><time>2026-03-22T09:42:46.033Z</time></trkpt><trkpt lat="41.4881525" lon="13.2094933"><ele>30.4</ele><time>2026-03-22T09:42:48.036Z</time></trkpt><trkpt lat="41.4881036" lon="13.2093789"><ele>30.2</ele><time>2026-03-22T09:42:50.043Z</time></trkpt><trkpt lat="41.488047" lon="13.2092668"><ele>30.0</ele><time>2026-03-22T09:42:52.044Z</time></trkpt><trkpt lat="41.487983" lon="13.2091309"><ele>30.0</ele><time>2026-03-22T09:42:54.062Z</time></trkpt><trkpt lat="41.4879487" lon="13.209054"><ele>30.0</ele><time>2026-03-22T09:42:55.045Z</time></trkpt><trkpt lat="41.4879123" lon="13.2089679"><ele>30.0</ele><time>2026-03-22T09:42:56.044Z</time></trkpt><trkpt lat="41.4878681" lon="13.208876"><ele>30.0</ele><time>2026-03-22T09:42:57.038Z</time></trkpt><trkpt lat="41.4878238" lon="13.2087849"><ele>30.0</ele><time>2026-03-22T09:42:58.043Z</time></trkpt><trkpt lat="41.4877762" lon="13.2086993"><ele>30.0</ele><time>2026-03-22T09:42:59.048Z</time></trkpt><trkpt lat="41.4877228" lon="13.2086084"><ele>30.166666666666668</ele><time>2026-03-22T09:43:00.047Z</time></trkpt><trkpt lat="41.4876755" lon="13.2085212"><ele>30.333333333333336</ele><time>2026-03-22T09:43:01.043Z</time></trkpt><trkpt lat="41.4876216" lon="13.2084324"><ele>30.5</ele><time>2026-03-22T09:43:02.038Z</time></trkpt><trkpt lat="41.4875691" lon="13.208345"><ele>30.666666666666668</ele><time>2026-03-22T09:43:03.037Z</time></trkpt><trkpt lat="41.4875146" lon="13.2082487"><ele>30.833333333333336</ele><time>2026-03-22T09:43:04.039Z</time></trkpt><trkpt lat="41.487461" lon="13.2081535"><ele>31.0</ele><time>2026-03-22T09:43:05.046Z</time></trkpt><trkpt lat="41.4874102" lon="13.2080572"><ele>31.000000000000004</ele><time>2026-03-22T09:43:06.044Z</time></trkpt><trkpt lat="41.4873622" lon="13.2079585"><ele>31.0</ele><time>2026-03-22T09:43:07.061Z</time></trkpt><trkpt lat="41.4873209" lon="13.2078548"><ele>31.0</ele><time>2026-03-22T09:43:08.041Z</time></trkpt><trkpt lat="41.4872846" lon="13.2077471"><ele>31.0</ele><time>2026-03-22T09:43:09.038Z</time></trkpt><trkpt lat="41.4872457" lon="13.2076346"><ele>31.000000000000004</ele><time>2026-03-22T09:43:10.043Z</time></trkpt><trkpt lat="41.4872101" lon="13.2075268"><ele>31.0</ele><time>2026-03-22T09:43:11.04Z</time></trkpt><trkpt lat="41.4871756" lon="13.2074138"><ele>31.000000000000004</ele><time>2026-03-22T09:43:12.062Z</time></trkpt><trkpt lat="41.4871427" lon="13.2073037"><ele>31.0</ele><time>2026-03-22T09:43:13.04Z</time></trkpt><trkpt lat="41.4871078" lon="13.2071943"><ele>31.0</ele><time>2026-03-22T09:43:14.036Z</time></trkpt><trkpt lat="41.4870775" lon="13.2070968"><ele>31.0</ele><time>2026-03-22T09:43:15.041Z</time></trkpt><trkpt lat="41.487047" lon="13.2070129"><ele>31.000000000000004</ele><time>2026-03-22T09:43:16.041Z</time></trkpt><trkpt lat="41.4870147" lon="13.2069375"><ele>31.0</ele><time>2026-03-22T09:43:17.041Z</time></trkpt><trkpt lat="41.4869765" lon="13.2068296"><ele>31.200000000000003</ele><time>2026-03-22T09:43:19.065Z</time></trkpt><trkpt lat="41.4869381" lon="13.206685"><ele>31.400000000000002</ele><time>2026-03-22T09:43:21.039Z</time></trkpt><trkpt lat="41.4869132" lon="13.2066024"><ele>31.6</ele><time>2026-03-22T09:43:22.043Z</time></trkpt><trkpt lat="41.486864" lon="13.2064564"><ele>31.8</ele><time>2026-03-22T09:43:24.038Z</time></trkpt><trkpt lat="41.4868205" lon="13.2063059"><ele>32.0</ele><time>2026-03-22T09:43:26.047Z</time></trkpt><trkpt lat="41.4867957" lon="13.2062273"><ele>31.857142857142854</ele><time>2026-03-22T09:43:27.04Z</time></trkpt><trkpt lat="41.4867689" lon="13.2061452"><ele>31.71428571428571</ele><time>2026-03-22T09:43:28.036Z</time></trkpt><trkpt lat="41.4867412" lon="13.2060662"><ele>31.57142857142857</ele><time>2026-03-22T09:43:29.041Z</time></trkpt><trkpt lat="41.4867153" lon="13.2059815"><ele>31.42857142857143</ele><time>2026-03-22T09:43:30.041Z</time></trkpt><trkpt lat="41.4866946" lon="13.2058941"><ele>31.28571428571429</ele><time>2026-03-22T09:43:31.04Z</time></trkpt><trkpt lat="41.4866767" lon="13.2058091"><ele>31.142857142857146</ele><time>2026-03-22T09:43:32.06Z</time></trkpt><trkpt lat="41.4866461" lon="13.2056671"><ele>31.0</ele><time>2026-03-22T09:43:34.037Z</time></trkpt><trkpt lat="41.4866584" lon="13.2055148"><ele>31.000000000000004</ele><time>2026-03-22T09:43:36.04Z</time></trkpt><trkpt lat="41.4866793" lon="13.2054281"><ele>31.0</ele><time>2026-03-22T09:43:37.037Z</time></trkpt><trkpt lat="41.4867095" lon="13.2053284"><ele>31.0</ele><time>2026-03-22T09:43:38.036Z</time></trkpt><trkpt lat="41.4867459" lon="13.20524"><ele>31.0</ele><time>2026-03-22T09:43:39.041Z</time></trkpt><trkpt lat="41.4867777" lon="13.2051601"><ele>31.000000000000004</ele><time>2026-03-22T09:43:40.035Z</time></trkpt><trkpt lat="41.4867797" lon="13.2050658"><ele>31.0</ele><time>2026-03-22T09:43:42.04Z</time></trkpt><trkpt lat="41.4867344" lon="13.2049665"><ele>31.000000000000004</ele><time>2026-03-22T09:43:45.037Z</time></trkpt><trkpt lat="41.4866982" lon="13.204888"><ele>31.0</ele><time>2026-03-22T09:43:49.039Z</time></trkpt><trkpt lat="41.4867437" lon="13.204971"><ele>31.0</ele><time>2026-03-22T09:44:21.044Z</time></trkpt><trkpt lat="41.4867678" lon="13.2050649"><ele>31.0</ele><time>2026-03-22T09:44:25.044Z</time></trkpt><trkpt lat="41.4867047" lon="13.2049499"><ele>31.000000000000004</ele><time>2026-03-22T09:44:28.039Z</time></trkpt><trkpt lat="41.4866721" lon="13.2048753"><ele>31.0</ele><time>2026-03-22T09:44:29.058Z</time></trkpt><trkpt lat="41.4866371" lon="13.2047971"><ele>31.142857142857146</ele><time>2026-03-22T09:44:30.042Z</time></trkpt><trkpt lat="41.4866074" lon="13.2047063"><ele>31.28571428571429</ele><time>2026-03-22T09:44:31.042Z</time></trkpt><trkpt lat="41.486587" lon="13.204623"><ele>31.42857142857143</ele><time>2026-03-22T09:44:32.044Z</time></trkpt><trkpt lat="41.4865757" lon="13.2045347"><ele>31.57142857142857</ele><time>2026-03-22T09:44:33.036Z</time></trkpt><trkpt lat="41.4865721" lon="13.2044365"><ele>31.71428571428571</ele><time>2026-03-22T09:44:34.039Z</time></trkpt><trkpt lat="41.4865718" lon="13.2043377"><ele>31.857142857142854</ele><time>2026-03-22T09:44:35.056Z</time></trkpt><trkpt lat="41.4865684" lon="13.2042372"><ele>32.0</ele><time>2026-03-22T09:44:36.041Z</time></trkpt><trkpt lat="41.4865623" lon="13.2041377"><ele>31.999999999999996</ele><time>2026-03-22T09:44:37.037Z</time></trkpt><trkpt lat="41.486545" lon="13.2040288"><ele>32.0</ele><time>2026-03-22T09:44:38.038Z</time></trkpt><trkpt lat="41.4865141" lon="13.2039184"><ele>32.0</ele><time>2026-03-22T09:44:39.043Z</time></trkpt><trkpt lat="41.4864708" lon="13.203822"><ele>32.0</ele><time>2026-03-22T09:44:40.038Z</time></trkpt><trkpt lat="41.4864114" lon="13.2037382"><ele>31.999999999999996</ele><time>2026-03-22T09:44:41.043Z</time></trkpt><trkpt lat="41.4863359" lon="13.2036756"><ele>32.0</ele><time>2026-03-22T09:44:42.044Z</time></trkpt><trkpt lat="41.4862449" lon="13.2036284"><ele>31.499999999999996</ele><time>2026-03-22T09:44:43.046Z</time></trkpt><trkpt lat="41.4861491" lon="13.203595"><ele>31.0</ele><time>2026-03-22T09:44:44.038Z</time></trkpt><trkpt lat="41.4860642" lon="13.2035658"><ele>30.5</ele><time>2026-03-22T09:44:45.038Z</time></trkpt><trkpt lat="41.4859921" lon="13.2035266"><ele>30.0</ele><time>2026-03-22T09:44:46.038Z</time></trkpt><trkpt lat="41.4859281" lon="13.2034902"><ele>29.499999999999996</ele><time>2026-03-22T09:44:47.037Z</time></trkpt><trkpt lat="41.4858945" lon="13.2034095"><ele>29.0</ele><time>2026-03-22T09:44:48.058Z</time></trkpt><trkpt lat="41.4858796" lon="13.2033083"><ele>29.0</ele><time>2026-03-22T09:44:49.039Z</time></trkpt><trkpt lat="41.4858778" lon="13.2031875"><ele>29.0</ele><time>2026-03-22T09:44:50.036Z</time></trkpt><trkpt lat="41.4858753" lon="13.2030559"><ele>29.0</ele><time>2026-03-22T09:44:51.036Z</time></trkpt><trkpt lat="41.4858681" lon="13.2029184"><ele>29.0</ele><time>2026-03-22T09:44:52.037Z</time></trkpt><trkpt lat="41.4858499" lon="13.2027778"><ele>29.0</ele><time>2026-03-22T09:44:53.042Z</time></trkpt><trkpt lat="41.4858257" lon="13.2026346"><ele>28.75</ele><time>2026-03-22T09:44:54.04Z</time></trkpt><trkpt lat="41.4857923" lon="13.2024898"><ele>28.5</ele><time>2026-03-22T09:44:55.037Z</time></trkpt><trkpt lat="41.4857438" lon="13.202344"><ele>28.25</ele><time>2026-03-22T09:44:56.055Z</time></trkpt><trkpt lat="41.4856875" lon="13.2021979"><ele>28.0</ele><time>2026-03-22T09:44:57.036Z</time></trkpt><trkpt lat="41.4856161" lon="13.2020552"><ele>27.75</ele><time>2026-03-22T09:44:58.039Z</time></trkpt><trkpt lat="41.485526" lon="13.2019278"><ele>27.5</ele><time>2026-03-22T09:44:59.039Z</time></trkpt><trkpt lat="41.4854258" lon="13.2018158"><ele>27.25</ele><time>2026-03-22T09:45:00.039Z</time></trkpt><trkpt lat="41.4853219" lon="13.2017162"><ele>27.0</ele><time>2026-03-22T09:45:01.04Z</time></trkpt><trkpt lat="41.4852092" lon="13.2016208"><ele>27.0</ele><time>2026-03-22T09:45:02.04Z</time></trkpt><trkpt lat="41.4850947" lon="13.2015349"><ele>27.0</ele><time>2026-03-22T09:45:03.047Z</time></trkpt><trkpt lat="41.4849825" lon="13.2014556"><ele>27.0</ele><time>2026-03-22T09:45:04.035Z</time></trkpt><trkpt lat="41.4848789" lon="13.201373"><ele>27.0</ele><time>2026-03-22T09:45:05.065Z</time></trkpt><trkpt lat="41.4847854" lon="13.2012787"><ele>27.0</ele><time>2026-03-22T09:45:06.038Z</time></trkpt><trkpt lat="41.4846945" lon="13.2011802"><ele>27.000000000000004</ele><time>2026-03-22T09:45:07.037Z</time></trkpt><trkpt lat="41.484613" lon="13.2010874"><ele>27.000000000000004</ele><time>2026-03-22T09:45:08.04Z</time></trkpt><trkpt lat="41.4845412" lon="13.2009987"><ele>27.0</ele><time>2026-03-22T09:45:09.035Z</time></trkpt><trkpt lat="41.4844825" lon="13.2009076"><ele>27.0</ele><time>2026-03-22T09:45:10.055Z</time></trkpt><trkpt lat="41.4844407" lon="13.2008121"><ele>27.333333333333332</ele><time>2026-03-22T09:45:11.044Z</time></trkpt><trkpt lat="41.4844059" lon="13.2007235"><ele>27.666666666666664</ele><time>2026-03-22T09:45:12.045Z</time></trkpt><trkpt lat="41.4843749" lon="13.2006458"><ele>28.0</ele><time>2026-03-22T09:45:13.04Z</time></trkpt><trkpt lat="41.4843097" lon="13.2005072"><ele>28.333333333333332</ele><time>2026-03-22T09:45:15.034Z</time></trkpt><trkpt lat="41.4842645" lon="13.2004277"><ele>28.666666666666664</ele><time>2026-03-22T09:45:16.048Z</time></trkpt><trkpt lat="41.4841951" lon="13.2003219"><ele>29.0</ele><time>2026-03-22T09:45:18.039Z</time></trkpt><trkpt lat="41.4841186" lon="13.2002806"><ele>28.999999999999996</ele><time>2026-03-22T09:45:21.063Z</time></trkpt><trkpt lat="41.4840651" lon="13.2003448"><ele>29.0</ele><time>2026-03-22T09:45:23.036Z</time></trkpt><trkpt lat="41.4840394" lon="13.2004956"><ele>29.0</ele><time>2026-03-22T09:45:25.037Z</time></trkpt><trkpt lat="41.4840295" lon="13.2005868"><ele>29.0</ele><time>2026-03-22T09:45:26.058Z</time></trkpt><trkpt lat="41.4840152" lon="13.2006866"><ele>28.999999999999996</ele><time>2026-03-22T09:45:27.04Z</time></trkpt><trkpt lat="41.4839975" lon="13.2007988"><ele>29.0</ele><time>2026-03-22T09:45:28.038Z</time></trkpt><trkpt lat="41.4839762" lon="13.2009214"><ele>28.999999999999996</ele><time>2026-03-22T09:45:29.042Z</time></trkpt><trkpt lat="41.4839538" lon="13.2010466"><ele>29.0</ele><time>2026-03-22T09:45:30.039Z</time></trkpt><trkpt lat="41.4839326" lon="13.2011637"><ele>29.0</ele><time>2026-03-22T09:45:31.067Z</time></trkpt><trkpt lat="41.4839144" lon="13.2012679"><ele>29.0</ele><time>2026-03-22T09:45:32.04Z</time></trkpt><trkpt lat="41.4838995" lon="13.2013628"><ele>28.999999999999996</ele><time>2026-03-22T09:45:33.037Z</time></trkpt><trkpt lat="41.4838757" lon="13.2015059"><ele>29.0</ele><time>2026-03-22T09:45:35.035Z</time></trkpt><trkpt lat="41.4838302" lon="13.2015656"><ele>28.833333333333332</ele><time>2026-03-22T09:45:37.04Z</time></trkpt><trkpt lat="41.483742" lon="13.2014624"><ele>28.666666666666664</ele><time>2026-03-22T09:45:40.041Z</time></trkpt><trkpt lat="41.4836983" lon="13.201389"><ele>28.5</ele><time>2026-03-22T09:45:41.039Z</time></trkpt><trkpt lat="41.4836371" lon="13.2013217"><ele>28.333333333333336</ele><time>2026-03-22T09:45:42.043Z</time></trkpt><trkpt lat="41.4835586" lon="13.2012631"><ele>28.166666666666668</ele><time>2026-03-22T09:45:43.04Z</time></trkpt><trkpt lat="41.483475" lon="13.2012142"><ele>28.0</ele><time>2026-03-22T09:45:44.038Z</time></trkpt><trkpt lat="41.4833809" lon="13.2011607"><ele>28.0</ele><time>2026-03-22T09:45:45.044Z</time></trkpt><trkpt lat="41.4832799" lon="13.2011027"><ele>28.0</ele><time>2026-03-22T09:45:46.038Z</time></trkpt><trkpt lat="41.4831743" lon="13.201041"><ele>28.0</ele><time>2026-03-22T09:45:47.055Z</time></trkpt><trkpt lat="41.483069" lon="13.2009803"><ele>28.0</ele><time>2026-03-22T09:45:48.041Z</time></trkpt><trkpt lat="41.4829682" lon="13.2009228"><ele>28.0</ele><time>2026-03-22T09:45:49.039Z</time></trkpt><trkpt lat="41.4828632" lon="13.2008644"><ele>28.0</ele><time>2026-03-22T09:45:50.039Z</time></trkpt><trkpt lat="41.4827525" lon="13.2008091"><ele>28.0</ele><time>2026-03-22T09:45:51.039Z</time></trkpt><trkpt lat="41.482636" lon="13.2007478"><ele>28.0</ele><time>2026-03-22T09:45:52.042Z</time></trkpt><trkpt lat="41.4825142" lon="13.2006836"><ele>28.0</ele><time>2026-03-22T09:45:53.038Z</time></trkpt><trkpt lat="41.4823886" lon="13.2006164"><ele>28.0</ele><time>2026-03-22T09:45:54.052Z</time></trkpt><trkpt lat="41.4822685" lon="13.2005546"><ele>28.0</ele><time>2026-03-22T09:45:55.048Z</time></trkpt><trkpt lat="41.4821589" lon="13.200501"><ele>28.0</ele><time>2026-03-22T09:45:56.035Z</time></trkpt><trkpt lat="41.4820526" lon="13.2004476"><ele>28.2</ele><time>2026-03-22T09:45:57.037Z</time></trkpt><trkpt lat="41.4819503" lon="13.2003887"><ele>28.4</ele><time>2026-03-22T09:45:58.045Z</time></trkpt><trkpt lat="41.4818488" lon="13.2003168"><ele>28.599999999999998</ele><time>2026-03-22T09:45:59.037Z</time></trkpt><trkpt lat="41.4817604" lon="13.2002361"><ele>28.799999999999997</ele><time>2026-03-22T09:46:00.04Z</time></trkpt><trkpt lat="41.4816833" lon="13.2001521"><ele>29.0</ele><time>2026-03-22T09:46:01.039Z</time></trkpt><trkpt lat="41.4816099" lon="13.2000685"><ele>29.000000000000004</ele><time>2026-03-22T09:46:02.042Z</time></trkpt><trkpt lat="41.4815518" lon="13.1999959"><ele>29.0</ele><time>2026-03-22T09:46:03.041Z</time></trkpt><trkpt lat="41.4815123" lon="13.1999264"><ele>29.000000000000004</ele><time>2026-03-22T09:46:04.065Z</time></trkpt><trkpt lat="41.4814764" lon="13.1998571"><ele>29.000000000000004</ele><time>2026-03-22T09:46:05.042Z</time></trkpt><trkpt lat="41.4814344" lon="13.1997888"><ele>29.0</ele><time>2026-03-22T09:46:06.04Z</time></trkpt><trkpt lat="41.4813866" lon="13.1997085"><ele>29.000000000000004</ele><time>2026-03-22T09:46:07.034Z</time></trkpt><trkpt lat="41.4813362" lon="13.1996078"><ele>29.000000000000004</ele><time>2026-03-22T09:46:08.038Z</time></trkpt><trkpt lat="41.4812904" lon="13.1995037"><ele>28.833333333333332</ele><time>2026-03-22T09:46:09.043Z</time></trkpt><trkpt lat="41.4812469" lon="13.1993999"><ele>28.666666666666664</ele><time>2026-03-22T09:46:10.043Z</time></trkpt><trkpt lat="41.4812048" lon="13.1992982"><ele>28.5</ele><time>2026-03-22T09:46:11.065Z</time></trkpt><trkpt lat="41.4811635" lon="13.1991979"><ele>28.333333333333336</ele><time>2026-03-22T09:46:12.043Z</time></trkpt><trkpt lat="41.4811118" lon="13.1991021"><ele>28.166666666666668</ele><time>2026-03-22T09:46:13.044Z</time></trkpt><trkpt lat="41.4810617" lon="13.1990053"><ele>28.0</ele><time>2026-03-22T09:46:14.039Z</time></trkpt><trkpt lat="41.4810205" lon="13.1988974"><ele>28.0</ele><time>2026-03-22T09:46:15.046Z</time></trkpt><trkpt lat="41.4809983" lon="13.198786"><ele>27.999999999999996</ele><time>2026-03-22T09:46:16.046Z</time></trkpt><trkpt lat="41.4809776" lon="13.1986749"><ele>27.999999999999996</ele><time>2026-03-22T09:46:17.047Z</time></trkpt><trkpt lat="41.4809427" lon="13.1985504"><ele>28.0</ele><time>2026-03-22T09:46:18.043Z</time></trkpt><trkpt lat="41.4808836" lon="13.1984137"><ele>28.0</ele><time>2026-03-22T09:46:19.045Z</time></trkpt><trkpt lat="41.4808167" lon="13.1982817"><ele>27.5</ele><time>2026-03-22T09:46:20.047Z</time></trkpt><trkpt lat="41.4807381" lon="13.1981395"><ele>27.0</ele><time>2026-03-22T09:46:21.044Z</time></trkpt><trkpt lat="41.4806534" lon="13.1980084"><ele>26.5</ele><time>2026-03-22T09:46:22.053Z</time></trkpt><trkpt lat="41.4805581" lon="13.1978902"><ele>26.0</ele><time>2026-03-22T09:46:23.045Z</time></trkpt><trkpt lat="41.4804554" lon="13.1977931"><ele>26.0</ele><time>2026-03-22T09:46:24.048Z</time></trkpt><trkpt lat="41.480334" lon="13.1977166"><ele>26.0</ele><time>2026-03-22T09:46:25.042Z</time></trkpt><trkpt lat="41.4802126" lon="13.1976398"><ele>26.0</ele><time>2026-03-22T09:46:26.042Z</time></trkpt><trkpt lat="41.480084" lon="13.197593"><ele>26.0</ele><time>2026-03-22T09:46:27.042Z</time></trkpt><trkpt lat="41.4799516" lon="13.1975695"><ele>26.0</ele><time>2026-03-22T09:46:28.049Z</time></trkpt><trkpt lat="41.4798208" lon="13.1975402"><ele>26.0</ele><time>2026-03-22T09:46:29.043Z</time></trkpt><trkpt lat="41.4796915" lon="13.1975125"><ele>26.0</ele><time>2026-03-22T09:46:30.05Z</time></trkpt><trkpt lat="41.4795696" lon="13.1974605"><ele>26.0</ele><time>2026-03-22T09:46:31.044Z</time></trkpt><trkpt lat="41.4794498" lon="13.1973895"><ele>26.25</ele><time>2026-03-22T09:46:32.041Z</time></trkpt><trkpt lat="41.479328" lon="13.1973151"><ele>26.5</ele><time>2026-03-22T09:46:33.045Z</time></trkpt><trkpt lat="41.4792172" lon="13.1972194"><ele>26.75</ele><time>2026-03-22T09:46:34.045Z</time></trkpt><trkpt lat="41.4791138" lon="13.1971037"><ele>27.0</ele><time>2026-03-22T09:46:35.046Z</time></trkpt><trkpt lat="41.4790041" lon="13.1970042"><ele>27.0</ele><time>2026-03-22T09:46:36.052Z</time></trkpt><trkpt lat="41.4789262" lon="13.1968829"><ele>27.0</ele><time>2026-03-22T09:46:37.044Z</time></trkpt><trkpt lat="41.4788586" lon="13.1967575"><ele>27.0</ele><time>2026-03-22T09:46:38.057Z</time></trkpt><trkpt lat="41.4787954" lon="13.196618"><ele>27.0</ele><time>2026-03-22T09:46:39.043Z</time></trkpt><trkpt lat="41.4787332" lon="13.1964761"><ele>27.0</ele><time>2026-03-22T09:46:40.051Z</time></trkpt><trkpt lat="41.4786687" lon="13.1963324"><ele>27.0</ele><time>2026-03-22T09:46:41.047Z</time></trkpt><trkpt lat="41.478603" lon="13.196189"><ele>27.0</ele><time>2026-03-22T09:46:42.045Z</time></trkpt><trkpt lat="41.4785513" lon="13.1960303"><ele>27.0</ele><time>2026-03-22T09:46:43.047Z</time></trkpt><trkpt lat="41.4785008" lon="13.19587"><ele>27.0</ele><time>2026-03-22T09:46:44.051Z</time></trkpt><trkpt lat="41.4784437" lon="13.1957142"><ele>27.000000000000004</ele><time>2026-03-22T09:46:45.046Z</time></trkpt><trkpt lat="41.4783841" lon="13.195584"><ele>27.000000000000004</ele><time>2026-03-22T09:46:46.059Z</time></trkpt><trkpt lat="41.4783264" lon="13.1954781"><ele>27.0</ele><time>2026-03-22T09:46:47.055Z</time></trkpt><trkpt lat="41.4782743" lon="13.1953787"><ele>27.0</ele><time>2026-03-22T09:46:48.055Z</time></trkpt><trkpt lat="41.478227" lon="13.1952864"><ele>27.0</ele><time>2026-03-22T09:46:49.044Z</time></trkpt><trkpt lat="41.4781849" lon="13.1951916"><ele>27.000000000000004</ele><time>2026-03-22T09:46:50.05Z</time></trkpt><trkpt lat="41.4781336" lon="13.1951043"><ele>27.000000000000004</ele><time>2026-03-22T09:46:51.043Z</time></trkpt><trkpt lat="41.478061" lon="13.1950132"><ele>27.0</ele><time>2026-03-22T09:46:52.046Z</time></trkpt><trkpt lat="41.477978" lon="13.1949217"><ele>27.0</ele><time>2026-03-22T09:46:53.057Z</time></trkpt><trkpt lat="41.477893" lon="13.1948279"><ele>27.0</ele><time>2026-03-22T09:46:54.041Z</time></trkpt><trkpt lat="41.4777855" lon="13.194742"><ele>27.0</ele><time>2026-03-22T09:46:55.052Z</time></trkpt><trkpt lat="41.4776743" lon="13.1946691"><ele>27.0</ele><time>2026-03-22T09:46:56.045Z</time></trkpt><trkpt lat="41.4775558" lon="13.1946021"><ele>27.0</ele><time>2026-03-22T09:46:57.05Z</time></trkpt><trkpt lat="41.4774286" lon="13.1945469"><ele>27.0</ele><time>2026-03-22T09:46:58.043Z</time></trkpt><trkpt lat="41.4772961" lon="13.1945085"><ele>27.0</ele><time>2026-03-22T09:46:59.045Z</time></trkpt><trkpt lat="41.4771607" lon="13.1944921"><ele>27.0</ele><time>2026-03-22T09:47:00.045Z</time></trkpt><trkpt lat="41.477022" lon="13.1944882"><ele>27.0</ele><time>2026-03-22T09:47:01.046Z</time></trkpt><trkpt lat="41.4768816" lon="13.194493"><ele>27.5</ele><time>2026-03-22T09:47:02.05Z</time></trkpt><trkpt lat="41.4767399" lon="13.1945089"><ele>28.0</ele><time>2026-03-22T09:47:03.049Z</time></trkpt><trkpt lat="41.4765978" lon="13.1945379"><ele>28.5</ele><time>2026-03-22T09:47:04.047Z</time></trkpt><trkpt lat="41.4764558" lon="13.1945807"><ele>29.0</ele><time>2026-03-22T09:47:05.057Z</time></trkpt><trkpt lat="41.4763124" lon="13.1946393"><ele>28.75</ele><time>2026-03-22T09:47:06.044Z</time></trkpt><trkpt lat="41.4761778" lon="13.1947055"><ele>28.5</ele><time>2026-03-22T09:47:07.042Z</time></trkpt><trkpt lat="41.4760563" lon="13.1947667"><ele>28.25</ele><time>2026-03-22T09:47:08.045Z</time></trkpt><trkpt lat="41.4759446" lon="13.1948182"><ele>28.0</ele><time>2026-03-22T09:47:09.05Z</time></trkpt><trkpt lat="41.4758369" lon="13.1948644"><ele>27.599999999999998</ele><time>2026-03-22T09:47:10.048Z</time></trkpt><trkpt lat="41.4757285" lon="13.1949088"><ele>27.199999999999996</ele><time>2026-03-22T09:47:11.06Z</time></trkpt><trkpt lat="41.4756219" lon="13.1949563"><ele>26.8</ele><time>2026-03-22T09:47:12.046Z</time></trkpt><trkpt lat="41.4755238" lon="13.1950052"><ele>26.4</ele><time>2026-03-22T09:47:13.055Z</time></trkpt><trkpt lat="41.47543" lon="13.1950617"><ele>26.0</ele><time>2026-03-22T09:47:14.047Z</time></trkpt><trkpt lat="41.4753431" lon="13.1951345"><ele>26.0</ele><time>2026-03-22T09:47:15.054Z</time></trkpt><trkpt lat="41.4752592" lon="13.1952055"><ele>26.0</ele><time>2026-03-22T09:47:16.048Z</time></trkpt><trkpt lat="41.4751887" lon="13.1952937"><ele>26.0</ele><time>2026-03-22T09:47:17.053Z</time></trkpt><trkpt lat="41.4751147" lon="13.1953866"><ele>26.0</ele><time>2026-03-22T09:47:18.045Z</time></trkpt><trkpt lat="41.4750338" lon="13.1954855"><ele>26.0</ele><time>2026-03-22T09:47:19.049Z</time></trkpt><trkpt lat="41.4749476" lon="13.1955849"><ele>26.0</ele><time>2026-03-22T09:47:20.059Z</time></trkpt><trkpt lat="41.4748603" lon="13.1956821"><ele>26.0</ele><time>2026-03-22T09:47:21.049Z</time></trkpt><trkpt lat="41.4747701" lon="13.1957827"><ele>26.0</ele><time>2026-03-22T09:47:22.051Z</time></trkpt><trkpt lat="41.4746797" lon="13.1958862"><ele>26.0</ele><time>2026-03-22T09:47:23.062Z</time></trkpt><trkpt lat="41.4745889" lon="13.1959924"><ele>25.75</ele><time>2026-03-22T09:47:24.045Z</time></trkpt><trkpt lat="41.4744982" lon="13.1961011"><ele>25.5</ele><time>2026-03-22T09:47:25.051Z</time></trkpt><trkpt lat="41.4744107" lon="13.1962078"><ele>25.25</ele><time>2026-03-22T09:47:26.044Z</time></trkpt><trkpt lat="41.4743213" lon="13.1963142"><ele>25.0</ele><time>2026-03-22T09:47:27.05Z</time></trkpt><trkpt lat="41.4742201" lon="13.1964028"><ele>25.0</ele><time>2026-03-22T09:47:28.049Z</time></trkpt><trkpt lat="41.4741292" lon="13.1964874"><ele>25.0</ele><time>2026-03-22T09:47:29.052Z</time></trkpt><trkpt lat="41.4740358" lon="13.1965748"><ele>25.0</ele><time>2026-03-22T09:47:30.053Z</time></trkpt><trkpt lat="41.4739348" lon="13.1966647"><ele>25.0</ele><time>2026-03-22T09:47:31.052Z</time></trkpt><trkpt lat="41.4738303" lon="13.1967419"><ele>25.2</ele><time>2026-03-22T09:47:32.046Z</time></trkpt><trkpt lat="41.4737386" lon="13.1968053"><ele>25.4</ele><time>2026-03-22T09:47:33.053Z</time></trkpt><trkpt lat="41.4736532" lon="13.196847"><ele>25.6</ele><time>2026-03-22T09:47:34.041Z</time></trkpt><trkpt lat="41.4735657" lon="13.1968849"><ele>25.8</ele><time>2026-03-22T09:47:35.06Z</time></trkpt><trkpt lat="41.4734822" lon="13.1969257"><ele>26.0</ele><time>2026-03-22T09:47:36.054Z</time></trkpt><trkpt lat="41.4733846" lon="13.1969508"><ele>26.0</ele><time>2026-03-22T09:47:37.048Z</time></trkpt><trkpt lat="41.4732753" lon="13.1969671"><ele>26.0</ele><time>2026-03-22T09:47:38.043Z</time></trkpt><trkpt lat="41.4731639" lon="13.1969838"><ele>26.0</ele><time>2026-03-22T09:47:39.051Z</time></trkpt><trkpt lat="41.4730518" lon="13.1970023"><ele>26.0</ele><time>2026-03-22T09:47:40.053Z</time></trkpt><trkpt lat="41.4729371" lon="13.1970137"><ele>26.0</ele><time>2026-03-22T09:47:41.051Z</time></trkpt><trkpt lat="41.4728226" lon="13.1970263"><ele>26.0</ele><time>2026-03-22T09:47:42.061Z</time></trkpt><trkpt lat="41.4727049" lon="13.1970413"><ele>26.0</ele><time>2026-03-22T09:47:43.053Z</time></trkpt><trkpt lat="41.4725871" lon="13.1970544"><ele>26.0</ele><time>2026-03-22T09:47:44.048Z</time></trkpt><trkpt lat="41.4724648" lon="13.1970695"><ele>26.0</ele><time>2026-03-22T09:47:45.056Z</time></trkpt><trkpt lat="41.4723444" lon="13.1970814"><ele>26.0</ele><time>2026-03-22T09:47:46.045Z</time></trkpt><trkpt lat="41.4722328" lon="13.1970919"><ele>26.0</ele><time>2026-03-22T09:47:47.061Z</time></trkpt><trkpt lat="41.4721286" lon="13.1971008"><ele>26.0</ele><time>2026-03-22T09:47:48.049Z</time></trkpt><trkpt lat="41.4720173" lon="13.1971104"><ele>26.0</ele><time>2026-03-22T09:47:49.051Z</time></trkpt><trkpt lat="41.4718975" lon="13.1971209"><ele>25.8</ele><time>2026-03-22T09:47:50.051Z</time></trkpt><trkpt lat="41.4717835" lon="13.1971288"><ele>25.6</ele><time>2026-03-22T09:47:51.044Z</time></trkpt><trkpt lat="41.4716739" lon="13.1971355"><ele>25.4</ele><time>2026-03-22T09:47:52.039Z</time></trkpt><trkpt lat="41.47157" lon="13.197144"><ele>25.2</ele><time>2026-03-22T09:47:53.051Z</time></trkpt><trkpt lat="41.471478" lon="13.197154"><ele>25.0</ele><time>2026-03-22T09:47:54.047Z</time></trkpt><trkpt lat="41.4713916" lon="13.1971625"><ele>25.0</ele><time>2026-03-22T09:47:55.05Z</time></trkpt><trkpt lat="41.471308" lon="13.1971636"><ele>25.0</ele><time>2026-03-22T09:47:56.046Z</time></trkpt><trkpt lat="41.4712308" lon="13.197161"><ele>25.0</ele><time>2026-03-22T09:47:57.049Z</time></trkpt><trkpt lat="41.4711612" lon="13.1971573"><ele>25.0</ele><time>2026-03-22T09:47:58.049Z</time></trkpt><trkpt lat="41.4710388" lon="13.1971598"><ele>25.0</ele><time>2026-03-22T09:48:00.054Z</time></trkpt><trkpt lat="41.4709292" lon="13.1971786"><ele>25.000000000000004</ele><time>2026-03-22T09:48:02.05Z</time></trkpt><trkpt lat="41.470858" lon="13.1971853"><ele>25.0</ele><time>2026-03-22T09:48:04.047Z</time></trkpt><trkpt lat="41.4708013" lon="13.1971247"><ele>25.0</ele><time>2026-03-22T09:48:08.045Z</time></trkpt><trkpt lat="41.4708035" lon="13.1970191"><ele>25.0</ele><time>2026-03-22T09:48:44.043Z</time></trkpt><trkpt lat="41.4708005" lon="13.1969277"><ele>25.000000000000004</ele><time>2026-03-22T09:48:45.047Z</time></trkpt><trkpt lat="41.4707947" lon="13.196824"><ele>25.0</ele><time>2026-03-22T09:48:46.055Z</time></trkpt><trkpt lat="41.4707891" lon="13.1967091"><ele>25.000000000000004</ele><time>2026-03-22T09:48:47.051Z</time></trkpt><trkpt lat="41.4707839" lon="13.1966112"><ele>25.0</ele><time>2026-03-22T09:48:48.046Z</time></trkpt><trkpt lat="41.4707845" lon="13.1965263"><ele>25.0</ele><time>2026-03-22T09:48:49.048Z</time></trkpt><trkpt lat="41.4708462" lon="13.1964128"><ele>25.0</ele><time>2026-03-22T09:48:51.047Z</time></trkpt><trkpt lat="41.4709153" lon="13.1963817"><ele>25.000000000000004</ele><time>2026-03-22T09:48:52.059Z</time></trkpt><trkpt lat="41.4710029" lon="13.1963659"><ele>25.0</ele><time>2026-03-22T09:48:53.051Z</time></trkpt><trkpt lat="41.4710973" lon="13.196356"><ele>25.2</ele><time>2026-03-22T09:48:54.048Z</time></trkpt><trkpt lat="41.4711989" lon="13.1963443"><ele>25.4</ele><time>2026-03-22T09:48:55.045Z</time></trkpt><trkpt lat="41.4713033" lon="13.19633"><ele>25.6</ele><time>2026-03-22T09:48:56.047Z</time></trkpt><trkpt lat="41.4714151" lon="13.1963227"><ele>25.8</ele><time>2026-03-22T09:48:57.051Z</time></trkpt><trkpt lat="41.4715289" lon="13.1963153"><ele>26.0</ele><time>2026-03-22T09:48:58.048Z</time></trkpt><trkpt lat="41.4716479" lon="13.1963098"><ele>26.0</ele><time>2026-03-22T09:48:59.048Z</time></trkpt><trkpt lat="41.4717704" lon="13.1963074"><ele>26.0</ele><time>2026-03-22T09:49:00.046Z</time></trkpt><trkpt lat="41.4718923" lon="13.1962944"><ele>26.0</ele><time>2026-03-22T09:49:01.064Z</time></trkpt><trkpt lat="41.4720119" lon="13.1962775"><ele>26.0</ele><time>2026-03-22T09:49:02.055Z</time></trkpt><trkpt lat="41.4721259" lon="13.1962598"><ele>25.75</ele><time>2026-03-22T09:49:03.047Z</time></trkpt><trkpt lat="41.4722446" lon="13.1962485"><ele>25.5</ele><time>2026-03-22T09:49:04.049Z</time></trkpt><trkpt lat="41.4723634" lon="13.1962444"><ele>25.25</ele><time>2026-03-22T09:49:05.049Z</time></trkpt><trkpt lat="41.4724806" lon="13.1962395"><ele>25.0</ele><time>2026-03-22T09:49:06.062Z</time></trkpt><trkpt lat="41.4725968" lon="13.1962295"><ele>25.0</ele><time>2026-03-22T09:49:07.049Z</time></trkpt><trkpt lat="41.4727021" lon="13.1962159"><ele>25.0</ele><time>2026-03-22T09:49:08.046Z</time></trkpt><trkpt lat="41.4728049" lon="13.1962018"><ele>25.0</ele><time>2026-03-22T09:49:09.047Z</time></trkpt><trkpt lat="41.4729033" lon="13.1961873"><ele>25.0</ele><time>2026-03-22T09:49:10.049Z</time></trkpt><trkpt lat="41.4729855" lon="13.1961798"><ele>25.0</ele><time>2026-03-22T09:49:11.046Z</time></trkpt><trkpt lat="41.4730532" lon="13.1961733"><ele>25.2</ele><time>2026-03-22T09:49:12.061Z</time></trkpt><trkpt lat="41.4731582" lon="13.1961575"><ele>25.4</ele><time>2026-03-22T09:49:14.048Z</time></trkpt><trkpt lat="41.4732251" lon="13.1961473"><ele>25.6</ele><time>2026-03-22T09:49:16.051Z</time></trkpt><trkpt lat="41.4733075" lon="13.1961274"><ele>25.8</ele><time>2026-03-22T09:49:19.051Z</time></trkpt><trkpt lat="41.473385" lon="13.1961005"><ele>26.0</ele><time>2026-03-22T09:49:21.046Z</time></trkpt><trkpt lat="41.4734988" lon="13.1960473"><ele>25.999999999999996</ele><time>2026-03-22T09:49:23.058Z</time></trkpt><trkpt lat="41.4735694" lon="13.1960118"><ele>26.0</ele><time>2026-03-22T09:49:24.052Z</time></trkpt><trkpt lat="41.4736402" lon="13.195967"><ele>26.0</ele><time>2026-03-22T09:49:25.049Z</time></trkpt><trkpt lat="41.4737207" lon="13.1959106"><ele>26.0</ele><time>2026-03-22T09:49:26.049Z</time></trkpt><trkpt lat="41.4737983" lon="13.1958469"><ele>25.999999999999996</ele><time>2026-03-22T09:49:27.057Z</time></trkpt><trkpt lat="41.4738774" lon="13.1957681"><ele>26.0</ele><time>2026-03-22T09:49:28.065Z</time></trkpt><trkpt lat="41.4739668" lon="13.1956749"><ele>25.75</ele><time>2026-03-22T09:49:29.044Z</time></trkpt><trkpt lat="41.4740581" lon="13.1955785"><ele>25.5</ele><time>2026-03-22T09:49:30.044Z</time></trkpt><trkpt lat="41.4741543" lon="13.1954794"><ele>25.25</ele><time>2026-03-22T09:49:31.046Z</time></trkpt><trkpt lat="41.4742477" lon="13.1953756"><ele>25.0</ele><time>2026-03-22T09:49:32.049Z</time></trkpt><trkpt lat="41.4743389" lon="13.1952633"><ele>25.0</ele><time>2026-03-22T09:49:33.058Z</time></trkpt><trkpt lat="41.4744303" lon="13.1951446"><ele>25.0</ele><time>2026-03-22T09:49:34.051Z</time></trkpt><trkpt lat="41.4745208" lon="13.195032"><ele>25.0</ele><time>2026-03-22T09:49:35.045Z</time></trkpt><trkpt lat="41.4746091" lon="13.1949201"><ele>25.0</ele><time>2026-03-22T09:49:36.042Z</time></trkpt><trkpt lat="41.474694" lon="13.194817"><ele>25.4</ele><time>2026-03-22T09:49:37.05Z</time></trkpt><trkpt lat="41.4747748" lon="13.1947287"><ele>25.8</ele><time>2026-03-22T09:49:38.069Z</time></trkpt><trkpt lat="41.4748647" lon="13.194636"><ele>26.200000000000003</ele><time>2026-03-22T09:49:39.05Z</time></trkpt><trkpt lat="41.4749449" lon="13.1945334"><ele>26.6</ele><time>2026-03-22T09:49:40.046Z</time></trkpt><trkpt lat="41.4750154" lon="13.1944187"><ele>27.0</ele><time>2026-03-22T09:49:41.049Z</time></trkpt><trkpt lat="41.4750837" lon="13.1943028"><ele>27.0</ele><time>2026-03-22T09:49:42.049Z</time></trkpt><trkpt lat="41.4751273" lon="13.1941704"><ele>27.000000000000004</ele><time>2026-03-22T09:49:43.061Z</time></trkpt><trkpt lat="41.47517" lon="13.194036"><ele>27.000000000000004</ele><time>2026-03-22T09:49:44.05Z</time></trkpt><trkpt lat="41.4752194" lon="13.1939003"><ele>27.0</ele><time>2026-03-22T09:49:45.054Z</time></trkpt><trkpt lat="41.4752629" lon="13.1937642"><ele>27.0</ele><time>2026-03-22T09:49:46.053Z</time></trkpt><trkpt lat="41.4753077" lon="13.1936255"><ele>27.0</ele><time>2026-03-22T09:49:47.042Z</time></trkpt><trkpt lat="41.4753546" lon="13.193486"><ele>27.0</ele><time>2026-03-22T09:49:48.058Z</time></trkpt><trkpt lat="41.4754026" lon="13.1933486"><ele>27.0</ele><time>2026-03-22T09:49:49.046Z</time></trkpt><trkpt lat="41.4754482" lon="13.1932133"><ele>27.0</ele><time>2026-03-22T09:49:50.075Z</time></trkpt><trkpt lat="41.475493" lon="13.1930732"><ele>27.200000000000003</ele><time>2026-03-22T09:49:51.049Z</time></trkpt><trkpt lat="41.4755336" lon="13.1929448"><ele>27.400000000000002</ele><time>2026-03-22T09:49:52.048Z</time></trkpt><trkpt lat="41.475572" lon="13.1928243"><ele>27.599999999999998</ele><time>2026-03-22T09:49:53.048Z</time></trkpt><trkpt lat="41.4756134" lon="13.1927093"><ele>27.799999999999997</ele><time>2026-03-22T09:49:54.059Z</time></trkpt><trkpt lat="41.4756568" lon="13.1925872"><ele>28.0</ele><time>2026-03-22T09:49:55.044Z</time></trkpt><trkpt lat="41.4756997" lon="13.1924583"><ele>27.833333333333336</ele><time>2026-03-22T09:49:56.057Z</time></trkpt><trkpt lat="41.4757419" lon="13.1923343"><ele>27.666666666666668</ele><time>2026-03-22T09:49:57.042Z</time></trkpt><trkpt lat="41.475783" lon="13.1922241"><ele>27.5</ele><time>2026-03-22T09:49:58.048Z</time></trkpt><trkpt lat="41.4758191" lon="13.1921211"><ele>27.333333333333336</ele><time>2026-03-22T09:49:59.042Z</time></trkpt><trkpt lat="41.4758521" lon="13.1920263"><ele>27.166666666666668</ele><time>2026-03-22T09:50:00.052Z</time></trkpt><trkpt lat="41.4758832" lon="13.1919383"><ele>27.0</ele><time>2026-03-22T09:50:01.043Z</time></trkpt><trkpt lat="41.4759279" lon="13.1918057"><ele>27.0</ele><time>2026-03-22T09:50:03.042Z</time></trkpt><trkpt lat="41.4759238" lon="13.191715"><ele>27.0</ele><time>2026-03-22T09:50:05.047Z</time></trkpt><trkpt lat="41.4758294" lon="13.1917049"><ele>27.0</ele><time>2026-03-22T09:50:08.056Z</time></trkpt><trkpt lat="41.4757684" lon="13.1917436"><ele>27.0</ele><time>2026-03-22T09:50:09.043Z</time></trkpt><trkpt lat="41.4756932" lon="13.1917929"><ele>27.0</ele><time>2026-03-22T09:50:10.044Z</time></trkpt><trkpt lat="41.4756185" lon="13.1918461"><ele>27.0</ele><time>2026-03-22T09:50:11.058Z</time></trkpt><trkpt lat="41.4755387" lon="13.1919072"><ele>27.0</ele><time>2026-03-22T09:50:12.043Z</time></trkpt><trkpt lat="41.4754561" lon="13.1919789"><ele>27.000000000000004</ele><time>2026-03-22T09:50:13.041Z</time></trkpt><trkpt lat="41.475363" lon="13.1920446"><ele>27.000000000000004</ele><time>2026-03-22T09:50:14.049Z</time></trkpt><trkpt lat="41.4752615" lon="13.1921069"><ele>27.0</ele><time>2026-03-22T09:50:15.043Z</time></trkpt><trkpt lat="41.4751574" lon="13.1921642"><ele>27.0</ele><time>2026-03-22T09:50:16.066Z</time></trkpt><trkpt lat="41.4750473" lon="13.192216"><ele>27.0</ele><time>2026-03-22T09:50:17.052Z</time></trkpt><trkpt lat="41.4749343" lon="13.19227"><ele>27.0</ele><time>2026-03-22T09:50:18.048Z</time></trkpt><trkpt lat="41.4748223" lon="13.1923219"><ele>27.0</ele><time>2026-03-22T09:50:19.051Z</time></trkpt><trkpt lat="41.4747099" lon="13.1923781"><ele>27.0</ele><time>2026-03-22T09:50:20.045Z</time></trkpt><trkpt lat="41.4745983" lon="13.1924317"><ele>27.0</ele><time>2026-03-22T09:50:21.047Z</time></trkpt><trkpt lat="41.4744812" lon="13.1924804"><ele>27.0</ele><time>2026-03-22T09:50:22.043Z</time></trkpt><trkpt lat="41.4743617" lon="13.1925179"><ele>27.0</ele><time>2026-03-22T09:50:23.057Z</time></trkpt><trkpt lat="41.4742388" lon="13.1925577"><ele>27.0</ele><time>2026-03-22T09:50:24.042Z</time></trkpt><trkpt lat="41.4740977" lon="13.1926215"><ele>27.0</ele><time>2026-03-22T09:50:25.05Z</time></trkpt><trkpt lat="41.4739593" lon="13.1926918"><ele>27.0</ele><time>2026-03-22T09:50:26.047Z</time></trkpt><trkpt lat="41.4738331" lon="13.192756"><ele>27.0</ele><time>2026-03-22T09:50:27.052Z</time></trkpt><trkpt lat="41.4737105" lon="13.1928284"><ele>27.0</ele><time>2026-03-22T09:50:28.043Z</time></trkpt><trkpt lat="41.4735959" lon="13.1929054"><ele>26.8</ele><time>2026-03-22T09:50:29.053Z</time></trkpt><trkpt lat="41.473494" lon="13.1929783"><ele>26.6</ele><time>2026-03-22T09:50:30.045Z</time></trkpt><trkpt lat="41.4733924" lon="13.1930479"><ele>26.400000000000002</ele><time>2026-03-22T09:50:31.05Z</time></trkpt><trkpt lat="41.4732933" lon="13.1930982"><ele>26.200000000000003</ele><time>2026-03-22T09:50:32.044Z</time></trkpt><trkpt lat="41.4731911" lon="13.1931253"><ele>26.0</ele><time>2026-03-22T09:50:33.043Z</time></trkpt><trkpt lat="41.4730819" lon="13.1931288"><ele>26.0</ele><time>2026-03-22T09:50:34.053Z</time></trkpt><trkpt lat="41.4729666" lon="13.1931215"><ele>26.0</ele><time>2026-03-22T09:50:35.051Z</time></trkpt><trkpt lat="41.4728489" lon="13.1931191"><ele>26.0</ele><time>2026-03-22T09:50:36.039Z</time></trkpt><trkpt lat="41.4727358" lon="13.1931196"><ele>26.0</ele><time>2026-03-22T09:50:37.054Z</time></trkpt><trkpt lat="41.4726215" lon="13.193121"><ele>25.8</ele><time>2026-03-22T09:50:38.048Z</time></trkpt><trkpt lat="41.4724978" lon="13.1931199"><ele>25.6</ele><time>2026-03-22T09:50:39.075Z</time></trkpt><trkpt lat="41.4723813" lon="13.1931118"><ele>25.4</ele><time>2026-03-22T09:50:40.048Z</time></trkpt><trkpt lat="41.4722765" lon="13.1930904"><ele>25.2</ele><time>2026-03-22T09:50:41.049Z</time></trkpt><trkpt lat="41.4721881" lon="13.1930527"><ele>25.0</ele><time>2026-03-22T09:50:42.044Z</time></trkpt><trkpt lat="41.4721096" lon="13.1930066"><ele>25.000000000000004</ele><time>2026-03-22T09:50:43.051Z</time></trkpt><trkpt lat="41.4720343" lon="13.192964"><ele>25.0</ele><time>2026-03-22T09:50:44.048Z</time></trkpt><trkpt lat="41.4719557" lon="13.1929217"><ele>25.0</ele><time>2026-03-22T09:50:45.05Z</time></trkpt><trkpt lat="41.4718779" lon="13.1928789"><ele>25.0</ele><time>2026-03-22T09:50:46.044Z</time></trkpt><trkpt lat="41.4718089" lon="13.1928221"><ele>25.000000000000004</ele><time>2026-03-22T09:50:47.047Z</time></trkpt><trkpt lat="41.4717413" lon="13.1927693"><ele>25.0</ele><time>2026-03-22T09:50:48.051Z</time></trkpt><trkpt lat="41.4716634" lon="13.1927246"><ele>25.000000000000004</ele><time>2026-03-22T09:50:49.051Z</time></trkpt><trkpt lat="41.4715793" lon="13.192682"><ele>25.0</ele><time>2026-03-22T09:50:50.052Z</time></trkpt><trkpt lat="41.4714969" lon="13.1926396"><ele>25.0</ele><time>2026-03-22T09:50:51.044Z</time></trkpt><trkpt lat="41.4714208" lon="13.1926013"><ele>25.0</ele><time>2026-03-22T09:50:52.058Z</time></trkpt><trkpt lat="41.4713502" lon="13.1925668"><ele>25.000000000000004</ele><time>2026-03-22T09:50:53.052Z</time></trkpt><trkpt lat="41.4712834" lon="13.1925328"><ele>25.0</ele><time>2026-03-22T09:50:54.045Z</time></trkpt><trkpt lat="41.4712217" lon="13.192502"><ele>25.0</ele><time>2026-03-22T09:50:55.047Z</time></trkpt><trkpt lat="41.4711028" lon="13.1924687"><ele>25.0</ele><time>2026-03-22T09:50:57.064Z</time></trkpt><trkpt lat="41.4709998" lon="13.1924493"><ele>25.0</ele><time>2026-03-22T09:50:59.048Z</time></trkpt><trkpt lat="41.4708929" lon="13.1924063"><ele>25.0</ele><time>2026-03-22T09:51:01.046Z</time></trkpt><trkpt lat="41.4708298" lon="13.1923841"><ele>25.0</ele><time>2026-03-22T09:51:02.043Z</time></trkpt><trkpt lat="41.4707647" lon="13.1923561"><ele>25.166666666666668</ele><time>2026-03-22T09:51:03.051Z</time></trkpt><trkpt lat="41.4707008" lon="13.1923187"><ele>25.333333333333336</ele><time>2026-03-22T09:51:04.045Z</time></trkpt><trkpt lat="41.4705888" lon="13.1922712"><ele>25.5</ele><time>2026-03-22T09:51:06.042Z</time></trkpt><trkpt lat="41.4705165" lon="13.1922717"><ele>25.666666666666664</ele><time>2026-03-22T09:51:07.054Z</time></trkpt><trkpt lat="41.4704264" lon="13.1922709"><ele>25.833333333333332</ele><time>2026-03-22T09:51:08.046Z</time></trkpt><trkpt lat="41.4703275" lon="13.1922636"><ele>26.0</ele><time>2026-03-22T09:51:09.045Z</time></trkpt><trkpt lat="41.4702223" lon="13.1922574"><ele>26.200000000000003</ele><time>2026-03-22T09:51:10.045Z</time></trkpt><trkpt lat="41.4701103" lon="13.1922535"><ele>26.400000000000002</ele><time>2026-03-22T09:51:11.042Z</time></trkpt><trkpt lat="41.4700027" lon="13.1922536"><ele>26.6</ele><time>2026-03-22T09:51:12.051Z</time></trkpt><trkpt lat="41.4698929" lon="13.1922543"><ele>26.8</ele><time>2026-03-22T09:51:13.045Z</time></trkpt><trkpt lat="41.4697757" lon="13.1922705"><ele>27.0</ele><time>2026-03-22T09:51:14.059Z</time></trkpt><trkpt lat="41.4696523" lon="13.1922965"><ele>27.200000000000003</ele><time>2026-03-22T09:51:15.057Z</time></trkpt><trkpt lat="41.4695327" lon="13.1923272"><ele>27.400000000000002</ele><time>2026-03-22T09:51:16.049Z</time></trkpt><trkpt lat="41.4694297" lon="13.1923625"><ele>27.599999999999998</ele><time>2026-03-22T09:51:17.052Z</time></trkpt><trkpt lat="41.4693406" lon="13.1924042"><ele>27.799999999999997</ele><time>2026-03-22T09:51:18.053Z</time></trkpt><trkpt lat="41.4692678" lon="13.1924558"><ele>28.0</ele><time>2026-03-22T09:51:19.046Z</time></trkpt><trkpt lat="41.4691959" lon="13.1925094"><ele>28.2</ele><time>2026-03-22T09:51:20.052Z</time></trkpt><trkpt lat="41.4691381" lon="13.1925972"><ele>28.4</ele><time>2026-03-22T09:51:21.048Z</time></trkpt><trkpt lat="41.4690768" lon="13.1927089"><ele>28.599999999999998</ele><time>2026-03-22T09:51:22.054Z</time></trkpt><trkpt lat="41.4690109" lon="13.1928201"><ele>28.799999999999997</ele><time>2026-03-22T09:51:23.048Z</time></trkpt><trkpt lat="41.4689348" lon="13.1929295"><ele>29.0</ele><time>2026-03-22T09:51:24.051Z</time></trkpt><trkpt lat="41.4688517" lon="13.1930316"><ele>29.75</ele><time>2026-03-22T09:51:25.053Z</time></trkpt><trkpt lat="41.4687597" lon="13.193132"><ele>30.5</ele><time>2026-03-22T09:51:26.05Z</time></trkpt><trkpt lat="41.4686598" lon="13.1932322"><ele>31.25</ele><time>2026-03-22T09:51:27.052Z</time></trkpt><trkpt lat="41.4685573" lon="13.1933303"><ele>32.0</ele><time>2026-03-22T09:51:28.054Z</time></trkpt><trkpt lat="41.4684523" lon="13.1934256"><ele>32.0</ele><time>2026-03-22T09:51:29.046Z</time></trkpt><trkpt lat="41.4683586" lon="13.1935104"><ele>32.0</ele><time>2026-03-22T09:51:30.073Z</time></trkpt><trkpt lat="41.4682776" lon="13.1935819"><ele>32.0</ele><time>2026-03-22T09:51:31.046Z</time></trkpt><trkpt lat="41.4682057" lon="13.1936405"><ele>32.0</ele><time>2026-03-22T09:51:32.046Z</time></trkpt><trkpt lat="41.4681439" lon="13.1936859"><ele>32.0</ele><time>2026-03-22T09:51:33.048Z</time></trkpt><trkpt lat="41.4680502" lon="13.1937175"><ele>31.999999999999996</ele><time>2026-03-22T09:51:35.04Z</time></trkpt><trkpt lat="41.4679719" lon="13.1936827"><ele>32.0</ele><time>2026-03-22T09:51:37.051Z</time></trkpt><trkpt lat="41.4679267" lon="13.1935919"><ele>32.0</ele><time>2026-03-22T09:51:39.047Z</time></trkpt><trkpt lat="41.4679457" lon="13.1935117"><ele>32.0</ele><time>2026-03-22T09:51:41.055Z</time></trkpt><trkpt lat="41.4680597" lon="13.1934229"><ele>31.999999999999996</ele><time>2026-03-22T09:51:43.058Z</time></trkpt><trkpt lat="41.4681329" lon="13.1933716"><ele>32.0</ele><time>2026-03-22T09:51:44.055Z</time></trkpt><trkpt lat="41.4682047" lon="13.1932974"><ele>32.0</ele><time>2026-03-22T09:51:45.049Z</time></trkpt><trkpt lat="41.4682681" lon="13.1931994"><ele>32.0</ele><time>2026-03-22T09:51:46.044Z</time></trkpt><trkpt lat="41.4683252" lon="13.1930699"><ele>32.0</ele><time>2026-03-22T09:51:47.047Z</time></trkpt><trkpt lat="41.4683861" lon="13.1929302"><ele>32.0</ele><time>2026-03-22T09:51:48.055Z</time></trkpt><trkpt lat="41.4684456" lon="13.1927712"><ele>32.4</ele><time>2026-03-22T09:51:49.052Z</time></trkpt><trkpt lat="41.4685084" lon="13.1926341"><ele>32.800000000000004</ele><time>2026-03-22T09:51:50.045Z</time></trkpt><trkpt lat="41.4685696" lon="13.1925133"><ele>33.2</ele><time>2026-03-22T09:51:51.044Z</time></trkpt><trkpt lat="41.4686219" lon="13.1923893"><ele>33.6</ele><time>2026-03-22T09:51:52.049Z</time></trkpt><trkpt lat="41.4686575" lon="13.1922505"><ele>34.0</ele><time>2026-03-22T09:51:53.04Z</time></trkpt><trkpt lat="41.4686698" lon="13.1921004"><ele>34.0</ele><time>2026-03-22T09:51:54.059Z</time></trkpt><trkpt lat="41.4686668" lon="13.1919524"><ele>34.0</ele><time>2026-03-22T09:51:55.047Z</time></trkpt><trkpt lat="41.4686624" lon="13.1918139"><ele>34.0</ele><time>2026-03-22T09:51:56.052Z</time></trkpt><trkpt lat="41.468617" lon="13.1916874"><ele>34.0</ele><time>2026-03-22T09:51:57.043Z</time></trkpt><trkpt lat="41.4685669" lon="13.1915568"><ele>34.0</ele><time>2026-03-22T09:51:58.045Z</time></trkpt><trkpt lat="41.4685193" lon="13.1914161"><ele>34.0</ele><time>2026-03-22T09:51:59.049Z</time></trkpt><trkpt lat="41.4684838" lon="13.1912695"><ele>34.0</ele><time>2026-03-22T09:52:00.047Z</time></trkpt><trkpt lat="41.4684598" lon="13.1911177"><ele>34.0</ele><time>2026-03-22T09:52:01.053Z</time></trkpt><trkpt lat="41.4684491" lon="13.1909626"><ele>34.0</ele><time>2026-03-22T09:52:02.046Z</time></trkpt><trkpt lat="41.4684506" lon="13.1908067"><ele>34.0</ele><time>2026-03-22T09:52:03.053Z</time></trkpt><trkpt lat="41.4684591" lon="13.1906455"><ele>34.0</ele><time>2026-03-22T09:52:04.042Z</time></trkpt><trkpt lat="41.4684719" lon="13.1904806"><ele>34.0</ele><time>2026-03-22T09:52:05.047Z</time></trkpt><trkpt lat="41.4684861" lon="13.1903136"><ele>34.0</ele><time>2026-03-22T09:52:06.05Z</time></trkpt><trkpt lat="41.4685059" lon="13.190143"><ele>34.0</ele><time>2026-03-22T09:52:07.048Z</time></trkpt><trkpt lat="41.4685287" lon="13.1899744"><ele>34.0</ele><time>2026-03-22T09:52:08.06Z</time></trkpt><trkpt lat="41.4685576" lon="13.1898083"><ele>34.0</ele><time>2026-03-22T09:52:09.05Z</time></trkpt><trkpt lat="41.4685882" lon="13.1896368"><ele>34.0</ele><time>2026-03-22T09:52:10.042Z</time></trkpt><trkpt lat="41.468609" lon="13.189478"><ele>34.2</ele><time>2026-03-22T09:52:11.045Z</time></trkpt><trkpt lat="41.4686153" lon="13.1893346"><ele>34.4</ele><time>2026-03-22T09:52:12.05Z</time></trkpt><trkpt lat="41.4686122" lon="13.1891981"><ele>34.6</ele><time>2026-03-22T09:52:13.04Z</time></trkpt><trkpt lat="41.4686166" lon="13.1890681"><ele>34.8</ele><time>2026-03-22T09:52:14.054Z</time></trkpt><trkpt lat="41.4685965" lon="13.1889507"><ele>35.0</ele><time>2026-03-22T09:52:15.048Z</time></trkpt><trkpt lat="41.4685766" lon="13.1888372"><ele>35.0</ele><time>2026-03-22T09:52:16.048Z</time></trkpt><trkpt lat="41.4685461" lon="13.18874"><ele>35.0</ele><time>2026-03-22T09:52:17.044Z</time></trkpt><trkpt lat="41.4685123" lon="13.1886528"><ele>35.0</ele><time>2026-03-22T09:52:18.042Z</time></trkpt><trkpt lat="41.4684451" lon="13.1885676"><ele>35.0</ele><time>2026-03-22T09:52:20.056Z</time></trkpt><trkpt lat="41.4683434" lon="13.1885812"><ele>35.0</ele><time>2026-03-22T09:52:23.054Z</time></trkpt><trkpt lat="41.4682566" lon="13.188666"><ele>35.0</ele><time>2026-03-22T09:52:25.042Z</time></trkpt><trkpt lat="41.4681966" lon="13.1887321"><ele>35.0</ele><time>2026-03-22T09:52:27.05Z</time></trkpt><trkpt lat="41.4681487" lon="13.1888097"><ele>35.0</ele><time>2026-03-22T09:52:30.055Z</time></trkpt><trkpt lat="41.4682009" lon="13.1887536"><ele>35.0</ele><time>2026-03-22T09:52:35.045Z</time></trkpt><trkpt lat="41.4682924" lon="13.1886514"><ele>35.0</ele><time>2026-03-22T09:52:37.05Z</time></trkpt><trkpt lat="41.4683732" lon="13.1885816"><ele>35.0</ele><time>2026-03-22T09:52:39.043Z</time></trkpt><trkpt lat="41.4684388" lon="13.1885777"><ele>35.0</ele><time>2026-03-22T09:52:42.058Z</time></trkpt><trkpt lat="41.4683607" lon="13.1885389"><ele>35.0</ele><time>2026-03-22T09:52:58.039Z</time></trkpt><trkpt lat="41.4682947" lon="13.1884831"><ele>35.0</ele><time>2026-03-22T09:53:00.043Z</time></trkpt><trkpt lat="41.4682533" lon="13.1883881"><ele>35.0</ele><time>2026-03-22T09:53:03.041Z</time></trkpt><trkpt lat="41.4682172" lon="13.1883157"><ele>35.0</ele><time>2026-03-22T09:53:10.049Z</time></trkpt><trkpt lat="41.4682462" lon="13.1882316"><ele>35.0</ele><time>2026-03-22T09:53:13.045Z</time></trkpt><trkpt lat="41.4682827" lon="13.1881397"><ele>35.166666666666664</ele><time>2026-03-22T09:53:17.051Z</time></trkpt><trkpt lat="41.4682382" lon="13.1880141"><ele>35.33333333333333</ele><time>2026-03-22T09:53:20.063Z</time></trkpt><trkpt lat="41.4681822" lon="13.1879114"><ele>35.5</ele><time>2026-03-22T09:53:22.065Z</time></trkpt><trkpt lat="41.4681634" lon="13.187801"><ele>35.666666666666664</ele><time>2026-03-22T09:53:24.051Z</time></trkpt><trkpt lat="41.4681484" lon="13.1877111"><ele>35.833333333333336</ele><time>2026-03-22T09:53:27.056Z</time></trkpt><trkpt lat="41.4681287" lon="13.1876163"><ele>36.0</ele><time>2026-03-22T09:53:32.052Z</time></trkpt><trkpt lat="41.4681087" lon="13.1874711"><ele>36.0</ele><time>2026-03-22T09:53:34.042Z</time></trkpt><trkpt lat="41.4680966" lon="13.1873875"><ele>36.0</ele><time>2026-03-22T09:53:35.053Z</time></trkpt><trkpt lat="41.4680868" lon="13.1872937"><ele>36.0</ele><time>2026-03-22T09:53:36.047Z</time></trkpt><trkpt lat="41.4680775" lon="13.1871938"><ele>36.0</ele><time>2026-03-22T09:53:37.044Z</time></trkpt><trkpt lat="41.4680703" lon="13.187088"><ele>36.0</ele><time>2026-03-22T09:53:38.044Z</time></trkpt><trkpt lat="41.4680644" lon="13.1869779"><ele>36.0</ele><time>2026-03-22T09:53:39.046Z</time></trkpt><trkpt lat="41.4680584" lon="13.1868539"><ele>35.8</ele><time>2026-03-22T09:53:40.061Z</time></trkpt><trkpt lat="41.4680526" lon="13.1867215"><ele>35.6</ele><time>2026-03-22T09:53:41.042Z</time></trkpt><trkpt lat="41.4680454" lon="13.1865804"><ele>35.4</ele><time>2026-03-22T09:53:42.045Z</time></trkpt><trkpt lat="41.4680388" lon="13.1864373"><ele>35.2</ele><time>2026-03-22T09:53:43.051Z</time></trkpt><trkpt lat="41.4680319" lon="13.1862931"><ele>35.0</ele><time>2026-03-22T09:53:44.05Z</time></trkpt><trkpt lat="41.4680247" lon="13.1861485"><ele>35.5</ele><time>2026-03-22T09:53:45.047Z</time></trkpt><trkpt lat="41.4680165" lon="13.1860028"><ele>36.0</ele><time>2026-03-22T09:53:46.065Z</time></trkpt><trkpt lat="41.4680096" lon="13.1858538"><ele>36.5</ele><time>2026-03-22T09:53:47.046Z</time></trkpt><trkpt lat="41.4680037" lon="13.1857011"><ele>37.0</ele><time>2026-03-22T09:53:48.051Z</time></trkpt><trkpt lat="41.4679995" lon="13.1855461"><ele>37.2</ele><time>2026-03-22T09:53:49.046Z</time></trkpt><trkpt lat="41.468001" lon="13.1853918"><ele>37.400000000000006</ele><time>2026-03-22T09:53:50.054Z</time></trkpt><trkpt lat="41.4680168" lon="13.1852424"><ele>37.599999999999994</ele><time>2026-03-22T09:53:51.046Z</time></trkpt><trkpt lat="41.4680506" lon="13.1851016"><ele>37.8</ele><time>2026-03-22T09:53:52.064Z</time></trkpt><trkpt lat="41.4681031" lon="13.1849741"><ele>38.0</ele><time>2026-03-22T09:53:53.047Z</time></trkpt><trkpt lat="41.4681644" lon="13.1848508"><ele>39.0</ele><time>2026-03-22T09:53:54.048Z</time></trkpt><trkpt lat="41.4682268" lon="13.1847225"><ele>40.0</ele><time>2026-03-22T09:53:55.044Z</time></trkpt><trkpt lat="41.4682896" lon="13.1845895"><ele>41.0</ele><time>2026-03-22T09:53:56.05Z</time></trkpt><trkpt lat="41.4683486" lon="13.1844496"><ele>42.0</ele><time>2026-03-22T09:53:57.047Z</time></trkpt><trkpt lat="41.4683953" lon="13.1843044"><ele>42.0</ele><time>2026-03-22T09:53:58.052Z</time></trkpt><trkpt lat="41.4684313" lon="13.1841526"><ele>42.0</ele><time>2026-03-22T09:53:59.045Z</time></trkpt><trkpt lat="41.4684581" lon="13.1840129"><ele>42.0</ele><time>2026-03-22T09:54:00.059Z</time></trkpt><trkpt lat="41.4684791" lon="13.1838793"><ele>42.0</ele><time>2026-03-22T09:54:01.049Z</time></trkpt><trkpt lat="41.4684994" lon="13.1837451"><ele>42.0</ele><time>2026-03-22T09:54:02.051Z</time></trkpt><trkpt lat="41.4685198" lon="13.1836123"><ele>42.166666666666664</ele><time>2026-03-22T09:54:03.05Z</time></trkpt><trkpt lat="41.4685383" lon="13.183488"><ele>42.333333333333336</ele><time>2026-03-22T09:54:04.049Z</time></trkpt><trkpt lat="41.4685532" lon="13.1833817"><ele>42.5</ele><time>2026-03-22T09:54:05.059Z</time></trkpt><trkpt lat="41.468562" lon="13.1832868"><ele>42.66666666666667</ele><time>2026-03-22T09:54:06.042Z</time></trkpt><trkpt lat="41.468555" lon="13.1831463"><ele>42.833333333333336</ele><time>2026-03-22T09:54:08.051Z</time></trkpt><trkpt lat="41.468503" lon="13.1830502"><ele>43.0</ele><time>2026-03-22T09:54:10.046Z</time></trkpt><trkpt lat="41.4683782" lon="13.1830249"><ele>42.66666666666667</ele><time>2026-03-22T09:54:12.05Z</time></trkpt><trkpt lat="41.4683053" lon="13.1830095"><ele>42.333333333333336</ele><time>2026-03-22T09:54:13.042Z</time></trkpt><trkpt lat="41.4682276" lon="13.1829906"><ele>42.0</ele><time>2026-03-22T09:54:14.043Z</time></trkpt><trkpt lat="41.4681362" lon="13.1829774"><ele>41.666666666666664</ele><time>2026-03-22T09:54:15.044Z</time></trkpt><trkpt lat="41.4680344" lon="13.1829822"><ele>41.33333333333333</ele><time>2026-03-22T09:54:16.043Z</time></trkpt><trkpt lat="41.4679409" lon="13.1829856"><ele>41.0</ele><time>2026-03-22T09:54:17.046Z</time></trkpt><trkpt lat="41.4678469" lon="13.1829874"><ele>44.0</ele><time>2026-03-22T09:54:18.061Z</time></trkpt><trkpt lat="41.4677456" lon="13.1829957"><ele>47.0</ele><time>2026-03-22T09:54:19.051Z</time></trkpt><trkpt lat="41.4676474" lon="13.1829898"><ele>49.99999999999999</ele><time>2026-03-22T09:54:20.046Z</time></trkpt><trkpt lat="41.4675544" lon="13.1829726"><ele>53.0</ele><time>2026-03-22T09:54:21.053Z</time></trkpt><trkpt lat="41.4674641" lon="13.1829425"><ele>56.0</ele><time>2026-03-22T09:54:22.05Z</time></trkpt><trkpt lat="41.46737" lon="13.1829119"><ele>56.0</ele><time>2026-03-22T09:54:23.049Z</time></trkpt><trkpt lat="41.4672748" lon="13.1828801"><ele>55.99999999999999</ele><time>2026-03-22T09:54:24.049Z</time></trkpt><trkpt lat="41.4671781" lon="13.1828426"><ele>55.99999999999999</ele><time>2026-03-22T09:54:25.046Z</time></trkpt><trkpt lat="41.4670802" lon="13.1828045"><ele>56.0</ele><time>2026-03-22T09:54:26.049Z</time></trkpt><trkpt lat="41.4669822" lon="13.1827461"><ele>56.0</ele><time>2026-03-22T09:54:27.049Z</time></trkpt><trkpt lat="41.4668888" lon="13.1826484"><ele>58.75</ele><time>2026-03-22T09:54:28.042Z</time></trkpt><trkpt lat="41.4667944" lon="13.1825465"><ele>61.5</ele><time>2026-03-22T09:54:29.052Z</time></trkpt><trkpt lat="41.4666931" lon="13.182454"><ele>64.25</ele><time>2026-03-22T09:54:30.045Z</time></trkpt><trkpt lat="41.4665926" lon="13.1823731"><ele>67.0</ele><time>2026-03-22T09:54:31.048Z</time></trkpt><trkpt lat="41.4665042" lon="13.1823155"><ele>67.0</ele><time>2026-03-22T09:54:32.04Z</time></trkpt><trkpt lat="41.466426" lon="13.1822859"><ele>67.0</ele><time>2026-03-22T09:54:33.043Z</time></trkpt><trkpt lat="41.4663557" lon="13.1822856"><ele>67.0</ele><time>2026-03-22T09:54:34.047Z</time></trkpt><trkpt lat="41.466287" lon="13.1823122"><ele>67.0</ele><time>2026-03-22T09:54:35.042Z</time></trkpt><trkpt lat="41.4662196" lon="13.1823714"><ele>67.0</ele><time>2026-03-22T09:54:36.062Z</time></trkpt><trkpt lat="41.4661548" lon="13.1824512"><ele>67.0</ele><time>2026-03-22T09:54:37.044Z</time></trkpt><trkpt lat="41.4660894" lon="13.1825277"><ele>68.83333333333333</ele><time>2026-03-22T09:54:38.055Z</time></trkpt><trkpt lat="41.4660345" lon="13.1825794"><ele>70.66666666666666</ele><time>2026-03-22T09:54:39.046Z</time></trkpt><trkpt lat="41.465959" lon="13.1825973"><ele>72.5</ele><time>2026-03-22T09:54:41.048Z</time></trkpt><trkpt lat="41.4658736" lon="13.1825074"><ele>74.33333333333333</ele><time>2026-03-22T09:54:43.062Z</time></trkpt><trkpt lat="41.4658127" lon="13.1824638"><ele>76.16666666666667</ele><time>2026-03-22T09:54:44.044Z</time></trkpt><trkpt lat="41.4657417" lon="13.1824308"><ele>78.0</ele><time>2026-03-22T09:54:45.045Z</time></trkpt><trkpt lat="41.4656621" lon="13.1823984"><ele>78.0</ele><time>2026-03-22T09:54:46.042Z</time></trkpt><trkpt lat="41.4655786" lon="13.1823678"><ele>78.0</ele><time>2026-03-22T09:54:47.05Z</time></trkpt><trkpt lat="41.4654861" lon="13.1823418"><ele>78.0</ele><time>2026-03-22T09:54:48.043Z</time></trkpt><trkpt lat="41.465387" lon="13.182317"><ele>78.0</ele><time>2026-03-22T09:54:49.05Z</time></trkpt><trkpt lat="41.4652902" lon="13.1822865"><ele>78.0</ele><time>2026-03-22T09:54:50.044Z</time></trkpt><trkpt lat="41.4651914" lon="13.1822503"><ele>81.0</ele><time>2026-03-22T09:54:51.044Z</time></trkpt><trkpt lat="41.4650924" lon="13.1822143"><ele>84.0</ele><time>2026-03-22T09:54:52.044Z</time></trkpt><trkpt lat="41.4649978" lon="13.1821414"><ele>87.0</ele><time>2026-03-22T09:54:53.045Z</time></trkpt><trkpt lat="41.4649017" lon="13.182055"><ele>90.0</ele><time>2026-03-22T09:54:54.046Z</time></trkpt><trkpt lat="41.4648107" lon="13.1819747"><ele>93.0</ele><time>2026-03-22T09:54:55.048Z</time></trkpt><trkpt lat="41.4647274" lon="13.181915"><ele>93.0</ele><time>2026-03-22T09:54:56.042Z</time></trkpt><trkpt lat="41.4646537" lon="13.1819007"><ele>93.0</ele><time>2026-03-22T09:54:57.049Z</time></trkpt><trkpt lat="41.4645712" lon="13.1819094"><ele>93.0</ele><time>2026-03-22T09:54:58.054Z</time></trkpt><trkpt lat="41.4644847" lon="13.1819246"><ele>93.0</ele><time>2026-03-22T09:54:59.048Z</time></trkpt><trkpt lat="41.4643967" lon="13.1819403"><ele>93.0</ele><time>2026-03-22T09:55:00.051Z</time></trkpt><trkpt lat="41.4643039" lon="13.18192"><ele>93.0</ele><time>2026-03-22T09:55:01.046Z</time></trkpt><trkpt lat="41.4641972" lon="13.1818662"><ele>95.5</ele><time>2026-03-22T09:55:02.046Z</time></trkpt><trkpt lat="41.4640872" lon="13.1818114"><ele>98.0</ele><time>2026-03-22T09:55:03.058Z</time></trkpt><trkpt lat="41.4639718" lon="13.1817579"><ele>100.5</ele><time>2026-03-22T09:55:04.05Z</time></trkpt><trkpt lat="41.4638444" lon="13.1817186"><ele>103.0</ele><time>2026-03-22T09:55:05.069Z</time></trkpt><trkpt lat="41.4637083" lon="13.1816752"><ele>103.75</ele><time>2026-03-22T09:55:06.049Z</time></trkpt><trkpt lat="41.4635816" lon="13.1816352"><ele>104.5</ele><time>2026-03-22T09:55:07.05Z</time></trkpt><trkpt lat="41.4634665" lon="13.1815994"><ele>105.25</ele><time>2026-03-22T09:55:08.046Z</time></trkpt><trkpt lat="41.4633612" lon="13.181518"><ele>106.0</ele><time>2026-03-22T09:55:09.046Z</time></trkpt><trkpt lat="41.4632589" lon="13.1814218"><ele>106.0</ele><time>2026-03-22T09:55:10.048Z</time></trkpt><trkpt lat="41.4631491" lon="13.181336"><ele>106.0</ele><time>2026-03-22T09:55:11.049Z</time></trkpt><trkpt lat="41.4630434" lon="13.1812545"><ele>106.0</ele><time>2026-03-22T09:55:12.049Z</time></trkpt><trkpt lat="41.4629274" lon="13.181197"><ele>106.0</ele><time>2026-03-22T09:55:13.049Z</time></trkpt><trkpt lat="41.462811" lon="13.1811401"><ele>109.75</ele><time>2026-03-22T09:55:14.061Z</time></trkpt><trkpt lat="41.4626993" lon="13.1810757"><ele>113.5</ele><time>2026-03-22T09:55:15.05Z</time></trkpt><trkpt lat="41.4625846" lon="13.1810031"><ele>117.25</ele><time>2026-03-22T09:55:16.051Z</time></trkpt><trkpt lat="41.46247" lon="13.1809428"><ele>121.0</ele><time>2026-03-22T09:55:17.048Z</time></trkpt><trkpt lat="41.4623482" lon="13.1808957"><ele>121.0</ele><time>2026-03-22T09:55:18.046Z</time></trkpt><trkpt lat="41.4622427" lon="13.1808607"><ele>121.0</ele><time>2026-03-22T09:55:19.05Z</time></trkpt><trkpt lat="41.462147" lon="13.1808312"><ele>121.0</ele><time>2026-03-22T09:55:20.048Z</time></trkpt><trkpt lat="41.4620494" lon="13.1807983"><ele>121.0</ele><time>2026-03-22T09:55:21.063Z</time></trkpt><trkpt lat="41.4619469" lon="13.1807559"><ele>121.0</ele><time>2026-03-22T09:55:22.048Z</time></trkpt><trkpt lat="41.4618434" lon="13.180715"><ele>123.25</ele><time>2026-03-22T09:55:23.049Z</time></trkpt><trkpt lat="41.4617348" lon="13.180668"><ele>125.5</ele><time>2026-03-22T09:55:24.05Z</time></trkpt><trkpt lat="41.4616284" lon="13.1806108"><ele>127.75</ele><time>2026-03-22T09:55:25.049Z</time></trkpt><trkpt lat="41.4615262" lon="13.1805434"><ele>130.0</ele><time>2026-03-22T09:55:26.046Z</time></trkpt><trkpt lat="41.4614212" lon="13.180473"><ele>130.0</ele><time>2026-03-22T09:55:27.054Z</time></trkpt><trkpt lat="41.4613203" lon="13.1803838"><ele>130.0</ele><time>2026-03-22T09:55:28.041Z</time></trkpt><trkpt lat="41.4612284" lon="13.18026"><ele>130.0</ele><time>2026-03-22T09:55:29.049Z</time></trkpt><trkpt lat="41.4611403" lon="13.1801301"><ele>130.0</ele><time>2026-03-22T09:55:30.056Z</time></trkpt><trkpt lat="41.4610494" lon="13.1799932"><ele>134.0</ele><time>2026-03-22T09:55:31.05Z</time></trkpt><trkpt lat="41.4609578" lon="13.1798621"><ele>138.0</ele><time>2026-03-22T09:55:32.038Z</time></trkpt><trkpt lat="41.4608642" lon="13.1797335"><ele>142.0</ele><time>2026-03-22T09:55:33.046Z</time></trkpt><trkpt lat="41.4607688" lon="13.179607"><ele>146.0</ele><time>2026-03-22T09:55:34.048Z</time></trkpt><trkpt lat="41.4606654" lon="13.179496"><ele>146.75</ele><time>2026-03-22T09:55:35.043Z</time></trkpt><trkpt lat="41.4605726" lon="13.1793911"><ele>147.5</ele><time>2026-03-22T09:55:36.043Z</time></trkpt><trkpt lat="41.4604873" lon="13.1792964"><ele>148.25</ele><time>2026-03-22T09:55:37.043Z</time></trkpt><trkpt lat="41.4604081" lon="13.1791852"><ele>149.0</ele><time>2026-03-22T09:55:38.044Z</time></trkpt><trkpt lat="41.4603219" lon="13.1790815"><ele>149.66666666666666</ele><time>2026-03-22T09:55:39.052Z</time></trkpt><trkpt lat="41.4602525" lon="13.179025"><ele>150.33333333333331</ele><time>2026-03-22T09:55:40.044Z</time></trkpt><trkpt lat="41.4601496" lon="13.1789296"><ele>151.0</ele><time>2026-03-22T09:55:42.052Z</time></trkpt><trkpt lat="41.4600745" lon="13.1788536"><ele>151.66666666666666</ele><time>2026-03-22T09:55:44.073Z</time></trkpt><trkpt lat="41.4600079" lon="13.1787922"><ele>152.33333333333334</ele><time>2026-03-22T09:55:47.045Z</time></trkpt><trkpt lat="41.4599555" lon="13.1787437"><ele>153.0</ele><time>2026-03-22T09:55:50.057Z</time></trkpt><trkpt lat="41.4598821" lon="13.1787065"><ele>153.0</ele><time>2026-03-22T09:55:54.05Z</time></trkpt><trkpt lat="41.459803" lon="13.1786875"><ele>153.0</ele><time>2026-03-22T09:55:58.05Z</time></trkpt><trkpt lat="41.459731" lon="13.178653"><ele>153.0</ele><time>2026-03-22T09:56:01.053Z</time></trkpt><trkpt lat="41.4595162" lon="13.1785933"><ele>153.0</ele><time>2026-03-22T09:56:08.059Z</time></trkpt><trkpt lat="41.4595069" lon="13.1784849"><ele>149.4</ele><time>2026-03-22T09:56:11.043Z</time></trkpt><trkpt lat="41.4594922" lon="13.1783767"><ele>145.8</ele><time>2026-03-22T09:56:13.045Z</time></trkpt><trkpt lat="41.4594783" lon="13.1782456"><ele>142.2</ele><time>2026-03-22T09:56:15.047Z</time></trkpt><trkpt lat="41.4594607" lon="13.1780965"><ele>138.6</ele><time>2026-03-22T09:56:17.048Z</time></trkpt><trkpt lat="41.4594403" lon="13.1779504"><ele>135.0</ele><time>2026-03-22T09:56:19.051Z</time></trkpt><trkpt lat="41.4594155" lon="13.177821"><ele>134.2</ele><time>2026-03-22T09:56:21.044Z</time></trkpt><trkpt lat="41.4593867" lon="13.1776862"><ele>133.4</ele><time>2026-03-22T09:56:23.052Z</time></trkpt><trkpt lat="41.4593582" lon="13.1775414"><ele>132.6</ele><time>2026-03-22T09:56:25.059Z</time></trkpt><trkpt lat="41.4593296" lon="13.1773969"><ele>131.8</ele><time>2026-03-22T09:56:27.042Z</time></trkpt><trkpt lat="41.459327" lon="13.1772648"><ele>131.0</ele><time>2026-03-22T09:56:29.047Z</time></trkpt><trkpt lat="41.4593378" lon="13.1771796"><ele>131.0</ele><time>2026-03-22T09:56:30.058Z</time></trkpt><trkpt lat="41.4593452" lon="13.1770162"><ele>131.0</ele><time>2026-03-22T09:56:32.05Z</time></trkpt><trkpt lat="41.4593588" lon="13.1768713"><ele>131.0</ele><time>2026-03-22T09:56:34.052Z</time></trkpt><trkpt lat="41.4593803" lon="13.1767517"><ele>131.0</ele><time>2026-03-22T09:56:36.051Z</time></trkpt><trkpt lat="41.4593254" lon="13.1766688"><ele>131.0</ele><time>2026-03-22T09:56:39.046Z</time></trkpt><trkpt lat="41.4592777" lon="13.1766103"><ele>131.0</ele><time>2026-03-22T09:56:41.052Z</time></trkpt><trkpt lat="41.4592109" lon="13.176563"><ele>131.0</ele><time>2026-03-22T09:56:43.052Z</time></trkpt><trkpt lat="41.4591287" lon="13.1765438"><ele>131.0</ele><time>2026-03-22T09:56:45.06Z</time></trkpt><trkpt lat="41.4590611" lon="13.1764911"><ele>131.0</ele><time>2026-03-22T09:56:47.047Z</time></trkpt><trkpt lat="41.4590008" lon="13.1764071"><ele>131.0</ele><time>2026-03-22T09:56:50.058Z</time></trkpt><trkpt lat="41.4589365" lon="13.1763303"><ele>131.0</ele><time>2026-03-22T09:56:53.047Z</time></trkpt><trkpt lat="41.4588667" lon="13.1762536"><ele>129.5</ele><time>2026-03-22T09:56:55.052Z</time></trkpt><trkpt lat="41.4587796" lon="13.1761854"><ele>128.0</ele><time>2026-03-22T09:56:57.055Z</time></trkpt><trkpt lat="41.458699" lon="13.1761099"><ele>126.5</ele><time>2026-03-22T09:56:59.057Z</time></trkpt><trkpt lat="41.4586317" lon="13.1760939"><ele>125.0</ele><time>2026-03-22T09:57:01.048Z</time></trkpt><trkpt lat="41.4585707" lon="13.176142"><ele>123.49999999999999</ele><time>2026-03-22T09:57:03.048Z</time></trkpt><trkpt lat="41.4585044" lon="13.1761998"><ele>122.0</ele><time>2026-03-22T09:57:06.047Z</time></trkpt><trkpt lat="41.458477" lon="13.1762783"><ele>121.99999999999999</ele><time>2026-03-22T09:57:48.051Z</time></trkpt><trkpt lat="41.4584986" lon="13.1764228"><ele>122.0</ele><time>2026-03-22T09:57:50.099Z</time></trkpt><trkpt lat="41.458522" lon="13.17651"><ele>122.0</ele><time>2026-03-22T09:57:51.057Z</time></trkpt><trkpt lat="41.4585396" lon="13.1766148"><ele>122.0</ele><time>2026-03-22T09:57:52.055Z</time></trkpt><trkpt lat="41.458548" lon="13.1767218"><ele>121.99999999999999</ele><time>2026-03-22T09:57:53.046Z</time></trkpt><trkpt lat="41.4585551" lon="13.1768356"><ele>122.0</ele><time>2026-03-22T09:57:54.046Z</time></trkpt><trkpt lat="41.4585693" lon="13.176958"><ele>120.99999999999999</ele><time>2026-03-22T09:57:55.045Z</time></trkpt><trkpt lat="41.4585832" lon="13.1770706"><ele>120.0</ele><time>2026-03-22T09:57:56.052Z</time></trkpt><trkpt lat="41.4585826" lon="13.1771646"><ele>119.0</ele><time>2026-03-22T09:57:57.049Z</time></trkpt><trkpt lat="41.4585785" lon="13.1772666"><ele>118.0</ele><time>2026-03-22T09:57:58.048Z</time></trkpt><trkpt lat="41.4585689" lon="13.1773717"><ele>116.99999999999999</ele><time>2026-03-22T09:57:59.052Z</time></trkpt><trkpt lat="41.4585545" lon="13.1774852"><ele>116.0</ele><time>2026-03-22T09:58:00.051Z</time></trkpt><trkpt lat="41.4585311" lon="13.1776046"><ele>115.99999999999999</ele><time>2026-03-22T09:58:01.049Z</time></trkpt><trkpt lat="41.4585074" lon="13.1777236"><ele>116.0</ele><time>2026-03-22T09:58:02.048Z</time></trkpt><trkpt lat="41.4584846" lon="13.1778452"><ele>116.0</ele><time>2026-03-22T09:58:03.043Z</time></trkpt><trkpt lat="41.4584624" lon="13.17796"><ele>116.0</ele><time>2026-03-22T09:58:04.05Z</time></trkpt><trkpt lat="41.4584458" lon="13.1780626"><ele>115.99999999999999</ele><time>2026-03-22T09:58:05.044Z</time></trkpt><trkpt lat="41.4584331" lon="13.17816"><ele>116.0</ele><time>2026-03-22T09:58:06.052Z</time></trkpt><trkpt lat="41.4584224" lon="13.1782613"><ele>115.99999999999999</ele><time>2026-03-22T09:58:07.044Z</time></trkpt><trkpt lat="41.4584116" lon="13.1783622"><ele>116.0</ele><time>2026-03-22T09:58:08.053Z</time></trkpt><trkpt lat="41.4583913" lon="13.1784581"><ele>116.0</ele><time>2026-03-22T09:58:09.043Z</time></trkpt><trkpt lat="41.4583587" lon="13.178601"><ele>116.0</ele><time>2026-03-22T09:58:11.048Z</time></trkpt><trkpt lat="41.4583262" lon="13.1786834"><ele>115.99999999999999</ele><time>2026-03-22T09:58:13.052Z</time></trkpt><trkpt lat="41.4582593" lon="13.1786529"><ele>116.0</ele><time>2026-03-22T09:58:15.049Z</time></trkpt><trkpt lat="41.4581906" lon="13.1785447"><ele>115.99999999999999</ele><time>2026-03-22T09:58:17.065Z</time></trkpt><trkpt lat="41.4581458" lon="13.1784714"><ele>116.0</ele><time>2026-03-22T09:58:18.047Z</time></trkpt><trkpt lat="41.4580759" lon="13.1784055"><ele>116.0</ele><time>2026-03-22T09:58:19.049Z</time></trkpt><trkpt lat="41.4579998" lon="13.1783505"><ele>116.0</ele><time>2026-03-22T09:58:20.058Z</time></trkpt><trkpt lat="41.4579166" lon="13.178308"><ele>115.99999999999999</ele><time>2026-03-22T09:58:21.054Z</time></trkpt><trkpt lat="41.4578235" lon="13.1782664"><ele>116.0</ele><time>2026-03-22T09:58:22.061Z</time></trkpt><trkpt lat="41.4577289" lon="13.1782183"><ele>115.0</ele><time>2026-03-22T09:58:23.048Z</time></trkpt><trkpt lat="41.4576325" lon="13.1781494"><ele>114.0</ele><time>2026-03-22T09:58:24.05Z</time></trkpt><trkpt lat="41.4575397" lon="13.1780568"><ele>113.0</ele><time>2026-03-22T09:58:25.049Z</time></trkpt><trkpt lat="41.4574551" lon="13.1779482"><ele>112.0</ele><time>2026-03-22T09:58:26.048Z</time></trkpt><trkpt lat="41.4573718" lon="13.1778398"><ele>112.0</ele><time>2026-03-22T09:58:27.065Z</time></trkpt><trkpt lat="41.4572894" lon="13.1777314"><ele>111.99999999999999</ele><time>2026-03-22T09:58:28.05Z</time></trkpt><trkpt lat="41.4572058" lon="13.1776366"><ele>111.99999999999999</ele><time>2026-03-22T09:58:29.049Z</time></trkpt><trkpt lat="41.4571291" lon="13.1775588"><ele>112.0</ele><time>2026-03-22T09:58:30.05Z</time></trkpt><trkpt lat="41.4570552" lon="13.1775104"><ele>112.0</ele><time>2026-03-22T09:58:31.044Z</time></trkpt><trkpt lat="41.4569895" lon="13.1774936"><ele>112.8</ele><time>2026-03-22T09:58:32.048Z</time></trkpt><trkpt lat="41.4568693" lon="13.1775402"><ele>113.6</ele><time>2026-03-22T09:58:34.046Z</time></trkpt><trkpt lat="41.4568127" lon="13.1776128"><ele>114.39999999999999</ele><time>2026-03-22T09:58:35.046Z</time></trkpt><trkpt lat="41.456751" lon="13.1777125"><ele>115.19999999999999</ele><time>2026-03-22T09:58:36.068Z</time></trkpt><trkpt lat="41.4566798" lon="13.177825"><ele>116.0</ele><time>2026-03-22T09:58:37.043Z</time></trkpt><trkpt lat="41.456604" lon="13.1779398"><ele>116.0</ele><time>2026-03-22T09:58:38.047Z</time></trkpt><trkpt lat="41.4565272" lon="13.1780495"><ele>116.0</ele><time>2026-03-22T09:58:39.048Z</time></trkpt><trkpt lat="41.4564585" lon="13.1781403"><ele>116.0</ele><time>2026-03-22T09:58:40.046Z</time></trkpt><trkpt lat="41.4564017" lon="13.1782063"><ele>116.0</ele><time>2026-03-22T09:58:41.043Z</time></trkpt><trkpt lat="41.4563178" lon="13.1782465"><ele>116.0</ele><time>2026-03-22T09:58:43.05Z</time></trkpt><trkpt lat="41.4562245" lon="13.1781824"><ele>116.66666666666666</ele><time>2026-03-22T09:58:45.051Z</time></trkpt><trkpt lat="41.4561787" lon="13.1781085"><ele>117.33333333333333</ele><time>2026-03-22T09:58:46.05Z</time></trkpt><trkpt lat="41.4561302" lon="13.1780292"><ele>118.0</ele><time>2026-03-22T09:58:47.061Z</time></trkpt><trkpt lat="41.4560773" lon="13.1779464"><ele>118.66666666666666</ele><time>2026-03-22T09:58:48.042Z</time></trkpt><trkpt lat="41.4560072" lon="13.1778894"><ele>119.33333333333333</ele><time>2026-03-22T09:58:49.042Z</time></trkpt><trkpt lat="41.4559323" lon="13.1778296"><ele>120.0</ele><time>2026-03-22T09:58:50.048Z</time></trkpt><trkpt lat="41.4558611" lon="13.1777802"><ele>120.0</ele><time>2026-03-22T09:58:51.045Z</time></trkpt><trkpt lat="41.4557928" lon="13.1777351"><ele>120.0</ele><time>2026-03-22T09:58:52.047Z</time></trkpt><trkpt lat="41.4557282" lon="13.1776846"><ele>120.0</ele><time>2026-03-22T09:58:53.066Z</time></trkpt><trkpt lat="41.4556634" lon="13.1776376"><ele>120.0</ele><time>2026-03-22T09:58:54.045Z</time></trkpt><trkpt lat="41.4556019" lon="13.1776142"><ele>120.0</ele><time>2026-03-22T09:58:55.049Z</time></trkpt><trkpt lat="41.4554907" lon="13.1776497"><ele>120.0</ele><time>2026-03-22T09:58:57.048Z</time></trkpt><trkpt lat="41.4554403" lon="13.177706"><ele>121.4</ele><time>2026-03-22T09:58:58.063Z</time></trkpt><trkpt lat="41.4553487" lon="13.1777833"><ele>122.8</ele><time>2026-03-22T09:59:00.044Z</time></trkpt><trkpt lat="41.455248" lon="13.177806"><ele>124.19999999999999</ele><time>2026-03-22T09:59:02.05Z</time></trkpt><trkpt lat="41.4551635" lon="13.1778081"><ele>125.6</ele><time>2026-03-22T09:59:04.052Z</time></trkpt><trkpt lat="41.4551035" lon="13.1778771"><ele>127.0</ele><time>2026-03-22T09:59:06.058Z</time></trkpt><trkpt lat="41.4550972" lon="13.1780504"><ele>127.00000000000001</ele><time>2026-03-22T09:59:08.046Z</time></trkpt><trkpt lat="41.4550962" lon="13.1781541"><ele>127.0</ele><time>2026-03-22T09:59:09.057Z</time></trkpt><trkpt lat="41.455099" lon="13.1782647"><ele>127.0</ele><time>2026-03-22T09:59:10.041Z</time></trkpt><trkpt lat="41.4551098" lon="13.1783793"><ele>127.0</ele><time>2026-03-22T09:59:11.05Z</time></trkpt><trkpt lat="41.4551214" lon="13.1784959"><ele>127.00000000000001</ele><time>2026-03-22T09:59:12.04Z</time></trkpt><trkpt lat="41.455138" lon="13.1786009"><ele>127.0</ele><time>2026-03-22T09:59:13.046Z</time></trkpt><trkpt lat="41.4551639" lon="13.1787136"><ele>127.0</ele><time>2026-03-22T09:59:15.048Z</time></trkpt><trkpt lat="41.4552156" lon="13.1787769"><ele>126.99999999999999</ele><time>2026-03-22T09:59:17.052Z</time></trkpt><trkpt lat="41.4552665" lon="13.1788291"><ele>126.99999999999999</ele><time>2026-03-22T09:59:19.048Z</time></trkpt><trkpt lat="41.4553385" lon="13.1789169"><ele>127.0</ele><time>2026-03-22T09:59:21.051Z</time></trkpt><trkpt lat="41.4554192" lon="13.1790131"><ele>127.0</ele><time>2026-03-22T09:59:23.059Z</time></trkpt><trkpt lat="41.4555045" lon="13.1791322"><ele>127.0</ele><time>2026-03-22T09:59:25.05Z</time></trkpt><trkpt lat="41.455572" lon="13.1792281"><ele>126.99999999999999</ele><time>2026-03-22T09:59:27.046Z</time></trkpt><trkpt lat="41.4556232" lon="13.1793306"><ele>126.99999999999999</ele><time>2026-03-22T09:59:29.077Z</time></trkpt><trkpt lat="41.4556651" lon="13.1794915"><ele>127.0</ele><time>2026-03-22T09:59:31.052Z</time></trkpt><trkpt lat="41.4556819" lon="13.179596"><ele>127.0</ele><time>2026-03-22T09:59:32.044Z</time></trkpt><trkpt lat="41.4556946" lon="13.1797137"><ele>127.00000000000001</ele><time>2026-03-22T09:59:33.05Z</time></trkpt><trkpt lat="41.4556974" lon="13.1798298"><ele>127.0</ele><time>2026-03-22T09:59:34.045Z</time></trkpt><trkpt lat="41.4557005" lon="13.1799404"><ele>127.0</ele><time>2026-03-22T09:59:35.046Z</time></trkpt><trkpt lat="41.4557054" lon="13.1800378"><ele>127.0</ele><time>2026-03-22T09:59:36.052Z</time></trkpt><trkpt lat="41.4557034" lon="13.1801947"><ele>127.00000000000001</ele><time>2026-03-22T09:59:38.065Z</time></trkpt><trkpt lat="41.4556654" lon="13.1802919"><ele>127.0</ele><time>2026-03-22T09:59:40.046Z</time></trkpt><trkpt lat="41.4556051" lon="13.1803491"><ele>125.83333333333334</ele><time>2026-03-22T09:59:42.057Z</time></trkpt><trkpt lat="41.4555139" lon="13.18041"><ele>124.66666666666667</ele><time>2026-03-22T09:59:44.067Z</time></trkpt><trkpt lat="41.4554217" lon="13.1804588"><ele>123.5</ele><time>2026-03-22T09:59:46.044Z</time></trkpt><trkpt lat="41.4553514" lon="13.1803923"><ele>122.33333333333334</ele><time>2026-03-22T09:59:48.054Z</time></trkpt><trkpt lat="41.4553273" lon="13.1802952"><ele>121.16666666666667</ele><time>2026-03-22T09:59:49.046Z</time></trkpt><trkpt lat="41.4553023" lon="13.1801989"><ele>120.0</ele><time>2026-03-22T09:59:50.046Z</time></trkpt><trkpt lat="41.4552731" lon="13.1801147"><ele>122.5</ele><time>2026-03-22T09:59:51.046Z</time></trkpt><trkpt lat="41.4552428" lon="13.1800342"><ele>125.0</ele><time>2026-03-22T09:59:52.048Z</time></trkpt><trkpt lat="41.4551942" lon="13.1798948"><ele>127.5</ele><time>2026-03-22T09:59:54.048Z</time></trkpt><trkpt lat="41.4551661" lon="13.1797653"><ele>130.0</ele><time>2026-03-22T09:59:56.045Z</time></trkpt><trkpt lat="41.4551726" lon="13.1796573"><ele>132.5</ele><time>2026-03-22T09:59:58.053Z</time></trkpt><trkpt lat="41.4551674" lon="13.1795726"><ele>135.0</ele><time>2026-03-22T10:00:02.045Z</time></trkpt><trkpt lat="41.4551785" lon="13.1794508"><ele>136.8</ele><time>2026-03-22T10:00:05.059Z</time></trkpt><trkpt lat="41.455194" lon="13.1793305"><ele>138.6</ele><time>2026-03-22T10:00:07.052Z</time></trkpt><trkpt lat="41.4551121" lon="13.179286"><ele>140.4</ele><time>2026-03-22T10:00:10.053Z</time></trkpt><trkpt lat="41.4550196" lon="13.1793524"><ele>142.2</ele><time>2026-03-22T10:00:12.046Z</time></trkpt><trkpt lat="41.4549193" lon="13.1793369"><ele>144.0</ele><time>2026-03-22T10:00:14.055Z</time></trkpt><trkpt lat="41.4548642" lon="13.1792923"><ele>144.0</ele><time>2026-03-22T10:00:15.051Z</time></trkpt><trkpt lat="41.4548021" lon="13.1792621"><ele>144.0</ele><time>2026-03-22T10:00:16.064Z</time></trkpt><trkpt lat="41.4547357" lon="13.1792658"><ele>144.0</ele><time>2026-03-22T10:00:17.046Z</time></trkpt><trkpt lat="41.4546273" lon="13.1792822"><ele>144.0</ele><time>2026-03-22T10:00:19.044Z</time></trkpt><trkpt lat="41.4545197" lon="13.179235"><ele>144.0</ele><time>2026-03-22T10:00:21.056Z</time></trkpt><trkpt lat="41.4544548" lon="13.1791772"><ele>144.0</ele><time>2026-03-22T10:00:22.047Z</time></trkpt><trkpt lat="41.4543671" lon="13.1791061"><ele>146.4</ele><time>2026-03-22T10:00:23.056Z</time></trkpt><trkpt lat="41.4543002" lon="13.1790506"><ele>148.8</ele><time>2026-03-22T10:00:24.042Z</time></trkpt><trkpt lat="41.454225" lon="13.1789682"><ele>151.2</ele><time>2026-03-22T10:00:26.045Z</time></trkpt><trkpt lat="41.4542044" lon="13.1788275"><ele>153.6</ele><time>2026-03-22T10:00:28.061Z</time></trkpt><trkpt lat="41.4541279" lon="13.1786533"><ele>156.0</ele><time>2026-03-22T10:00:58.061Z</time></trkpt><trkpt lat="41.4541047" lon="13.1785209"><ele>157.14285714285714</ele><time>2026-03-22T10:01:01.046Z</time></trkpt><trkpt lat="41.4540991" lon="13.1784368"><ele>158.28571428571428</ele><time>2026-03-22T10:01:02.047Z</time></trkpt><trkpt lat="41.4540962" lon="13.1783492"><ele>159.42857142857142</ele><time>2026-03-22T10:01:03.045Z</time></trkpt><trkpt lat="41.4540967" lon="13.1782531"><ele>160.57142857142856</ele><time>2026-03-22T10:01:04.045Z</time></trkpt><trkpt lat="41.454096" lon="13.1781583"><ele>161.71428571428572</ele><time>2026-03-22T10:01:05.046Z</time></trkpt><trkpt lat="41.4540789" lon="13.1780726"><ele>162.85714285714283</ele><time>2026-03-22T10:01:06.047Z</time></trkpt><trkpt lat="41.454045" lon="13.1779577"><ele>164.0</ele><time>2026-03-22T10:01:08.048Z</time></trkpt><trkpt lat="41.4540132" lon="13.1778429"><ele>164.16666666666666</ele><time>2026-03-22T10:01:11.049Z</time></trkpt><trkpt lat="41.4539899" lon="13.1777323"><ele>164.33333333333331</ele><time>2026-03-22T10:01:13.048Z</time></trkpt><trkpt lat="41.4539499" lon="13.1776197"><ele>164.5</ele><time>2026-03-22T10:01:15.05Z</time></trkpt><trkpt lat="41.4539093" lon="13.1774754"><ele>164.66666666666666</ele><time>2026-03-22T10:01:17.046Z</time></trkpt><trkpt lat="41.4538887" lon="13.1773846"><ele>164.83333333333334</ele><time>2026-03-22T10:01:18.058Z</time></trkpt><trkpt lat="41.4538662" lon="13.1772943"><ele>165.0</ele><time>2026-03-22T10:01:19.058Z</time></trkpt><trkpt lat="41.4538444" lon="13.1771985"><ele>166.33333333333334</ele><time>2026-03-22T10:01:20.046Z</time></trkpt><trkpt lat="41.453825" lon="13.1770961"><ele>167.66666666666666</ele><time>2026-03-22T10:01:21.04Z</time></trkpt><trkpt lat="41.4537998" lon="13.1770031"><ele>169.0</ele><time>2026-03-22T10:01:22.044Z</time></trkpt><trkpt lat="41.4537738" lon="13.1769243"><ele>170.33333333333331</ele><time>2026-03-22T10:01:23.043Z</time></trkpt><trkpt lat="41.4537498" lon="13.1768451"><ele>171.66666666666666</ele><time>2026-03-22T10:01:24.052Z</time></trkpt><trkpt lat="41.4537231" lon="13.1767611"><ele>173.0</ele><time>2026-03-22T10:01:25.044Z</time></trkpt><trkpt lat="41.4536834" lon="13.1766168"><ele>176.4</ele><time>2026-03-22T10:01:27.048Z</time></trkpt><trkpt lat="41.4536225" lon="13.1765203"><ele>179.8</ele><time>2026-03-22T10:01:29.062Z</time></trkpt><trkpt lat="41.4535764" lon="13.1763713"><ele>183.2</ele><time>2026-03-22T10:01:31.045Z</time></trkpt><trkpt lat="41.4535726" lon="13.1762719"><ele>186.6</ele><time>2026-03-22T10:01:32.043Z</time></trkpt><trkpt lat="41.4535531" lon="13.1761173"><ele>190.0</ele><time>2026-03-22T10:01:34.043Z</time></trkpt><trkpt lat="41.4534671" lon="13.176029"><ele>191.83333333333334</ele><time>2026-03-22T10:01:36.05Z</time></trkpt><trkpt lat="41.4534056" lon="13.1759833"><ele>193.66666666666669</ele><time>2026-03-22T10:01:38.05Z</time></trkpt><trkpt lat="41.4534369" lon="13.1758699"><ele>195.5</ele><time>2026-03-22T10:01:41.054Z</time></trkpt><trkpt lat="41.4535114" lon="13.1758351"><ele>197.33333333333334</ele><time>2026-03-22T10:01:42.042Z</time></trkpt><trkpt lat="41.4536017" lon="13.1758257"><ele>199.16666666666666</ele><time>2026-03-22T10:01:43.048Z</time></trkpt><trkpt lat="41.4536858" lon="13.1758192"><ele>201.0</ele><time>2026-03-22T10:01:44.048Z</time></trkpt><trkpt lat="41.4537511" lon="13.1757988"><ele>201.5</ele><time>2026-03-22T10:01:45.045Z</time></trkpt><trkpt lat="41.453865" lon="13.1757104"><ele>202.0</ele><time>2026-03-22T10:01:47.053Z</time></trkpt><trkpt lat="41.4539203" lon="13.175643"><ele>202.5</ele><time>2026-03-22T10:01:48.047Z</time></trkpt><trkpt lat="41.453978" lon="13.1755938"><ele>203.0</ele><time>2026-03-22T10:01:49.044Z</time></trkpt><trkpt lat="41.4540395" lon="13.1755624"><ele>203.5</ele><time>2026-03-22T10:01:50.042Z</time></trkpt><trkpt lat="41.4541386" lon="13.1755665"><ele>204.0</ele><time>2026-03-22T10:01:52.052Z</time></trkpt><trkpt lat="41.4542228" lon="13.1755525"><ele>204.0</ele><time>2026-03-22T10:01:54.059Z</time></trkpt><trkpt lat="41.4542989" lon="13.1755367"><ele>204.0</ele><time>2026-03-22T10:01:56.056Z</time></trkpt><trkpt lat="41.4543922" lon="13.17552"><ele>204.0</ele><time>2026-03-22T10:01:58.054Z</time></trkpt><trkpt lat="41.454482" lon="13.17545"><ele>204.0</ele><time>2026-03-22T10:02:00.06Z</time></trkpt><trkpt lat="41.4545589" lon="13.1753922"><ele>204.0</ele><time>2026-03-22T10:02:02.05Z</time></trkpt><trkpt lat="41.4546926" lon="13.1753621"><ele>204.0</ele><time>2026-03-22T10:04:16.066Z</time></trkpt><trkpt lat="41.4547052" lon="13.1752626"><ele>204.0</ele><time>2026-03-22T10:04:44.053Z</time></trkpt><trkpt lat="41.454642" lon="13.1751603"><ele>204.0</ele><time>2026-03-22T10:04:47.051Z</time></trkpt><trkpt lat="41.4546045" lon="13.1750876"><ele>204.0</ele><time>2026-03-22T10:04:48.042Z</time></trkpt><trkpt lat="41.4545707" lon="13.1749926"><ele>204.0</ele><time>2026-03-22T10:04:49.049Z</time></trkpt><trkpt lat="41.4545317" lon="13.1748902"><ele>204.0</ele><time>2026-03-22T10:04:50.042Z</time></trkpt><trkpt lat="41.454497" lon="13.1748037"><ele>206.0</ele><time>2026-03-22T10:04:51.049Z</time></trkpt><trkpt lat="41.4544638" lon="13.174721"><ele>208.0</ele><time>2026-03-22T10:04:52.045Z</time></trkpt><trkpt lat="41.4544269" lon="13.1746442"><ele>209.99999999999997</ele><time>2026-03-22T10:04:53.048Z</time></trkpt><trkpt lat="41.454362" lon="13.1745215"><ele>212.0</ele><time>2026-03-22T10:04:55.046Z</time></trkpt><trkpt lat="41.4543398" lon="13.1744104"><ele>214.0</ele><time>2026-03-22T10:04:57.061Z</time></trkpt><trkpt lat="41.4544218" lon="13.1742238"><ele>213.99999999999997</ele><time>2026-03-22T10:04:59.037Z</time></trkpt><trkpt lat="41.4544572" lon="13.1741215"><ele>214.0</ele><time>2026-03-22T10:05:00.04Z</time></trkpt><trkpt lat="41.454488" lon="13.1740193"><ele>214.0</ele><time>2026-03-22T10:05:01.039Z</time></trkpt><trkpt lat="41.4545222" lon="13.1739308"><ele>214.0</ele><time>2026-03-22T10:05:02.046Z</time></trkpt><trkpt lat="41.4545583" lon="13.1738435"><ele>213.99999999999997</ele><time>2026-03-22T10:05:03.043Z</time></trkpt><trkpt lat="41.4545887" lon="13.1737541"><ele>214.0</ele><time>2026-03-22T10:05:04.063Z</time></trkpt><trkpt lat="41.4546126" lon="13.1736626"><ele>212.33333333333331</ele><time>2026-03-22T10:05:05.045Z</time></trkpt><trkpt lat="41.4546397" lon="13.173566"><ele>210.66666666666666</ele><time>2026-03-22T10:05:06.055Z</time></trkpt><trkpt lat="41.4546702" lon="13.1734884"><ele>209.0</ele><time>2026-03-22T10:05:07.047Z</time></trkpt><trkpt lat="41.4546967" lon="13.173412"><ele>207.33333333333331</ele><time>2026-03-22T10:05:08.042Z</time></trkpt><trkpt lat="41.4547538" lon="13.173287"><ele>205.66666666666666</ele><time>2026-03-22T10:05:10.05Z</time></trkpt><trkpt lat="41.4548225" lon="13.1731729"><ele>204.0</ele><time>2026-03-22T10:05:12.075Z</time></trkpt><trkpt lat="41.4548844" lon="13.1730544"><ele>204.0</ele><time>2026-03-22T10:05:14.048Z</time></trkpt><trkpt lat="41.4549422" lon="13.1729651"><ele>204.0</ele><time>2026-03-22T10:05:16.052Z</time></trkpt><trkpt lat="41.454996" lon="13.1729059"><ele>204.0</ele><time>2026-03-22T10:05:18.054Z</time></trkpt><trkpt lat="41.4550567" lon="13.172848"><ele>204.0</ele><time>2026-03-22T10:05:21.051Z</time></trkpt><trkpt lat="41.455103" lon="13.1727607"><ele>204.0</ele><time>2026-03-22T10:05:24.048Z</time></trkpt><trkpt lat="41.4550873" lon="13.1726491"><ele>204.0</ele><time>2026-03-22T10:05:27.047Z</time></trkpt><trkpt lat="41.4550791" lon="13.1725437"><ele>204.0</ele><time>2026-03-22T10:05:29.046Z</time></trkpt><trkpt lat="41.4550985" lon="13.1724501"><ele>204.0</ele><time>2026-03-22T10:05:32.054Z</time></trkpt><trkpt lat="41.4551246" lon="13.1723268"><ele>204.0</ele><time>2026-03-22T10:05:35.047Z</time></trkpt><trkpt lat="41.4551492" lon="13.1722254"><ele>204.0</ele><time>2026-03-22T10:05:37.051Z</time></trkpt><trkpt lat="41.4551686" lon="13.1721006"><ele>204.0</ele><time>2026-03-22T10:05:39.052Z</time></trkpt><trkpt lat="41.4551653" lon="13.1719799"><ele>204.0</ele><time>2026-03-22T10:05:41.048Z</time></trkpt><trkpt lat="41.4551419" lon="13.1718394"><ele>203.57142857142858</ele><time>2026-03-22T10:05:43.046Z</time></trkpt><trkpt lat="41.4551155" lon="13.1717505"><ele>203.14285714285717</ele><time>2026-03-22T10:05:44.066Z</time></trkpt><trkpt lat="41.4550853" lon="13.1716644"><ele>202.71428571428572</ele><time>2026-03-22T10:05:45.048Z</time></trkpt><trkpt lat="41.4550567" lon="13.1715886"><ele>202.28571428571428</ele><time>2026-03-22T10:05:46.048Z</time></trkpt><trkpt lat="41.4550204" lon="13.1715154"><ele>201.85714285714286</ele><time>2026-03-22T10:05:47.048Z</time></trkpt><trkpt lat="41.4549707" lon="13.1714544"><ele>201.42857142857142</ele><time>2026-03-22T10:05:48.052Z</time></trkpt><trkpt lat="41.4549153" lon="13.1714008"><ele>201.0</ele><time>2026-03-22T10:05:49.042Z</time></trkpt><trkpt lat="41.4548583" lon="13.1713241"><ele>200.0</ele><time>2026-03-22T10:05:50.063Z</time></trkpt><trkpt lat="41.4548035" lon="13.1712166"><ele>199.0</ele><time>2026-03-22T10:05:51.04Z</time></trkpt><trkpt lat="41.4547423" lon="13.1710986"><ele>198.0</ele><time>2026-03-22T10:05:52.049Z</time></trkpt><trkpt lat="41.4546934" lon="13.1710007"><ele>197.0</ele><time>2026-03-22T10:05:53.043Z</time></trkpt><trkpt lat="41.4546107" lon="13.1708766"><ele>196.0</ele><time>2026-03-22T10:05:55.05Z</time></trkpt><trkpt lat="41.4545638" lon="13.1708192"><ele>196.85714285714286</ele><time>2026-03-22T10:05:56.048Z</time></trkpt><trkpt lat="41.4545021" lon="13.1707655"><ele>197.71428571428572</ele><time>2026-03-22T10:05:57.048Z</time></trkpt><trkpt lat="41.45444" lon="13.1707282"><ele>198.57142857142856</ele><time>2026-03-22T10:05:58.042Z</time></trkpt><trkpt lat="41.4543786" lon="13.1706835"><ele>199.42857142857144</ele><time>2026-03-22T10:05:59.046Z</time></trkpt><trkpt lat="41.4543248" lon="13.1706358"><ele>200.28571428571428</ele><time>2026-03-22T10:06:00.045Z</time></trkpt><trkpt lat="41.4542668" lon="13.1705669"><ele>201.14285714285714</ele><time>2026-03-22T10:06:01.061Z</time></trkpt><trkpt lat="41.4542034" lon="13.1704863"><ele>202.0</ele><time>2026-03-22T10:06:02.047Z</time></trkpt><trkpt lat="41.4541366" lon="13.170401"><ele>201.99999999999997</ele><time>2026-03-22T10:06:03.049Z</time></trkpt><trkpt lat="41.4540707" lon="13.1703299"><ele>202.0</ele><time>2026-03-22T10:06:04.044Z</time></trkpt><trkpt lat="41.4540045" lon="13.1702547"><ele>202.0</ele><time>2026-03-22T10:06:05.046Z</time></trkpt><trkpt lat="41.4539319" lon="13.1701658"><ele>202.0</ele><time>2026-03-22T10:06:06.059Z</time></trkpt><trkpt lat="41.453866" lon="13.17009"><ele>201.99999999999997</ele><time>2026-03-22T10:06:07.042Z</time></trkpt><trkpt lat="41.4538143" lon="13.1700266"><ele>202.0</ele><time>2026-03-22T10:06:08.046Z</time></trkpt><trkpt lat="41.4537419" lon="13.1699202"><ele>203.83333333333331</ele><time>2026-03-22T10:06:10.054Z</time></trkpt><trkpt lat="41.4536564" lon="13.1698233"><ele>205.66666666666666</ele><time>2026-03-22T10:06:12.07Z</time></trkpt><trkpt lat="41.4536083" lon="13.1697678"><ele>207.5</ele><time>2026-03-22T10:06:13.048Z</time></trkpt><trkpt lat="41.4535597" lon="13.1696819"><ele>209.33333333333331</ele><time>2026-03-22T10:06:15.051Z</time></trkpt><trkpt lat="41.4535361" lon="13.169594"><ele>211.16666666666666</ele><time>2026-03-22T10:06:17.047Z</time></trkpt><trkpt lat="41.4535452" lon="13.1694812"><ele>213.0</ele><time>2026-03-22T10:06:19.052Z</time></trkpt><trkpt lat="41.4535765" lon="13.1693685"><ele>213.0</ele><time>2026-03-22T10:06:21.043Z</time></trkpt><trkpt lat="41.4535832" lon="13.169267"><ele>213.0</ele><time>2026-03-22T10:06:23.044Z</time></trkpt><trkpt lat="41.4535574" lon="13.1691681"><ele>213.0</ele><time>2026-03-22T10:06:25.044Z</time></trkpt><trkpt lat="41.4534956" lon="13.1690736"><ele>213.0</ele><time>2026-03-22T10:06:27.048Z</time></trkpt><trkpt lat="41.4534074" lon="13.1689292"><ele>213.0</ele><time>2026-03-22T10:06:29.051Z</time></trkpt><trkpt lat="41.4533583" lon="13.1688429"><ele>212.60000000000002</ele><time>2026-03-22T10:06:30.05Z</time></trkpt><trkpt lat="41.4532862" lon="13.1687227"><ele>212.20000000000002</ele><time>2026-03-22T10:06:32.049Z</time></trkpt><trkpt lat="41.4531918" lon="13.16863"><ele>211.8</ele><time>2026-03-22T10:06:34.056Z</time></trkpt><trkpt lat="41.4530858" lon="13.16863"><ele>211.4</ele><time>2026-03-22T10:06:36.053Z</time></trkpt><trkpt lat="41.4530887" lon="13.1685259"><ele>211.0</ele><time>2026-03-22T10:06:39.044Z</time></trkpt><trkpt lat="41.4531759" lon="13.1684837"><ele>211.0</ele><time>2026-03-22T10:06:51.043Z</time></trkpt><trkpt lat="41.4532393" lon="13.1684433"><ele>211.0</ele><time>2026-03-22T10:06:52.06Z</time></trkpt><trkpt lat="41.4533126" lon="13.1683999"><ele>211.0</ele><time>2026-03-22T10:06:53.049Z</time></trkpt><trkpt lat="41.4533972" lon="13.1683497"><ele>211.0</ele><time>2026-03-22T10:06:54.045Z</time></trkpt><trkpt lat="41.4534954" lon="13.1682915"><ele>211.0</ele><time>2026-03-22T10:06:55.044Z</time></trkpt><trkpt lat="41.4535953" lon="13.1682405"><ele>211.33333333333331</ele><time>2026-03-22T10:06:56.044Z</time></trkpt><trkpt lat="41.4536768" lon="13.1681927"><ele>211.66666666666666</ele><time>2026-03-22T10:06:57.043Z</time></trkpt><trkpt lat="41.4537466" lon="13.1681479"><ele>212.0</ele><time>2026-03-22T10:06:58.042Z</time></trkpt><trkpt lat="41.4538106" lon="13.168109"><ele>212.33333333333331</ele><time>2026-03-22T10:06:59.042Z</time></trkpt><trkpt lat="41.4538694" lon="13.1680607"><ele>212.66666666666666</ele><time>2026-03-22T10:07:00.051Z</time></trkpt><trkpt lat="41.4539389" lon="13.1680107"><ele>213.0</ele><time>2026-03-22T10:07:01.047Z</time></trkpt><trkpt lat="41.4540164" lon="13.1679526"><ele>213.0</ele><time>2026-03-22T10:07:02.05Z</time></trkpt><trkpt lat="41.4540944" lon="13.1678964"><ele>213.0</ele><time>2026-03-22T10:07:03.051Z</time></trkpt><trkpt lat="41.4541778" lon="13.1678377"><ele>213.0</ele><time>2026-03-22T10:07:04.046Z</time></trkpt><trkpt lat="41.4542671" lon="13.1677757"><ele>213.0</ele><time>2026-03-22T10:07:05.044Z</time></trkpt><trkpt lat="41.4543713" lon="13.1677041"><ele>213.0</ele><time>2026-03-22T10:07:06.041Z</time></trkpt><trkpt lat="41.4544873" lon="13.1676164"><ele>213.0</ele><time>2026-03-22T10:07:07.044Z</time></trkpt><trkpt lat="41.4545996" lon="13.1675295"><ele>213.0</ele><time>2026-03-22T10:07:08.043Z</time></trkpt><trkpt lat="41.4547084" lon="13.1674299"><ele>213.0</ele><time>2026-03-22T10:07:09.042Z</time></trkpt><trkpt lat="41.4548211" lon="13.1673409"><ele>213.0</ele><time>2026-03-22T10:07:10.059Z</time></trkpt><trkpt lat="41.4549404" lon="13.1672568"><ele>209.0</ele><time>2026-03-22T10:07:11.04Z</time></trkpt><trkpt lat="41.4550734" lon="13.1671928"><ele>205.0</ele><time>2026-03-22T10:07:12.048Z</time></trkpt><trkpt lat="41.4552234" lon="13.167136"><ele>201.0</ele><time>2026-03-22T10:07:13.045Z</time></trkpt><trkpt lat="41.4553695" lon="13.1670647"><ele>199.5</ele><time>2026-03-22T10:07:14.05Z</time></trkpt><trkpt lat="41.4555077" lon="13.1669821"><ele>198.0</ele><time>2026-03-22T10:07:15.039Z</time></trkpt><trkpt lat="41.4556375" lon="13.166911"><ele>196.5</ele><time>2026-03-22T10:07:16.047Z</time></trkpt><trkpt lat="41.4557647" lon="13.1668569"><ele>195.0</ele><time>2026-03-22T10:07:17.041Z</time></trkpt><trkpt lat="41.4558916" lon="13.1668129"><ele>195.0</ele><time>2026-03-22T10:07:18.046Z</time></trkpt><trkpt lat="41.4560124" lon="13.1668115"><ele>195.0</ele><time>2026-03-22T10:07:19.041Z</time></trkpt><trkpt lat="41.4561317" lon="13.1668339"><ele>195.0</ele><time>2026-03-22T10:07:20.042Z</time></trkpt><trkpt lat="41.4562558" lon="13.166856"><ele>195.0</ele><time>2026-03-22T10:07:21.043Z</time></trkpt><trkpt lat="41.4563905" lon="13.1668627"><ele>193.66666666666666</ele><time>2026-03-22T10:07:22.042Z</time></trkpt><trkpt lat="41.4565033" lon="13.1668443"><ele>192.33333333333334</ele><time>2026-03-22T10:07:23.048Z</time></trkpt><trkpt lat="41.456599" lon="13.1668381"><ele>191.0</ele><time>2026-03-22T10:07:24.044Z</time></trkpt><trkpt lat="41.456681" lon="13.1668307"><ele>189.66666666666669</ele><time>2026-03-22T10:07:25.053Z</time></trkpt><trkpt lat="41.4567509" lon="13.1668181"><ele>188.33333333333334</ele><time>2026-03-22T10:07:26.043Z</time></trkpt><trkpt lat="41.4568195" lon="13.1667863"><ele>187.0</ele><time>2026-03-22T10:07:27.042Z</time></trkpt><trkpt lat="41.4569104" lon="13.1667472"><ele>187.0</ele><time>2026-03-22T10:07:28.044Z</time></trkpt><trkpt lat="41.4570132" lon="13.166705"><ele>187.0</ele><time>2026-03-22T10:07:29.046Z</time></trkpt><trkpt lat="41.4571355" lon="13.1666842"><ele>187.0</ele><time>2026-03-22T10:07:30.046Z</time></trkpt><trkpt lat="41.4572619" lon="13.1666765"><ele>187.0</ele><time>2026-03-22T10:07:31.043Z</time></trkpt><trkpt lat="41.4573701" lon="13.1666678"><ele>185.33333333333334</ele><time>2026-03-22T10:07:32.058Z</time></trkpt><trkpt lat="41.4574613" lon="13.166658"><ele>183.66666666666669</ele><time>2026-03-22T10:07:33.045Z</time></trkpt><trkpt lat="41.4575314" lon="13.1666509"><ele>182.0</ele><time>2026-03-22T10:07:34.044Z</time></trkpt><trkpt lat="41.4576011" lon="13.1666681"><ele>180.33333333333334</ele><time>2026-03-22T10:07:36.045Z</time></trkpt><trkpt lat="41.4575612" lon="13.1667925"><ele>178.66666666666666</ele><time>2026-03-22T10:07:39.049Z</time></trkpt><trkpt lat="41.4574956" lon="13.166865"><ele>177.0</ele><time>2026-03-22T10:07:40.05Z</time></trkpt><trkpt lat="41.4574158" lon="13.1669659"><ele>177.0</ele><time>2026-03-22T10:07:41.052Z</time></trkpt><trkpt lat="41.4573434" lon="13.1670755"><ele>177.0</ele><time>2026-03-22T10:07:42.048Z</time></trkpt><trkpt lat="41.4572827" lon="13.1671604"><ele>177.0</ele><time>2026-03-22T10:07:43.05Z</time></trkpt><trkpt lat="41.4572339" lon="13.167231"><ele>177.0</ele><time>2026-03-22T10:07:44.049Z</time></trkpt><trkpt lat="41.4571887" lon="13.1673195"><ele>177.0</ele><time>2026-03-22T10:07:45.049Z</time></trkpt><trkpt lat="41.4571651" lon="13.1674285"><ele>177.0</ele><time>2026-03-22T10:07:46.069Z</time></trkpt><trkpt lat="41.457176" lon="13.1675389"><ele>176.16666666666666</ele><time>2026-03-22T10:07:47.044Z</time></trkpt><trkpt lat="41.4571706" lon="13.1676394"><ele>175.33333333333334</ele><time>2026-03-22T10:07:48.043Z</time></trkpt><trkpt lat="41.4571518" lon="13.1677968"><ele>174.5</ele><time>2026-03-22T10:07:50.046Z</time></trkpt><trkpt lat="41.4571304" lon="13.1678766"><ele>173.66666666666669</ele><time>2026-03-22T10:07:51.043Z</time></trkpt><trkpt lat="41.4571288" lon="13.16797"><ele>172.83333333333334</ele><time>2026-03-22T10:07:52.042Z</time></trkpt><trkpt lat="41.4571516" lon="13.1680753"><ele>172.0</ele><time>2026-03-22T10:07:53.043Z</time></trkpt><trkpt lat="41.4571849" lon="13.1681975"><ele>172.0</ele><time>2026-03-22T10:07:54.042Z</time></trkpt><trkpt lat="41.4572197" lon="13.1683212"><ele>172.0</ele><time>2026-03-22T10:07:55.046Z</time></trkpt><trkpt lat="41.4572493" lon="13.1684392"><ele>172.0</ele><time>2026-03-22T10:07:56.051Z</time></trkpt><trkpt lat="41.4572732" lon="13.1685431"><ele>172.0</ele><time>2026-03-22T10:07:57.042Z</time></trkpt><trkpt lat="41.4572941" lon="13.1686362"><ele>172.0</ele><time>2026-03-22T10:07:58.042Z</time></trkpt><trkpt lat="41.4573179" lon="13.1687295"><ele>172.0</ele><time>2026-03-22T10:07:59.044Z</time></trkpt><trkpt lat="41.4573425" lon="13.1688143"><ele>172.0</ele><time>2026-03-22T10:08:00.043Z</time></trkpt><trkpt lat="41.4573713" lon="13.1688992"><ele>172.0</ele><time>2026-03-22T10:08:01.043Z</time></trkpt><trkpt lat="41.4573975" lon="13.1689939"><ele>172.0</ele><time>2026-03-22T10:08:02.042Z</time></trkpt><trkpt lat="41.4574012" lon="13.1691057"><ele>172.0</ele><time>2026-03-22T10:08:03.044Z</time></trkpt><trkpt lat="41.4574027" lon="13.1692299"><ele>172.0</ele><time>2026-03-22T10:08:04.038Z</time></trkpt><trkpt lat="41.457409" lon="13.1693388"><ele>172.0</ele><time>2026-03-22T10:08:05.04Z</time></trkpt><trkpt lat="41.4574141" lon="13.1694305"><ele>172.0</ele><time>2026-03-22T10:08:06.048Z</time></trkpt><trkpt lat="41.4574142" lon="13.1695291"><ele>172.0</ele><time>2026-03-22T10:08:07.046Z</time></trkpt><trkpt lat="41.4574129" lon="13.1696155"><ele>172.0</ele><time>2026-03-22T10:08:08.048Z</time></trkpt><trkpt lat="41.4574071" lon="13.1697582"><ele>172.0</ele><time>2026-03-22T10:08:10.045Z</time></trkpt><trkpt lat="41.4574426" lon="13.1699387"><ele>172.0</ele><time>2026-03-22T10:08:12.048Z</time></trkpt><trkpt lat="41.4574544" lon="13.1700912"><ele>171.2857142857143</ele><time>2026-03-22T10:08:14.051Z</time></trkpt><trkpt lat="41.4574686" lon="13.170177"><ele>170.57142857142858</ele><time>2026-03-22T10:08:15.039Z</time></trkpt><trkpt lat="41.457482" lon="13.1702683"><ele>169.85714285714286</ele><time>2026-03-22T10:08:16.045Z</time></trkpt><trkpt lat="41.4574884" lon="13.1703556"><ele>169.14285714285717</ele><time>2026-03-22T10:08:17.044Z</time></trkpt><trkpt lat="41.4574862" lon="13.1704402"><ele>168.42857142857144</ele><time>2026-03-22T10:08:18.047Z</time></trkpt><trkpt lat="41.4574848" lon="13.1705368"><ele>167.71428571428572</ele><time>2026-03-22T10:08:19.047Z</time></trkpt><trkpt lat="41.4574806" lon="13.1706347"><ele>167.0</ele><time>2026-03-22T10:08:20.044Z</time></trkpt><trkpt lat="41.457469" lon="13.1707383"><ele>166.33333333333331</ele><time>2026-03-22T10:08:21.045Z</time></trkpt><trkpt lat="41.4574593" lon="13.1708476"><ele>165.66666666666666</ele><time>2026-03-22T10:08:22.043Z</time></trkpt><trkpt lat="41.4574558" lon="13.1709497"><ele>165.0</ele><time>2026-03-22T10:08:23.043Z</time></trkpt><trkpt lat="41.457455" lon="13.1710467"><ele>164.33333333333334</ele><time>2026-03-22T10:08:24.046Z</time></trkpt><trkpt lat="41.4574508" lon="13.1711437"><ele>163.66666666666669</ele><time>2026-03-22T10:08:25.06Z</time></trkpt><trkpt lat="41.457464" lon="13.1712475"><ele>163.0</ele><time>2026-03-22T10:08:26.049Z</time></trkpt><trkpt lat="41.4574875" lon="13.1713324"><ele>163.0</ele><time>2026-03-22T10:08:27.042Z</time></trkpt><trkpt lat="41.4575106" lon="13.1714156"><ele>163.0</ele><time>2026-03-22T10:08:28.04Z</time></trkpt><trkpt lat="41.4575447" lon="13.1714869"><ele>163.0</ele><time>2026-03-22T10:08:29.044Z</time></trkpt><trkpt lat="41.4575965" lon="13.1716183"><ele>163.0</ele><time>2026-03-22T10:08:31.046Z</time></trkpt><trkpt lat="41.4576608" lon="13.1717872"><ele>163.0</ele><time>2026-03-22T10:08:33.039Z</time></trkpt><trkpt lat="41.4577136" lon="13.1719028"><ele>163.2</ele><time>2026-03-22T10:08:34.043Z</time></trkpt><trkpt lat="41.4577621" lon="13.1720125"><ele>163.4</ele><time>2026-03-22T10:08:35.043Z</time></trkpt><trkpt lat="41.4578011" lon="13.1721225"><ele>163.6</ele><time>2026-03-22T10:08:36.042Z</time></trkpt><trkpt lat="41.4578389" lon="13.1722228"><ele>163.79999999999998</ele><time>2026-03-22T10:08:37.056Z</time></trkpt><trkpt lat="41.4578695" lon="13.1723107"><ele>164.0</ele><time>2026-03-22T10:08:38.049Z</time></trkpt><trkpt lat="41.45791" lon="13.17245"><ele>163.0</ele><time>2026-03-22T10:08:40.045Z</time></trkpt><trkpt lat="41.4579294" lon="13.1725301"><ele>162.0</ele><time>2026-03-22T10:08:42.049Z</time></trkpt><trkpt lat="41.4579532" lon="13.1726369"><ele>161.0</ele><time>2026-03-22T10:08:50.05Z</time></trkpt><trkpt lat="41.4580056" lon="13.1727661"><ele>160.0</ele><time>2026-03-22T10:08:52.052Z</time></trkpt><trkpt lat="41.4580722" lon="13.1728696"><ele>159.0</ele><time>2026-03-22T10:08:54.052Z</time></trkpt><trkpt lat="41.4581373" lon="13.1729549"><ele>156.0</ele><time>2026-03-22T10:08:56.052Z</time></trkpt><trkpt lat="41.4581757" lon="13.1730459"><ele>153.0</ele><time>2026-03-22T10:08:58.049Z</time></trkpt><trkpt lat="41.4582499" lon="13.1730774"><ele>150.0</ele><time>2026-03-22T10:09:01.046Z</time></trkpt><trkpt lat="41.4583218" lon="13.1731323"><ele>147.0</ele><time>2026-03-22T10:09:04.041Z</time></trkpt><trkpt lat="41.4583076" lon="13.1732789"><ele>144.0</ele><time>2026-03-22T10:09:06.042Z</time></trkpt><trkpt lat="41.4583163" lon="13.1733804"><ele>141.0</ele><time>2026-03-22T10:09:07.05Z</time></trkpt><trkpt lat="41.4583139" lon="13.1734717"><ele>140.2</ele><time>2026-03-22T10:09:08.047Z</time></trkpt><trkpt lat="41.4582986" lon="13.1735569"><ele>139.39999999999998</ele><time>2026-03-22T10:09:09.046Z</time></trkpt><trkpt lat="41.4583536" lon="13.1736554"><ele>138.6</ele><time>2026-03-22T10:09:11.042Z</time></trkpt><trkpt lat="41.4583972" lon="13.1737777"><ele>137.79999999999998</ele><time>2026-03-22T10:09:13.042Z</time></trkpt><trkpt lat="41.4583928" lon="13.1739409"><ele>137.0</ele><time>2026-03-22T10:09:15.058Z</time></trkpt><trkpt lat="41.4583628" lon="13.1740399"><ele>136.16666666666666</ele><time>2026-03-22T10:09:17.048Z</time></trkpt><trkpt lat="41.4582744" lon="13.1740762"><ele>135.33333333333331</ele><time>2026-03-22T10:09:19.05Z</time></trkpt><trkpt lat="41.4581971" lon="13.1740974"><ele>134.5</ele><time>2026-03-22T10:09:21.048Z</time></trkpt><trkpt lat="41.4581411" lon="13.1741716"><ele>133.66666666666666</ele><time>2026-03-22T10:09:27.059Z</time></trkpt><trkpt lat="41.4580876" lon="13.1742927"><ele>132.83333333333334</ele><time>2026-03-22T10:09:29.051Z</time></trkpt><trkpt lat="41.4580509" lon="13.174371"><ele>132.0</ele><time>2026-03-22T10:09:30.049Z</time></trkpt><trkpt lat="41.4580126" lon="13.1744578"><ele>132.0</ele><time>2026-03-22T10:09:31.054Z</time></trkpt><trkpt lat="41.4579863" lon="13.17456"><ele>132.0</ele><time>2026-03-22T10:09:32.056Z</time></trkpt><trkpt lat="41.4579722" lon="13.174642"><ele>132.0</ele><time>2026-03-22T10:09:33.051Z</time></trkpt><trkpt lat="41.4579267" lon="13.1747705"><ele>132.0</ele><time>2026-03-22T10:09:35.049Z</time></trkpt><trkpt lat="41.4578152" lon="13.174868"><ele>132.0</ele><time>2026-03-22T10:09:37.048Z</time></trkpt><trkpt lat="41.45773" lon="13.1749054"><ele>133.33333333333334</ele><time>2026-03-22T10:09:38.047Z</time></trkpt><trkpt lat="41.4576286" lon="13.1749377"><ele>134.66666666666666</ele><time>2026-03-22T10:09:39.042Z</time></trkpt><trkpt lat="41.4575328" lon="13.1749745"><ele>136.0</ele><time>2026-03-22T10:09:40.038Z</time></trkpt><trkpt lat="41.4574589" lon="13.1750217"><ele>137.33333333333331</ele><time>2026-03-22T10:09:41.051Z</time></trkpt><trkpt lat="41.4573943" lon="13.1750691"><ele>138.66666666666666</ele><time>2026-03-22T10:09:42.05Z</time></trkpt><trkpt lat="41.4573277" lon="13.1751223"><ele>140.0</ele><time>2026-03-22T10:09:43.051Z</time></trkpt><trkpt lat="41.4572796" lon="13.1751901"><ele>140.0</ele><time>2026-03-22T10:09:44.051Z</time></trkpt><trkpt lat="41.4571997" lon="13.1752742"><ele>140.0</ele><time>2026-03-22T10:09:46.078Z</time></trkpt><trkpt lat="41.4571269" lon="13.175294"><ele>140.0</ele><time>2026-03-22T10:09:48.05Z</time></trkpt><trkpt lat="41.4570601" lon="13.1752518"><ele>140.0</ele><time>2026-03-22T10:09:50.049Z</time></trkpt><trkpt lat="41.4570109" lon="13.1751959"><ele>140.0</ele><time>2026-03-22T10:09:52.052Z</time></trkpt><trkpt lat="41.4569815" lon="13.1752762"><ele>140.0</ele><time>2026-03-22T10:09:56.051Z</time></trkpt><trkpt lat="41.4570401" lon="13.1753329"><ele>140.0</ele><time>2026-03-22T10:09:58.049Z</time></trkpt><trkpt lat="41.4571232" lon="13.1754"><ele>140.0</ele><time>2026-03-22T10:10:00.043Z</time></trkpt><trkpt lat="41.4572121" lon="13.1754295"><ele>140.0</ele><time>2026-03-22T10:10:02.044Z</time></trkpt><trkpt lat="41.457324" lon="13.1754605"><ele>140.0</ele><time>2026-03-22T10:10:04.043Z</time></trkpt><trkpt lat="41.4574328" lon="13.1754917"><ele>140.0</ele><time>2026-03-22T10:10:06.045Z</time></trkpt><trkpt lat="41.4575533" lon="13.1755229"><ele>140.0</ele><time>2026-03-22T10:10:08.043Z</time></trkpt><trkpt lat="41.457667" lon="13.175561"><ele>140.0</ele><time>2026-03-22T10:10:10.044Z</time></trkpt><trkpt lat="41.4577851" lon="13.1756213"><ele>140.0</ele><time>2026-03-22T10:10:12.058Z</time></trkpt><trkpt lat="41.4578448" lon="13.1756533"><ele>140.0</ele><time>2026-03-22T10:10:13.052Z</time></trkpt><trkpt lat="41.4579066" lon="13.1756754"><ele>140.0</ele><time>2026-03-22T10:10:14.044Z</time></trkpt><trkpt lat="41.4580321" lon="13.175692"><ele>137.0</ele><time>2026-03-22T10:10:16.042Z</time></trkpt><trkpt lat="41.4580967" lon="13.1756887"><ele>134.0</ele><time>2026-03-22T10:10:17.042Z</time></trkpt><trkpt lat="41.4582098" lon="13.1757145"><ele>131.0</ele><time>2026-03-22T10:10:19.047Z</time></trkpt><trkpt lat="41.4582646" lon="13.1757592"><ele>128.0</ele><time>2026-03-22T10:10:20.053Z</time></trkpt><trkpt lat="41.4583205" lon="13.1758229"><ele>124.99999999999999</ele><time>2026-03-22T10:10:21.042Z</time></trkpt><trkpt lat="41.4583762" lon="13.1759006"><ele>122.0</ele><time>2026-03-22T10:10:22.047Z</time></trkpt><trkpt lat="41.458428" lon="13.1759905"><ele>121.99999999999999</ele><time>2026-03-22T10:10:23.045Z</time></trkpt><trkpt lat="41.4584657" lon="13.1760801"><ele>122.0</ele><time>2026-03-22T10:10:24.043Z</time></trkpt><trkpt lat="41.458478" lon="13.1761644"><ele>122.0</ele><time>2026-03-22T10:10:25.06Z</time></trkpt><trkpt lat="41.4584804" lon="13.1762661"><ele>122.0</ele><time>2026-03-22T10:10:26.043Z</time></trkpt><trkpt lat="41.458495" lon="13.176377"><ele>121.99999999999999</ele><time>2026-03-22T10:10:27.047Z</time></trkpt><trkpt lat="41.4585161" lon="13.1764747"><ele>122.0</ele><time>2026-03-22T10:10:28.044Z</time></trkpt><trkpt lat="41.4585386" lon="13.176566"><ele>120.99999999999999</ele><time>2026-03-22T10:10:29.045Z</time></trkpt><trkpt lat="41.4585679" lon="13.1766553"><ele>120.0</ele><time>2026-03-22T10:10:30.042Z</time></trkpt><trkpt lat="41.4585762" lon="13.1767691"><ele>119.0</ele><time>2026-03-22T10:10:31.053Z</time></trkpt><trkpt lat="41.458583" lon="13.1768921"><ele>118.0</ele><time>2026-03-22T10:10:32.051Z</time></trkpt><trkpt lat="41.4585934" lon="13.1770169"><ele>116.99999999999999</ele><time>2026-03-22T10:10:33.061Z</time></trkpt><trkpt lat="41.4585991" lon="13.1771487"><ele>116.0</ele><time>2026-03-22T10:10:34.047Z</time></trkpt><trkpt lat="41.4585964" lon="13.1772815"><ele>115.6</ele><time>2026-03-22T10:10:35.05Z</time></trkpt><trkpt lat="41.4585922" lon="13.1774177"><ele>115.19999999999999</ele><time>2026-03-22T10:10:36.042Z</time></trkpt><trkpt lat="41.4585679" lon="13.1775682"><ele>114.80000000000001</ele><time>2026-03-22T10:10:37.039Z</time></trkpt><trkpt lat="41.4585389" lon="13.1777177"><ele>114.4</ele><time>2026-03-22T10:10:38.05Z</time></trkpt><trkpt lat="41.458505" lon="13.1778612"><ele>114.0</ele><time>2026-03-22T10:10:39.051Z</time></trkpt><trkpt lat="41.4584765" lon="13.1779945"><ele>114.0</ele><time>2026-03-22T10:10:40.042Z</time></trkpt><trkpt lat="41.4584534" lon="13.1781305"><ele>114.0</ele><time>2026-03-22T10:10:41.064Z</time></trkpt><trkpt lat="41.4584336" lon="13.1782624"><ele>114.0</ele><time>2026-03-22T10:10:42.051Z</time></trkpt><trkpt lat="41.4584143" lon="13.1783858"><ele>114.0</ele><time>2026-03-22T10:10:43.054Z</time></trkpt><trkpt lat="41.4583913" lon="13.1784902"><ele>114.0</ele><time>2026-03-22T10:10:44.046Z</time></trkpt><trkpt lat="41.4583722" lon="13.178578"><ele>114.33333333333333</ele><time>2026-03-22T10:10:45.043Z</time></trkpt><trkpt lat="41.458333" lon="13.1786815"><ele>114.66666666666666</ele><time>2026-03-22T10:10:47.043Z</time></trkpt><trkpt lat="41.4582497" lon="13.1786615"><ele>115.0</ele><time>2026-03-22T10:10:50.062Z</time></trkpt><trkpt lat="41.4582037" lon="13.1785796"><ele>115.33333333333333</ele><time>2026-03-22T10:10:52.046Z</time></trkpt><trkpt lat="41.4581546" lon="13.1785013"><ele>115.66666666666666</ele><time>2026-03-22T10:10:54.042Z</time></trkpt><trkpt lat="41.4580997" lon="13.1784325"><ele>116.0</ele><time>2026-03-22T10:10:56.058Z</time></trkpt><trkpt lat="41.458012" lon="13.1783598"><ele>115.4</ele><time>2026-03-22T10:10:58.052Z</time></trkpt><trkpt lat="41.4579454" lon="13.1783236"><ele>114.8</ele><time>2026-03-22T10:10:59.046Z</time></trkpt><trkpt lat="41.4578667" lon="13.1782959"><ele>114.20000000000002</ele><time>2026-03-22T10:11:00.054Z</time></trkpt><trkpt lat="41.4577768" lon="13.1782655"><ele>113.60000000000001</ele><time>2026-03-22T10:11:01.05Z</time></trkpt><trkpt lat="41.4576814" lon="13.1782124"><ele>113.0</ele><time>2026-03-22T10:11:02.054Z</time></trkpt><trkpt lat="41.4575843" lon="13.1781316"><ele>112.75</ele><time>2026-03-22T10:11:03.054Z</time></trkpt><trkpt lat="41.4575009" lon="13.1780358"><ele>112.5</ele><time>2026-03-22T10:11:04.047Z</time></trkpt><trkpt lat="41.4574185" lon="13.1779214"><ele>112.25</ele><time>2026-03-22T10:11:05.061Z</time></trkpt><trkpt lat="41.4573361" lon="13.1778069"><ele>112.0</ele><time>2026-03-22T10:11:06.048Z</time></trkpt><trkpt lat="41.4572539" lon="13.1777003"><ele>112.0</ele><time>2026-03-22T10:11:07.053Z</time></trkpt><trkpt lat="41.4571788" lon="13.1776126"><ele>111.99999999999999</ele><time>2026-03-22T10:11:08.048Z</time></trkpt><trkpt lat="41.4571073" lon="13.1775478"><ele>111.99999999999999</ele><time>2026-03-22T10:11:09.049Z</time></trkpt><trkpt lat="41.4570366" lon="13.1775121"><ele>112.0</ele><time>2026-03-22T10:11:10.049Z</time></trkpt><trkpt lat="41.4569679" lon="13.1775071"><ele>112.0</ele><time>2026-03-22T10:11:11.046Z</time></trkpt><trkpt lat="41.4568526" lon="13.1775799"><ele>112.8</ele><time>2026-03-22T10:11:13.047Z</time></trkpt><trkpt lat="41.4567943" lon="13.177668"><ele>113.6</ele><time>2026-03-22T10:11:14.051Z</time></trkpt><trkpt lat="41.4567341" lon="13.1777809"><ele>114.39999999999999</ele><time>2026-03-22T10:11:15.048Z</time></trkpt><trkpt lat="41.4566632" lon="13.177894"><ele>115.19999999999999</ele><time>2026-03-22T10:11:16.052Z</time></trkpt><trkpt lat="41.4565911" lon="13.1779947"><ele>116.0</ele><time>2026-03-22T10:11:17.05Z</time></trkpt><trkpt lat="41.4565186" lon="13.1780906"><ele>115.99999999999999</ele><time>2026-03-22T10:11:18.047Z</time></trkpt><trkpt lat="41.4564571" lon="13.1781688"><ele>116.0</ele><time>2026-03-22T10:11:19.051Z</time></trkpt><trkpt lat="41.4564074" lon="13.1782321"><ele>116.0</ele><time>2026-03-22T10:11:20.056Z</time></trkpt><trkpt lat="41.4563206" lon="13.1782738"><ele>116.0</ele><time>2026-03-22T10:11:22.048Z</time></trkpt><trkpt lat="41.4562265" lon="13.1782124"><ele>115.99999999999999</ele><time>2026-03-22T10:11:24.051Z</time></trkpt><trkpt lat="41.456175" lon="13.1781401"><ele>116.0</ele><time>2026-03-22T10:11:25.055Z</time></trkpt><trkpt lat="41.4561208" lon="13.1780561"><ele>116.66666666666666</ele><time>2026-03-22T10:11:26.064Z</time></trkpt><trkpt lat="41.4560644" lon="13.177968"><ele>117.33333333333333</ele><time>2026-03-22T10:11:27.046Z</time></trkpt><trkpt lat="41.4559916" lon="13.1779061"><ele>118.0</ele><time>2026-03-22T10:11:28.048Z</time></trkpt><trkpt lat="41.4559146" lon="13.1778541"><ele>118.66666666666666</ele><time>2026-03-22T10:11:29.051Z</time></trkpt><trkpt lat="41.4558473" lon="13.1778069"><ele>119.33333333333333</ele><time>2026-03-22T10:11:30.049Z</time></trkpt><trkpt lat="41.4557825" lon="13.1777563"><ele>120.0</ele><time>2026-03-22T10:11:31.049Z</time></trkpt><trkpt lat="41.4557136" lon="13.1777025"><ele>120.0</ele><time>2026-03-22T10:11:32.047Z</time></trkpt><trkpt lat="41.4556446" lon="13.1776488"><ele>120.0</ele><time>2026-03-22T10:11:33.05Z</time></trkpt><trkpt lat="41.4555297" lon="13.1776445"><ele>120.0</ele><time>2026-03-22T10:11:35.058Z</time></trkpt><trkpt lat="41.4554278" lon="13.1777397"><ele>120.0</ele><time>2026-03-22T10:11:37.053Z</time></trkpt><trkpt lat="41.4553274" lon="13.1778058"><ele>120.0</ele><time>2026-03-22T10:11:39.056Z</time></trkpt><trkpt lat="41.4552265" lon="13.1778063"><ele>121.16666666666667</ele><time>2026-03-22T10:11:41.053Z</time></trkpt><trkpt lat="41.455156" lon="13.1778156"><ele>122.33333333333334</ele><time>2026-03-22T10:11:43.048Z</time></trkpt><trkpt lat="41.455101" lon="13.177906"><ele>123.5</ele><time>2026-03-22T10:11:45.049Z</time></trkpt><trkpt lat="41.455083" lon="13.1779978"><ele>124.66666666666667</ele><time>2026-03-22T10:11:46.05Z</time></trkpt><trkpt lat="41.4550829" lon="13.1780973"><ele>125.83333333333334</ele><time>2026-03-22T10:11:47.062Z</time></trkpt><trkpt lat="41.4550839" lon="13.178188"><ele>127.0</ele><time>2026-03-22T10:11:48.046Z</time></trkpt><trkpt lat="41.4550879" lon="13.1782946"><ele>128.5</ele><time>2026-03-22T10:11:49.046Z</time></trkpt><trkpt lat="41.4551063" lon="13.1784134"><ele>130.0</ele><time>2026-03-22T10:11:50.055Z</time></trkpt><trkpt lat="41.4551258" lon="13.1785217"><ele>131.5</ele><time>2026-03-22T10:11:51.042Z</time></trkpt><trkpt lat="41.455144" lon="13.1786182"><ele>133.0</ele><time>2026-03-22T10:11:52.06Z</time></trkpt><trkpt lat="41.4551848" lon="13.1787549"><ele>134.5</ele><time>2026-03-22T10:11:54.061Z</time></trkpt><trkpt lat="41.4552515" lon="13.1788214"><ele>136.0</ele><time>2026-03-22T10:11:56.05Z</time></trkpt><trkpt lat="41.4553233" lon="13.1789178"><ele>135.99999999999997</ele><time>2026-03-22T10:11:58.055Z</time></trkpt><trkpt lat="41.4553691" lon="13.1789769"><ele>136.0</ele><time>2026-03-22T10:11:59.044Z</time></trkpt><trkpt lat="41.4554212" lon="13.179043"><ele>136.0</ele><time>2026-03-22T10:12:00.047Z</time></trkpt><trkpt lat="41.4554682" lon="13.1791023"><ele>136.0</ele><time>2026-03-22T10:12:01.046Z</time></trkpt><trkpt lat="41.455518" lon="13.1791657"><ele>136.0</ele><time>2026-03-22T10:12:02.05Z</time></trkpt><trkpt lat="41.4555661" lon="13.1792329"><ele>135.99999999999997</ele><time>2026-03-22T10:12:03.048Z</time></trkpt><trkpt lat="41.4556149" lon="13.1793217"><ele>136.0</ele><time>2026-03-22T10:12:04.045Z</time></trkpt><trkpt lat="41.4556518" lon="13.1794239"><ele>134.5</ele><time>2026-03-22T10:12:05.045Z</time></trkpt><trkpt lat="41.4556768" lon="13.1795388"><ele>133.0</ele><time>2026-03-22T10:12:06.046Z</time></trkpt><trkpt lat="41.4556912" lon="13.1796677"><ele>131.5</ele><time>2026-03-22T10:12:07.047Z</time></trkpt><trkpt lat="41.4557011" lon="13.1797969"><ele>130.0</ele><time>2026-03-22T10:12:08.055Z</time></trkpt><trkpt lat="41.4557057" lon="13.1799094"><ele>128.5</ele><time>2026-03-22T10:12:09.047Z</time></trkpt><trkpt lat="41.4557084" lon="13.1800139"><ele>127.0</ele><time>2026-03-22T10:12:10.055Z</time></trkpt><trkpt lat="41.4557116" lon="13.1801127"><ele>125.6</ele><time>2026-03-22T10:12:11.053Z</time></trkpt><trkpt lat="41.4557155" lon="13.1802044"><ele>124.19999999999999</ele><time>2026-03-22T10:12:12.051Z</time></trkpt><trkpt lat="41.4557161" lon="13.1802902"><ele>122.8</ele><time>2026-03-22T10:12:13.056Z</time></trkpt><trkpt lat="41.4557164" lon="13.1804395"><ele>121.4</ele><time>2026-03-22T10:12:15.047Z</time></trkpt><trkpt lat="41.4557033" lon="13.1805681"><ele>120.0</ele><time>2026-03-22T10:12:17.049Z</time></trkpt><trkpt lat="41.4556711" lon="13.1807196"><ele>119.83333333333333</ele><time>2026-03-22T10:12:19.049Z</time></trkpt><trkpt lat="41.4556395" lon="13.1808087"><ele>119.66666666666666</ele><time>2026-03-22T10:12:20.049Z</time></trkpt><trkpt lat="41.4555944" lon="13.1809028"><ele>119.5</ele><time>2026-03-22T10:12:21.05Z</time></trkpt><trkpt lat="41.4555284" lon="13.1809947"><ele>119.33333333333333</ele><time>2026-03-22T10:12:22.045Z</time></trkpt><trkpt lat="41.4554534" lon="13.1810691"><ele>119.16666666666666</ele><time>2026-03-22T10:12:23.046Z</time></trkpt><trkpt lat="41.4553811" lon="13.1811261"><ele>119.0</ele><time>2026-03-22T10:12:24.048Z</time></trkpt><trkpt lat="41.4553092" lon="13.1811803"><ele>120.66666666666666</ele><time>2026-03-22T10:12:25.048Z</time></trkpt><trkpt lat="41.4552416" lon="13.1812409"><ele>122.33333333333333</ele><time>2026-03-22T10:12:26.052Z</time></trkpt><trkpt lat="41.4551714" lon="13.181303"><ele>124.0</ele><time>2026-03-22T10:12:27.048Z</time></trkpt><trkpt lat="41.4550995" lon="13.1813648"><ele>125.66666666666666</ele><time>2026-03-22T10:12:28.043Z</time></trkpt><trkpt lat="41.4550246" lon="13.1814142"><ele>127.33333333333333</ele><time>2026-03-22T10:12:29.051Z</time></trkpt><trkpt lat="41.4549566" lon="13.1814376"><ele>129.0</ele><time>2026-03-22T10:12:30.047Z</time></trkpt><trkpt lat="41.4548867" lon="13.1814507"><ele>129.0</ele><time>2026-03-22T10:12:31.046Z</time></trkpt><trkpt lat="41.4548095" lon="13.1814627"><ele>129.0</ele><time>2026-03-22T10:12:32.042Z</time></trkpt><trkpt lat="41.4547249" lon="13.1814782"><ele>129.0</ele><time>2026-03-22T10:12:33.044Z</time></trkpt><trkpt lat="41.4546444" lon="13.1815202"><ele>129.0</ele><time>2026-03-22T10:12:34.047Z</time></trkpt><trkpt lat="41.4545776" lon="13.181595"><ele>129.0</ele><time>2026-03-22T10:12:35.042Z</time></trkpt><trkpt lat="41.4545134" lon="13.1816699"><ele>129.0</ele><time>2026-03-22T10:12:36.042Z</time></trkpt><trkpt lat="41.4544475" lon="13.1817432"><ele>130.0</ele><time>2026-03-22T10:12:37.048Z</time></trkpt><trkpt lat="41.4543779" lon="13.1818216"><ele>131.0</ele><time>2026-03-22T10:12:38.046Z</time></trkpt><trkpt lat="41.4543065" lon="13.1818965"><ele>132.0</ele><time>2026-03-22T10:12:39.058Z</time></trkpt><trkpt lat="41.454235" lon="13.1819664"><ele>133.0</ele><time>2026-03-22T10:12:40.056Z</time></trkpt><trkpt lat="41.4541644" lon="13.1820348"><ele>134.0</ele><time>2026-03-22T10:12:41.049Z</time></trkpt><trkpt lat="41.454096" lon="13.1821013"><ele>135.0</ele><time>2026-03-22T10:12:42.055Z</time></trkpt><trkpt lat="41.4540296" lon="13.1821634"><ele>135.0</ele><time>2026-03-22T10:12:43.049Z</time></trkpt><trkpt lat="41.4539643" lon="13.1822206"><ele>135.0</ele><time>2026-03-22T10:12:44.053Z</time></trkpt><trkpt lat="41.4538943" lon="13.1822612"><ele>135.0</ele><time>2026-03-22T10:12:45.053Z</time></trkpt><trkpt lat="41.4538124" lon="13.1822716"><ele>135.0</ele><time>2026-03-22T10:12:46.056Z</time></trkpt><trkpt lat="41.4537281" lon="13.1822817"><ele>135.0</ele><time>2026-03-22T10:12:47.053Z</time></trkpt><trkpt lat="41.4536583" lon="13.1822944"><ele>135.0</ele><time>2026-03-22T10:12:48.052Z</time></trkpt><trkpt lat="41.4535926" lon="13.1823045"><ele>135.83333333333334</ele><time>2026-03-22T10:12:49.059Z</time></trkpt><trkpt lat="41.4535282" lon="13.1822832"><ele>136.66666666666666</ele><time>2026-03-22T10:12:50.046Z</time></trkpt><trkpt lat="41.4534662" lon="13.1822263"><ele>137.5</ele><time>2026-03-22T10:12:51.04Z</time></trkpt><trkpt lat="41.4533927" lon="13.1821695"><ele>138.33333333333331</ele><time>2026-03-22T10:12:52.049Z</time></trkpt><trkpt lat="41.4533044" lon="13.1821368"><ele>139.16666666666666</ele><time>2026-03-22T10:12:53.046Z</time></trkpt><trkpt lat="41.4532121" lon="13.1820935"><ele>140.0</ele><time>2026-03-22T10:12:54.061Z</time></trkpt><trkpt lat="41.4531169" lon="13.182038"><ele>140.0</ele><time>2026-03-22T10:12:55.051Z</time></trkpt><trkpt lat="41.4530203" lon="13.1819785"><ele>140.0</ele><time>2026-03-22T10:12:56.049Z</time></trkpt><trkpt lat="41.4529264" lon="13.1819086"><ele>140.0</ele><time>2026-03-22T10:12:57.049Z</time></trkpt><trkpt lat="41.4528317" lon="13.1818392"><ele>140.0</ele><time>2026-03-22T10:12:58.046Z</time></trkpt><trkpt lat="41.4527408" lon="13.1817476"><ele>140.0</ele><time>2026-03-22T10:12:59.042Z</time></trkpt><trkpt lat="41.4526728" lon="13.1816414"><ele>140.4</ele><time>2026-03-22T10:13:00.051Z</time></trkpt><trkpt lat="41.4526046" lon="13.1815377"><ele>140.8</ele><time>2026-03-22T10:13:01.049Z</time></trkpt><trkpt lat="41.4525254" lon="13.1814306"><ele>141.2</ele><time>2026-03-22T10:13:02.046Z</time></trkpt><trkpt lat="41.4524311" lon="13.1813312"><ele>141.6</ele><time>2026-03-22T10:13:03.048Z</time></trkpt><trkpt lat="41.4523371" lon="13.1812512"><ele>142.0</ele><time>2026-03-22T10:13:04.053Z</time></trkpt><trkpt lat="41.4522498" lon="13.1812128"><ele>142.0</ele><time>2026-03-22T10:13:05.045Z</time></trkpt><trkpt lat="41.4521631" lon="13.1812037"><ele>142.0</ele><time>2026-03-22T10:13:06.058Z</time></trkpt><trkpt lat="41.452063" lon="13.1812374"><ele>142.0</ele><time>2026-03-22T10:13:07.049Z</time></trkpt><trkpt lat="41.4519566" lon="13.181305"><ele>142.0</ele><time>2026-03-22T10:13:08.049Z</time></trkpt><trkpt lat="41.4518649" lon="13.1813678"><ele>142.0</ele><time>2026-03-22T10:13:09.04Z</time></trkpt><trkpt lat="41.4517885" lon="13.1814321"><ele>142.5</ele><time>2026-03-22T10:13:10.046Z</time></trkpt><trkpt lat="41.4517289" lon="13.1814651"><ele>143.0</ele><time>2026-03-22T10:13:11.047Z</time></trkpt><trkpt lat="41.4516655" lon="13.1814711"><ele>143.5</ele><time>2026-03-22T10:13:12.053Z</time></trkpt><trkpt lat="41.4515488" lon="13.1814037"><ele>144.0</ele><time>2026-03-22T10:13:14.062Z</time></trkpt><trkpt lat="41.451482" lon="13.181382"><ele>144.5</ele><time>2026-03-22T10:13:15.048Z</time></trkpt><trkpt lat="41.4514141" lon="13.1813717"><ele>145.0</ele><time>2026-03-22T10:13:16.054Z</time></trkpt><trkpt lat="41.4513406" lon="13.1813886"><ele>143.33333333333334</ele><time>2026-03-22T10:13:17.04Z</time></trkpt><trkpt lat="41.4512761" lon="13.1814258"><ele>141.66666666666669</ele><time>2026-03-22T10:13:18.047Z</time></trkpt><trkpt lat="41.4511856" lon="13.181486"><ele>140.0</ele><time>2026-03-22T10:13:20.05Z</time></trkpt><trkpt lat="41.4511398" lon="13.1815601"><ele>138.33333333333334</ele><time>2026-03-22T10:13:22.067Z</time></trkpt><trkpt lat="41.4511342" lon="13.1816647"><ele>136.66666666666666</ele><time>2026-03-22T10:13:36.049Z</time></trkpt><trkpt lat="41.4511478" lon="13.1817636"><ele>135.0</ele><time>2026-03-22T10:13:38.05Z</time></trkpt><trkpt lat="41.4511696" lon="13.1819529"><ele>133.66666666666666</ele><time>2026-03-22T10:13:40.056Z</time></trkpt><trkpt lat="41.4511796" lon="13.1820727"><ele>132.33333333333334</ele><time>2026-03-22T10:13:41.046Z</time></trkpt><trkpt lat="41.4511875" lon="13.1821886"><ele>131.0</ele><time>2026-03-22T10:13:42.047Z</time></trkpt><trkpt lat="41.4511943" lon="13.1823178"><ele>129.66666666666669</ele><time>2026-03-22T10:13:43.049Z</time></trkpt><trkpt lat="41.4511983" lon="13.1824273"><ele>128.33333333333334</ele><time>2026-03-22T10:13:44.055Z</time></trkpt><trkpt lat="41.451194" lon="13.1825183"><ele>127.0</ele><time>2026-03-22T10:13:45.047Z</time></trkpt><trkpt lat="41.4511685" lon="13.182597"><ele>126.6</ele><time>2026-03-22T10:13:46.054Z</time></trkpt><trkpt lat="41.4511417" lon="13.1827404"><ele>126.19999999999999</ele><time>2026-03-22T10:13:48.044Z</time></trkpt><trkpt lat="41.4511123" lon="13.1828437"><ele>125.8</ele><time>2026-03-22T10:13:50.055Z</time></trkpt><trkpt lat="41.4510214" lon="13.1829604"><ele>125.4</ele><time>2026-03-22T10:13:52.048Z</time></trkpt><trkpt lat="41.4509321" lon="13.1830667"><ele>125.0</ele><time>2026-03-22T10:13:54.045Z</time></trkpt><trkpt lat="41.4508699" lon="13.1830949"><ele>125.0</ele><time>2026-03-22T10:13:55.05Z</time></trkpt><trkpt lat="41.4508067" lon="13.1831305"><ele>125.0</ele><time>2026-03-22T10:13:56.049Z</time></trkpt><trkpt lat="41.450751" lon="13.1831859"><ele>125.0</ele><time>2026-03-22T10:13:57.051Z</time></trkpt><trkpt lat="41.4507028" lon="13.1832588"><ele>125.0</ele><time>2026-03-22T10:13:58.057Z</time></trkpt><trkpt lat="41.4506574" lon="13.1833339"><ele>125.0</ele><time>2026-03-22T10:13:59.05Z</time></trkpt><trkpt lat="41.4506195" lon="13.1834176"><ele>125.0</ele><time>2026-03-22T10:14:00.053Z</time></trkpt><trkpt lat="41.4505856" lon="13.1835081"><ele>125.0</ele><time>2026-03-22T10:14:01.048Z</time></trkpt><trkpt lat="41.4505486" lon="13.1835824"><ele>124.0</ele><time>2026-03-22T10:14:02.049Z</time></trkpt><trkpt lat="41.4504787" lon="13.1837046"><ele>123.0</ele><time>2026-03-22T10:14:04.046Z</time></trkpt><trkpt lat="41.4504148" lon="13.1838134"><ele>122.0</ele><time>2026-03-22T10:14:06.044Z</time></trkpt><trkpt lat="41.450332" lon="13.1838914"><ele>121.0</ele><time>2026-03-22T10:14:08.058Z</time></trkpt><trkpt lat="41.4502549" lon="13.1839979"><ele>120.0</ele><time>2026-03-22T10:14:10.045Z</time></trkpt><trkpt lat="41.4501715" lon="13.1840687"><ele>118.4</ele><time>2026-03-22T10:14:12.045Z</time></trkpt><trkpt lat="41.450071" lon="13.1841196"><ele>116.8</ele><time>2026-03-22T10:14:14.046Z</time></trkpt><trkpt lat="41.4500275" lon="13.1842279"><ele>115.19999999999999</ele><time>2026-03-22T10:14:16.067Z</time></trkpt><trkpt lat="41.4500421" lon="13.1843404"><ele>113.6</ele><time>2026-03-22T10:14:18.053Z</time></trkpt><trkpt lat="41.4500965" lon="13.1844702"><ele>112.0</ele><time>2026-03-22T10:14:20.048Z</time></trkpt><trkpt lat="41.4501392" lon="13.1846065"><ele>112.0</ele><time>2026-03-22T10:14:22.054Z</time></trkpt><trkpt lat="41.4501645" lon="13.1847087"><ele>111.99999999999999</ele><time>2026-03-22T10:14:23.048Z</time></trkpt><trkpt lat="41.4501938" lon="13.1848258"><ele>111.99999999999999</ele><time>2026-03-22T10:14:24.044Z</time></trkpt><trkpt lat="41.4502247" lon="13.1849456"><ele>112.0</ele><time>2026-03-22T10:14:25.047Z</time></trkpt><trkpt lat="41.4502504" lon="13.1850696"><ele>112.0</ele><time>2026-03-22T10:14:26.049Z</time></trkpt><trkpt lat="41.450273" lon="13.1851916"><ele>110.83333333333334</ele><time>2026-03-22T10:14:27.055Z</time></trkpt><trkpt lat="41.4502927" lon="13.1852926"><ele>109.66666666666667</ele><time>2026-03-22T10:14:28.063Z</time></trkpt><trkpt lat="41.4503207" lon="13.185384"><ele>108.5</ele><time>2026-03-22T10:14:29.057Z</time></trkpt><trkpt lat="41.4503861" lon="13.1855181"><ele>107.33333333333334</ele><time>2026-03-22T10:14:31.055Z</time></trkpt><trkpt lat="41.4504535" lon="13.1856186"><ele>106.16666666666667</ele><time>2026-03-22T10:14:33.066Z</time></trkpt><trkpt lat="41.4505068" lon="13.1856821"><ele>105.0</ele><time>2026-03-22T10:14:35.044Z</time></trkpt><trkpt lat="41.4505734" lon="13.185702"><ele>105.0</ele><time>2026-03-22T10:14:37.05Z</time></trkpt><trkpt lat="41.450652" lon="13.1857309"><ele>105.0</ele><time>2026-03-22T10:14:39.047Z</time></trkpt><trkpt lat="41.4507161" lon="13.1857366"><ele>105.0</ele><time>2026-03-22T10:14:42.057Z</time></trkpt><trkpt lat="41.4507272" lon="13.1856325"><ele>105.0</ele><time>2026-03-22T10:14:47.046Z</time></trkpt><trkpt lat="41.4507199" lon="13.1855473"><ele>105.0</ele><time>2026-03-22T10:14:50.046Z</time></trkpt><trkpt lat="41.4507087" lon="13.1853946"><ele>105.0</ele><time>2026-03-22T10:14:53.045Z</time></trkpt><trkpt lat="41.4507095" lon="13.1852667"><ele>105.33333333333333</ele><time>2026-03-22T10:14:55.057Z</time></trkpt><trkpt lat="41.4507189" lon="13.1851576"><ele>105.66666666666666</ele><time>2026-03-22T10:14:57.052Z</time></trkpt><trkpt lat="41.4507618" lon="13.1850231"><ele>106.0</ele><time>2026-03-22T10:14:59.045Z</time></trkpt><trkpt lat="41.4507981" lon="13.1849381"><ele>106.33333333333333</ele><time>2026-03-22T10:15:01.046Z</time></trkpt><trkpt lat="41.4508421" lon="13.1848424"><ele>106.66666666666666</ele><time>2026-03-22T10:15:03.054Z</time></trkpt><trkpt lat="41.4509126" lon="13.1847797"><ele>107.0</ele><time>2026-03-22T10:15:05.049Z</time></trkpt><trkpt lat="41.4509895" lon="13.1847716"><ele>107.0</ele><time>2026-03-22T10:15:07.049Z</time></trkpt><trkpt lat="41.4510684" lon="13.1848168"><ele>107.0</ele><time>2026-03-22T10:15:10.048Z</time></trkpt><trkpt lat="41.4511173" lon="13.1848877"><ele>101.0</ele><time>2026-03-22T10:15:14.06Z</time></trkpt></trkseg></trk></gpx>